GFSSW_prec_precacc24_024.txt.gz
Total_Precipitation_Accumulation
0.00 0.00 0.00 0.00 0.01 0.01 0.00 0.00 0.01 0.02 0.06 0.09 0.09 0.11 0.08 0.09 0.04 0.03 0.02 0.00 0.00 0.00 0.00 0.00 0.00 0.00 0.00 0.00 0.00 0.00 0.00 0.00 0.00 0.00 0.00 0.00 0.00 0.00 0.00 0.00 0.00 0.00 0.00 0.00 0.00
0.00 0.00 0.00 0.00 0.01 0.01 0.02 0.01 0.01 0.01 0.01 0.02 0.05 0.08 0.09 0.06 0.03 0.05 0.00 0.00 0.00 0.00 0.00 0.00 0.00 0.01 0.01 0.00 0.00 0.00 0.00 0.00 0.00 0.00 0.00 0.00 0.00 0.00 0.00 0.00 0.00 0.00 0.00 0.00 0.00
0.00 0.01 0.02 0.03 0.02 0.01 0.02 0.03 0.04 0.04 0.03 0.02 0.02 0.05 0.11 0.07 0.04 0.01 0.00 0.00 0.00 0.00 0.01 0.01 0.01 0.03 0.04 0.01 0.00 0.00 0.00 0.00 0.00 0.00 0.00 0.00 0.00 0.00 0.00 0.00 0.00 0.00 0.00 0.00 0.00
0.02 0.02 0.05 0.06 0.04 0.06 0.09 0.07 0.05 0.04 0.03 0.05 0.06 0.11 0.16 0.14 0.02 0.00 0.00 0.00 0.00 0.01 0.04 0.02 0.01 0.02 0.03 0.02 0.00 0.00 0.00 0.00 0.00 0.00 0.00 0.00 0.00 0.00 0.00 0.00 0.00 0.00 0.00 0.00 0.00
0.03 0.02 0.01 0.02 0.03 0.01 0.01 0.05 0.06 0.06 0.07 0.10 0.15 0.19 0.21 0.13 0.02 0.00 0.00 0.00 0.00 0.04 0.05 0.04 0.03 0.02 0.03 0.01 0.01 0.00 0.00 0.00 0.00 0.00 0.00 0.00 0.00 0.00 0.00 0.00 0.00 0.00 0.00 0.00 0.00
0.01 0.01 0.00 0.00 0.00 0.00 0.00 0.02 0.05 0.07 0.12 0.09 0.18 0.34 0.17 0.04 0.00 0.00 0.01 0.00 0.00 0.02 0.07 0.06 0.03 0.01 0.02 0.01 0.01 0.00 0.00 0.00 0.00 0.00 0.00 0.00 0.00 0.00 0.00 0.00 0.00 0.00 0.00 0.00 0.00
0.05 0.03 0.01 0.00 0.00 0.00 0.01 0.00 0.01 0.07 0.19 0.21 0.27 0.31 0.14 0.01 0.00 0.00 0.03 0.01 0.00 0.02 0.07 0.02 0.04 0.06 0.02 0.03 0.00 0.00 0.00 0.00 0.00 0.00 0.00 0.00 0.00 0.00 0.00 0.00 0.00 0.00 0.00 0.00 0.00
0.07 0.04 0.02 0.03 0.03 0.03 0.05 0.04 0.04 0.07 0.10 0.23 0.52 0.50 0.09 0.01 0.01 0.00 0.03 0.07 0.01 0.04 0.21 0.21 0.16 0.10 0.08 0.05 0.03 0.03 0.05 0.02 0.00 0.00 0.00 0.00 0.00 0.00 0.00 0.00 0.00 0.00 0.00 0.00 0.00
0.05 0.05 0.11 0.19 0.07 0.06 0.07 0.12 0.20 0.31 0.26 0.40 0.50 0.34 0.04 0.04 0.06 0.00 0.03 0.09 0.01 0.04 0.19 0.35 0.27 0.18 0.09 0.10 0.10 0.07 0.03 0.01 0.00 0.00 0.00 0.00 0.00 0.00 0.00 0.00 0.00 0.00 0.00 0.00 0.00
0.06 0.09 0.18 0.33 0.23 0.13 0.14 0.35 0.51 0.93 0.51 0.47 0.38 0.31 0.02 0.03 0.04 0.04 0.07 0.15 0.06 0.13 0.38 0.57 0.44 0.28 0.17 0.14 0.07 0.02 0.01 0.01 0.00 0.00 0.00 0.00 0.00 0.00 0.00 0.00 0.00 0.00 0.00 0.00 0.00
0.09 0.08 0.11 0.20 0.29 0.27 0.45 0.74 0.57 0.61 0.22 0.07 0.08 0.07 0.03 0.07 0.13 0.17 0.13 0.20 0.12 0.25 0.41 0.63 0.57 0.35 0.16 0.06 0.01 0.01 0.02 0.01 0.00 0.00 0.00 0.00 0.00 0.00 0.00 0.00 0.00 0.00 0.00 0.00 0.00
0.06 0.08 0.17 0.22 0.35 0.61 0.93 0.68 0.25 0.15 0.16 0.18 0.02 0.06 0.18 0.31 0.33 0.50 0.22 0.23 0.14 0.21 0.33 0.78 0.45 0.14 0.10 0.05 0.05 0.02 0.04 0.02 0.00 0.00 0.00 0.00 0.00 0.00 0.00 0.00 0.00 0.00 0.00 0.00 0.00
0.10 0.15 0.28 0.36 0.43 0.67 0.65 0.71 0.42 0.34 0.95 0.47 0.04 0.13 0.25 0.65 0.40 0.81 0.31 0.28 0.11 0.20 0.37 0.61 0.35 0.15 0.12 0.19 0.12 0.11 0.04 0.03 0.00 0.00 0.00 0.00 0.00 0.00 0.00 0.00 0.00 0.00 0.00 0.00 0.00
0.15 0.28 0.44 0.57 0.73 0.51 0.77 0.71 0.65 0.82 1.40 0.52 0.25 0.28 0.44 1.02 0.56 0.58 0.40 0.38 0.32 0.21 0.31 0.44 0.44 0.24 0.21 0.29 0.10 0.16 0.04 0.02 0.03 0.03 0.01 0.00 0.00 0.00 0.00 0.00 0.00 0.00 0.00 0.00 0.00
0.10 0.23 0.52 0.92 1.10 0.84 0.97 1.04 1.15 1.44 1.17 0.53 0.51 0.51 0.66 0.83 0.57 0.53 0.47 0.48 0.37 0.25 0.48 0.55 0.49 0.24 0.32 0.22 0.14 0.07 0.06 0.02 0.02 0.03 0.02 0.01 0.00 0.00 0.00 0.00 0.00 0.00 0.00 0.00 0.00
0.05 0.18 0.57 1.30 1.47 1.14 1.11 1.11 1.35 1.48 0.92 0.55 0.65 0.80 0.59 0.59 0.44 0.63 0.64 0.49 0.55 0.34 0.28 0.23 0.40 0.30 0.21 0.13 0.20 0.10 0.14 0.18 0.08 0.03 0.02 0.00 0.00 0.00 0.00 0.00 0.00 0.00 0.00 0.00 0.00
0.04 0.06 0.22 0.63 1.16 1.29 1.24 1.25 1.31 0.78 0.56 0.65 0.71 0.54 0.44 0.47 0.40 0.48 0.79 0.73 1.17 0.47 0.46 0.48 0.67 0.57 0.24 0.31 0.40 0.36 0.33 0.41 0.25 0.09 0.02 0.00 0.00 0.00 0.00 0.00 0.00 0.00 0.00 0.00 0.00
0.04 0.09 0.07 0.11 1.11 1.36 1.47 1.37 0.83 0.28 0.45 0.68 0.52 0.47 0.45 0.38 0.30 0.37 0.61 0.55 0.51 0.16 0.40 0.48 0.64 0.70 0.32 0.57 0.67 0.50 0.39 0.13 0.07 0.02 0.00 0.00 0.00 0.00 0.00 0.00 0.00 0.00 0.00 0.00 0.00
0.11 0.09 0.11 0.03 0.90 1.41 1.49 1.10 0.41 0.39 0.58 0.68 0.66 0.62 0.44 0.25 0.25 0.37 0.54 0.27 0.21 0.12 0.44 0.25 0.51 0.51 0.20 0.46 0.38 0.42 0.23 0.06 0.01 0.00 0.00 0.00 0.00 0.00 0.00 0.00 0.00 0.00 0.00 0.00 0.00
0.09 0.11 0.07 0.09 0.76 1.40 1.53 0.84 0.53 0.70 0.63 0.49 0.42 0.39 0.18 0.13 0.23 0.30 0.41 0.17 0.08 0.04 0.21 0.20 0.54 0.53 0.31 0.57 0.44 0.30 0.10 0.02 0.03 0.01 0.01 0.00 0.00 0.00 0.00 0.00 0.00 0.00 0.00 0.00 0.00
0.09 0.13 0.03 0.24 0.89 1.43 1.13 0.84 0.62 0.49 0.52 0.47 0.14 0.09 0.01 0.06 0.14 0.16 0.21 0.11 0.03 0.02 0.16 0.33 0.55 0.64 0.47 0.56 0.41 0.19 0.07 0.02 0.01 0.01 0.01 0.00 0.00 0.00 0.00 0.00 0.00 0.00 0.00 0.00 0.00
0.10 0.08 0.08 0.32 0.78 0.71 0.84 0.91 0.65 0.39 0.45 0.39 0.12 0.02 0.02 0.03 0.10 0.13 0.08 0.03 0.01 0.01 0.10 0.31 0.43 0.62 0.32 0.11 0.12 0.03 0.01 0.00 0.01 0.01 0.02 0.00 0.00 0.00 0.00 0.00 0.00 0.00 0.00 0.00 0.00
0.07 0.11 0.37 0.30 0.38 0.43 0.57 0.66 0.63 0.48 0.39 0.39 0.11 0.04 0.01 0.01 0.07 0.06 0.04 0.00 0.00 0.00 0.01 0.15 0.37 0.51 0.36 0.15 0.11 0.04 0.01 0.00 0.00 0.00 0.00 0.00 0.00 0.00 0.00 0.00 0.00 0.00 0.00 0.00 0.00
0.07 0.12 0.38 0.37 0.17 0.43 0.59 0.64 0.65 0.43 0.29 0.34 0.10 0.04 0.01 0.01 0.02 0.03 0.03 0.00 0.00 0.00 0.00 0.08 0.25 0.32 0.16 0.08 0.02 0.00 0.00 0.00 0.00 0.00 0.00 0.00 0.00 0.00 0.00 0.00 0.00 0.00 0.00 0.00 0.00
0.06 0.05 0.04 0.08 0.04 0.18 0.49 0.69 0.69 0.66 0.34 0.40 0.26 0.03 0.01 0.01 0.02 0.01 0.01 0.00 0.00 0.00 0.00 0.01 0.05 0.07 0.04 0.00 0.00 0.01 0.00 0.00 0.00 0.00 0.00 0.00 0.00 0.00 0.00 0.00 0.00 0.00 0.00 0.00 0.00
0.05 0.01 0.02 0.01 0.00 0.05 0.34 0.47 0.50 0.46 0.37 0.23 0.14 0.02 0.01 0.01 0.00 0.00 0.00 0.00 0.00 0.00 0.00 0.00 0.00 0.00 0.00 0.00 0.00 0.00 0.00 0.00 0.00 0.00 0.00 0.00 0.00 0.00 0.00 0.00 0.00 0.00 0.00 0.00 0.00
0.04 0.00 0.01 0.01 0.01 0.05 0.11 0.36 0.55 0.46 0.22 0.05 0.04 0.01 0.04 0.01 0.00 0.01 0.00 0.00 0.00 0.00 0.00 0.00 0.00 0.00 0.00 0.00 0.00 0.00 0.00 0.00 0.00 0.00 0.00 0.00 0.00 0.00 0.00 0.00 0.00 0.00 0.00 0.00 0.00

GFSSW_prec_precacc24_027.txt.gz
Total_Precipitation_Accumulation
0.00 0.00 0.00 0.00 0.00 0.00 0.00 0.00 0.00 0.02 0.05 0.09 0.12 0.12 0.09 0.08 0.04 0.02 0.01 0.00 0.00 0.00 0.00 0.00 0.00 0.00 0.00 0.00 0.00 0.00 0.00 0.00 0.00 0.00 0.00 0.00 0.00 0.00 0.00 0.00 0.00 0.00 0.00 0.00 0.00
0.00 0.00 0.00 0.00 0.00 0.01 0.02 0.01 0.01 0.01 0.01 0.02 0.05 0.08 0.09 0.05 0.03 0.05 0.00 0.00 0.00 0.00 0.00 0.00 0.00 0.01 0.01 0.00 0.00 0.00 0.00 0.00 0.00 0.00 0.00 0.00 0.00 0.00 0.00 0.00 0.00 0.00 0.00 0.00 0.00
0.00 0.00 0.00 0.00 0.00 0.01 0.02 0.03 0.03 0.03 0.03 0.02 0.02 0.05 0.11 0.04 0.03 0.01 0.00 0.00 0.00 0.01 0.01 0.01 0.01 0.03 0.04 0.01 0.00 0.00 0.00 0.00 0.00 0.00 0.00 0.00 0.00 0.00 0.00 0.00 0.00 0.00 0.00 0.00 0.00
0.00 0.00 0.00 0.00 0.00 0.03 0.06 0.06 0.05 0.03 0.03 0.05 0.06 0.10 0.14 0.09 0.01 0.00 0.00 0.00 0.00 0.01 0.04 0.02 0.01 0.02 0.03 0.02 0.00 0.00 0.00 0.00 0.00 0.00 0.00 0.00 0.00 0.00 0.00 0.00 0.00 0.00 0.00 0.00 0.00
0.00 0.00 0.00 0.00 0.00 0.00 0.01 0.04 0.06 0.06 0.07 0.10 0.15 0.18 0.16 0.09 0.01 0.00 0.00 0.00 0.00 0.01 0.04 0.04 0.03 0.02 0.03 0.01 0.01 0.00 0.00 0.00 0.00 0.00 0.00 0.00 0.00 0.00 0.00 0.00 0.00 0.00 0.00 0.00 0.00
0.00 0.00 0.00 0.00 0.00 0.00 0.00 0.02 0.04 0.07 0.12 0.08 0.18 0.30 0.12 0.03 0.00 0.00 0.00 0.00 0.00 0.00 0.06 0.06 0.03 0.01 0.02 0.01 0.01 0.00 0.00 0.00 0.00 0.00 0.00 0.00 0.00 0.00 0.00 0.00 0.00 0.00 0.00 0.00 0.00
0.03 0.02 0.01 0.00 0.00 0.00 0.01 0.00 0.02 0.07 0.17 0.15 0.24 0.26 0.10 0.01 0.00 0.00 0.00 0.00 0.00 0.02 0.06 0.01 0.04 0.06 0.02 0.04 0.00 0.00 0.01 0.00 0.00 0.00 0.00 0.00 0.00 0.00 0.00 0.00 0.00 0.00 0.00 0.00 0.00
0.07 0.04 0.02 0.02 0.02 0.03 0.05 0.04 0.03 0.05 0.07 0.16 0.46 0.38 0.08 0.00 0.00 0.00 0.00 0.00 0.01 0.04 0.19 0.19 0.15 0.10 0.08 0.05 0.03 0.04 0.06 0.02 0.00 0.00 0.00 0.00 0.00 0.00 0.00 0.00 0.00 0.00 0.00 0.00 0.00
0.05 0.05 0.05 0.13 0.07 0.06 0.07 0.10 0.12 0.16 0.17 0.37 0.48 0.30 0.03 0.00 0.00 0.00 0.00 0.01 0.01 0.03 0.15 0.32 0.26 0.18 0.09 0.11 0.11 0.07 0.03 0.01 0.00 0.00 0.00 0.00 0.00 0.00 0.00 0.00 0.00 0.00 0.00 0.00 0.00
0.07 0.09 0.15 0.23 0.19 0.11 0.14 0.27 0.32 0.51 0.45 0.48 0.39 0.31 0.02 0.00 0.00 0.00 0.00 0.03 0.04 0.12 0.34 0.54 0.40 0.28 0.17 0.14 0.08 0.02 0.01 0.01 0.00 0.00 0.00 0.00 0.00 0.00 0.00 0.00 0.00 0.00 0.00 0.00 0.00
0.09 0.08 0.10 0.16 0.25 0.25 0.40 0.50 0.35 0.49 0.21 0.07 0.08 0.07 0.02 0.02 0.01 0.00 0.01 0.07 0.09 0.24 0.37 0.60 0.53 0.34 0.16 0.06 0.01 0.01 0.02 0.02 0.00 0.00 0.00 0.00 0.00 0.00 0.00 0.00 0.00 0.00 0.00 0.00 0.00
0.08 0.09 0.16 0.19 0.31 0.49 0.64 0.49 0.16 0.09 0.06 0.01 0.01 0.02 0.09 0.05 0.08 0.07 0.08 0.14 0.12 0.19 0.32 0.78 0.45 0.14 0.10 0.05 0.05 0.03 0.04 0.02 0.01 0.00 0.01 0.00 0.00 0.00 0.00 0.00 0.00 0.00 0.00 0.00 0.00
0.09 0.16 0.29 0.35 0.41 0.61 0.53 0.59 0.34 0.19 0.50 0.22 0.01 0.03 0.11 0.20 0.10 0.23 0.19 0.22 0.08 0.17 0.35 0.61 0.35 0.15 0.12 0.19 0.12 0.11 0.04 0.03 0.01 0.01 0.01 0.01 0.00 0.00 0.00 0.00 0.00 0.00 0.00 0.00 0.00
0.13 0.28 0.46 0.57 0.71 0.47 0.66 0.61 0.56 0.78 1.36 0.28 0.06 0.09 0.27 0.59 0.21 0.22 0.32 0.33 0.26 0.17 0.31 0.46 0.44 0.24 0.22 0.29 0.10 0.16 0.04 0.02 0.04 0.05 0.03 0.01 0.01 0.00 0.00 0.00 0.00 0.00 0.00 0.00 0.00
0.13 0.27 0.52 0.90 1.06 0.67 0.68 0.81 0.98 1.34 1.03 0.16 0.24 0.26 0.43 0.53 0.25 0.39 0.43 0.44 0.39 0.23 0.51 0.62 0.49 0.24 0.32 0.22 0.15 0.08 0.06 0.02 0.06 0.16 0.08 0.04 0.02 0.00 0.00 0.00 0.00 0.00 0.00 0.00 0.00
0.09 0.22 0.58 1.28 1.40 1.02 0.98 1.03 1.23 1.39 0.76 0.27 0.37 0.48 0.42 0.30 0.28 0.52 0.59 0.45 0.53 0.41 0.38 0.26 0.41 0.33 0.21 0.13 0.22 0.10 0.14 0.19 0.12 0.18 0.35 0.06 0.04 0.01 0.00 0.00 0.00 0.00 0.00 0.00 0.00
0.10 0.09 0.25 0.63 1.14 1.23 1.17 1.12 1.22 0.74 0.38 0.44 0.44 0.34 0.24 0.21 0.28 0.43 0.75 0.67 1.15 0.48 0.50 0.49 0.67 0.58 0.26 0.33 0.42 0.38 0.38 0.62 0.57 0.28 0.26 0.10 0.04 0.01 0.00 0.00 0.00 0.00 0.00 0.00 0.00
0.14 0.14 0.11 0.12 1.11 1.35 1.43 1.28 0.80 0.23 0.36 0.49 0.31 0.22 0.25 0.18 0.22 0.35 0.62 0.56 0.51 0.17 0.42 0.49 0.64 0.70 0.32 0.59 0.68 0.51 0.48 0.46 0.37 0.20 0.04 0.04 0.06 0.00 0.00 0.00 0.00 0.00 0.00 0.00 0.00
0.24 0.23 0.28 0.09 0.92 1.42 1.43 1.08 0.38 0.37 0.54 0.54 0.49 0.45 0.33 0.17 0.22 0.37 0.54 0.27 0.21 0.12 0.45 0.28 0.59 0.56 0.23 0.48 0.42 0.46 0.36 0.30 0.24 0.11 0.06 0.01 0.00 0.00 0.00 0.00 0.00 0.00 0.00 0.00 0.00
0.21 0.31 0.28 0.14 0.81 1.47 1.58 0.83 0.48 0.64 0.57 0.48 0.36 0.31 0.15 0.12 0.23 0.30 0.41 0.17 0.08 0.04 0.21 0.24 0.66 0.69 0.54 0.69 0.51 0.34 0.16 0.23 0.41 0.25 0.12 0.01 0.00 0.00 0.00 0.00 0.00 0.00 0.00 0.00 0.00
0.16 0.26 0.16 0.30 1.06 1.65 1.23 0.85 0.60 0.48 0.55 0.50 0.16 0.09 0.02 0.07 0.14 0.16 0.22 0.11 0.03 0.03 0.16 0.38 0.63 0.68 0.74 0.66 0.48 0.38 0.34 0.21 0.23 0.14 0.09 0.01 0.00 0.00 0.00 0.00 0.00 0.00 0.00 0.00 0.00
0.20 0.18 0.15 0.48 1.06 0.87 0.86 0.91 0.65 0.40 0.51 0.47 0.17 0.04 0.03 0.04 0.10 0.13 0.08 0.03 0.01 0.01 0.11 0.33 0.48 0.69 0.47 0.16 0.17 0.21 0.19 0.11 0.24 0.15 0.08 0.02 0.00 0.00 0.00 0.00 0.00 0.00 0.00 0.00 0.00
0.14 0.25 0.52 0.41 0.49 0.46 0.58 0.66 0.64 0.52 0.49 0.47 0.15 0.06 0.01 0.02 0.08 0.06 0.04 0.00 0.00 0.00 0.03 0.25 0.56 0.64 0.50 0.26 0.30 0.38 0.23 0.08 0.08 0.06 0.03 0.01 0.00 0.00 0.00 0.00 0.00 0.00 0.00 0.00 0.00
0.13 0.23 0.66 0.56 0.22 0.43 0.60 0.64 0.67 0.49 0.41 0.44 0.16 0.05 0.02 0.01 0.03 0.03 0.03 0.00 0.00 0.00 0.01 0.24 0.56 0.54 0.31 0.11 0.12 0.17 0.11 0.03 0.02 0.03 0.02 0.01 0.00 0.00 0.00 0.00 0.00 0.00 0.00 0.00 0.00
0.14 0.12 0.10 0.14 0.07 0.18 0.51 0.70 0.74 0.77 0.46 0.54 0.35 0.05 0.02 0.01 0.02 0.01 0.01 0.01 0.00 0.00 0.01 0.19 0.46 0.35 0.14 0.00 0.01 0.02 0.01 0.01 0.03 0.02 0.01 0.00 0.00 0.00 0.00 0.00 0.00 0.00 0.00 0.00 0.00
0.10 0.08 0.05 0.01 0.01 0.08 0.38 0.50 0.56 0.58 0.49 0.30 0.19 0.03 0.01 0.01 0.00 0.00 0.00 0.00 0.00 0.00 0.01 0.04 0.13 0.12 0.11 0.00 0.00 0.00 0.00 0.00 0.01 0.00 0.00 0.00 0.00 0.00 0.00 0.00 0.00 0.00 0.00 0.00 0.00
0.06 0.04 0.03 0.04 0.02 0.08 0.13 0.37 0.60 0.56 0.29 0.08 0.06 0.08 0.07 0.01 0.00 0.01 0.00 0.00 0.00 0.00 0.00 0.00 0.02 0.03 0.05 0.01 0.00 0.00 0.00 0.00 0.00 0.00 0.00 0.00 0.00 0.00 0.00 0.00 0.00 0.00 0.00 0.00 0.00

GFSSW_prec_precacc24_030.txt.gz
Total_Precipitation_Accumulation
0.00 0.00 0.00 0.00 0.00 0.00 0.00 0.00 0.00 0.01 0.04 0.08 0.12 0.14 0.11 0.09 0.04 0.01 0.01 0.00 0.00 0.00 0.00 0.00 0.00 0.00 0.00 0.00 0.00 0.00 0.00 0.00 0.00 0.00 0.00 0.00 0.00 0.00 0.00 0.00 0.00 0.00 0.00 0.00 0.00
0.00 0.00 0.00 0.00 0.00 0.00 0.00 0.00 0.01 0.01 0.01 0.02 0.04 0.08 0.10 0.05 0.02 0.04 0.00 0.00 0.00 0.00 0.00 0.00 0.00 0.01 0.01 0.00 0.00 0.00 0.00 0.00 0.00 0.00 0.00 0.00 0.00 0.00 0.00 0.00 0.00 0.00 0.00 0.00 0.00
0.00 0.00 0.00 0.00 0.00 0.00 0.01 0.01 0.02 0.03 0.02 0.02 0.02 0.05 0.11 0.03 0.02 0.01 0.00 0.00 0.00 0.01 0.01 0.01 0.01 0.03 0.04 0.01 0.00 0.00 0.00 0.00 0.00 0.00 0.00 0.00 0.00 0.00 0.00 0.00 0.00 0.00 0.00 0.00 0.00
0.00 0.00 0.00 0.00 0.00 0.00 0.01 0.03 0.03 0.03 0.03 0.04 0.06 0.10 0.13 0.07 0.01 0.00 0.00 0.00 0.00 0.01 0.04 0.02 0.01 0.02 0.03 0.02 0.00 0.00 0.00 0.00 0.00 0.00 0.00 0.00 0.00 0.00 0.00 0.00 0.00 0.00 0.00 0.00 0.00
0.00 0.00 0.00 0.00 0.00 0.00 0.01 0.03 0.03 0.05 0.07 0.10 0.14 0.16 0.13 0.07 0.01 0.00 0.00 0.00 0.00 0.01 0.04 0.04 0.03 0.02 0.03 0.01 0.01 0.00 0.00 0.00 0.00 0.00 0.00 0.00 0.00 0.00 0.00 0.00 0.00 0.00 0.00 0.00 0.00
0.00 0.00 0.00 0.00 0.00 0.00 0.00 0.01 0.02 0.04 0.11 0.08 0.17 0.25 0.09 0.03 0.00 0.00 0.00 0.00 0.00 0.00 0.04 0.06 0.03 0.01 0.02 0.01 0.01 0.00 0.00 0.00 0.00 0.00 0.00 0.00 0.00 0.00 0.00 0.00 0.00 0.00 0.00 0.00 0.00
0.03 0.02 0.01 0.00 0.00 0.00 0.01 0.01 0.01 0.05 0.16 0.14 0.22 0.20 0.08 0.01 0.00 0.00 0.00 0.00 0.00 0.01 0.04 0.01 0.04 0.07 0.03 0.04 0.00 0.00 0.01 0.00 0.00 0.00 0.00 0.00 0.00 0.00 0.00 0.00 0.00 0.00 0.00 0.00 0.00
0.06 0.05 0.01 0.02 0.02 0.03 0.05 0.04 0.03 0.04 0.06 0.11 0.35 0.30 0.07 0.00 0.00 0.00 0.00 0.00 0.00 0.01 0.13 0.16 0.12 0.10 0.08 0.05 0.03 0.04 0.06 0.02 0.00 0.00 0.00 0.00 0.00 0.00 0.00 0.00 0.00 0.00 0.00 0.00 0.00
0.05 0.05 0.04 0.05 0.06 0.06 0.07 0.09 0.10 0.13 0.14 0.27 0.32 0.23 0.03 0.00 0.00 0.00 0.00 0.00 0.00 0.01 0.10 0.24 0.23 0.18 0.09 0.11 0.11 0.07 0.03 0.01 0.00 0.00 0.00 0.00 0.00 0.00 0.00 0.00 0.00 0.00 0.00 0.00 0.00
0.07 0.08 0.11 0.14 0.11 0.09 0.11 0.21 0.16 0.21 0.30 0.36 0.31 0.25 0.02 0.00 0.00 0.00 0.00 0.00 0.03 0.09 0.25 0.39 0.29 0.26 0.17 0.15 0.08 0.02 0.01 0.01 0.00 0.00 0.00 0.00 0.00 0.00 0.00 0.00 0.00 0.00 0.00 0.00 0.00
0.06 0.06 0.08 0.12 0.16 0.22 0.37 0.25 0.18 0.15 0.15 0.05 0.08 0.06 0.02 0.02 0.01 0.00 0.00 0.00 0.04 0.21 0.32 0.45 0.42 0.29 0.15 0.06 0.01 0.01 0.02 0.02 0.00 0.00 0.00 0.00 0.00 0.00 0.00 0.00 0.00 0.00 0.00 0.00 0.00
0.08 0.10 0.17 0.20 0.22 0.41 0.55 0.23 0.10 0.05 0.05 0.01 0.01 0.02 0.07 0.05 0.07 0.06 0.01 0.02 0.08 0.18 0.30 0.68 0.38 0.12 0.10 0.05 0.05 0.03 0.04 0.02 0.01 0.00 0.01 0.00 0.00 0.00 0.00 0.00 0.00 0.00 0.00 0.00 0.00
0.09 0.17 0.33 0.39 0.40 0.45 0.42 0.33 0.31 0.17 0.45 0.20 0.01 0.02 0.05 0.11 0.08 0.21 0.04 0.07 0.06 0.16 0.34 0.59 0.33 0.15 0.12 0.19 0.12 0.11 0.04 0.03 0.01 0.01 0.01 0.01 0.00 0.00 0.00 0.00 0.00 0.00 0.00 0.00 0.00
0.14 0.29 0.49 0.57 0.64 0.40 0.56 0.55 0.48 0.64 1.22 0.23 0.02 0.01 0.09 0.25 0.15 0.14 0.07 0.20 0.21 0.15 0.27 0.46 0.44 0.24 0.22 0.29 0.11 0.16 0.04 0.02 0.04 0.05 0.03 0.03 0.03 0.00 0.00 0.00 0.00 0.00 0.00 0.00 0.00
0.19 0.31 0.55 0.80 0.90 0.49 0.47 0.63 0.80 1.24 0.96 0.04 0.04 0.07 0.09 0.17 0.16 0.14 0.12 0.31 0.38 0.22 0.52 0.64 0.48 0.24 0.32 0.22 0.16 0.08 0.06 0.02 0.06 0.17 0.09 0.04 0.07 0.01 0.00 0.00 0.00 0.00 0.00 0.00 0.00
0.18 0.25 0.53 1.13 1.03 0.68 0.76 0.86 1.07 1.32 0.70 0.17 0.21 0.23 0.17 0.11 0.18 0.31 0.30 0.36 0.50 0.46 0.51 0.31 0.41 0.33 0.21 0.13 0.22 0.11 0.15 0.20 0.13 0.21 0.40 0.07 0.06 0.02 0.00 0.00 0.00 0.00 0.00 0.00 0.00
0.30 0.25 0.24 0.56 0.94 0.85 0.94 0.99 1.08 0.69 0.35 0.40 0.34 0.24 0.16 0.10 0.20 0.31 0.53 0.59 1.12 0.47 0.52 0.53 0.70 0.58 0.26 0.34 0.43 0.40 0.43 0.71 0.60 0.31 0.27 0.10 0.05 0.05 0.00 0.00 0.00 0.00 0.00 0.00 0.00
0.46 0.47 0.27 0.14 1.02 0.98 1.09 1.05 0.72 0.18 0.34 0.47 0.29 0.20 0.16 0.12 0.17 0.31 0.54 0.52 0.51 0.17 0.42 0.48 0.64 0.70 0.33 0.59 0.69 0.52 0.50 0.52 0.38 0.20 0.04 0.04 0.11 0.01 0.00 0.00 0.00 0.00 0.00 0.00 0.00
0.65 0.94 0.73 0.14 0.90 1.17 1.21 1.01 0.30 0.33 0.51 0.47 0.41 0.38 0.20 0.12 0.20 0.36 0.50 0.26 0.21 0.12 0.46 0.29 0.59 0.56 0.23 0.48 0.42 0.47 0.40 0.30 0.25 0.12 0.08 0.02 0.01 0.00 0.00 0.00 0.00 0.00 0.00 0.00 0.00
0.59 1.08 0.98 0.18 0.83 1.41 1.51 0.76 0.36 0.57 0.52 0.43 0.27 0.23 0.08 0.11 0.22 0.30 0.39 0.16 0.08 0.04 0.21 0.24 0.67 0.69 0.59 0.87 0.62 0.36 0.18 0.24 0.46 0.32 0.19 0.06 0.00 0.00 0.00 0.00 0.00 0.00 0.00 0.00 0.00
0.57 0.96 0.61 0.47 1.14 1.79 1.26 0.70 0.46 0.37 0.45 0.40 0.14 0.10 0.02 0.07 0.14 0.16 0.22 0.11 0.03 0.03 0.16 0.40 0.70 0.74 0.93 0.93 0.58 0.42 0.41 0.24 0.24 0.16 0.23 0.16 0.00 0.00 0.00 0.00 0.00 0.00 0.00 0.00 0.00
0.59 0.63 0.45 0.73 1.29 1.06 0.87 0.81 0.53 0.26 0.44 0.45 0.18 0.07 0.04 0.04 0.10 0.13 0.08 0.03 0.01 0.01 0.12 0.35 0.58 0.77 0.62 0.25 0.17 0.22 0.22 0.11 0.26 0.23 0.14 0.17 0.02 0.00 0.00 0.00 0.00 0.00 0.00 0.00 0.00
0.54 0.63 0.76 0.56 0.78 0.49 0.58 0.64 0.56 0.40 0.47 0.51 0.18 0.07 0.02 0.02 0.09 0.06 0.04 0.00 0.00 0.01 0.08 0.37 0.70 0.72 0.55 0.40 0.36 0.49 0.25 0.09 0.15 0.30 0.23 0.09 0.01 0.00 0.00 0.00 0.00 0.00 0.00 0.00 0.00
0.56 0.49 0.95 0.85 0.32 0.44 0.60 0.65 0.66 0.46 0.41 0.51 0.26 0.12 0.05 0.02 0.03 0.03 0.03 0.00 0.00 0.00 0.03 0.35 0.72 0.80 0.59 0.24 0.15 0.24 0.18 0.10 0.13 0.21 0.19 0.14 0.02 0.00 0.00 0.00 0.00 0.00 0.00 0.00 0.00
0.44 0.20 0.18 0.25 0.14 0.19 0.51 0.71 0.74 0.78 0.48 0.62 0.44 0.11 0.04 0.02 0.02 0.01 0.01 0.01 0.00 0.00 0.05 0.31 0.70 0.73 0.36 0.12 0.04 0.10 0.16 0.09 0.22 0.17 0.13 0.05 0.03 0.01 0.00 0.00 0.00 0.00 0.00 0.00 0.00
0.23 0.10 0.05 0.01 0.01 0.08 0.39 0.50 0.56 0.59 0.54 0.37 0.24 0.06 0.06 0.02 0.00 0.00 0.00 0.00 0.01 0.01 0.03 0.13 0.43 0.45 0.25 0.04 0.07 0.09 0.26 0.08 0.36 0.17 0.10 0.02 0.01 0.00 0.00 0.00 0.00 0.00 0.00 0.00 0.00
0.12 0.04 0.04 0.05 0.02 0.08 0.14 0.37 0.60 0.57 0.30 0.11 0.13 0.16 0.11 0.01 0.00 0.01 0.00 0.00 0.00 0.02 0.02 0.02 0.17 0.29 0.16 0.04 0.02 0.05 0.10 0.07 0.15 0.06 0.04 0.02 0.00 0.00 0.00 0.00 0.00 0.00 0.00 0.00 0.00

GFSSW_prec_precacc24_033.txt.gz
Total_Precipitation_Accumulation
0.00 0.00 0.00 0.00 0.00 0.00 0.00 0.00 0.00 0.01 0.03 0.06 0.11 0.14 0.19 0.12 0.04 0.01 0.00 0.00 0.00 0.00 0.00 0.00 0.00 0.00 0.00 0.00 0.00 0.00 0.00 0.00 0.00 0.00 0.00 0.00 0.00 0.00 0.00 0.00 0.00 0.00 0.00 0.00 0.00
0.00 0.00 0.00 0.00 0.00 0.00 0.00 0.00 0.00 0.00 0.01 0.01 0.02 0.06 0.10 0.07 0.02 0.04 0.00 0.00 0.00 0.00 0.00 0.00 0.00 0.01 0.01 0.00 0.00 0.00 0.00 0.00 0.00 0.00 0.00 0.00 0.00 0.00 0.00 0.00 0.00 0.00 0.00 0.00 0.00
0.00 0.00 0.00 0.00 0.00 0.00 0.00 0.00 0.00 0.00 0.00 0.01 0.01 0.04 0.09 0.03 0.02 0.01 0.00 0.00 0.00 0.01 0.00 0.00 0.01 0.03 0.04 0.01 0.00 0.00 0.00 0.00 0.00 0.00 0.00 0.00 0.00 0.00 0.00 0.00 0.00 0.00 0.00 0.00 0.00
0.00 0.00 0.00 0.00 0.00 0.00 0.00 0.00 0.01 0.01 0.01 0.02 0.04 0.09 0.12 0.05 0.01 0.00 0.00 0.00 0.00 0.01 0.01 0.01 0.01 0.02 0.03 0.02 0.00 0.00 0.00 0.00 0.00 0.00 0.00 0.00 0.00 0.00 0.00 0.00 0.00 0.00 0.00 0.00 0.00
0.01 0.00 0.00 0.00 0.00 0.00 0.00 0.00 0.01 0.01 0.01 0.04 0.10 0.14 0.10 0.06 0.01 0.00 0.00 0.00 0.00 0.01 0.02 0.03 0.03 0.02 0.03 0.01 0.01 0.00 0.00 0.00 0.00 0.00 0.00 0.00 0.00 0.00 0.00 0.00 0.00 0.00 0.00 0.00 0.00
0.02 0.01 0.00 0.00 0.00 0.00 0.00 0.00 0.00 0.01 0.04 0.04 0.12 0.17 0.06 0.02 0.00 0.00 0.00 0.00 0.00 0.00 0.01 0.05 0.03 0.01 0.02 0.01 0.01 0.00 0.00 0.00 0.00 0.00 0.00 0.00 0.00 0.00 0.00 0.00 0.00 0.00 0.00 0.00 0.00
0.04 0.03 0.02 0.00 0.00 0.00 0.01 0.01 0.01 0.01 0.04 0.07 0.20 0.13 0.06 0.00 0.00 0.00 0.00 0.00 0.00 0.00 0.01 0.01 0.04 0.07 0.03 0.04 0.00 0.00 0.01 0.00 0.00 0.00 0.00 0.00 0.00 0.00 0.00 0.00 0.00 0.00 0.00 0.00 0.00
0.06 0.07 0.03 0.02 0.01 0.01 0.01 0.02 0.02 0.02 0.03 0.09 0.29 0.17 0.05 0.00 0.00 0.00 0.00 0.00 0.00 0.00 0.03 0.11 0.12 0.10 0.08 0.05 0.03 0.04 0.06 0.02 0.00 0.00 0.00 0.00 0.00 0.00 0.00 0.00 0.00 0.00 0.00 0.00 0.00
0.04 0.04 0.04 0.04 0.05 0.06 0.06 0.06 0.07 0.09 0.10 0.24 0.21 0.14 0.03 0.00 0.00 0.00 0.00 0.00 0.00 0.00 0.02 0.18 0.22 0.18 0.09 0.12 0.11 0.07 0.03 0.01 0.00 0.00 0.00 0.00 0.00 0.00 0.00 0.00 0.00 0.00 0.00 0.00 0.00
0.09 0.09 0.09 0.06 0.08 0.08 0.12 0.16 0.12 0.14 0.20 0.24 0.18 0.15 0.01 0.00 0.00 0.00 0.00 0.00 0.03 0.09 0.13 0.23 0.23 0.25 0.16 0.15 0.08 0.02 0.01 0.01 0.00 0.00 0.00 0.00 0.00 0.00 0.00 0.00 0.00 0.00 0.00 0.00 0.00
0.11 0.08 0.10 0.11 0.09 0.17 0.30 0.17 0.05 0.06 0.11 0.02 0.02 0.01 0.01 0.02 0.01 0.00 0.00 0.00 0.03 0.19 0.21 0.33 0.29 0.25 0.15 0.06 0.01 0.01 0.02 0.02 0.00 0.00 0.00 0.00 0.00 0.00 0.00 0.00 0.00 0.00 0.00 0.00 0.00
0.16 0.15 0.19 0.23 0.21 0.31 0.51 0.09 0.01 0.01 0.02 0.00 0.01 0.01 0.03 0.05 0.07 0.05 0.00 0.01 0.07 0.18 0.25 0.59 0.28 0.10 0.10 0.05 0.05 0.03 0.04 0.02 0.01 0.00 0.01 0.00 0.00 0.00 0.00 0.00 0.00 0.00 0.00 0.00 0.00
0.20 0.25 0.32 0.41 0.41 0.38 0.35 0.13 0.10 0.13 0.41 0.16 0.00 0.02 0.03 0.08 0.08 0.19 0.00 0.04 0.05 0.16 0.32 0.55 0.30 0.13 0.12 0.19 0.12 0.11 0.04 0.03 0.01 0.01 0.01 0.01 0.00 0.00 0.00 0.00 0.00 0.00 0.00 0.00 0.00
0.27 0.39 0.43 0.58 0.54 0.31 0.34 0.32 0.37 0.59 1.19 0.21 0.01 0.01 0.06 0.22 0.13 0.10 0.02 0.11 0.19 0.15 0.24 0.43 0.43 0.23 0.20 0.29 0.10 0.16 0.04 0.02 0.04 0.05 0.03 0.03 0.03 0.00 0.00 0.00 0.00 0.00 0.00 0.00 0.00
0.39 0.46 0.59 0.63 0.50 0.33 0.28 0.53 0.69 0.99 0.84 0.03 0.02 0.03 0.05 0.12 0.13 0.08 0.03 0.15 0.37 0.22 0.50 0.63 0.48 0.24 0.31 0.22 0.16 0.08 0.06 0.02 0.07 0.17 0.10 0.04 0.07 0.01 0.00 0.00 0.00 0.00 0.00 0.00 0.00
0.47 0.52 0.60 0.81 0.53 0.40 0.42 0.65 0.78 0.95 0.55 0.08 0.11 0.11 0.08 0.05 0.13 0.25 0.13 0.22 0.50 0.50 0.57 0.33 0.41 0.33 0.21 0.13 0.22 0.11 0.17 0.22 0.18 0.23 0.42 0.07 0.06 0.02 0.00 0.00 0.00 0.00 0.00 0.00 0.00
0.53 0.63 0.71 0.54 0.61 0.57 0.65 0.67 0.79 0.55 0.30 0.27 0.16 0.09 0.03 0.03 0.14 0.22 0.26 0.37 1.13 0.49 0.55 0.57 0.72 0.59 0.26 0.34 0.43 0.41 0.54 0.87 0.75 0.43 0.30 0.10 0.05 0.05 0.00 0.00 0.00 0.00 0.00 0.00 0.00
0.62 0.79 1.04 0.38 0.65 0.71 0.81 0.80 0.54 0.15 0.29 0.41 0.16 0.07 0.04 0.06 0.11 0.14 0.29 0.38 0.50 0.18 0.42 0.48 0.64 0.70 0.33 0.60 0.69 0.53 0.53 0.62 0.49 0.23 0.05 0.04 0.12 0.01 0.00 0.00 0.00 0.00 0.00 0.00 0.00
0.84 1.22 1.62 0.75 0.68 0.84 0.92 0.77 0.25 0.32 0.49 0.43 0.32 0.22 0.07 0.11 0.11 0.15 0.27 0.19 0.20 0.12 0.46 0.28 0.59 0.56 0.23 0.48 0.42 0.48 0.44 0.33 0.32 0.18 0.13 0.02 0.01 0.00 0.00 0.00 0.00 0.00 0.00 0.00 0.00
0.75 1.53 1.59 0.75 0.79 1.11 1.31 0.62 0.33 0.57 0.52 0.42 0.24 0.13 0.04 0.10 0.16 0.16 0.24 0.12 0.08 0.04 0.21 0.24 0.67 0.69 0.59 0.88 0.63 0.36 0.18 0.26 0.62 0.43 0.23 0.06 0.00 0.00 0.00 0.00 0.00 0.00 0.00 0.00 0.00
0.75 1.41 1.20 0.97 1.51 1.63 1.10 0.62 0.42 0.36 0.44 0.37 0.13 0.10 0.02 0.06 0.12 0.11 0.17 0.09 0.03 0.03 0.16 0.40 0.72 0.76 1.04 1.03 0.61 0.46 0.45 0.25 0.24 0.16 0.23 0.16 0.00 0.00 0.00 0.00 0.00 0.00 0.00 0.00 0.00
0.80 0.96 0.87 1.41 2.05 1.22 0.66 0.71 0.47 0.22 0.36 0.42 0.18 0.07 0.04 0.05 0.10 0.12 0.07 0.03 0.01 0.01 0.12 0.36 0.69 0.83 0.69 0.27 0.20 0.30 0.26 0.12 0.27 0.23 0.14 0.19 0.03 0.00 0.00 0.00 0.00 0.01 0.02 0.00 0.00
0.80 0.96 1.24 0.95 1.10 0.57 0.50 0.45 0.40 0.29 0.43 0.50 0.17 0.07 0.02 0.03 0.10 0.06 0.04 0.00 0.00 0.01 0.09 0.43 0.84 0.80 0.62 0.50 0.46 0.60 0.32 0.14 0.16 0.31 0.23 0.16 0.02 0.00 0.00 0.00 0.00 0.00 0.01 0.01 0.00
0.85 0.99 1.58 1.47 0.48 0.45 0.59 0.54 0.47 0.36 0.40 0.51 0.25 0.13 0.07 0.03 0.03 0.03 0.03 0.00 0.00 0.00 0.03 0.41 0.85 0.90 0.70 0.39 0.33 0.28 0.19 0.11 0.14 0.21 0.20 0.18 0.03 0.01 0.01 0.01 0.00 0.00 0.01 0.00 0.00
0.67 0.50 0.39 0.48 0.24 0.20 0.51 0.70 0.68 0.71 0.46 0.62 0.44 0.11 0.06 0.04 0.02 0.01 0.01 0.01 0.00 0.00 0.06 0.42 0.85 0.84 0.45 0.21 0.24 0.23 0.19 0.10 0.23 0.17 0.14 0.07 0.06 0.02 0.02 0.01 0.02 0.01 0.00 0.00 0.00
0.42 0.29 0.07 0.01 0.02 0.09 0.39 0.50 0.56 0.58 0.53 0.35 0.25 0.07 0.07 0.03 0.00 0.00 0.00 0.00 0.01 0.02 0.10 0.29 0.61 0.68 0.56 0.14 0.15 0.19 0.31 0.11 0.43 0.20 0.16 0.14 0.11 0.00 0.00 0.00 0.00 0.00 0.00 0.00 0.00
0.33 0.13 0.05 0.05 0.03 0.09 0.14 0.37 0.60 0.58 0.31 0.11 0.13 0.17 0.11 0.01 0.01 0.01 0.00 0.00 0.01 0.04 0.12 0.17 0.37 0.53 0.51 0.31 0.18 0.28 0.30 0.47 0.43 0.17 0.21 0.25 0.12 0.00 0.00 0.00 0.00 0.00 0.00 0.00 0.00

GFSSW_prec_precacc24_036.txt.gz
Total_Precipitation_Accumulation
0.00 0.00 0.00 0.00 0.00 0.00 0.00 0.00 0.00 0.01 0.03 0.05 0.10 0.13 0.21 0.18 0.07 0.02 0.00 0.00 0.00 0.00 0.00 0.00 0.00 0.00 0.00 0.00 0.00 0.00 0.00 0.00 0.00 0.00 0.00 0.00 0.00 0.00 0.00 0.00 0.00 0.00 0.00 0.00 0.00
0.00 0.00 0.00 0.00 0.00 0.00 0.00 0.00 0.00 0.00 0.00 0.00 0.02 0.03 0.08 0.09 0.04 0.05 0.00 0.00 0.00 0.00 0.00 0.00 0.00 0.01 0.01 0.00 0.00 0.00 0.00 0.00 0.00 0.00 0.00 0.00 0.00 0.00 0.00 0.00 0.00 0.00 0.00 0.00 0.00
0.01 0.00 0.00 0.00 0.00 0.00 0.00 0.00 0.00 0.00 0.00 0.00 0.00 0.01 0.04 0.02 0.02 0.01 0.00 0.00 0.01 0.04 0.00 0.00 0.01 0.03 0.04 0.01 0.00 0.00 0.00 0.00 0.00 0.00 0.00 0.00 0.00 0.00 0.00 0.00 0.00 0.00 0.00 0.00 0.00
0.03 0.01 0.00 0.00 0.00 0.00 0.00 0.00 0.01 0.01 0.00 0.00 0.00 0.03 0.05 0.02 0.01 0.00 0.00 0.00 0.00 0.02 0.01 0.00 0.01 0.02 0.03 0.02 0.00 0.00 0.00 0.00 0.00 0.00 0.00 0.00 0.00 0.00 0.00 0.00 0.00 0.00 0.00 0.00 0.00
0.04 0.04 0.02 0.00 0.00 0.00 0.00 0.00 0.00 0.00 0.01 0.01 0.02 0.07 0.03 0.03 0.00 0.00 0.00 0.00 0.00 0.01 0.02 0.03 0.03 0.02 0.03 0.01 0.01 0.00 0.00 0.00 0.00 0.00 0.00 0.00 0.00 0.00 0.00 0.00 0.00 0.00 0.00 0.00 0.00
0.05 0.04 0.03 0.01 0.00 0.00 0.00 0.00 0.00 0.00 0.01 0.01 0.06 0.08 0.02 0.01 0.00 0.00 0.00 0.00 0.00 0.00 0.01 0.04 0.03 0.01 0.02 0.01 0.01 0.00 0.00 0.00 0.00 0.00 0.00 0.00 0.00 0.00 0.00 0.00 0.00 0.00 0.00 0.00 0.00
0.06 0.06 0.05 0.03 0.01 0.00 0.01 0.01 0.01 0.01 0.00 0.02 0.13 0.07 0.04 0.00 0.00 0.00 0.00 0.00 0.00 0.00 0.00 0.01 0.04 0.07 0.03 0.04 0.00 0.00 0.01 0.00 0.00 0.00 0.00 0.00 0.00 0.00 0.00 0.00 0.00 0.00 0.00 0.00 0.00
0.09 0.10 0.08 0.06 0.03 0.01 0.01 0.02 0.03 0.02 0.00 0.02 0.15 0.09 0.05 0.00 0.00 0.00 0.00 0.00 0.00 0.00 0.00 0.03 0.11 0.10 0.08 0.05 0.03 0.04 0.06 0.02 0.00 0.00 0.00 0.00 0.00 0.00 0.00 0.00 0.00 0.00 0.00 0.00 0.00
0.13 0.10 0.07 0.07 0.07 0.06 0.06 0.04 0.05 0.07 0.06 0.10 0.06 0.08 0.01 0.00 0.00 0.00 0.00 0.00 0.00 0.00 0.00 0.05 0.18 0.18 0.09 0.12 0.11 0.07 0.03 0.01 0.00 0.00 0.00 0.00 0.00 0.00 0.00 0.00 0.00 0.00 0.00 0.00 0.00
0.20 0.17 0.14 0.12 0.10 0.08 0.12 0.14 0.07 0.08 0.13 0.13 0.07 0.08 0.00 0.00 0.00 0.00 0.00 0.00 0.03 0.09 0.09 0.10 0.18 0.25 0.16 0.14 0.07 0.02 0.01 0.01 0.00 0.00 0.00 0.00 0.00 0.00 0.00 0.00 0.00 0.00 0.00 0.00 0.00
0.24 0.21 0.17 0.17 0.15 0.11 0.24 0.15 0.04 0.03 0.09 0.02 0.02 0.01 0.00 0.01 0.00 0.00 0.00 0.00 0.02 0.19 0.15 0.12 0.25 0.24 0.15 0.05 0.01 0.01 0.02 0.02 0.00 0.00 0.00 0.00 0.00 0.00 0.00 0.00 0.00 0.00 0.00 0.00 0.00
0.19 0.30 0.30 0.26 0.27 0.22 0.39 0.09 0.00 0.01 0.01 0.00 0.00 0.00 0.01 0.02 0.05 0.04 0.00 0.01 0.06 0.18 0.18 0.30 0.20 0.10 0.10 0.05 0.05 0.03 0.04 0.02 0.01 0.00 0.01 0.00 0.00 0.00 0.00 0.00 0.00 0.00 0.00 0.00 0.00
0.21 0.24 0.35 0.48 0.47 0.40 0.29 0.09 0.05 0.05 0.38 0.16 0.00 0.02 0.02 0.05 0.06 0.18 0.00 0.02 0.05 0.16 0.28 0.40 0.20 0.13 0.12 0.19 0.12 0.11 0.04 0.03 0.01 0.01 0.01 0.01 0.00 0.00 0.00 0.00 0.00 0.00 0.00 0.00 0.00
0.27 0.32 0.38 0.62 0.72 0.33 0.30 0.21 0.26 0.42 1.06 0.16 0.00 0.01 0.05 0.20 0.12 0.05 0.02 0.08 0.19 0.15 0.23 0.37 0.35 0.20 0.19 0.28 0.10 0.16 0.04 0.02 0.04 0.05 0.03 0.03 0.03 0.00 0.00 0.00 0.00 0.00 0.00 0.00 0.00
0.39 0.43 0.53 0.63 0.71 0.35 0.22 0.37 0.55 0.79 0.74 0.03 0.01 0.01 0.03 0.11 0.12 0.04 0.01 0.11 0.36 0.22 0.48 0.58 0.41 0.19 0.27 0.20 0.16 0.08 0.06 0.02 0.07 0.18 0.10 0.04 0.07 0.01 0.00 0.00 0.00 0.00 0.00 0.00 0.00
0.48 0.53 0.57 0.86 0.62 0.33 0.29 0.52 0.64 0.72 0.31 0.06 0.09 0.09 0.08 0.05 0.10 0.21 0.06 0.14 0.47 0.51 0.58 0.32 0.40 0.32 0.19 0.13 0.22 0.12 0.18 0.23 0.20 0.29 0.49 0.07 0.06 0.02 0.00 0.00 0.00 0.00 0.00 0.00 0.00
0.54 0.64 0.83 0.73 0.63 0.34 0.51 0.57 0.66 0.40 0.13 0.24 0.16 0.09 0.03 0.03 0.09 0.16 0.14 0.21 1.00 0.49 0.55 0.57 0.72 0.58 0.26 0.33 0.42 0.41 0.56 0.93 0.81 0.52 0.34 0.10 0.05 0.05 0.00 0.00 0.00 0.00 0.00 0.00 0.00
0.63 0.84 1.11 0.84 0.61 0.48 0.61 0.66 0.43 0.07 0.17 0.28 0.13 0.05 0.03 0.03 0.07 0.09 0.18 0.19 0.41 0.18 0.43 0.47 0.61 0.69 0.32 0.60 0.67 0.52 0.54 0.63 0.52 0.25 0.06 0.04 0.12 0.01 0.00 0.00 0.00 0.00 0.00 0.00 0.00
0.90 1.29 1.68 1.26 0.95 0.73 0.75 0.67 0.16 0.28 0.44 0.30 0.26 0.18 0.05 0.02 0.05 0.09 0.13 0.08 0.16 0.13 0.47 0.29 0.59 0.56 0.23 0.48 0.41 0.48 0.46 0.33 0.35 0.23 0.22 0.04 0.01 0.00 0.00 0.00 0.00 0.00 0.00 0.00 0.00
0.84 1.63 1.71 1.11 1.30 1.10 1.15 0.46 0.18 0.54 0.51 0.41 0.20 0.05 0.02 0.01 0.10 0.09 0.08 0.04 0.07 0.04 0.21 0.24 0.67 0.69 0.59 0.88 0.63 0.36 0.19 0.30 0.73 0.49 0.27 0.07 0.00 0.00 0.00 0.00 0.00 0.00 0.00 0.00 0.00
0.79 1.54 1.35 1.20 1.92 1.75 1.04 0.38 0.28 0.35 0.43 0.35 0.11 0.06 0.02 0.03 0.10 0.06 0.06 0.03 0.03 0.03 0.16 0.40 0.73 0.76 1.04 1.03 0.62 0.54 0.60 0.35 0.26 0.16 0.23 0.16 0.00 0.00 0.00 0.00 0.00 0.00 0.00 0.00 0.00
0.84 1.03 1.08 1.72 2.65 1.56 0.48 0.46 0.42 0.22 0.32 0.36 0.17 0.07 0.04 0.04 0.09 0.04 0.01 0.01 0.01 0.01 0.12 0.36 0.72 0.84 0.69 0.27 0.22 0.34 0.29 0.21 0.37 0.24 0.14 0.20 0.03 0.00 0.00 0.00 0.00 0.01 0.02 0.01 0.00
0.90 1.01 1.54 1.27 1.33 0.66 0.42 0.39 0.38 0.24 0.36 0.48 0.17 0.07 0.02 0.03 0.09 0.01 0.00 0.00 0.00 0.01 0.09 0.43 0.87 0.83 0.62 0.53 0.56 0.75 0.40 0.25 0.26 0.39 0.26 0.16 0.02 0.00 0.00 0.00 0.00 0.00 0.03 0.02 0.01
1.03 1.19 1.94 1.92 0.63 0.42 0.53 0.44 0.38 0.30 0.39 0.50 0.24 0.14 0.08 0.04 0.03 0.02 0.02 0.00 0.00 0.00 0.03 0.41 0.86 0.93 0.75 0.43 0.52 0.54 0.31 0.27 0.29 0.34 0.22 0.18 0.03 0.01 0.01 0.01 0.00 0.00 0.02 0.04 0.01
0.84 0.70 0.54 0.61 0.41 0.22 0.50 0.62 0.62 0.69 0.46 0.62 0.43 0.11 0.07 0.07 0.03 0.02 0.01 0.01 0.00 0.00 0.06 0.42 0.87 0.88 0.49 0.28 0.37 0.39 0.33 0.23 0.34 0.20 0.15 0.07 0.07 0.03 0.02 0.01 0.02 0.01 0.01 0.02 0.00
0.47 0.50 0.12 0.03 0.04 0.12 0.40 0.49 0.54 0.58 0.52 0.34 0.25 0.08 0.07 0.04 0.01 0.00 0.00 0.00 0.01 0.02 0.11 0.32 0.67 0.73 0.61 0.24 0.31 0.31 0.36 0.16 0.46 0.21 0.16 0.14 0.12 0.01 0.01 0.01 0.00 0.00 0.00 0.01 0.00
0.38 0.33 0.19 0.12 0.05 0.14 0.16 0.37 0.60 0.58 0.29 0.10 0.13 0.17 0.11 0.01 0.01 0.01 0.00 0.00 0.01 0.05 0.14 0.23 0.45 0.65 0.62 0.48 0.25 0.40 0.42 0.50 0.43 0.17 0.21 0.26 0.14 0.01 0.01 0.01 0.00 0.00 0.01 0.00 0.00

GFSSW_prec_precacc24_039.txt.gz
Total_Precipitation_Accumulation
0.01 0.00 0.00 0.00 0.00 0.00 0.00 0.00 0.00 0.00 0.00 0.02 0.07 0.11 0.19 0.21 0.11 0.03 0.00 0.00 0.00 0.00 0.00 0.00 0.00 0.00 0.00 0.00 0.00 0.00 0.00 0.00 0.00 0.00 0.00 0.00 0.00 0.00 0.00 0.00 0.00 0.00 0.00 0.00 0.00
0.02 0.01 0.01 0.00 0.00 0.00 0.00 0.00 0.00 0.00 0.00 0.00 0.00 0.01 0.05 0.07 0.11 0.09 0.00 0.00 0.01 0.01 0.00 0.00 0.00 0.01 0.01 0.00 0.00 0.00 0.00 0.00 0.00 0.00 0.00 0.00 0.00 0.00 0.00 0.00 0.00 0.00 0.00 0.00 0.00
0.04 0.04 0.03 0.01 0.00 0.00 0.00 0.00 0.00 0.00 0.00 0.00 0.00 0.00 0.02 0.00 0.01 0.01 0.00 0.00 0.02 0.10 0.00 0.00 0.01 0.03 0.04 0.01 0.00 0.00 0.00 0.00 0.00 0.00 0.00 0.00 0.00 0.00 0.00 0.00 0.00 0.00 0.00 0.00 0.00
0.06 0.06 0.05 0.03 0.01 0.00 0.00 0.00 0.00 0.00 0.00 0.00 0.00 0.02 0.02 0.00 0.00 0.00 0.00 0.00 0.00 0.04 0.02 0.00 0.00 0.02 0.03 0.02 0.00 0.00 0.00 0.00 0.00 0.00 0.00 0.00 0.00 0.00 0.00 0.00 0.00 0.00 0.00 0.00 0.00
0.06 0.07 0.07 0.05 0.02 0.00 0.00 0.00 0.00 0.00 0.00 0.00 0.00 0.03 0.01 0.01 0.00 0.00 0.00 0.00 0.00 0.01 0.02 0.01 0.02 0.02 0.03 0.01 0.01 0.00 0.00 0.00 0.00 0.00 0.00 0.00 0.00 0.00 0.00 0.00 0.00 0.00 0.00 0.00 0.00
0.06 0.07 0.07 0.07 0.05 0.01 0.00 0.00 0.00 0.00 0.01 0.01 0.03 0.04 0.01 0.01 0.00 0.00 0.00 0.00 0.00 0.01 0.02 0.02 0.02 0.01 0.02 0.01 0.01 0.00 0.00 0.00 0.00 0.00 0.00 0.00 0.00 0.00 0.00 0.00 0.00 0.00 0.00 0.00 0.00
0.07 0.07 0.07 0.07 0.06 0.03 0.01 0.01 0.01 0.02 0.00 0.02 0.08 0.04 0.04 0.00 0.00 0.00 0.00 0.00 0.00 0.00 0.00 0.00 0.02 0.07 0.03 0.04 0.00 0.00 0.01 0.00 0.00 0.00 0.00 0.00 0.00 0.00 0.00 0.00 0.00 0.00 0.00 0.00 0.00
0.11 0.12 0.10 0.10 0.09 0.06 0.02 0.02 0.05 0.05 0.01 0.01 0.06 0.05 0.04 0.00 0.00 0.00 0.00 0.00 0.00 0.00 0.00 0.00 0.04 0.10 0.08 0.05 0.03 0.04 0.06 0.02 0.00 0.00 0.00 0.00 0.00 0.00 0.00 0.00 0.00 0.00 0.00 0.00 0.00
0.14 0.14 0.13 0.14 0.12 0.11 0.10 0.06 0.06 0.08 0.07 0.08 0.01 0.04 0.01 0.00 0.00 0.00 0.00 0.00 0.00 0.00 0.00 0.00 0.04 0.14 0.09 0.12 0.11 0.07 0.03 0.01 0.00 0.00 0.00 0.00 0.00 0.00 0.00 0.00 0.00 0.00 0.00 0.00 0.00
0.20 0.20 0.22 0.20 0.19 0.14 0.14 0.16 0.07 0.06 0.12 0.13 0.05 0.04 0.00 0.00 0.00 0.00 0.00 0.00 0.01 0.06 0.08 0.05 0.09 0.20 0.15 0.13 0.07 0.02 0.01 0.01 0.00 0.00 0.00 0.00 0.00 0.00 0.00 0.00 0.00 0.00 0.00 0.00 0.00
0.24 0.21 0.21 0.26 0.25 0.20 0.21 0.15 0.04 0.03 0.09 0.02 0.02 0.00 0.00 0.00 0.00 0.00 0.00 0.00 0.00 0.16 0.14 0.06 0.16 0.19 0.14 0.05 0.01 0.01 0.02 0.02 0.00 0.00 0.00 0.00 0.00 0.00 0.00 0.00 0.00 0.00 0.00 0.00 0.00
0.21 0.30 0.31 0.32 0.42 0.40 0.28 0.08 0.00 0.01 0.01 0.00 0.00 0.00 0.00 0.00 0.03 0.03 0.00 0.00 0.01 0.15 0.16 0.17 0.14 0.09 0.10 0.05 0.05 0.03 0.04 0.02 0.01 0.00 0.01 0.00 0.00 0.00 0.00 0.00 0.00 0.00 0.00 0.00 0.00
0.24 0.27 0.34 0.51 0.64 0.77 0.28 0.05 0.03 0.04 0.32 0.15 0.00 0.02 0.01 0.04 0.05 0.15 0.00 0.01 0.01 0.15 0.28 0.26 0.12 0.12 0.11 0.18 0.12 0.11 0.04 0.03 0.01 0.01 0.01 0.01 0.00 0.00 0.00 0.00 0.00 0.00 0.00 0.00 0.00
0.32 0.36 0.36 0.54 0.90 0.81 0.49 0.17 0.17 0.31 0.91 0.15 0.00 0.01 0.04 0.17 0.10 0.02 0.01 0.05 0.14 0.14 0.23 0.26 0.18 0.20 0.19 0.28 0.10 0.16 0.04 0.02 0.04 0.05 0.03 0.03 0.03 0.00 0.00 0.00 0.00 0.00 0.00 0.00 0.00
0.43 0.44 0.49 0.55 0.84 0.80 0.44 0.30 0.34 0.63 0.59 0.02 0.01 0.02 0.04 0.09 0.08 0.02 0.01 0.10 0.34 0.22 0.47 0.48 0.24 0.16 0.26 0.20 0.16 0.08 0.06 0.02 0.07 0.18 0.11 0.04 0.08 0.01 0.00 0.00 0.00 0.00 0.00 0.00 0.00
0.49 0.53 0.56 0.75 0.62 0.53 0.45 0.40 0.47 0.57 0.24 0.05 0.08 0.09 0.10 0.05 0.06 0.15 0.05 0.13 0.37 0.51 0.58 0.23 0.31 0.20 0.17 0.13 0.22 0.12 0.18 0.24 0.21 0.31 0.52 0.07 0.06 0.02 0.00 0.00 0.00 0.00 0.00 0.00 0.00
0.56 0.65 0.85 0.73 0.65 0.49 0.74 0.69 0.59 0.34 0.07 0.19 0.15 0.09 0.03 0.03 0.07 0.13 0.14 0.19 0.63 0.48 0.53 0.46 0.67 0.46 0.22 0.31 0.41 0.40 0.56 0.92 0.82 0.56 0.35 0.10 0.05 0.05 0.00 0.00 0.00 0.00 0.00 0.00 0.00
0.67 0.85 1.12 0.86 0.67 0.70 0.88 0.80 0.39 0.05 0.11 0.21 0.13 0.05 0.03 0.01 0.04 0.07 0.16 0.17 0.26 0.18 0.44 0.44 0.59 0.65 0.30 0.56 0.64 0.50 0.53 0.63 0.52 0.25 0.06 0.04 0.12 0.01 0.00 0.00 0.00 0.00 0.00 0.00 0.00
0.94 1.32 1.70 1.28 1.02 1.09 1.00 0.79 0.15 0.14 0.21 0.22 0.26 0.18 0.05 0.01 0.02 0.06 0.10 0.05 0.06 0.13 0.48 0.28 0.59 0.56 0.23 0.47 0.38 0.45 0.45 0.33 0.36 0.23 0.23 0.04 0.01 0.00 0.00 0.00 0.00 0.00 0.00 0.00 0.00
0.91 1.66 1.73 1.13 1.26 1.52 1.35 0.47 0.11 0.20 0.34 0.36 0.19 0.05 0.02 0.01 0.04 0.07 0.04 0.02 0.00 0.03 0.21 0.24 0.67 0.69 0.59 0.88 0.63 0.35 0.19 0.33 0.79 0.53 0.29 0.07 0.00 0.00 0.00 0.00 0.00 0.00 0.00 0.00 0.00
0.83 1.54 1.41 1.16 1.92 2.26 1.33 0.36 0.15 0.21 0.37 0.33 0.11 0.06 0.02 0.01 0.01 0.05 0.02 0.01 0.01 0.02 0.16 0.40 0.73 0.76 1.04 1.03 0.62 0.55 0.62 0.44 0.39 0.23 0.25 0.16 0.00 0.00 0.00 0.00 0.00 0.00 0.00 0.00 0.00
0.88 1.06 1.21 1.70 2.70 1.79 0.64 0.28 0.19 0.18 0.30 0.31 0.15 0.07 0.04 0.02 0.03 0.04 0.01 0.01 0.00 0.01 0.12 0.36 0.74 0.85 0.69 0.27 0.22 0.34 0.30 0.28 0.62 0.33 0.20 0.21 0.03 0.00 0.01 0.01 0.00 0.01 0.02 0.01 0.00
1.04 1.14 1.82 1.23 1.26 0.53 0.31 0.27 0.28 0.20 0.31 0.39 0.16 0.06 0.02 0.03 0.07 0.01 0.00 0.00 0.00 0.01 0.09 0.43 0.89 0.83 0.62 0.53 0.58 0.79 0.41 0.33 0.43 0.63 0.43 0.21 0.03 0.00 0.00 0.00 0.00 0.00 0.03 0.02 0.01
1.18 1.48 2.34 2.13 0.63 0.23 0.35 0.33 0.31 0.20 0.31 0.43 0.24 0.13 0.08 0.04 0.02 0.01 0.00 0.00 0.00 0.00 0.03 0.41 0.87 0.93 0.75 0.43 0.56 0.76 0.41 0.42 0.57 0.61 0.28 0.21 0.03 0.01 0.01 0.02 0.01 0.00 0.02 0.04 0.01
0.87 0.82 0.62 0.67 0.52 0.17 0.36 0.46 0.48 0.53 0.39 0.58 0.42 0.11 0.07 0.07 0.03 0.02 0.00 0.01 0.00 0.00 0.06 0.43 0.88 0.88 0.49 0.28 0.42 0.52 0.50 0.39 0.54 0.25 0.20 0.09 0.07 0.03 0.03 0.02 0.02 0.01 0.01 0.02 0.00
0.56 0.72 0.23 0.04 0.08 0.15 0.36 0.38 0.39 0.47 0.50 0.33 0.25 0.08 0.07 0.05 0.01 0.00 0.00 0.00 0.01 0.02 0.11 0.32 0.69 0.74 0.61 0.24 0.38 0.47 0.47 0.24 0.48 0.21 0.18 0.14 0.12 0.01 0.01 0.01 0.00 0.00 0.01 0.02 0.00
0.55 0.59 0.33 0.17 0.08 0.19 0.17 0.33 0.51 0.50 0.24 0.10 0.13 0.17 0.09 0.01 0.01 0.01 0.00 0.00 0.01 0.05 0.15 0.25 0.48 0.69 0.63 0.48 0.28 0.46 0.55 0.60 0.44 0.18 0.22 0.26 0.14 0.01 0.01 0.01 0.00 0.01 0.02 0.01 0.00

GFSSW_prec_precacc24_042.txt.gz
Total_Precipitation_Accumulation
0.03 0.04 0.02 0.00 0.00 0.00 0.00 0.00 0.00 0.00 0.00 0.01 0.04 0.08 0.18 0.20 0.16 0.04 0.00 0.00 0.00 0.00 0.00 0.00 0.00 0.00 0.00 0.00 0.00 0.00 0.00 0.00 0.00 0.00 0.00 0.00 0.00 0.00 0.00 0.00 0.00 0.00 0.00 0.00 0.00
0.03 0.03 0.06 0.05 0.01 0.00 0.00 0.00 0.00 0.00 0.00 0.00 0.00 0.00 0.04 0.06 0.13 0.11 0.00 0.00 0.01 0.01 0.00 0.00 0.00 0.01 0.01 0.00 0.00 0.00 0.00 0.00 0.00 0.00 0.00 0.00 0.00 0.00 0.00 0.00 0.00 0.00 0.00 0.00 0.00
0.05 0.06 0.07 0.07 0.04 0.00 0.00 0.00 0.00 0.00 0.00 0.00 0.00 0.00 0.01 0.00 0.01 0.01 0.00 0.02 0.04 0.16 0.00 0.00 0.00 0.02 0.03 0.01 0.00 0.00 0.00 0.00 0.00 0.00 0.00 0.00 0.00 0.00 0.00 0.00 0.00 0.00 0.00 0.00 0.00
0.07 0.08 0.08 0.09 0.08 0.03 0.00 0.00 0.00 0.00 0.00 0.00 0.00 0.01 0.01 0.00 0.00 0.00 0.00 0.00 0.00 0.10 0.02 0.00 0.00 0.01 0.02 0.02 0.00 0.00 0.00 0.00 0.00 0.00 0.00 0.00 0.00 0.00 0.00 0.00 0.00 0.00 0.00 0.00 0.00
0.07 0.08 0.09 0.08 0.07 0.06 0.02 0.00 0.00 0.00 0.00 0.00 0.00 0.02 0.01 0.01 0.00 0.00 0.00 0.00 0.00 0.02 0.03 0.01 0.00 0.01 0.01 0.01 0.01 0.00 0.00 0.00 0.00 0.00 0.00 0.00 0.00 0.00 0.00 0.00 0.00 0.00 0.00 0.00 0.00
0.06 0.07 0.08 0.08 0.07 0.07 0.04 0.00 0.00 0.00 0.00 0.01 0.02 0.03 0.01 0.01 0.00 0.00 0.00 0.00 0.00 0.01 0.02 0.02 0.01 0.00 0.01 0.00 0.01 0.00 0.00 0.00 0.00 0.00 0.00 0.00 0.00 0.00 0.00 0.00 0.00 0.00 0.00 0.00 0.00
0.07 0.07 0.07 0.07 0.08 0.07 0.08 0.03 0.01 0.02 0.00 0.01 0.04 0.03 0.03 0.00 0.00 0.00 0.00 0.00 0.00 0.00 0.01 0.00 0.00 0.04 0.03 0.02 0.00 0.00 0.01 0.00 0.00 0.00 0.00 0.00 0.00 0.00 0.00 0.00 0.00 0.00 0.00 0.00 0.00
0.11 0.12 0.10 0.11 0.11 0.10 0.09 0.08 0.05 0.05 0.03 0.01 0.02 0.04 0.03 0.00 0.00 0.00 0.00 0.00 0.00 0.00 0.01 0.01 0.01 0.03 0.07 0.05 0.03 0.03 0.05 0.02 0.00 0.00 0.00 0.00 0.00 0.00 0.00 0.00 0.00 0.00 0.00 0.00 0.00
0.14 0.15 0.13 0.14 0.16 0.15 0.14 0.11 0.09 0.05 0.07 0.10 0.01 0.03 0.01 0.00 0.00 0.00 0.00 0.00 0.00 0.00 0.00 0.00 0.01 0.07 0.06 0.11 0.10 0.06 0.03 0.01 0.00 0.00 0.00 0.00 0.00 0.00 0.00 0.00 0.00 0.00 0.00 0.00 0.00
0.21 0.21 0.23 0.21 0.22 0.21 0.24 0.28 0.14 0.05 0.09 0.12 0.05 0.02 0.00 0.00 0.00 0.00 0.00 0.00 0.00 0.01 0.02 0.03 0.03 0.06 0.08 0.12 0.06 0.01 0.01 0.01 0.00 0.00 0.00 0.00 0.00 0.00 0.00 0.00 0.00 0.00 0.00 0.00 0.00
0.26 0.23 0.22 0.27 0.29 0.37 0.52 0.51 0.14 0.03 0.08 0.02 0.02 0.00 0.00 0.00 0.00 0.00 0.00 0.00 0.00 0.04 0.05 0.04 0.07 0.04 0.04 0.04 0.01 0.01 0.02 0.02 0.00 0.00 0.00 0.00 0.00 0.00 0.00 0.00 0.00 0.00 0.00 0.00 0.00
0.23 0.31 0.32 0.32 0.46 0.61 0.87 0.42 0.03 0.00 0.01 0.00 0.00 0.00 0.00 0.00 0.00 0.01 0.00 0.00 0.00 0.01 0.05 0.15 0.07 0.00 0.06 0.04 0.05 0.03 0.04 0.02 0.01 0.00 0.01 0.00 0.00 0.00 0.00 0.00 0.00 0.00 0.00 0.00 0.00
0.26 0.28 0.37 0.54 0.65 0.89 0.72 0.31 0.02 0.02 0.19 0.11 0.00 0.02 0.01 0.03 0.02 0.05 0.00 0.01 0.00 0.01 0.12 0.22 0.06 0.02 0.09 0.18 0.11 0.11 0.04 0.03 0.01 0.01 0.01 0.01 0.00 0.00 0.00 0.00 0.00 0.00 0.00 0.00 0.00
0.35 0.38 0.38 0.54 0.87 0.83 0.73 0.33 0.18 0.22 0.68 0.13 0.00 0.01 0.04 0.12 0.09 0.00 0.01 0.04 0.07 0.05 0.15 0.23 0.07 0.11 0.14 0.28 0.10 0.15 0.04 0.02 0.04 0.05 0.02 0.03 0.03 0.00 0.00 0.00 0.00 0.00 0.00 0.00 0.00
0.46 0.45 0.50 0.58 0.87 0.85 0.57 0.52 0.38 0.49 0.47 0.02 0.01 0.01 0.04 0.09 0.05 0.02 0.00 0.09 0.22 0.18 0.33 0.37 0.04 0.10 0.24 0.20 0.16 0.08 0.06 0.02 0.07 0.18 0.11 0.05 0.08 0.01 0.00 0.00 0.00 0.00 0.00 0.00 0.00
0.52 0.57 0.57 0.75 0.63 0.50 0.58 0.70 0.65 0.50 0.18 0.03 0.04 0.09 0.10 0.05 0.04 0.08 0.04 0.12 0.18 0.48 0.56 0.18 0.07 0.14 0.16 0.13 0.22 0.11 0.18 0.24 0.22 0.33 0.54 0.07 0.06 0.02 0.00 0.00 0.00 0.00 0.00 0.00 0.00
0.71 0.72 0.87 0.77 0.64 0.47 0.85 1.30 0.90 0.31 0.04 0.12 0.09 0.09 0.04 0.03 0.04 0.09 0.15 0.17 0.25 0.38 0.43 0.30 0.33 0.22 0.21 0.31 0.41 0.40 0.57 0.92 0.82 0.57 0.36 0.10 0.05 0.05 0.00 0.00 0.00 0.00 0.00 0.00 0.00
0.72 0.89 1.15 0.88 0.66 0.73 1.01 1.30 0.53 0.04 0.07 0.15 0.12 0.06 0.04 0.01 0.03 0.04 0.16 0.16 0.10 0.18 0.36 0.24 0.38 0.32 0.25 0.56 0.64 0.49 0.53 0.63 0.52 0.25 0.06 0.04 0.12 0.01 0.00 0.00 0.00 0.00 0.00 0.00 0.00
1.02 1.32 1.70 1.27 0.99 1.13 1.08 1.10 0.19 0.10 0.13 0.14 0.25 0.18 0.05 0.01 0.01 0.04 0.09 0.04 0.03 0.12 0.39 0.24 0.48 0.38 0.14 0.46 0.37 0.42 0.45 0.33 0.36 0.23 0.24 0.04 0.01 0.00 0.00 0.00 0.00 0.00 0.00 0.00 0.00
0.96 1.68 1.77 1.15 1.25 1.61 1.40 0.60 0.11 0.11 0.18 0.24 0.19 0.05 0.02 0.01 0.02 0.05 0.03 0.00 0.00 0.03 0.20 0.24 0.64 0.61 0.46 0.81 0.61 0.34 0.19 0.33 0.81 0.55 0.30 0.07 0.00 0.00 0.00 0.00 0.00 0.00 0.00 0.00 0.00
0.94 1.57 1.44 1.21 1.92 2.49 1.52 0.49 0.10 0.14 0.22 0.24 0.11 0.06 0.02 0.01 0.00 0.01 0.02 0.00 0.00 0.02 0.16 0.40 0.73 0.75 0.99 0.96 0.61 0.53 0.62 0.44 0.44 0.28 0.28 0.19 0.01 0.00 0.00 0.00 0.00 0.00 0.00 0.00 0.00
0.96 1.26 1.25 1.73 2.68 2.00 0.78 0.30 0.13 0.13 0.25 0.26 0.15 0.07 0.04 0.02 0.02 0.01 0.01 0.01 0.00 0.00 0.12 0.36 0.74 0.86 0.68 0.27 0.22 0.34 0.30 0.30 0.76 0.42 0.34 0.31 0.07 0.00 0.01 0.01 0.00 0.01 0.02 0.01 0.00
1.10 1.32 1.90 1.23 1.25 0.65 0.39 0.23 0.19 0.15 0.27 0.25 0.13 0.06 0.02 0.03 0.06 0.00 0.00 0.00 0.00 0.01 0.09 0.43 0.89 0.84 0.62 0.53 0.58 0.79 0.41 0.34 0.55 0.84 0.58 0.31 0.09 0.00 0.00 0.00 0.00 0.01 0.03 0.02 0.01
1.29 1.83 2.50 2.16 0.59 0.10 0.19 0.19 0.22 0.16 0.24 0.26 0.21 0.13 0.08 0.04 0.02 0.01 0.00 0.00 0.00 0.00 0.03 0.41 0.87 0.93 0.75 0.43 0.57 0.82 0.45 0.53 0.89 0.83 0.32 0.26 0.03 0.01 0.01 0.02 0.01 0.00 0.02 0.04 0.01
1.14 1.10 0.67 0.68 0.50 0.09 0.16 0.21 0.31 0.39 0.30 0.36 0.38 0.11 0.07 0.07 0.02 0.02 0.00 0.01 0.00 0.00 0.06 0.43 0.89 0.88 0.49 0.28 0.42 0.57 0.56 0.48 0.77 0.35 0.28 0.10 0.07 0.03 0.03 0.02 0.02 0.01 0.01 0.02 0.01
0.75 0.89 0.28 0.04 0.09 0.13 0.22 0.24 0.27 0.35 0.39 0.28 0.23 0.08 0.07 0.05 0.00 0.00 0.00 0.01 0.01 0.02 0.11 0.33 0.70 0.75 0.61 0.24 0.38 0.48 0.55 0.34 0.52 0.22 0.19 0.15 0.12 0.01 0.01 0.01 0.00 0.00 0.01 0.02 0.00
0.60 0.66 0.44 0.21 0.09 0.17 0.12 0.22 0.38 0.37 0.19 0.10 0.13 0.17 0.09 0.01 0.01 0.01 0.00 0.00 0.01 0.06 0.15 0.26 0.49 0.71 0.64 0.48 0.28 0.46 0.58 0.66 0.46 0.18 0.22 0.27 0.14 0.01 0.01 0.01 0.00 0.01 0.02 0.02 0.00

GFSSW_prec_precacc24_048.txt.gz
Total_Precipitation_Accumulation
0.04 0.05 0.06 0.06 0.06 0.05 0.03 0.01 0.00 0.00 0.00 0.00 0.03 0.06 0.17 0.17 0.17 0.05 0.02 0.00 0.00 0.00 0.00 0.00 0.00 0.00 0.00 0.00 0.00 0.00 0.00 0.00 0.00 0.00 0.00 0.00 0.00 0.00 0.00 0.00 0.00 0.00 0.00 0.00 0.00
0.03 0.04 0.07 0.08 0.07 0.07 0.05 0.03 0.00 0.00 0.00 0.00 0.00 0.00 0.03 0.06 0.19 0.12 0.00 0.00 0.02 0.02 0.00 0.00 0.00 0.00 0.00 0.00 0.00 0.00 0.00 0.00 0.00 0.00 0.00 0.00 0.00 0.00 0.00 0.00 0.00 0.00 0.00 0.00 0.00
0.05 0.06 0.07 0.09 0.09 0.07 0.06 0.05 0.02 0.00 0.00 0.00 0.00 0.00 0.00 0.00 0.02 0.01 0.00 0.04 0.11 0.22 0.01 0.00 0.00 0.00 0.00 0.00 0.00 0.00 0.00 0.00 0.00 0.00 0.00 0.00 0.00 0.00 0.00 0.00 0.00 0.00 0.00 0.00 0.00
0.07 0.08 0.08 0.09 0.10 0.09 0.07 0.07 0.05 0.02 0.00 0.00 0.00 0.00 0.00 0.00 0.00 0.00 0.00 0.05 0.15 0.28 0.07 0.00 0.00 0.00 0.00 0.00 0.00 0.00 0.00 0.00 0.00 0.00 0.00 0.00 0.00 0.00 0.00 0.00 0.00 0.00 0.00 0.00 0.00
0.07 0.08 0.09 0.08 0.08 0.08 0.07 0.06 0.06 0.05 0.01 0.00 0.00 0.00 0.00 0.00 0.00 0.00 0.00 0.00 0.05 0.14 0.10 0.04 0.00 0.00 0.00 0.00 0.00 0.00 0.00 0.00 0.00 0.00 0.00 0.00 0.00 0.00 0.00 0.00 0.00 0.00 0.00 0.00 0.00
0.06 0.07 0.08 0.08 0.07 0.07 0.08 0.07 0.08 0.08 0.04 0.00 0.01 0.01 0.00 0.00 0.00 0.00 0.00 0.00 0.00 0.03 0.09 0.07 0.02 0.00 0.00 0.00 0.00 0.00 0.00 0.00 0.00 0.00 0.00 0.00 0.00 0.00 0.00 0.00 0.00 0.00 0.00 0.00 0.00
0.07 0.07 0.07 0.07 0.08 0.08 0.10 0.11 0.12 0.13 0.10 0.02 0.01 0.02 0.01 0.00 0.00 0.00 0.00 0.00 0.00 0.01 0.04 0.04 0.01 0.01 0.01 0.00 0.00 0.00 0.00 0.00 0.00 0.00 0.00 0.00 0.00 0.00 0.00 0.00 0.00 0.00 0.00 0.00 0.00
0.11 0.12 0.11 0.11 0.11 0.10 0.11 0.13 0.20 0.24 0.23 0.10 0.01 0.01 0.01 0.00 0.00 0.00 0.00 0.00 0.00 0.01 0.04 0.04 0.01 0.01 0.01 0.00 0.00 0.00 0.00 0.00 0.00 0.00 0.00 0.00 0.00 0.00 0.00 0.00 0.00 0.00 0.00 0.00 0.00
0.15 0.15 0.14 0.15 0.16 0.16 0.16 0.16 0.25 0.36 0.39 0.28 0.03 0.01 0.00 0.00 0.00 0.00 0.00 0.00 0.00 0.00 0.01 0.03 0.01 0.00 0.00 0.02 0.01 0.00 0.00 0.00 0.00 0.00 0.00 0.00 0.00 0.00 0.00 0.00 0.00 0.00 0.00 0.00 0.00
0.22 0.22 0.23 0.22 0.24 0.24 0.28 0.38 0.41 0.45 0.53 0.48 0.13 0.01 0.00 0.00 0.00 0.00 0.00 0.00 0.00 0.01 0.04 0.02 0.00 0.00 0.00 0.01 0.01 0.00 0.00 0.00 0.00 0.00 0.00 0.00 0.00 0.00 0.00 0.00 0.00 0.00 0.00 0.00 0.00
0.27 0.24 0.25 0.31 0.33 0.40 0.59 0.80 0.85 0.82 0.78 0.35 0.11 0.00 0.00 0.00 0.00 0.00 0.00 0.00 0.00 0.00 0.00 0.00 0.00 0.00 0.00 0.00 0.00 0.00 0.00 0.00 0.00 0.00 0.00 0.00 0.00 0.00 0.00 0.00 0.00 0.00 0.00 0.00 0.00
0.26 0.34 0.38 0.37 0.50 0.63 0.89 0.80 0.59 0.49 0.53 0.21 0.02 0.00 0.00 0.00 0.00 0.00 0.00 0.00 0.00 0.00 0.00 0.01 0.01 0.00 0.00 0.00 0.00 0.00 0.00 0.00 0.00 0.00 0.01 0.00 0.00 0.00 0.00 0.00 0.00 0.00 0.00 0.00 0.00
0.29 0.35 0.47 0.66 0.71 0.88 0.76 0.45 0.35 0.56 0.54 0.24 0.05 0.00 0.00 0.00 0.01 0.00 0.00 0.00 0.00 0.00 0.00 0.00 0.00 0.00 0.00 0.00 0.00 0.00 0.00 0.00 0.00 0.00 0.01 0.01 0.00 0.00 0.00 0.00 0.00 0.00 0.00 0.00 0.00
0.36 0.42 0.48 0.64 0.92 0.92 0.79 0.47 0.45 0.83 0.61 0.24 0.11 0.01 0.01 0.02 0.02 0.00 0.00 0.01 0.02 0.00 0.01 0.04 0.00 0.00 0.01 0.00 0.00 0.00 0.00 0.00 0.01 0.03 0.01 0.03 0.03 0.00 0.00 0.00 0.00 0.00 0.00 0.00 0.00
0.48 0.51 0.58 0.71 0.94 0.83 0.66 0.78 0.80 0.91 0.56 0.09 0.08 0.01 0.04 0.02 0.00 0.00 0.00 0.03 0.13 0.05 0.07 0.11 0.00 0.00 0.01 0.00 0.01 0.01 0.00 0.00 0.06 0.16 0.09 0.04 0.08 0.01 0.00 0.00 0.00 0.00 0.00 0.00 0.00
0.53 0.61 0.67 0.83 0.75 0.50 0.66 0.96 1.53 1.14 0.54 0.16 0.07 0.05 0.08 0.04 0.03 0.01 0.02 0.04 0.07 0.23 0.33 0.11 0.01 0.04 0.01 0.00 0.02 0.02 0.05 0.06 0.14 0.31 0.52 0.07 0.06 0.02 0.00 0.00 0.00 0.00 0.00 0.00 0.00
0.69 0.77 0.99 0.90 0.68 0.47 0.96 1.57 1.49 0.78 0.23 0.06 0.04 0.05 0.03 0.03 0.04 0.03 0.08 0.08 0.08 0.11 0.16 0.13 0.06 0.02 0.02 0.04 0.03 0.06 0.27 0.54 0.59 0.50 0.34 0.10 0.05 0.05 0.00 0.00 0.00 0.00 0.00 0.00 0.00
0.84 0.95 1.19 0.95 0.65 0.80 1.07 1.44 0.75 0.25 0.12 0.03 0.02 0.04 0.03 0.01 0.04 0.02 0.06 0.07 0.03 0.03 0.04 0.02 0.01 0.01 0.01 0.03 0.03 0.03 0.16 0.51 0.45 0.22 0.06 0.04 0.12 0.01 0.00 0.00 0.00 0.00 0.00 0.00 0.00
1.13 1.30 1.66 1.30 0.95 1.15 1.03 1.08 0.39 0.18 0.03 0.03 0.08 0.10 0.07 0.01 0.02 0.03 0.03 0.01 0.01 0.01 0.04 0.04 0.08 0.05 0.03 0.02 0.04 0.07 0.25 0.28 0.35 0.24 0.24 0.04 0.01 0.00 0.00 0.00 0.00 0.00 0.00 0.00 0.00
1.03 1.67 1.88 1.16 1.16 1.57 1.28 0.53 0.27 0.17 0.03 0.05 0.07 0.03 0.03 0.01 0.02 0.02 0.02 0.00 0.00 0.00 0.00 0.05 0.13 0.16 0.28 0.32 0.20 0.07 0.10 0.31 0.80 0.55 0.29 0.07 0.00 0.00 0.00 0.00 0.00 0.00 0.00 0.00 0.00
1.02 1.57 1.63 1.29 1.77 2.23 1.40 0.46 0.26 0.08 0.05 0.07 0.05 0.05 0.02 0.01 0.00 0.00 0.00 0.00 0.00 0.00 0.01 0.06 0.18 0.13 0.58 0.47 0.22 0.36 0.58 0.43 0.43 0.28 0.27 0.19 0.01 0.00 0.00 0.00 0.00 0.00 0.00 0.00 0.00
1.10 1.53 1.42 1.80 2.53 1.93 0.75 0.22 0.23 0.09 0.07 0.10 0.09 0.06 0.04 0.02 0.02 0.00 0.00 0.00 0.00 0.00 0.02 0.05 0.31 0.24 0.37 0.17 0.09 0.31 0.30 0.29 0.77 0.41 0.38 0.35 0.10 0.00 0.01 0.01 0.00 0.01 0.02 0.01 0.00
1.22 1.41 1.82 1.30 1.25 0.69 0.37 0.24 0.16 0.08 0.12 0.15 0.10 0.05 0.02 0.03 0.07 0.00 0.00 0.00 0.00 0.00 0.07 0.28 0.52 0.33 0.27 0.39 0.47 0.75 0.41 0.34 0.59 0.97 0.66 0.42 0.14 0.00 0.00 0.00 0.00 0.01 0.03 0.02 0.01
1.41 1.81 2.32 2.10 0.64 0.11 0.17 0.29 0.12 0.09 0.15 0.18 0.17 0.12 0.08 0.04 0.02 0.01 0.00 0.00 0.00 0.00 0.03 0.33 0.63 0.61 0.58 0.35 0.55 0.82 0.45 0.57 1.13 1.08 0.35 0.29 0.04 0.01 0.01 0.02 0.01 0.00 0.02 0.04 0.01
1.26 1.14 0.79 0.69 0.58 0.13 0.10 0.14 0.09 0.14 0.16 0.25 0.21 0.10 0.07 0.07 0.02 0.01 0.00 0.00 0.00 0.00 0.06 0.42 0.84 0.81 0.45 0.28 0.41 0.56 0.56 0.49 0.94 0.52 0.50 0.16 0.07 0.03 0.03 0.02 0.02 0.01 0.01 0.03 0.02
0.80 1.05 0.38 0.07 0.15 0.16 0.12 0.17 0.09 0.13 0.19 0.15 0.12 0.07 0.07 0.05 0.00 0.00 0.00 0.00 0.01 0.01 0.11 0.33 0.70 0.74 0.61 0.24 0.38 0.48 0.55 0.36 0.56 0.27 0.26 0.16 0.13 0.01 0.01 0.01 0.00 0.01 0.04 0.06 0.05
0.65 0.77 0.48 0.21 0.11 0.17 0.08 0.05 0.07 0.12 0.09 0.06 0.10 0.17 0.08 0.01 0.00 0.00 0.00 0.00 0.01 0.06 0.16 0.27 0.50 0.73 0.64 0.48 0.28 0.47 0.58 0.68 0.48 0.20 0.24 0.27 0.14 0.01 0.01 0.04 0.06 0.04 0.06 0.04 0.02

GFSSW_prec_precacc24_051.txt.gz
Total_Precipitation_Accumulation
0.04 0.05 0.06 0.06 0.06 0.05 0.04 0.03 0.04 0.02 0.00 0.00 0.01 0.05 0.16 0.17 0.17 0.06 0.02 0.00 0.00 0.00 0.00 0.00 0.00 0.00 0.00 0.00 0.00 0.00 0.00 0.00 0.00 0.00 0.00 0.00 0.00 0.00 0.00 0.00 0.00 0.00 0.00 0.00 0.00
0.03 0.04 0.07 0.08 0.07 0.07 0.05 0.04 0.05 0.04 0.01 0.00 0.00 0.00 0.03 0.06 0.19 0.12 0.00 0.00 0.02 0.02 0.00 0.00 0.00 0.00 0.00 0.00 0.00 0.00 0.00 0.00 0.00 0.00 0.00 0.00 0.00 0.00 0.00 0.00 0.00 0.00 0.00 0.00 0.00
0.05 0.06 0.07 0.09 0.09 0.07 0.06 0.05 0.04 0.05 0.05 0.00 0.00 0.00 0.00 0.00 0.02 0.01 0.00 0.04 0.11 0.22 0.01 0.00 0.00 0.00 0.00 0.00 0.00 0.00 0.00 0.00 0.00 0.00 0.00 0.00 0.00 0.00 0.00 0.00 0.00 0.00 0.00 0.00 0.00
0.07 0.08 0.08 0.09 0.10 0.09 0.07 0.07 0.05 0.05 0.08 0.04 0.00 0.00 0.00 0.00 0.00 0.00 0.00 0.05 0.18 0.34 0.08 0.01 0.00 0.00 0.00 0.00 0.00 0.00 0.00 0.00 0.00 0.00 0.00 0.00 0.00 0.00 0.00 0.00 0.00 0.00 0.00 0.00 0.00
0.07 0.08 0.09 0.08 0.08 0.08 0.07 0.06 0.07 0.06 0.10 0.12 0.01 0.00 0.00 0.00 0.00 0.00 0.00 0.01 0.12 0.24 0.12 0.06 0.01 0.00 0.00 0.00 0.00 0.00 0.00 0.00 0.00 0.00 0.00 0.00 0.00 0.00 0.00 0.00 0.00 0.00 0.00 0.00 0.00
0.07 0.08 0.08 0.08 0.07 0.07 0.09 0.07 0.08 0.08 0.10 0.13 0.04 0.00 0.00 0.00 0.00 0.00 0.00 0.00 0.01 0.11 0.15 0.16 0.03 0.00 0.00 0.00 0.00 0.00 0.00 0.00 0.00 0.00 0.00 0.00 0.00 0.00 0.00 0.00 0.00 0.00 0.00 0.00 0.00
0.08 0.08 0.07 0.07 0.08 0.07 0.10 0.11 0.12 0.13 0.14 0.18 0.17 0.01 0.00 0.00 0.00 0.00 0.00 0.00 0.00 0.01 0.08 0.12 0.04 0.01 0.01 0.00 0.00 0.00 0.00 0.00 0.00 0.00 0.00 0.00 0.00 0.00 0.00 0.00 0.00 0.00 0.00 0.00 0.00
0.13 0.13 0.11 0.11 0.11 0.10 0.11 0.14 0.20 0.24 0.24 0.23 0.24 0.02 0.00 0.00 0.00 0.00 0.00 0.00 0.00 0.01 0.04 0.11 0.05 0.01 0.01 0.00 0.00 0.00 0.00 0.00 0.00 0.00 0.00 0.00 0.00 0.00 0.00 0.00 0.00 0.00 0.00 0.00 0.00
0.16 0.16 0.15 0.16 0.17 0.16 0.16 0.16 0.25 0.35 0.38 0.39 0.44 0.07 0.00 0.00 0.00 0.00 0.00 0.00 0.00 0.00 0.01 0.06 0.05 0.00 0.00 0.02 0.01 0.00 0.00 0.00 0.00 0.00 0.00 0.00 0.00 0.00 0.00 0.00 0.00 0.00 0.00 0.00 0.00
0.21 0.23 0.25 0.24 0.25 0.24 0.30 0.40 0.41 0.44 0.53 0.71 0.57 0.14 0.01 0.00 0.00 0.00 0.00 0.00 0.00 0.02 0.06 0.03 0.01 0.00 0.00 0.01 0.00 0.00 0.00 0.00 0.00 0.00 0.00 0.00 0.00 0.00 0.00 0.00 0.00 0.00 0.00 0.00 0.00
0.26 0.25 0.28 0.33 0.34 0.44 0.63 0.81 0.86 0.84 0.81 0.64 0.45 0.06 0.00 0.00 0.00 0.00 0.00 0.00 0.01 0.03 0.02 0.02 0.01 0.00 0.00 0.00 0.00 0.00 0.00 0.00 0.00 0.00 0.00 0.00 0.00 0.00 0.00 0.00 0.00 0.00 0.00 0.00 0.00
0.26 0.35 0.40 0.38 0.51 0.65 0.95 0.82 0.62 0.53 0.56 0.39 0.22 0.01 0.00 0.00 0.00 0.00 0.00 0.00 0.00 0.01 0.00 0.01 0.01 0.00 0.00 0.00 0.00 0.00 0.00 0.00 0.00 0.00 0.00 0.00 0.00 0.00 0.00 0.00 0.00 0.00 0.00 0.00 0.00
0.28 0.33 0.47 0.67 0.71 0.89 0.81 0.54 0.39 0.59 0.57 0.34 0.35 0.14 0.00 0.00 0.01 0.00 0.00 0.00 0.00 0.00 0.00 0.00 0.00 0.00 0.00 0.00 0.00 0.00 0.00 0.00 0.00 0.00 0.00 0.00 0.00 0.00 0.00 0.00 0.00 0.00 0.00 0.00 0.00
0.34 0.39 0.47 0.67 0.94 0.94 0.83 0.73 0.49 0.88 0.64 0.31 0.46 0.24 0.02 0.02 0.01 0.00 0.00 0.00 0.00 0.00 0.00 0.02 0.00 0.00 0.00 0.00 0.00 0.00 0.00 0.00 0.00 0.01 0.00 0.01 0.02 0.00 0.00 0.00 0.00 0.00 0.00 0.00 0.00
0.44 0.47 0.59 0.76 0.96 0.83 0.71 0.85 0.80 0.94 0.64 0.14 0.30 0.12 0.04 0.02 0.00 0.00 0.00 0.01 0.04 0.03 0.03 0.04 0.00 0.00 0.00 0.00 0.00 0.00 0.00 0.00 0.01 0.02 0.04 0.00 0.06 0.01 0.00 0.00 0.00 0.00 0.00 0.00 0.00
0.49 0.57 0.67 0.86 0.82 0.54 0.68 1.04 1.56 1.16 0.69 0.38 0.31 0.13 0.08 0.04 0.02 0.01 0.02 0.03 0.04 0.14 0.23 0.08 0.00 0.01 0.00 0.00 0.00 0.01 0.05 0.05 0.10 0.16 0.19 0.01 0.02 0.01 0.00 0.00 0.00 0.00 0.00 0.00 0.00
0.64 0.75 0.99 0.95 0.76 0.49 0.97 1.58 1.50 0.80 0.44 0.22 0.17 0.07 0.03 0.03 0.04 0.02 0.05 0.08 0.06 0.09 0.12 0.12 0.05 0.01 0.00 0.02 0.01 0.04 0.23 0.33 0.26 0.31 0.11 0.00 0.01 0.03 0.00 0.00 0.00 0.00 0.00 0.00 0.00
0.75 0.91 1.15 0.97 0.71 0.80 1.09 1.46 0.77 0.30 0.33 0.12 0.04 0.05 0.04 0.02 0.04 0.03 0.05 0.06 0.03 0.02 0.03 0.01 0.00 0.01 0.01 0.01 0.02 0.02 0.07 0.19 0.15 0.05 0.01 0.01 0.05 0.01 0.00 0.00 0.00 0.00 0.00 0.00 0.00
1.01 1.17 1.50 1.26 0.95 1.14 1.04 1.07 0.39 0.41 0.17 0.16 0.13 0.14 0.10 0.02 0.03 0.03 0.03 0.01 0.01 0.01 0.03 0.01 0.00 0.00 0.00 0.00 0.01 0.04 0.12 0.04 0.13 0.13 0.18 0.03 0.01 0.00 0.00 0.00 0.00 0.00 0.00 0.00 0.00
0.93 1.51 1.70 1.13 1.12 1.50 1.22 0.52 0.28 0.31 0.21 0.06 0.13 0.06 0.04 0.02 0.02 0.03 0.02 0.00 0.00 0.00 0.00 0.00 0.01 0.00 0.05 0.20 0.13 0.02 0.04 0.11 0.42 0.31 0.18 0.06 0.00 0.00 0.00 0.00 0.00 0.00 0.00 0.00 0.00
0.95 1.47 1.57 1.26 1.61 2.03 1.31 0.47 0.30 0.21 0.15 0.05 0.01 0.03 0.01 0.01 0.00 0.00 0.00 0.00 0.00 0.00 0.00 0.01 0.10 0.08 0.31 0.37 0.15 0.17 0.31 0.24 0.22 0.14 0.19 0.18 0.01 0.00 0.00 0.00 0.00 0.00 0.00 0.00 0.00
1.01 1.52 1.40 1.69 2.26 1.78 0.75 0.26 0.52 0.29 0.05 0.02 0.03 0.04 0.03 0.02 0.02 0.00 0.00 0.00 0.00 0.00 0.01 0.03 0.26 0.17 0.22 0.12 0.05 0.13 0.11 0.19 0.53 0.27 0.32 0.34 0.10 0.00 0.01 0.01 0.00 0.01 0.02 0.01 0.00
1.16 1.27 1.68 1.21 1.14 0.66 0.40 0.34 0.37 0.09 0.03 0.07 0.06 0.04 0.02 0.02 0.05 0.00 0.00 0.00 0.00 0.00 0.06 0.17 0.34 0.20 0.13 0.28 0.28 0.41 0.18 0.27 0.51 0.92 0.64 0.42 0.14 0.00 0.00 0.00 0.00 0.01 0.03 0.02 0.01
1.35 1.72 2.05 1.93 0.60 0.13 0.25 0.45 0.22 0.08 0.05 0.08 0.11 0.11 0.07 0.04 0.01 0.01 0.00 0.00 0.00 0.00 0.02 0.16 0.32 0.39 0.43 0.32 0.45 0.65 0.34 0.54 1.10 1.06 0.34 0.29 0.04 0.01 0.01 0.02 0.01 0.00 0.02 0.04 0.01
1.18 1.07 0.74 0.64 0.56 0.14 0.16 0.21 0.07 0.03 0.05 0.12 0.12 0.09 0.06 0.06 0.02 0.01 0.00 0.00 0.00 0.00 0.05 0.24 0.44 0.54 0.35 0.28 0.41 0.55 0.55 0.48 0.91 0.50 0.51 0.16 0.07 0.03 0.03 0.02 0.02 0.01 0.01 0.04 0.05
0.75 1.01 0.36 0.14 0.18 0.14 0.20 0.29 0.08 0.01 0.07 0.08 0.08 0.06 0.07 0.04 0.00 0.00 0.00 0.00 0.01 0.01 0.11 0.29 0.58 0.63 0.50 0.24 0.38 0.48 0.55 0.36 0.55 0.27 0.26 0.17 0.13 0.01 0.01 0.01 0.00 0.01 0.04 0.07 0.07
0.63 0.74 0.46 0.22 0.11 0.21 0.17 0.12 0.03 0.02 0.02 0.03 0.07 0.10 0.06 0.01 0.00 0.00 0.00 0.00 0.01 0.06 0.16 0.27 0.49 0.70 0.60 0.47 0.27 0.46 0.58 0.68 0.48 0.20 0.25 0.27 0.14 0.01 0.01 0.04 0.06 0.04 0.06 0.04 0.03

GFSSW_prec_precacc24_054.txt.gz
Total_Precipitation_Accumulation
0.04 0.05 0.06 0.06 0.06 0.05 0.04 0.03 0.04 0.04 0.05 0.04 0.00 0.03 0.14 0.16 0.17 0.06 0.03 0.00 0.00 0.00 0.00 0.00 0.00 0.00 0.00 0.00 0.00 0.00 0.00 0.00 0.00 0.00 0.00 0.00 0.00 0.00 0.00 0.00 0.00 0.00 0.00 0.00 0.00
0.03 0.04 0.07 0.08 0.07 0.07 0.05 0.04 0.05 0.04 0.06 0.07 0.03 0.00 0.02 0.05 0.19 0.12 0.00 0.00 0.02 0.03 0.01 0.00 0.00 0.00 0.00 0.00 0.00 0.00 0.00 0.00 0.00 0.00 0.00 0.00 0.00 0.00 0.00 0.00 0.00 0.00 0.00 0.00 0.00
0.05 0.06 0.07 0.09 0.09 0.07 0.06 0.05 0.04 0.05 0.07 0.10 0.08 0.01 0.00 0.00 0.02 0.01 0.00 0.04 0.11 0.23 0.01 0.00 0.00 0.00 0.00 0.00 0.00 0.00 0.00 0.00 0.00 0.00 0.00 0.00 0.00 0.00 0.00 0.00 0.00 0.00 0.00 0.00 0.00
0.08 0.08 0.09 0.10 0.10 0.10 0.07 0.07 0.05 0.05 0.08 0.09 0.09 0.05 0.00 0.00 0.00 0.00 0.00 0.05 0.19 0.39 0.11 0.01 0.00 0.00 0.00 0.00 0.00 0.00 0.00 0.00 0.00 0.00 0.00 0.00 0.00 0.00 0.00 0.00 0.00 0.00 0.00 0.00 0.00
0.09 0.10 0.10 0.09 0.08 0.08 0.07 0.06 0.07 0.06 0.10 0.14 0.14 0.14 0.01 0.00 0.00 0.00 0.01 0.03 0.13 0.29 0.15 0.06 0.01 0.00 0.00 0.00 0.00 0.00 0.00 0.00 0.00 0.00 0.00 0.00 0.00 0.00 0.00 0.00 0.00 0.00 0.00 0.00 0.00
0.08 0.09 0.09 0.09 0.08 0.08 0.09 0.08 0.08 0.08 0.10 0.14 0.21 0.22 0.03 0.00 0.00 0.00 0.00 0.05 0.04 0.14 0.16 0.18 0.04 0.00 0.00 0.00 0.00 0.00 0.00 0.00 0.00 0.00 0.00 0.00 0.00 0.00 0.00 0.00 0.00 0.00 0.00 0.00 0.00
0.07 0.08 0.09 0.09 0.09 0.08 0.10 0.11 0.12 0.13 0.14 0.18 0.26 0.33 0.06 0.00 0.00 0.00 0.00 0.00 0.02 0.04 0.12 0.14 0.09 0.01 0.01 0.00 0.00 0.00 0.00 0.00 0.00 0.00 0.00 0.00 0.00 0.00 0.00 0.00 0.00 0.00 0.00 0.00 0.00
0.12 0.12 0.12 0.12 0.12 0.11 0.11 0.14 0.21 0.24 0.24 0.24 0.29 0.33 0.08 0.00 0.00 0.00 0.00 0.00 0.00 0.02 0.09 0.20 0.14 0.04 0.01 0.00 0.00 0.00 0.00 0.00 0.00 0.00 0.00 0.00 0.00 0.00 0.00 0.00 0.00 0.00 0.00 0.00 0.00
0.16 0.16 0.16 0.17 0.18 0.18 0.17 0.17 0.26 0.36 0.37 0.39 0.48 0.34 0.07 0.00 0.00 0.00 0.00 0.00 0.00 0.00 0.02 0.13 0.13 0.12 0.06 0.01 0.00 0.00 0.00 0.00 0.00 0.00 0.00 0.00 0.00 0.00 0.00 0.00 0.00 0.00 0.00 0.00 0.00
0.20 0.20 0.26 0.26 0.25 0.24 0.33 0.41 0.41 0.45 0.52 0.70 0.64 0.43 0.08 0.00 0.00 0.00 0.00 0.00 0.00 0.04 0.10 0.09 0.07 0.04 0.10 0.02 0.00 0.00 0.00 0.00 0.00 0.00 0.00 0.00 0.00 0.00 0.00 0.00 0.00 0.00 0.00 0.00 0.00
0.27 0.26 0.27 0.32 0.33 0.45 0.67 0.82 0.86 0.88 0.83 0.65 0.56 0.13 0.01 0.00 0.00 0.00 0.00 0.00 0.03 0.06 0.02 0.03 0.01 0.00 0.00 0.00 0.00 0.00 0.00 0.00 0.00 0.00 0.00 0.00 0.00 0.00 0.00 0.00 0.00 0.00 0.00 0.00 0.00
0.27 0.33 0.37 0.38 0.50 0.66 0.99 0.83 0.63 0.56 0.59 0.39 0.35 0.08 0.02 0.00 0.00 0.00 0.00 0.00 0.02 0.02 0.01 0.02 0.01 0.00 0.00 0.00 0.00 0.00 0.00 0.00 0.00 0.00 0.00 0.00 0.00 0.00 0.00 0.00 0.00 0.00 0.00 0.00 0.00
0.27 0.31 0.43 0.65 0.69 0.88 0.81 0.60 0.50 0.62 0.58 0.34 0.45 0.34 0.06 0.00 0.00 0.00 0.00 0.00 0.01 0.01 0.00 0.00 0.00 0.00 0.00 0.00 0.00 0.00 0.00 0.00 0.00 0.00 0.00 0.00 0.00 0.00 0.00 0.00 0.00 0.00 0.00 0.00 0.00
0.31 0.35 0.43 0.65 0.92 0.95 0.84 0.80 0.55 0.89 0.68 0.31 0.55 0.56 0.15 0.02 0.01 0.00 0.00 0.00 0.00 0.00 0.00 0.01 0.00 0.00 0.00 0.00 0.00 0.00 0.00 0.00 0.00 0.01 0.00 0.00 0.00 0.00 0.00 0.00 0.00 0.00 0.00 0.00 0.00
0.37 0.40 0.53 0.79 0.98 0.85 0.74 0.89 0.81 0.94 0.67 0.17 0.40 0.39 0.11 0.02 0.00 0.00 0.00 0.00 0.01 0.00 0.00 0.01 0.00 0.00 0.00 0.00 0.00 0.00 0.00 0.00 0.01 0.02 0.02 0.00 0.01 0.00 0.00 0.00 0.00 0.00 0.00 0.00 0.00
0.38 0.48 0.63 0.81 0.87 0.62 0.70 1.07 1.57 1.17 0.75 0.63 0.46 0.47 0.13 0.05 0.02 0.01 0.02 0.02 0.02 0.06 0.08 0.02 0.00 0.00 0.00 0.00 0.00 0.01 0.03 0.04 0.09 0.13 0.15 0.00 0.00 0.00 0.00 0.00 0.00 0.00 0.00 0.00 0.00
0.44 0.58 0.96 0.97 0.78 0.50 0.97 1.60 1.50 0.82 0.57 0.46 0.42 0.20 0.05 0.03 0.04 0.02 0.04 0.05 0.04 0.07 0.08 0.06 0.03 0.01 0.00 0.01 0.01 0.02 0.17 0.25 0.24 0.28 0.09 0.00 0.00 0.00 0.00 0.00 0.00 0.00 0.00 0.00 0.00
0.43 0.59 0.99 0.94 0.75 0.81 1.10 1.47 0.76 0.33 0.44 0.36 0.19 0.08 0.05 0.02 0.04 0.03 0.04 0.04 0.02 0.01 0.02 0.01 0.00 0.00 0.00 0.01 0.01 0.01 0.05 0.13 0.14 0.05 0.01 0.00 0.00 0.00 0.00 0.00 0.00 0.00 0.00 0.00 0.00
0.61 0.45 1.05 1.24 0.96 1.13 1.04 1.05 0.42 0.51 0.40 0.47 0.22 0.20 0.14 0.02 0.03 0.03 0.03 0.01 0.01 0.01 0.02 0.00 0.00 0.00 0.00 0.00 0.00 0.02 0.08 0.04 0.12 0.12 0.16 0.02 0.00 0.00 0.00 0.00 0.00 0.00 0.00 0.00 0.00
0.55 0.74 1.02 1.12 1.09 1.44 1.14 0.55 0.32 0.36 0.47 0.23 0.22 0.10 0.05 0.03 0.02 0.03 0.02 0.00 0.00 0.00 0.00 0.00 0.00 0.00 0.00 0.02 0.01 0.01 0.02 0.09 0.37 0.23 0.11 0.01 0.00 0.00 0.00 0.00 0.00 0.00 0.00 0.00 0.00
0.54 0.77 1.14 1.10 1.53 1.85 1.21 0.50 0.35 0.30 0.34 0.15 0.01 0.01 0.00 0.01 0.00 0.00 0.00 0.00 0.00 0.00 0.00 0.00 0.03 0.03 0.12 0.10 0.04 0.14 0.25 0.21 0.21 0.13 0.06 0.04 0.01 0.00 0.00 0.00 0.00 0.00 0.00 0.00 0.00
0.62 1.07 1.11 1.44 2.03 1.59 0.76 0.35 0.71 0.48 0.10 0.01 0.00 0.00 0.00 0.01 0.01 0.00 0.00 0.00 0.00 0.00 0.00 0.01 0.17 0.10 0.08 0.02 0.04 0.12 0.08 0.19 0.51 0.19 0.26 0.18 0.08 0.00 0.01 0.01 0.00 0.01 0.02 0.01 0.00
0.76 0.90 1.44 1.06 0.86 0.66 0.46 0.45 0.54 0.16 0.02 0.02 0.00 0.01 0.01 0.01 0.04 0.00 0.00 0.00 0.00 0.00 0.01 0.06 0.20 0.12 0.08 0.14 0.21 0.30 0.16 0.26 0.44 0.67 0.45 0.34 0.13 0.00 0.00 0.00 0.00 0.01 0.03 0.02 0.01
0.92 1.45 1.77 1.64 0.50 0.19 0.41 0.67 0.38 0.09 0.02 0.00 0.01 0.03 0.04 0.03 0.01 0.01 0.00 0.00 0.00 0.00 0.00 0.06 0.16 0.13 0.16 0.19 0.42 0.58 0.27 0.47 1.00 0.88 0.17 0.15 0.01 0.01 0.01 0.02 0.01 0.00 0.02 0.04 0.01
0.88 0.99 0.66 0.54 0.50 0.15 0.24 0.27 0.08 0.03 0.01 0.02 0.03 0.02 0.05 0.05 0.02 0.01 0.00 0.00 0.00 0.00 0.01 0.13 0.20 0.16 0.13 0.17 0.38 0.47 0.40 0.40 0.72 0.35 0.39 0.11 0.04 0.01 0.03 0.02 0.02 0.01 0.01 0.04 0.05
0.62 1.00 0.36 0.14 0.18 0.16 0.23 0.29 0.07 0.01 0.02 0.01 0.02 0.03 0.02 0.04 0.00 0.00 0.00 0.00 0.01 0.01 0.08 0.20 0.28 0.30 0.36 0.20 0.31 0.39 0.30 0.28 0.20 0.10 0.16 0.15 0.12 0.01 0.01 0.01 0.00 0.01 0.04 0.07 0.07
0.57 0.74 0.45 0.22 0.14 0.29 0.23 0.12 0.03 0.02 0.02 0.00 0.01 0.03 0.02 0.01 0.00 0.00 0.00 0.00 0.00 0.04 0.14 0.25 0.34 0.44 0.49 0.44 0.25 0.41 0.48 0.62 0.33 0.14 0.20 0.25 0.14 0.01 0.01 0.04 0.06 0.05 0.06 0.04 0.03

GFSSW_prec_precacc24_057.txt.gz
Total_Precipitation_Accumulation
0.04 0.05 0.06 0.06 0.06 0.05 0.04 0.03 0.04 0.04 0.05 0.06 0.08 0.08 0.07 0.14 0.16 0.06 0.03 0.00 0.00 0.00 0.00 0.00 0.00 0.00 0.00 0.00 0.00 0.00 0.00 0.00 0.00 0.00 0.00 0.00 0.00 0.00 0.00 0.00 0.00 0.00 0.00 0.00 0.00
0.03 0.04 0.07 0.08 0.07 0.07 0.05 0.04 0.05 0.04 0.06 0.07 0.07 0.07 0.07 0.05 0.19 0.12 0.00 0.00 0.02 0.03 0.02 0.00 0.00 0.00 0.00 0.00 0.00 0.00 0.00 0.00 0.00 0.00 0.00 0.00 0.00 0.00 0.00 0.00 0.00 0.00 0.00 0.00 0.00
0.06 0.07 0.08 0.10 0.10 0.08 0.06 0.05 0.04 0.05 0.07 0.10 0.10 0.10 0.11 0.02 0.02 0.01 0.00 0.04 0.11 0.23 0.03 0.01 0.00 0.00 0.00 0.00 0.00 0.00 0.00 0.00 0.00 0.00 0.00 0.00 0.00 0.00 0.00 0.00 0.00 0.00 0.00 0.00 0.00
0.09 0.10 0.11 0.10 0.10 0.10 0.08 0.07 0.05 0.05 0.08 0.09 0.09 0.10 0.16 0.05 0.00 0.00 0.00 0.05 0.19 0.39 0.13 0.03 0.00 0.00 0.00 0.00 0.00 0.00 0.00 0.00 0.00 0.00 0.00 0.00 0.00 0.00 0.00 0.00 0.00 0.00 0.00 0.00 0.00
0.09 0.11 0.11 0.09 0.08 0.09 0.09 0.07 0.07 0.06 0.10 0.14 0.14 0.19 0.24 0.05 0.00 0.00 0.02 0.04 0.13 0.33 0.17 0.07 0.01 0.00 0.00 0.00 0.00 0.00 0.00 0.00 0.00 0.00 0.00 0.00 0.00 0.00 0.00 0.00 0.00 0.00 0.00 0.00 0.00
0.08 0.09 0.09 0.10 0.09 0.08 0.09 0.08 0.08 0.09 0.11 0.14 0.21 0.27 0.23 0.03 0.00 0.00 0.00 0.08 0.05 0.18 0.19 0.18 0.04 0.00 0.00 0.00 0.00 0.00 0.00 0.00 0.00 0.00 0.00 0.00 0.00 0.00 0.00 0.00 0.00 0.00 0.00 0.00 0.00
0.08 0.08 0.10 0.11 0.10 0.09 0.11 0.11 0.12 0.13 0.14 0.18 0.26 0.35 0.20 0.03 0.00 0.00 0.00 0.04 0.09 0.13 0.16 0.14 0.09 0.01 0.00 0.00 0.00 0.00 0.00 0.00 0.00 0.00 0.00 0.00 0.00 0.00 0.00 0.00 0.00 0.00 0.00 0.00 0.00
0.13 0.12 0.13 0.14 0.14 0.13 0.13 0.15 0.22 0.24 0.24 0.24 0.30 0.39 0.15 0.00 0.00 0.00 0.00 0.01 0.04 0.11 0.20 0.32 0.21 0.06 0.01 0.00 0.00 0.00 0.00 0.00 0.00 0.00 0.00 0.00 0.00 0.00 0.00 0.00 0.00 0.00 0.00 0.00 0.00
0.16 0.16 0.16 0.18 0.19 0.20 0.19 0.19 0.27 0.36 0.41 0.39 0.50 0.39 0.14 0.00 0.00 0.00 0.00 0.00 0.00 0.06 0.12 0.27 0.26 0.24 0.07 0.00 0.00 0.00 0.00 0.00 0.00 0.00 0.00 0.00 0.00 0.00 0.00 0.00 0.00 0.00 0.00 0.00 0.00
0.20 0.19 0.23 0.23 0.25 0.27 0.35 0.42 0.41 0.45 0.52 0.70 0.67 0.47 0.11 0.00 0.00 0.00 0.00 0.00 0.00 0.06 0.16 0.29 0.28 0.30 0.19 0.04 0.01 0.00 0.00 0.00 0.00 0.00 0.00 0.00 0.00 0.00 0.00 0.00 0.00 0.00 0.00 0.00 0.00
0.24 0.24 0.25 0.29 0.34 0.48 0.70 0.82 0.86 0.89 0.83 0.64 0.56 0.14 0.04 0.00 0.01 0.00 0.00 0.00 0.06 0.14 0.04 0.12 0.35 0.10 0.13 0.07 0.01 0.00 0.00 0.00 0.00 0.00 0.00 0.00 0.00 0.00 0.00 0.00 0.00 0.00 0.00 0.00 0.00
0.19 0.29 0.35 0.33 0.48 0.70 1.00 0.83 0.63 0.57 0.61 0.39 0.35 0.09 0.09 0.00 0.01 0.00 0.00 0.00 0.04 0.05 0.02 0.03 0.08 0.06 0.03 0.06 0.04 0.00 0.00 0.00 0.00 0.00 0.00 0.00 0.00 0.00 0.00 0.00 0.00 0.00 0.00 0.00 0.00
0.16 0.21 0.38 0.59 0.65 0.86 0.81 0.60 0.52 0.64 0.63 0.34 0.45 0.36 0.17 0.03 0.01 0.00 0.00 0.01 0.05 0.04 0.01 0.00 0.00 0.00 0.00 0.00 0.00 0.00 0.00 0.00 0.00 0.00 0.00 0.00 0.00 0.00 0.00 0.00 0.00 0.00 0.00 0.00 0.00
0.16 0.17 0.35 0.54 0.84 0.94 0.84 0.81 0.58 0.94 0.81 0.32 0.55 0.61 0.35 0.11 0.04 0.00 0.00 0.01 0.05 0.03 0.02 0.01 0.00 0.00 0.00 0.00 0.00 0.00 0.00 0.00 0.00 0.00 0.00 0.00 0.00 0.00 0.00 0.00 0.00 0.00 0.00 0.00 0.00
0.14 0.12 0.31 0.77 1.06 0.89 0.78 0.92 0.83 0.98 0.74 0.19 0.40 0.50 0.33 0.08 0.02 0.01 0.00 0.01 0.01 0.00 0.00 0.01 0.00 0.00 0.00 0.00 0.00 0.00 0.00 0.00 0.00 0.01 0.02 0.00 0.01 0.00 0.00 0.00 0.00 0.00 0.00 0.00 0.00
0.08 0.12 0.33 0.76 0.94 0.66 0.73 1.08 1.60 1.19 0.82 0.73 0.48 0.75 0.39 0.06 0.01 0.01 0.02 0.02 0.02 0.03 0.02 0.00 0.00 0.00 0.00 0.00 0.00 0.00 0.01 0.02 0.04 0.11 0.13 0.00 0.00 0.00 0.00 0.00 0.00 0.00 0.00 0.00 0.00
0.22 0.22 0.43 0.83 0.75 0.50 0.98 1.60 1.50 0.82 0.63 0.67 0.49 0.55 0.14 0.04 0.04 0.04 0.06 0.04 0.03 0.07 0.07 0.02 0.00 0.00 0.00 0.01 0.00 0.01 0.07 0.08 0.08 0.17 0.07 0.00 0.00 0.00 0.00 0.00 0.00 0.00 0.00 0.00 0.00
0.31 0.31 0.22 0.69 0.72 0.78 1.10 1.47 0.78 0.39 0.64 0.56 0.37 0.25 0.08 0.03 0.05 0.04 0.04 0.04 0.02 0.01 0.02 0.01 0.00 0.00 0.00 0.01 0.01 0.01 0.02 0.03 0.03 0.02 0.01 0.00 0.00 0.00 0.00 0.00 0.00 0.00 0.00 0.00 0.00
0.44 0.18 0.17 0.65 0.92 1.07 1.04 1.06 0.48 0.65 0.64 0.86 0.42 0.25 0.18 0.03 0.04 0.04 0.03 0.01 0.01 0.01 0.02 0.00 0.00 0.00 0.00 0.00 0.00 0.01 0.04 0.01 0.05 0.05 0.11 0.02 0.00 0.00 0.00 0.00 0.00 0.00 0.00 0.00 0.00
0.39 0.29 0.42 0.56 1.00 1.42 1.11 0.59 0.43 0.50 0.77 0.46 0.31 0.14 0.08 0.04 0.03 0.02 0.02 0.00 0.00 0.00 0.00 0.00 0.00 0.00 0.00 0.01 0.01 0.01 0.01 0.07 0.21 0.12 0.07 0.01 0.00 0.00 0.00 0.00 0.00 0.00 0.00 0.00 0.00
0.37 0.33 0.55 0.59 1.13 1.77 1.18 0.62 0.51 0.44 0.47 0.18 0.01 0.01 0.00 0.01 0.01 0.00 0.00 0.00 0.00 0.00 0.00 0.00 0.01 0.02 0.01 0.00 0.02 0.09 0.21 0.20 0.20 0.13 0.05 0.03 0.01 0.00 0.00 0.00 0.00 0.00 0.00 0.00 0.00
0.41 0.74 0.69 0.76 1.26 1.34 0.77 0.45 0.80 0.52 0.11 0.01 0.00 0.00 0.00 0.00 0.00 0.00 0.00 0.00 0.00 0.00 0.00 0.00 0.05 0.04 0.00 0.00 0.01 0.04 0.04 0.17 0.50 0.19 0.26 0.16 0.07 0.00 0.01 0.01 0.00 0.00 0.00 0.00 0.00
0.49 0.56 0.96 0.67 0.54 0.59 0.51 0.52 0.58 0.17 0.02 0.01 0.00 0.00 0.00 0.01 0.02 0.00 0.00 0.00 0.00 0.00 0.00 0.00 0.06 0.03 0.01 0.03 0.11 0.19 0.09 0.21 0.43 0.67 0.44 0.27 0.11 0.00 0.00 0.00 0.00 0.00 0.01 0.02 0.01
0.63 0.95 1.14 1.02 0.35 0.27 0.60 0.76 0.39 0.09 0.02 0.00 0.00 0.00 0.01 0.02 0.00 0.01 0.00 0.00 0.00 0.00 0.00 0.00 0.02 0.03 0.04 0.04 0.24 0.54 0.26 0.46 0.99 0.88 0.16 0.11 0.01 0.00 0.00 0.00 0.00 0.00 0.01 0.03 0.01
0.65 0.69 0.45 0.31 0.40 0.15 0.27 0.29 0.09 0.03 0.01 0.00 0.00 0.00 0.01 0.03 0.01 0.01 0.00 0.00 0.00 0.00 0.00 0.01 0.05 0.04 0.04 0.08 0.18 0.33 0.37 0.39 0.71 0.35 0.38 0.09 0.00 0.00 0.01 0.01 0.00 0.00 0.01 0.04 0.05
0.43 0.80 0.35 0.14 0.18 0.15 0.22 0.29 0.07 0.01 0.01 0.01 0.01 0.01 0.01 0.02 0.00 0.00 0.00 0.00 0.00 0.00 0.01 0.04 0.10 0.07 0.05 0.10 0.23 0.29 0.25 0.26 0.14 0.07 0.10 0.02 0.02 0.01 0.01 0.01 0.00 0.01 0.04 0.07 0.07
0.36 0.65 0.45 0.21 0.13 0.29 0.23 0.12 0.03 0.00 0.01 0.00 0.00 0.00 0.00 0.00 0.00 0.00 0.00 0.00 0.00 0.02 0.04 0.11 0.14 0.20 0.13 0.17 0.10 0.19 0.28 0.21 0.06 0.03 0.03 0.02 0.02 0.01 0.01 0.04 0.06 0.05 0.06 0.04 0.03

GFSSW_prec_precacc24_060.txt.gz
Total_Precipitation_Accumulation
0.05 0.06 0.06 0.07 0.06 0.06 0.04 0.03 0.04 0.04 0.05 0.06 0.07 0.08 0.10 0.13 0.16 0.06 0.03 0.00 0.00 0.00 0.00 0.00 0.01 0.00 0.00 0.00 0.00 0.00 0.00 0.00 0.00 0.00 0.00 0.00 0.00 0.00 0.00 0.00 0.00 0.00 0.00 0.00 0.00
0.04 0.05 0.08 0.10 0.09 0.09 0.06 0.05 0.05 0.04 0.06 0.07 0.07 0.07 0.08 0.08 0.20 0.12 0.00 0.00 0.01 0.02 0.02 0.00 0.00 0.00 0.00 0.00 0.00 0.00 0.00 0.00 0.00 0.00 0.00 0.00 0.00 0.00 0.00 0.00 0.00 0.00 0.00 0.00 0.00
0.06 0.08 0.10 0.12 0.12 0.09 0.08 0.06 0.05 0.05 0.08 0.10 0.10 0.10 0.12 0.09 0.05 0.02 0.00 0.04 0.10 0.20 0.03 0.01 0.00 0.00 0.00 0.00 0.00 0.00 0.00 0.00 0.00 0.00 0.00 0.00 0.00 0.00 0.00 0.00 0.00 0.00 0.00 0.00 0.00
0.07 0.09 0.13 0.12 0.11 0.10 0.09 0.08 0.07 0.06 0.08 0.09 0.09 0.10 0.16 0.12 0.02 0.00 0.01 0.05 0.19 0.39 0.13 0.06 0.01 0.01 0.00 0.00 0.00 0.00 0.00 0.00 0.00 0.00 0.00 0.00 0.00 0.00 0.00 0.00 0.00 0.00 0.00 0.00 0.00
0.08 0.10 0.11 0.11 0.09 0.10 0.10 0.08 0.08 0.08 0.12 0.15 0.14 0.19 0.25 0.10 0.01 0.00 0.02 0.05 0.14 0.32 0.16 0.08 0.02 0.01 0.00 0.00 0.00 0.00 0.00 0.00 0.00 0.00 0.00 0.00 0.00 0.00 0.00 0.00 0.00 0.00 0.00 0.00 0.00
0.07 0.07 0.07 0.09 0.10 0.10 0.12 0.10 0.09 0.10 0.13 0.16 0.22 0.27 0.25 0.07 0.00 0.00 0.00 0.09 0.05 0.18 0.19 0.19 0.05 0.00 0.00 0.00 0.00 0.00 0.00 0.00 0.00 0.00 0.00 0.00 0.00 0.00 0.00 0.00 0.00 0.00 0.00 0.00 0.00
0.07 0.07 0.06 0.09 0.11 0.10 0.13 0.13 0.13 0.16 0.15 0.20 0.27 0.37 0.23 0.04 0.00 0.00 0.00 0.06 0.11 0.13 0.16 0.15 0.10 0.02 0.00 0.00 0.00 0.00 0.00 0.00 0.00 0.00 0.00 0.00 0.00 0.00 0.00 0.00 0.00 0.00 0.00 0.00 0.00
0.08 0.09 0.09 0.12 0.13 0.15 0.15 0.16 0.21 0.24 0.25 0.28 0.34 0.45 0.16 0.00 0.00 0.00 0.00 0.02 0.11 0.23 0.29 0.44 0.27 0.09 0.01 0.00 0.00 0.00 0.00 0.00 0.00 0.00 0.00 0.00 0.00 0.00 0.00 0.00 0.00 0.00 0.00 0.00 0.00
0.08 0.13 0.15 0.15 0.16 0.20 0.19 0.19 0.26 0.36 0.47 0.45 0.58 0.44 0.15 0.00 0.00 0.00 0.00 0.00 0.07 0.16 0.29 0.47 0.43 0.31 0.09 0.00 0.00 0.00 0.00 0.00 0.00 0.00 0.00 0.00 0.00 0.00 0.00 0.00 0.00 0.00 0.00 0.00 0.00
0.12 0.13 0.19 0.18 0.20 0.26 0.35 0.40 0.41 0.45 0.52 0.71 0.72 0.51 0.12 0.00 0.00 0.01 0.00 0.00 0.01 0.11 0.28 0.48 0.46 0.35 0.23 0.04 0.00 0.00 0.00 0.00 0.00 0.00 0.00 0.00 0.00 0.00 0.00 0.00 0.00 0.00 0.00 0.00 0.00
0.13 0.13 0.18 0.23 0.27 0.46 0.71 0.82 0.86 0.89 0.83 0.64 0.56 0.15 0.05 0.00 0.02 0.01 0.01 0.00 0.08 0.20 0.11 0.39 0.82 0.20 0.18 0.08 0.01 0.00 0.00 0.00 0.00 0.00 0.00 0.00 0.00 0.00 0.00 0.00 0.00 0.00 0.00 0.00 0.00
0.16 0.12 0.17 0.25 0.38 0.67 0.99 0.83 0.63 0.59 0.64 0.40 0.36 0.09 0.11 0.02 0.05 0.03 0.01 0.00 0.05 0.08 0.05 0.26 0.61 0.27 0.14 0.14 0.06 0.00 0.00 0.00 0.00 0.00 0.00 0.00 0.00 0.00 0.00 0.00 0.00 0.00 0.00 0.00 0.00
0.15 0.14 0.20 0.36 0.47 0.77 0.80 0.60 0.52 0.67 0.67 0.36 0.45 0.36 0.21 0.08 0.06 0.03 0.00 0.01 0.07 0.08 0.04 0.06 0.19 0.19 0.21 0.25 0.16 0.02 0.00 0.00 0.00 0.00 0.00 0.00 0.00 0.00 0.00 0.00 0.00 0.00 0.00 0.00 0.00
0.15 0.14 0.18 0.28 0.50 0.80 0.84 0.84 0.60 0.97 0.87 0.33 0.56 0.62 0.40 0.18 0.10 0.01 0.00 0.02 0.08 0.09 0.06 0.04 0.02 0.03 0.06 0.10 0.12 0.07 0.00 0.00 0.00 0.00 0.00 0.00 0.00 0.00 0.00 0.00 0.00 0.00 0.00 0.00 0.00
0.14 0.14 0.20 0.55 0.99 1.11 0.96 0.99 0.87 1.01 0.81 0.22 0.40 0.53 0.45 0.29 0.09 0.09 0.00 0.02 0.02 0.03 0.03 0.01 0.00 0.00 0.00 0.00 0.00 0.00 0.00 0.00 0.00 0.00 0.01 0.00 0.01 0.00 0.00 0.00 0.00 0.00 0.00 0.00 0.00
0.12 0.17 0.27 0.31 0.60 0.63 0.73 1.09 1.62 1.23 0.93 0.77 0.49 0.81 0.57 0.21 0.06 0.05 0.03 0.03 0.04 0.04 0.03 0.00 0.00 0.00 0.00 0.00 0.00 0.00 0.00 0.01 0.02 0.05 0.06 0.00 0.00 0.00 0.00 0.00 0.00 0.00 0.00 0.00 0.00
0.24 0.24 0.29 0.33 0.33 0.43 0.95 1.58 1.50 0.87 0.69 0.69 0.49 0.69 0.34 0.10 0.06 0.05 0.08 0.05 0.05 0.07 0.09 0.02 0.00 0.00 0.00 0.00 0.00 0.01 0.04 0.02 0.03 0.07 0.02 0.00 0.00 0.00 0.00 0.00 0.00 0.00 0.00 0.00 0.00
0.31 0.26 0.14 0.16 0.33 0.64 1.04 1.44 0.81 0.47 0.74 0.61 0.44 0.47 0.18 0.05 0.08 0.11 0.05 0.05 0.06 0.01 0.02 0.01 0.00 0.00 0.00 0.00 0.01 0.01 0.02 0.01 0.00 0.00 0.00 0.00 0.00 0.00 0.00 0.00 0.00 0.00 0.00 0.00 0.00
0.37 0.10 0.10 0.13 0.34 0.84 0.95 1.04 0.53 0.73 0.70 0.97 0.65 0.41 0.22 0.05 0.07 0.13 0.03 0.01 0.02 0.00 0.00 0.00 0.00 0.00 0.00 0.00 0.00 0.01 0.02 0.00 0.02 0.01 0.01 0.00 0.00 0.00 0.00 0.00 0.00 0.00 0.00 0.00 0.00
0.30 0.19 0.30 0.18 0.34 1.05 0.98 0.67 0.57 0.60 0.93 0.66 0.47 0.18 0.12 0.06 0.06 0.06 0.02 0.00 0.00 0.00 0.00 0.00 0.00 0.00 0.00 0.00 0.00 0.00 0.00 0.03 0.10 0.06 0.03 0.00 0.00 0.00 0.00 0.00 0.00 0.00 0.00 0.00 0.00
0.33 0.20 0.40 0.31 0.56 1.27 0.99 0.71 0.70 0.53 0.53 0.19 0.01 0.01 0.00 0.01 0.01 0.00 0.00 0.00 0.00 0.00 0.00 0.00 0.00 0.02 0.01 0.00 0.00 0.01 0.05 0.11 0.18 0.12 0.05 0.03 0.01 0.00 0.00 0.00 0.00 0.00 0.00 0.00 0.00
0.37 0.67 0.46 0.38 0.47 0.78 0.69 0.48 0.82 0.53 0.11 0.01 0.00 0.00 0.00 0.00 0.00 0.00 0.00 0.00 0.00 0.00 0.00 0.00 0.02 0.03 0.00 0.00 0.00 0.00 0.01 0.09 0.40 0.18 0.25 0.16 0.07 0.00 0.00 0.01 0.00 0.00 0.00 0.00 0.00
0.40 0.51 0.65 0.30 0.23 0.36 0.46 0.52 0.58 0.17 0.02 0.01 0.00 0.00 0.00 0.00 0.00 0.00 0.00 0.00 0.00 0.00 0.00 0.00 0.03 0.01 0.01 0.00 0.01 0.03 0.01 0.10 0.33 0.59 0.42 0.27 0.11 0.00 0.00 0.00 0.00 0.00 0.00 0.00 0.00
0.45 0.75 0.77 0.56 0.18 0.26 0.59 0.75 0.39 0.09 0.02 0.00 0.00 0.00 0.00 0.00 0.00 0.00 0.00 0.00 0.00 0.00 0.00 0.00 0.01 0.00 0.00 0.00 0.05 0.28 0.15 0.31 0.83 0.75 0.14 0.11 0.01 0.00 0.00 0.00 0.00 0.00 0.00 0.00 0.00
0.48 0.49 0.31 0.18 0.23 0.13 0.27 0.29 0.09 0.03 0.01 0.00 0.00 0.00 0.00 0.00 0.00 0.00 0.00 0.00 0.00 0.00 0.00 0.01 0.03 0.00 0.00 0.00 0.04 0.18 0.23 0.26 0.59 0.32 0.37 0.09 0.00 0.00 0.01 0.01 0.00 0.00 0.00 0.02 0.05
0.38 0.60 0.29 0.12 0.15 0.12 0.21 0.29 0.07 0.01 0.01 0.00 0.00 0.00 0.00 0.00 0.00 0.00 0.00 0.00 0.00 0.00 0.01 0.02 0.04 0.02 0.00 0.00 0.07 0.17 0.19 0.20 0.10 0.06 0.10 0.02 0.01 0.00 0.00 0.00 0.00 0.01 0.04 0.06 0.07
0.31 0.45 0.31 0.14 0.10 0.23 0.21 0.12 0.03 0.00 0.01 0.00 0.00 0.00 0.00 0.00 0.00 0.00 0.00 0.00 0.00 0.01 0.02 0.04 0.06 0.07 0.03 0.00 0.02 0.06 0.16 0.18 0.05 0.02 0.03 0.02 0.00 0.00 0.00 0.03 0.05 0.04 0.05 0.04 0.03

GFSSW_prec_precacc24_063.txt.gz
Total_Precipitation_Accumulation
0.04 0.06 0.07 0.08 0.08 0.07 0.06 0.04 0.05 0.04 0.05 0.06 0.07 0.08 0.08 0.11 0.14 0.07 0.04 0.00 0.00 0.00 0.01 0.00 0.01 0.03 0.00 0.00 0.00 0.00 0.00 0.00 0.00 0.00 0.00 0.00 0.00 0.00 0.00 0.00 0.00 0.00 0.00 0.00 0.00
0.04 0.05 0.09 0.11 0.10 0.10 0.07 0.06 0.05 0.05 0.06 0.08 0.08 0.07 0.08 0.08 0.13 0.08 0.00 0.00 0.01 0.02 0.02 0.01 0.00 0.01 0.01 0.00 0.00 0.00 0.00 0.00 0.00 0.00 0.00 0.00 0.00 0.00 0.00 0.00 0.00 0.00 0.00 0.00 0.00
0.04 0.05 0.07 0.13 0.13 0.10 0.08 0.06 0.05 0.06 0.08 0.11 0.11 0.11 0.12 0.09 0.05 0.01 0.00 0.04 0.09 0.14 0.03 0.01 0.01 0.00 0.01 0.00 0.00 0.00 0.00 0.00 0.00 0.00 0.00 0.00 0.00 0.00 0.00 0.00 0.00 0.00 0.00 0.00 0.00
0.05 0.07 0.10 0.10 0.12 0.12 0.10 0.09 0.08 0.08 0.10 0.10 0.10 0.10 0.16 0.13 0.03 0.00 0.02 0.05 0.19 0.36 0.13 0.07 0.02 0.02 0.01 0.00 0.00 0.00 0.00 0.00 0.00 0.00 0.00 0.00 0.00 0.00 0.00 0.00 0.00 0.00 0.00 0.00 0.00
0.07 0.07 0.07 0.07 0.09 0.11 0.11 0.11 0.12 0.09 0.13 0.17 0.16 0.22 0.26 0.11 0.02 0.02 0.03 0.05 0.14 0.33 0.16 0.10 0.03 0.02 0.00 0.00 0.00 0.00 0.00 0.00 0.00 0.00 0.00 0.00 0.00 0.00 0.00 0.00 0.00 0.00 0.00 0.00 0.00
0.06 0.06 0.05 0.04 0.06 0.10 0.13 0.12 0.10 0.11 0.15 0.17 0.27 0.31 0.26 0.08 0.00 0.00 0.00 0.09 0.06 0.18 0.19 0.21 0.05 0.01 0.00 0.00 0.00 0.00 0.00 0.00 0.00 0.00 0.00 0.00 0.00 0.00 0.00 0.00 0.00 0.00 0.00 0.00 0.00
0.08 0.06 0.05 0.05 0.07 0.09 0.15 0.15 0.14 0.16 0.16 0.22 0.31 0.43 0.26 0.04 0.00 0.00 0.00 0.06 0.12 0.13 0.16 0.16 0.13 0.03 0.00 0.00 0.00 0.00 0.00 0.00 0.00 0.00 0.00 0.00 0.00 0.00 0.00 0.00 0.00 0.00 0.00 0.00 0.00
0.07 0.07 0.07 0.09 0.07 0.10 0.14 0.16 0.20 0.21 0.26 0.30 0.40 0.56 0.18 0.00 0.00 0.00 0.00 0.02 0.12 0.24 0.32 0.51 0.39 0.16 0.01 0.00 0.00 0.00 0.00 0.00 0.00 0.00 0.00 0.00 0.00 0.00 0.00 0.00 0.00 0.00 0.00 0.00 0.00
0.08 0.11 0.11 0.09 0.10 0.14 0.16 0.18 0.24 0.34 0.49 0.50 0.73 0.53 0.16 0.01 0.00 0.00 0.00 0.00 0.13 0.22 0.40 0.70 0.66 0.43 0.14 0.00 0.00 0.00 0.00 0.00 0.00 0.00 0.00 0.00 0.00 0.00 0.00 0.00 0.00 0.00 0.00 0.00 0.00
0.13 0.12 0.12 0.10 0.10 0.17 0.29 0.37 0.41 0.45 0.52 0.72 0.75 0.54 0.12 0.00 0.00 0.01 0.01 0.01 0.05 0.22 0.44 0.67 0.66 0.47 0.28 0.05 0.00 0.00 0.00 0.00 0.00 0.00 0.00 0.00 0.00 0.00 0.00 0.00 0.00 0.00 0.00 0.00 0.00
0.14 0.13 0.14 0.11 0.16 0.35 0.65 0.80 0.86 0.89 0.82 0.64 0.56 0.15 0.05 0.01 0.04 0.03 0.02 0.02 0.11 0.29 0.20 0.54 1.13 0.39 0.18 0.08 0.01 0.00 0.00 0.00 0.00 0.00 0.00 0.00 0.00 0.00 0.00 0.00 0.00 0.00 0.00 0.00 0.00
0.15 0.11 0.13 0.13 0.18 0.42 0.90 0.82 0.63 0.59 0.64 0.40 0.36 0.09 0.11 0.03 0.08 0.07 0.03 0.01 0.07 0.13 0.12 0.43 0.98 0.44 0.17 0.15 0.07 0.00 0.00 0.00 0.00 0.00 0.00 0.00 0.00 0.00 0.00 0.00 0.00 0.00 0.00 0.00 0.00
0.13 0.13 0.20 0.28 0.20 0.28 0.66 0.59 0.53 0.67 0.69 0.36 0.45 0.36 0.21 0.09 0.10 0.07 0.03 0.01 0.07 0.11 0.09 0.24 0.45 0.48 0.38 0.33 0.19 0.02 0.00 0.00 0.00 0.00 0.00 0.00 0.00 0.00 0.00 0.00 0.00 0.00 0.00 0.00 0.00
0.13 0.14 0.23 0.33 0.28 0.34 0.64 0.93 0.69 1.06 0.93 0.34 0.56 0.64 0.41 0.24 0.21 0.05 0.02 0.03 0.10 0.11 0.12 0.22 0.18 0.32 0.44 0.39 0.30 0.16 0.01 0.00 0.00 0.00 0.00 0.00 0.00 0.00 0.00 0.00 0.00 0.00 0.00 0.00 0.00
0.13 0.14 0.23 0.55 0.74 0.61 0.74 0.95 0.90 1.03 0.84 0.24 0.42 0.57 0.50 0.39 0.27 0.16 0.03 0.04 0.05 0.05 0.05 0.09 0.06 0.07 0.10 0.20 0.21 0.12 0.04 0.00 0.00 0.00 0.00 0.00 0.00 0.00 0.00 0.00 0.00 0.00 0.00 0.00 0.00
0.13 0.17 0.26 0.30 0.44 0.28 0.41 0.97 1.60 1.24 0.96 0.80 0.50 0.84 0.63 0.47 0.19 0.16 0.04 0.04 0.07 0.11 0.05 0.05 0.02 0.07 0.04 0.02 0.02 0.01 0.00 0.00 0.01 0.02 0.02 0.00 0.00 0.00 0.00 0.00 0.00 0.00 0.00 0.00 0.00
0.23 0.23 0.26 0.30 0.21 0.12 0.52 1.25 1.43 0.91 0.74 0.71 0.51 0.70 0.49 0.26 0.19 0.08 0.09 0.06 0.06 0.19 0.23 0.11 0.03 0.02 0.01 0.01 0.01 0.01 0.02 0.01 0.01 0.04 0.01 0.00 0.00 0.00 0.00 0.00 0.00 0.00 0.00 0.00 0.00
0.28 0.24 0.12 0.14 0.17 0.23 0.57 1.15 0.81 0.52 0.79 0.63 0.46 0.56 0.44 0.14 0.26 0.12 0.08 0.06 0.06 0.03 0.06 0.04 0.05 0.01 0.00 0.00 0.01 0.01 0.01 0.00 0.00 0.00 0.00 0.00 0.00 0.00 0.00 0.00 0.00 0.00 0.00 0.00 0.00
0.32 0.07 0.07 0.11 0.11 0.27 0.44 0.77 0.55 0.76 0.71 0.98 0.71 0.62 0.37 0.13 0.15 0.14 0.04 0.03 0.04 0.00 0.01 0.00 0.00 0.00 0.00 0.00 0.00 0.01 0.01 0.00 0.01 0.00 0.00 0.00 0.00 0.00 0.00 0.00 0.00 0.00 0.00 0.00 0.00
0.23 0.16 0.28 0.14 0.12 0.44 0.49 0.55 0.60 0.62 0.93 0.69 0.64 0.25 0.16 0.10 0.09 0.07 0.03 0.01 0.01 0.00 0.00 0.00 0.00 0.00 0.00 0.00 0.00 0.00 0.00 0.01 0.04 0.02 0.01 0.00 0.00 0.00 0.00 0.00 0.00 0.00 0.00 0.00 0.00
0.29 0.19 0.34 0.25 0.27 0.54 0.54 0.61 0.70 0.54 0.53 0.20 0.02 0.01 0.01 0.01 0.01 0.01 0.00 0.00 0.00 0.00 0.00 0.00 0.00 0.02 0.01 0.00 0.00 0.00 0.01 0.01 0.05 0.06 0.03 0.03 0.01 0.00 0.00 0.00 0.00 0.00 0.00 0.00 0.00
0.33 0.63 0.31 0.28 0.20 0.39 0.42 0.46 0.82 0.53 0.11 0.01 0.00 0.00 0.00 0.00 0.00 0.00 0.00 0.00 0.00 0.00 0.00 0.00 0.01 0.02 0.00 0.00 0.00 0.00 0.00 0.01 0.15 0.09 0.20 0.14 0.06 0.00 0.00 0.00 0.00 0.00 0.00 0.00 0.00
0.26 0.36 0.30 0.23 0.17 0.29 0.38 0.49 0.58 0.17 0.02 0.01 0.00 0.00 0.00 0.00 0.00 0.00 0.00 0.00 0.00 0.00 0.00 0.00 0.01 0.00 0.01 0.00 0.00 0.00 0.00 0.02 0.16 0.34 0.25 0.21 0.10 0.00 0.00 0.00 0.00 0.00 0.00 0.00 0.00
0.30 0.46 0.33 0.30 0.12 0.25 0.55 0.74 0.39 0.09 0.02 0.00 0.00 0.00 0.00 0.00 0.00 0.00 0.00 0.00 0.00 0.00 0.00 0.00 0.01 0.00 0.00 0.00 0.01 0.06 0.04 0.16 0.56 0.48 0.08 0.08 0.01 0.00 0.00 0.00 0.00 0.00 0.00 0.00 0.00
0.45 0.37 0.23 0.11 0.11 0.11 0.27 0.29 0.09 0.03 0.01 0.00 0.00 0.00 0.00 0.00 0.00 0.00 0.00 0.00 0.00 0.00 0.00 0.00 0.02 0.00 0.00 0.00 0.00 0.04 0.06 0.10 0.40 0.27 0.32 0.07 0.00 0.00 0.00 0.00 0.00 0.00 0.00 0.02 0.05
0.30 0.38 0.18 0.11 0.11 0.07 0.19 0.27 0.07 0.01 0.01 0.00 0.00 0.00 0.00 0.00 0.00 0.00 0.00 0.00 0.00 0.00 0.01 0.01 0.02 0.01 0.00 0.00 0.00 0.01 0.08 0.13 0.08 0.06 0.08 0.02 0.01 0.00 0.00 0.00 0.00 0.01 0.03 0.05 0.07
0.15 0.19 0.17 0.09 0.08 0.19 0.19 0.12 0.02 0.00 0.01 0.00 0.00 0.00 0.00 0.00 0.00 0.00 0.00 0.00 0.00 0.01 0.01 0.02 0.02 0.04 0.01 0.00 0.00 0.01 0.03 0.09 0.05 0.02 0.03 0.01 0.00 0.00 0.00 0.03 0.05 0.04 0.04 0.03 0.03

GFSSW_prec_precacc24_066.txt.gz
Total_Precipitation_Accumulation
0.03 0.05 0.07 0.09 0.09 0.08 0.07 0.05 0.05 0.05 0.05 0.06 0.08 0.08 0.08 0.09 0.09 0.06 0.04 0.01 0.00 0.00 0.01 0.00 0.01 0.06 0.02 0.00 0.00 0.00 0.00 0.00 0.00 0.00 0.00 0.00 0.00 0.00 0.00 0.00 0.00 0.00 0.00 0.00 0.00
0.05 0.05 0.05 0.07 0.11 0.11 0.08 0.07 0.06 0.05 0.07 0.09 0.08 0.08 0.08 0.08 0.10 0.06 0.00 0.00 0.00 0.01 0.02 0.01 0.00 0.05 0.05 0.00 0.00 0.00 0.00 0.00 0.00 0.00 0.00 0.00 0.00 0.00 0.00 0.00 0.00 0.00 0.00 0.00 0.00
0.05 0.03 0.05 0.08 0.11 0.11 0.10 0.08 0.06 0.07 0.10 0.12 0.11 0.11 0.12 0.09 0.06 0.01 0.00 0.02 0.07 0.08 0.03 0.01 0.01 0.03 0.04 0.00 0.00 0.00 0.00 0.00 0.00 0.00 0.00 0.00 0.00 0.00 0.00 0.00 0.00 0.00 0.00 0.00 0.00
0.05 0.06 0.07 0.06 0.06 0.09 0.11 0.10 0.09 0.10 0.11 0.13 0.11 0.12 0.19 0.14 0.03 0.02 0.03 0.06 0.23 0.37 0.13 0.08 0.03 0.05 0.03 0.00 0.00 0.00 0.00 0.00 0.00 0.00 0.00 0.00 0.00 0.00 0.00 0.00 0.00 0.00 0.00 0.00 0.00
0.07 0.07 0.06 0.05 0.04 0.05 0.10 0.12 0.13 0.11 0.15 0.19 0.17 0.27 0.31 0.13 0.02 0.05 0.05 0.05 0.15 0.37 0.18 0.10 0.04 0.03 0.01 0.00 0.00 0.00 0.00 0.00 0.00 0.00 0.00 0.00 0.00 0.00 0.00 0.00 0.00 0.00 0.00 0.00 0.00
0.07 0.07 0.05 0.04 0.04 0.05 0.10 0.11 0.11 0.13 0.17 0.20 0.28 0.37 0.30 0.10 0.00 0.00 0.02 0.09 0.06 0.21 0.21 0.21 0.06 0.01 0.01 0.01 0.00 0.00 0.00 0.00 0.00 0.00 0.00 0.00 0.00 0.00 0.00 0.00 0.00 0.00 0.00 0.00 0.00
0.08 0.06 0.06 0.06 0.07 0.05 0.09 0.13 0.14 0.16 0.17 0.23 0.34 0.49 0.30 0.04 0.00 0.00 0.01 0.07 0.12 0.16 0.19 0.15 0.17 0.03 0.01 0.01 0.00 0.00 0.00 0.00 0.00 0.00 0.00 0.00 0.00 0.00 0.00 0.00 0.00 0.00 0.00 0.00 0.00
0.07 0.08 0.08 0.10 0.07 0.07 0.07 0.11 0.20 0.22 0.26 0.33 0.45 0.63 0.19 0.00 0.00 0.00 0.00 0.03 0.12 0.24 0.33 0.50 0.50 0.23 0.02 0.00 0.00 0.00 0.00 0.00 0.00 0.00 0.00 0.00 0.00 0.00 0.00 0.00 0.00 0.00 0.00 0.00 0.00
0.09 0.11 0.12 0.11 0.07 0.08 0.09 0.12 0.21 0.34 0.47 0.50 0.80 0.56 0.16 0.01 0.00 0.00 0.00 0.01 0.14 0.26 0.42 0.78 0.86 0.57 0.21 0.01 0.01 0.01 0.00 0.00 0.00 0.00 0.00 0.00 0.00 0.00 0.00 0.00 0.00 0.00 0.00 0.00 0.00
0.13 0.11 0.13 0.09 0.08 0.10 0.17 0.19 0.33 0.44 0.52 0.72 0.76 0.55 0.12 0.01 0.00 0.02 0.01 0.01 0.09 0.32 0.49 0.78 0.81 0.71 0.39 0.08 0.01 0.00 0.00 0.00 0.00 0.00 0.00 0.00 0.00 0.00 0.00 0.00 0.00 0.00 0.00 0.00 0.00
0.14 0.12 0.15 0.13 0.14 0.19 0.27 0.34 0.74 0.88 0.82 0.64 0.56 0.15 0.05 0.01 0.04 0.05 0.03 0.04 0.16 0.40 0.24 0.59 1.23 0.69 0.27 0.09 0.01 0.00 0.00 0.00 0.00 0.00 0.00 0.00 0.00 0.00 0.00 0.00 0.00 0.00 0.00 0.00 0.00
0.15 0.12 0.15 0.16 0.17 0.21 0.23 0.44 0.60 0.59 0.64 0.40 0.36 0.09 0.11 0.03 0.08 0.12 0.07 0.08 0.12 0.25 0.16 0.48 1.04 0.47 0.20 0.18 0.07 0.00 0.00 0.00 0.00 0.00 0.00 0.00 0.00 0.00 0.00 0.00 0.00 0.00 0.00 0.00 0.00
0.13 0.15 0.18 0.27 0.20 0.10 0.19 0.36 0.54 0.68 0.70 0.36 0.45 0.36 0.21 0.09 0.11 0.18 0.11 0.09 0.11 0.31 0.12 0.32 0.50 0.55 0.49 0.38 0.21 0.03 0.00 0.00 0.00 0.00 0.00 0.00 0.00 0.00 0.00 0.00 0.00 0.00 0.00 0.00 0.00
0.12 0.14 0.22 0.32 0.28 0.26 0.33 0.72 0.64 1.08 0.97 0.35 0.58 0.66 0.41 0.24 0.23 0.12 0.15 0.07 0.11 0.38 0.17 0.40 0.32 0.51 0.70 0.48 0.33 0.19 0.01 0.00 0.00 0.00 0.00 0.00 0.00 0.00 0.00 0.00 0.00 0.00 0.00 0.00 0.00
0.12 0.14 0.23 0.51 0.69 0.51 0.52 0.59 0.70 0.98 0.83 0.28 0.46 0.61 0.51 0.41 0.35 0.28 0.17 0.05 0.08 0.22 0.16 0.31 0.27 0.27 0.39 0.34 0.26 0.17 0.06 0.00 0.00 0.00 0.00 0.00 0.00 0.00 0.00 0.00 0.00 0.00 0.00 0.00 0.00
0.10 0.13 0.24 0.28 0.41 0.27 0.17 0.49 1.18 1.10 0.98 0.81 0.50 0.84 0.66 0.55 0.34 0.31 0.14 0.05 0.08 0.13 0.15 0.16 0.13 0.22 0.12 0.20 0.12 0.09 0.04 0.00 0.00 0.01 0.01 0.00 0.00 0.00 0.00 0.00 0.00 0.00 0.00 0.00 0.00
0.07 0.16 0.24 0.25 0.20 0.06 0.19 0.47 0.91 0.84 0.76 0.71 0.51 0.73 0.68 0.47 0.29 0.22 0.12 0.07 0.06 0.21 0.29 0.27 0.18 0.11 0.22 0.18 0.13 0.05 0.03 0.02 0.01 0.02 0.00 0.00 0.00 0.00 0.00 0.00 0.00 0.00 0.00 0.00 0.00
0.22 0.19 0.08 0.12 0.16 0.13 0.20 0.43 0.56 0.53 0.80 0.65 0.54 0.76 0.74 0.25 0.33 0.18 0.09 0.06 0.05 0.04 0.10 0.20 0.18 0.12 0.14 0.03 0.02 0.00 0.01 0.00 0.00 0.00 0.00 0.00 0.00 0.00 0.00 0.00 0.00 0.00 0.00 0.00 0.00
0.22 0.06 0.07 0.11 0.10 0.11 0.13 0.30 0.48 0.78 0.74 1.02 0.78 0.76 0.49 0.18 0.22 0.15 0.05 0.03 0.05 0.01 0.03 0.05 0.05 0.04 0.02 0.02 0.00 0.00 0.01 0.00 0.00 0.00 0.00 0.00 0.00 0.00 0.00 0.00 0.00 0.00 0.00 0.00 0.00
0.16 0.14 0.24 0.11 0.09 0.10 0.19 0.32 0.57 0.62 0.93 0.70 0.73 0.28 0.21 0.13 0.09 0.08 0.03 0.01 0.01 0.00 0.00 0.00 0.01 0.00 0.00 0.01 0.00 0.00 0.00 0.00 0.01 0.00 0.00 0.00 0.00 0.00 0.00 0.00 0.00 0.00 0.00 0.00 0.00
0.17 0.17 0.30 0.16 0.13 0.13 0.20 0.40 0.70 0.54 0.53 0.21 0.02 0.01 0.01 0.02 0.01 0.01 0.00 0.00 0.00 0.00 0.00 0.00 0.00 0.02 0.01 0.00 0.00 0.00 0.01 0.00 0.00 0.00 0.00 0.00 0.00 0.00 0.00 0.00 0.00 0.00 0.00 0.00 0.00
0.25 0.44 0.26 0.17 0.10 0.11 0.20 0.36 0.82 0.53 0.11 0.01 0.00 0.00 0.00 0.00 0.00 0.00 0.00 0.00 0.00 0.00 0.00 0.00 0.00 0.02 0.01 0.00 0.00 0.00 0.00 0.00 0.01 0.00 0.05 0.05 0.02 0.00 0.00 0.00 0.00 0.00 0.00 0.00 0.00
0.19 0.17 0.13 0.16 0.13 0.15 0.23 0.45 0.58 0.17 0.02 0.01 0.00 0.00 0.00 0.00 0.00 0.00 0.00 0.00 0.00 0.00 0.00 0.00 0.00 0.00 0.01 0.00 0.00 0.00 0.00 0.00 0.04 0.14 0.09 0.11 0.05 0.00 0.00 0.00 0.00 0.00 0.00 0.00 0.00
0.19 0.09 0.11 0.21 0.12 0.24 0.52 0.71 0.38 0.09 0.02 0.00 0.00 0.00 0.00 0.00 0.00 0.00 0.00 0.00 0.00 0.00 0.00 0.00 0.00 0.00 0.00 0.00 0.00 0.00 0.00 0.04 0.24 0.27 0.04 0.03 0.00 0.00 0.00 0.00 0.00 0.00 0.00 0.00 0.00
0.18 0.09 0.17 0.10 0.11 0.11 0.26 0.29 0.08 0.02 0.01 0.00 0.00 0.00 0.00 0.00 0.00 0.00 0.00 0.00 0.00 0.00 0.00 0.00 0.01 0.00 0.00 0.00 0.00 0.00 0.00 0.01 0.16 0.17 0.24 0.06 0.00 0.00 0.00 0.00 0.00 0.00 0.00 0.02 0.04
0.11 0.21 0.14 0.11 0.11 0.07 0.18 0.27 0.07 0.01 0.01 0.00 0.00 0.00 0.00 0.00 0.00 0.00 0.00 0.00 0.00 0.00 0.00 0.01 0.01 0.00 0.00 0.00 0.00 0.00 0.00 0.02 0.04 0.05 0.08 0.02 0.01 0.00 0.00 0.00 0.00 0.01 0.03 0.05 0.06
0.10 0.12 0.06 0.06 0.06 0.17 0.19 0.12 0.02 0.00 0.01 0.00 0.00 0.00 0.00 0.00 0.00 0.00 0.00 0.00 0.00 0.00 0.00 0.01 0.01 0.01 0.00 0.00 0.00 0.01 0.00 0.02 0.03 0.02 0.03 0.01 0.00 0.00 0.00 0.03 0.05 0.04 0.04 0.03 0.03

GFSSW_prec_precacc24_069.txt.gz
Total_Precipitation_Accumulation
0.03 0.05 0.06 0.05 0.06 0.08 0.08 0.06 0.07 0.07 0.08 0.07 0.09 0.09 0.08 0.08 0.07 0.05 0.04 0.01 0.00 0.00 0.01 0.00 0.01 0.07 0.05 0.00 0.00 0.00 0.00 0.00 0.00 0.00 0.00 0.00 0.00 0.00 0.00 0.00 0.00 0.00 0.00 0.00 0.00
0.07 0.07 0.05 0.05 0.06 0.09 0.09 0.08 0.06 0.06 0.08 0.10 0.09 0.09 0.08 0.08 0.05 0.03 0.00 0.00 0.00 0.01 0.02 0.01 0.01 0.08 0.10 0.01 0.00 0.00 0.00 0.00 0.00 0.00 0.00 0.00 0.00 0.00 0.00 0.00 0.00 0.00 0.00 0.00 0.00
0.08 0.04 0.06 0.08 0.07 0.06 0.08 0.08 0.06 0.07 0.10 0.12 0.12 0.12 0.14 0.10 0.05 0.01 0.00 0.01 0.02 0.07 0.04 0.01 0.01 0.06 0.10 0.04 0.00 0.00 0.00 0.00 0.00 0.00 0.00 0.00 0.00 0.00 0.00 0.00 0.00 0.00 0.00 0.00 0.00
0.06 0.06 0.08 0.06 0.05 0.04 0.05 0.08 0.10 0.11 0.12 0.13 0.14 0.15 0.23 0.17 0.03 0.04 0.03 0.05 0.20 0.35 0.20 0.09 0.04 0.08 0.06 0.02 0.00 0.00 0.00 0.00 0.00 0.00 0.00 0.00 0.00 0.00 0.00 0.00 0.00 0.00 0.00 0.00 0.00
0.08 0.08 0.07 0.05 0.05 0.04 0.06 0.08 0.13 0.11 0.17 0.23 0.20 0.31 0.34 0.14 0.03 0.05 0.05 0.05 0.16 0.45 0.27 0.12 0.04 0.04 0.02 0.01 0.01 0.00 0.00 0.00 0.00 0.00 0.00 0.00 0.00 0.00 0.00 0.00 0.00 0.00 0.00 0.00 0.00
0.08 0.08 0.07 0.06 0.06 0.06 0.08 0.06 0.09 0.14 0.19 0.23 0.30 0.40 0.32 0.10 0.00 0.00 0.02 0.09 0.06 0.22 0.27 0.24 0.06 0.02 0.02 0.02 0.01 0.00 0.00 0.00 0.00 0.00 0.00 0.00 0.00 0.00 0.00 0.00 0.00 0.00 0.00 0.00 0.00
0.10 0.08 0.07 0.07 0.09 0.07 0.09 0.08 0.09 0.18 0.19 0.26 0.38 0.55 0.31 0.04 0.00 0.00 0.02 0.07 0.12 0.16 0.21 0.19 0.17 0.04 0.02 0.03 0.01 0.00 0.00 0.00 0.00 0.00 0.00 0.00 0.00 0.00 0.00 0.00 0.00 0.00 0.00 0.00 0.00
0.09 0.09 0.08 0.10 0.08 0.08 0.08 0.07 0.08 0.19 0.28 0.37 0.50 0.69 0.20 0.00 0.00 0.00 0.00 0.04 0.13 0.24 0.35 0.55 0.52 0.28 0.05 0.02 0.02 0.01 0.01 0.00 0.00 0.00 0.00 0.00 0.00 0.00 0.00 0.00 0.00 0.00 0.00 0.00 0.00
0.10 0.11 0.12 0.12 0.09 0.10 0.08 0.08 0.05 0.19 0.46 0.52 0.87 0.61 0.17 0.01 0.00 0.00 0.00 0.03 0.17 0.27 0.45 0.83 0.94 0.65 0.27 0.07 0.07 0.05 0.01 0.00 0.00 0.00 0.00 0.00 0.00 0.00 0.00 0.00 0.00 0.00 0.00 0.00 0.00
0.13 0.12 0.16 0.12 0.10 0.12 0.19 0.08 0.01 0.19 0.47 0.69 0.78 0.59 0.12 0.01 0.00 0.02 0.01 0.03 0.18 0.40 0.59 0.96 0.93 0.80 0.47 0.14 0.05 0.01 0.00 0.00 0.00 0.00 0.00 0.00 0.00 0.00 0.00 0.00 0.00 0.00 0.00 0.00 0.00
0.14 0.15 0.16 0.12 0.14 0.23 0.27 0.07 0.05 0.33 0.71 0.64 0.57 0.15 0.05 0.01 0.04 0.05 0.03 0.07 0.27 0.62 0.31 0.76 1.28 0.82 0.34 0.11 0.01 0.00 0.00 0.00 0.00 0.00 0.00 0.00 0.00 0.00 0.00 0.00 0.00 0.00 0.00 0.00 0.00
0.16 0.13 0.13 0.14 0.17 0.22 0.20 0.08 0.16 0.43 0.58 0.40 0.36 0.09 0.11 0.03 0.08 0.14 0.11 0.16 0.25 0.53 0.19 0.51 1.05 0.50 0.28 0.21 0.09 0.00 0.00 0.00 0.00 0.00 0.00 0.00 0.00 0.00 0.00 0.00 0.00 0.00 0.00 0.00 0.00
0.14 0.12 0.13 0.21 0.18 0.10 0.17 0.28 0.35 0.49 0.60 0.35 0.45 0.36 0.21 0.09 0.11 0.23 0.17 0.20 0.23 0.52 0.13 0.33 0.51 0.56 0.63 0.52 0.28 0.04 0.00 0.00 0.00 0.00 0.00 0.00 0.00 0.00 0.00 0.00 0.00 0.00 0.00 0.00 0.00
0.13 0.12 0.18 0.27 0.25 0.23 0.31 0.64 0.35 0.76 0.84 0.37 0.60 0.69 0.43 0.25 0.26 0.24 0.19 0.18 0.17 0.50 0.20 0.42 0.33 0.52 0.76 0.72 0.43 0.21 0.01 0.00 0.00 0.00 0.00 0.00 0.00 0.00 0.00 0.00 0.00 0.00 0.00 0.00 0.00
0.11 0.10 0.18 0.45 0.63 0.51 0.49 0.36 0.24 0.56 0.68 0.32 0.55 0.69 0.53 0.46 0.51 0.42 0.30 0.12 0.15 0.57 0.20 0.33 0.29 0.29 0.43 0.48 0.40 0.20 0.06 0.00 0.00 0.00 0.00 0.00 0.00 0.00 0.00 0.00 0.00 0.00 0.00 0.00 0.00
0.08 0.09 0.15 0.22 0.36 0.27 0.14 0.21 0.43 0.52 0.82 0.82 0.52 0.86 0.68 0.60 0.49 0.68 0.30 0.16 0.27 0.51 0.20 0.21 0.20 0.33 0.20 0.29 0.29 0.11 0.04 0.00 0.00 0.00 0.00 0.00 0.00 0.00 0.00 0.00 0.00 0.00 0.00 0.00 0.00
0.07 0.12 0.18 0.21 0.17 0.04 0.11 0.13 0.33 0.46 0.72 0.72 0.51 0.74 0.75 0.54 0.55 0.58 0.22 0.25 0.26 0.49 0.44 0.42 0.26 0.22 0.33 0.38 0.31 0.12 0.11 0.08 0.03 0.01 0.00 0.00 0.00 0.00 0.00 0.00 0.00 0.00 0.00 0.00 0.00
0.09 0.11 0.04 0.09 0.14 0.05 0.12 0.12 0.26 0.42 0.81 0.67 0.55 0.77 0.80 0.42 0.65 0.31 0.11 0.09 0.09 0.09 0.18 0.36 0.37 0.27 0.33 0.14 0.15 0.07 0.11 0.06 0.01 0.00 0.00 0.00 0.00 0.00 0.00 0.00 0.00 0.00 0.00 0.00 0.00
0.05 0.02 0.05 0.09 0.09 0.05 0.07 0.12 0.30 0.75 0.79 1.15 0.93 0.84 0.49 0.20 0.28 0.15 0.04 0.03 0.05 0.02 0.04 0.12 0.13 0.13 0.14 0.06 0.04 0.04 0.02 0.01 0.00 0.00 0.00 0.00 0.00 0.00 0.00 0.00 0.00 0.00 0.00 0.00 0.00
0.06 0.09 0.16 0.10 0.06 0.07 0.09 0.26 0.45 0.62 0.94 0.74 0.82 0.29 0.21 0.13 0.10 0.08 0.04 0.01 0.01 0.00 0.00 0.00 0.05 0.06 0.02 0.04 0.01 0.00 0.01 0.00 0.00 0.00 0.00 0.00 0.00 0.00 0.00 0.00 0.00 0.00 0.00 0.00 0.00
0.08 0.11 0.20 0.07 0.08 0.05 0.13 0.36 0.62 0.54 0.53 0.21 0.02 0.01 0.01 0.02 0.01 0.01 0.00 0.00 0.00 0.00 0.00 0.00 0.00 0.03 0.01 0.02 0.01 0.00 0.00 0.00 0.00 0.00 0.00 0.00 0.00 0.00 0.00 0.00 0.00 0.00 0.00 0.00 0.00
0.15 0.25 0.17 0.11 0.02 0.03 0.16 0.32 0.78 0.53 0.11 0.01 0.00 0.00 0.00 0.00 0.00 0.00 0.00 0.00 0.00 0.00 0.00 0.00 0.00 0.02 0.01 0.00 0.00 0.00 0.00 0.00 0.00 0.00 0.01 0.01 0.00 0.00 0.00 0.00 0.00 0.00 0.00 0.00 0.00
0.08 0.04 0.07 0.08 0.07 0.09 0.20 0.36 0.55 0.16 0.02 0.01 0.00 0.00 0.00 0.00 0.00 0.00 0.00 0.00 0.00 0.00 0.00 0.00 0.00 0.00 0.01 0.00 0.00 0.00 0.00 0.00 0.01 0.04 0.02 0.03 0.01 0.00 0.00 0.00 0.00 0.00 0.00 0.00 0.00
0.02 0.03 0.04 0.12 0.09 0.22 0.49 0.61 0.35 0.08 0.02 0.00 0.00 0.00 0.00 0.00 0.00 0.00 0.00 0.00 0.00 0.00 0.00 0.00 0.00 0.00 0.00 0.00 0.00 0.00 0.00 0.00 0.03 0.08 0.02 0.01 0.00 0.00 0.00 0.00 0.00 0.00 0.00 0.00 0.00
0.01 0.02 0.04 0.03 0.10 0.07 0.24 0.23 0.07 0.02 0.00 0.00 0.00 0.00 0.00 0.00 0.00 0.00 0.00 0.00 0.00 0.00 0.00 0.00 0.00 0.00 0.00 0.00 0.00 0.00 0.00 0.00 0.05 0.03 0.11 0.03 0.00 0.00 0.00 0.00 0.00 0.00 0.00 0.01 0.03
0.01 0.12 0.09 0.10 0.11 0.05 0.17 0.25 0.06 0.00 0.00 0.00 0.00 0.00 0.00 0.00 0.00 0.00 0.00 0.00 0.00 0.00 0.00 0.00 0.00 0.00 0.00 0.00 0.00 0.00 0.00 0.00 0.00 0.02 0.04 0.01 0.01 0.00 0.00 0.00 0.00 0.00 0.02 0.03 0.02
0.02 0.02 0.02 0.05 0.06 0.17 0.19 0.12 0.02 0.00 0.01 0.00 0.00 0.00 0.00 0.00 0.00 0.00 0.00 0.00 0.00 0.00 0.00 0.00 0.00 0.01 0.00 0.00 0.00 0.00 0.00 0.00 0.00 0.01 0.02 0.01 0.00 0.00 0.00 0.00 0.01 0.02 0.02 0.01 0.01

GFSSW_prec_precacc24_072.txt.gz
Total_Precipitation_Accumulation
0.05 0.10 0.09 0.06 0.05 0.05 0.06 0.06 0.07 0.08 0.10 0.09 0.10 0.10 0.10 0.10 0.06 0.04 0.03 0.01 0.00 0.00 0.01 0.00 0.01 0.08 0.10 0.04 0.01 0.00 0.00 0.00 0.00 0.00 0.00 0.00 0.00 0.00 0.00 0.00 0.00 0.00 0.00 0.00 0.00
0.11 0.10 0.06 0.05 0.06 0.07 0.06 0.06 0.07 0.07 0.08 0.10 0.10 0.10 0.09 0.09 0.04 0.02 0.00 0.00 0.00 0.02 0.03 0.01 0.01 0.09 0.14 0.03 0.03 0.00 0.00 0.00 0.00 0.00 0.00 0.00 0.00 0.00 0.00 0.00 0.00 0.00 0.00 0.00 0.00
0.10 0.06 0.06 0.08 0.08 0.06 0.05 0.04 0.04 0.07 0.10 0.12 0.12 0.13 0.16 0.13 0.05 0.00 0.00 0.00 0.00 0.08 0.07 0.02 0.01 0.06 0.11 0.07 0.01 0.00 0.00 0.00 0.00 0.00 0.00 0.00 0.00 0.00 0.00 0.00 0.00 0.00 0.00 0.00 0.00
0.08 0.07 0.09 0.08 0.06 0.05 0.05 0.04 0.06 0.11 0.14 0.14 0.15 0.18 0.30 0.21 0.04 0.07 0.03 0.01 0.09 0.31 0.26 0.13 0.04 0.09 0.08 0.04 0.00 0.00 0.00 0.00 0.00 0.00 0.00 0.00 0.00 0.00 0.00 0.00 0.00 0.00 0.00 0.00 0.00
0.09 0.09 0.08 0.07 0.06 0.06 0.06 0.08 0.08 0.09 0.18 0.27 0.24 0.39 0.41 0.18 0.03 0.06 0.05 0.05 0.11 0.36 0.26 0.15 0.04 0.04 0.03 0.01 0.04 0.01 0.00 0.00 0.00 0.00 0.00 0.00 0.00 0.00 0.00 0.00 0.00 0.00 0.00 0.00 0.00
0.10 0.10 0.08 0.06 0.07 0.06 0.08 0.07 0.07 0.09 0.17 0.25 0.34 0.46 0.34 0.11 0.00 0.00 0.02 0.09 0.06 0.20 0.24 0.25 0.07 0.01 0.02 0.02 0.04 0.01 0.00 0.00 0.00 0.00 0.00 0.00 0.00 0.00 0.00 0.00 0.00 0.00 0.00 0.00 0.00
0.11 0.09 0.08 0.08 0.09 0.08 0.10 0.10 0.10 0.11 0.11 0.25 0.42 0.60 0.32 0.04 0.00 0.00 0.02 0.07 0.12 0.16 0.19 0.20 0.22 0.05 0.02 0.04 0.01 0.02 0.02 0.02 0.00 0.00 0.00 0.00 0.00 0.00 0.00 0.00 0.00 0.00 0.00 0.00 0.00
0.09 0.10 0.09 0.11 0.10 0.11 0.12 0.11 0.10 0.06 0.10 0.30 0.57 0.77 0.21 0.00 0.00 0.00 0.00 0.04 0.13 0.24 0.33 0.54 0.56 0.34 0.05 0.04 0.04 0.06 0.04 0.03 0.00 0.00 0.00 0.00 0.00 0.00 0.00 0.00 0.00 0.00 0.00 0.00 0.00
0.10 0.11 0.13 0.15 0.11 0.14 0.12 0.12 0.08 0.04 0.15 0.39 0.90 0.67 0.17 0.01 0.00 0.00 0.00 0.03 0.18 0.26 0.44 0.84 1.04 0.73 0.29 0.12 0.13 0.10 0.03 0.00 0.00 0.00 0.00 0.00 0.00 0.00 0.00 0.00 0.00 0.00 0.00 0.00 0.00
0.11 0.12 0.18 0.13 0.10 0.13 0.19 0.11 0.04 0.02 0.05 0.36 0.75 0.63 0.13 0.01 0.00 0.02 0.01 0.03 0.20 0.45 0.57 0.99 1.12 0.88 0.51 0.22 0.13 0.03 0.00 0.00 0.00 0.00 0.00 0.00 0.00 0.00 0.00 0.00 0.00 0.00 0.00 0.00 0.00
0.12 0.15 0.16 0.11 0.12 0.20 0.22 0.05 0.05 0.11 0.12 0.33 0.49 0.15 0.07 0.01 0.04 0.05 0.03 0.07 0.34 0.87 0.42 0.83 1.53 0.93 0.34 0.11 0.02 0.00 0.00 0.00 0.00 0.00 0.00 0.00 0.00 0.00 0.00 0.00 0.00 0.00 0.00 0.00 0.00
0.14 0.12 0.11 0.12 0.13 0.17 0.16 0.05 0.07 0.14 0.14 0.19 0.34 0.09 0.11 0.03 0.08 0.14 0.11 0.16 0.40 0.76 0.28 0.74 1.15 0.52 0.28 0.21 0.09 0.01 0.01 0.00 0.00 0.00 0.00 0.00 0.00 0.00 0.00 0.00 0.00 0.00 0.00 0.00 0.00
0.14 0.11 0.09 0.15 0.12 0.09 0.12 0.27 0.28 0.14 0.23 0.14 0.40 0.36 0.22 0.09 0.12 0.23 0.21 0.22 0.29 0.77 0.24 0.41 0.53 0.57 0.65 0.53 0.29 0.05 0.00 0.00 0.00 0.00 0.00 0.00 0.00 0.00 0.00 0.00 0.00 0.00 0.00 0.00 0.00
0.13 0.11 0.12 0.20 0.23 0.17 0.24 0.55 0.30 0.29 0.51 0.19 0.54 0.71 0.45 0.26 0.27 0.24 0.25 0.28 0.33 0.92 0.28 0.47 0.34 0.54 0.78 0.79 0.48 0.23 0.01 0.00 0.00 0.00 0.00 0.00 0.00 0.00 0.00 0.00 0.00 0.00 0.00 0.00 0.00
0.11 0.09 0.14 0.37 0.61 0.51 0.42 0.27 0.14 0.18 0.43 0.28 0.50 0.72 0.57 0.47 0.52 0.44 0.34 0.44 0.47 0.95 0.37 0.41 0.31 0.30 0.43 0.50 0.52 0.34 0.06 0.00 0.01 0.00 0.00 0.00 0.00 0.00 0.00 0.00 0.00 0.00 0.00 0.00 0.00
0.08 0.08 0.13 0.20 0.31 0.25 0.09 0.16 0.14 0.17 0.51 0.69 0.49 0.87 0.69 0.61 0.57 0.74 0.37 0.49 0.54 0.76 0.22 0.21 0.22 0.34 0.20 0.29 0.45 0.30 0.13 0.04 0.01 0.02 0.01 0.00 0.00 0.00 0.00 0.00 0.00 0.00 0.00 0.00 0.00
0.07 0.08 0.10 0.13 0.14 0.03 0.03 0.07 0.08 0.23 0.55 0.71 0.56 0.80 0.80 0.55 0.58 0.60 0.29 0.38 0.33 0.66 0.46 0.42 0.27 0.22 0.34 0.39 0.42 0.40 0.25 0.15 0.09 0.03 0.01 0.00 0.00 0.00 0.00 0.00 0.00 0.00 0.00 0.00 0.00
0.07 0.06 0.01 0.05 0.13 0.02 0.06 0.05 0.15 0.33 0.71 0.68 0.60 0.82 0.86 0.55 0.80 0.45 0.35 0.22 0.26 0.16 0.19 0.38 0.40 0.30 0.36 0.16 0.20 0.19 0.20 0.16 0.04 0.01 0.00 0.00 0.00 0.00 0.00 0.00 0.00 0.00 0.00 0.00 0.00
0.03 0.00 0.01 0.07 0.05 0.01 0.05 0.10 0.22 0.61 0.78 1.13 0.92 0.85 0.62 0.37 0.50 0.39 0.21 0.08 0.21 0.09 0.06 0.15 0.17 0.18 0.22 0.12 0.12 0.18 0.08 0.07 0.00 0.00 0.00 0.00 0.00 0.00 0.00 0.00 0.00 0.00 0.00 0.00 0.00
0.02 0.04 0.06 0.07 0.01 0.02 0.08 0.25 0.34 0.45 0.92 0.75 0.82 0.28 0.23 0.16 0.16 0.09 0.04 0.02 0.01 0.00 0.00 0.01 0.08 0.12 0.10 0.10 0.06 0.10 0.05 0.03 0.03 0.00 0.00 0.00 0.00 0.00 0.00 0.00 0.00 0.00 0.00 0.00 0.00
0.01 0.03 0.09 0.04 0.01 0.02 0.12 0.32 0.45 0.47 0.52 0.21 0.03 0.02 0.02 0.02 0.01 0.00 0.00 0.00 0.00 0.00 0.00 0.00 0.01 0.06 0.05 0.06 0.03 0.03 0.05 0.00 0.00 0.00 0.00 0.00 0.00 0.00 0.00 0.00 0.00 0.00 0.00 0.00 0.00
0.01 0.09 0.06 0.05 0.01 0.02 0.14 0.28 0.60 0.44 0.10 0.01 0.00 0.00 0.00 0.00 0.00 0.00 0.00 0.00 0.00 0.00 0.00 0.00 0.00 0.02 0.01 0.00 0.00 0.00 0.00 0.00 0.00 0.00 0.00 0.00 0.00 0.00 0.00 0.00 0.00 0.00 0.00 0.00 0.00
0.00 0.01 0.02 0.01 0.03 0.07 0.17 0.28 0.42 0.13 0.02 0.01 0.00 0.00 0.00 0.00 0.00 0.00 0.00 0.00 0.00 0.00 0.00 0.00 0.00 0.00 0.01 0.00 0.00 0.00 0.00 0.00 0.00 0.00 0.00 0.00 0.00 0.00 0.00 0.00 0.00 0.00 0.00 0.00 0.00
0.00 0.02 0.01 0.02 0.02 0.20 0.44 0.47 0.30 0.06 0.01 0.00 0.00 0.00 0.00 0.00 0.00 0.00 0.00 0.00 0.00 0.00 0.00 0.00 0.00 0.00 0.00 0.00 0.00 0.00 0.00 0.00 0.00 0.01 0.00 0.00 0.00 0.00 0.00 0.00 0.00 0.00 0.00 0.00 0.00
0.00 0.00 0.01 0.02 0.02 0.05 0.19 0.17 0.04 0.01 0.00 0.00 0.00 0.00 0.00 0.00 0.00 0.00 0.00 0.00 0.00 0.00 0.00 0.00 0.00 0.00 0.00 0.00 0.00 0.00 0.00 0.00 0.00 0.00 0.02 0.00 0.00 0.00 0.00 0.00 0.00 0.00 0.00 0.01 0.03
0.00 0.04 0.01 0.07 0.04 0.03 0.15 0.15 0.04 0.00 0.00 0.00 0.00 0.00 0.00 0.00 0.00 0.00 0.00 0.00 0.00 0.00 0.00 0.00 0.00 0.00 0.00 0.00 0.00 0.00 0.00 0.00 0.00 0.00 0.01 0.00 0.00 0.00 0.00 0.00 0.00 0.00 0.00 0.01 0.02
0.01 0.01 0.02 0.04 0.04 0.16 0.17 0.09 0.01 0.00 0.01 0.00 0.00 0.00 0.00 0.00 0.00 0.00 0.00 0.00 0.00 0.00 0.00 0.00 0.00 0.00 0.00 0.00 0.00 0.00 0.00 0.00 0.00 0.00 0.00 0.00 0.00 0.00 0.00 0.00 0.00 0.00 0.00 0.00 0.01

GFSSW_prec_precacc24_075.txt.gz
Total_Precipitation_Accumulation
0.07 0.12 0.10 0.06 0.05 0.04 0.05 0.04 0.04 0.06 0.10 0.09 0.10 0.10 0.10 0.10 0.08 0.03 0.02 0.01 0.00 0.00 0.02 0.00 0.01 0.08 0.13 0.07 0.04 0.05 0.03 0.02 0.00 0.00 0.00 0.00 0.00 0.00 0.00 0.00 0.00 0.00 0.00 0.00 0.01
0.13 0.11 0.06 0.05 0.07 0.07 0.05 0.05 0.03 0.03 0.06 0.10 0.10 0.10 0.10 0.10 0.04 0.02 0.00 0.00 0.00 0.02 0.04 0.02 0.01 0.09 0.15 0.07 0.14 0.03 0.00 0.00 0.00 0.00 0.00 0.00 0.01 0.01 0.00 0.00 0.00 0.00 0.01 0.00 0.00
0.11 0.07 0.07 0.10 0.09 0.06 0.05 0.04 0.03 0.03 0.05 0.12 0.13 0.14 0.17 0.16 0.05 0.00 0.00 0.00 0.00 0.07 0.07 0.04 0.02 0.06 0.12 0.10 0.08 0.01 0.00 0.00 0.00 0.00 0.00 0.00 0.02 0.00 0.00 0.00 0.00 0.00 0.00 0.00 0.00
0.09 0.09 0.10 0.08 0.06 0.05 0.05 0.05 0.06 0.08 0.07 0.12 0.16 0.19 0.34 0.24 0.05 0.10 0.04 0.01 0.05 0.24 0.26 0.19 0.06 0.09 0.08 0.05 0.01 0.00 0.00 0.00 0.00 0.00 0.00 0.00 0.00 0.00 0.00 0.00 0.00 0.00 0.00 0.00 0.00
0.12 0.11 0.09 0.07 0.06 0.06 0.07 0.08 0.09 0.10 0.10 0.17 0.24 0.42 0.42 0.20 0.04 0.08 0.07 0.04 0.04 0.26 0.24 0.17 0.09 0.05 0.03 0.02 0.06 0.02 0.00 0.00 0.00 0.00 0.00 0.00 0.00 0.00 0.00 0.00 0.00 0.00 0.00 0.00 0.00
0.12 0.10 0.08 0.07 0.08 0.08 0.10 0.09 0.09 0.11 0.12 0.13 0.36 0.49 0.35 0.12 0.00 0.00 0.02 0.09 0.06 0.13 0.18 0.21 0.11 0.02 0.02 0.03 0.04 0.02 0.01 0.00 0.01 0.00 0.00 0.00 0.00 0.00 0.00 0.00 0.00 0.00 0.00 0.00 0.00
0.11 0.08 0.08 0.08 0.11 0.11 0.14 0.15 0.16 0.13 0.09 0.11 0.31 0.65 0.33 0.05 0.01 0.00 0.02 0.07 0.12 0.16 0.15 0.13 0.26 0.11 0.03 0.04 0.01 0.03 0.04 0.06 0.02 0.00 0.00 0.00 0.00 0.00 0.00 0.00 0.00 0.00 0.00 0.00 0.00
0.09 0.09 0.09 0.12 0.12 0.14 0.13 0.14 0.16 0.11 0.11 0.20 0.42 0.81 0.21 0.00 0.00 0.00 0.00 0.04 0.13 0.24 0.33 0.47 0.54 0.38 0.07 0.05 0.04 0.10 0.09 0.09 0.03 0.00 0.00 0.00 0.00 0.00 0.00 0.00 0.00 0.00 0.00 0.00 0.00
0.09 0.10 0.13 0.16 0.13 0.14 0.12 0.12 0.11 0.11 0.18 0.34 0.54 0.62 0.17 0.01 0.00 0.00 0.00 0.03 0.18 0.26 0.44 0.81 1.03 0.78 0.31 0.13 0.17 0.15 0.07 0.01 0.01 0.00 0.00 0.00 0.00 0.00 0.00 0.00 0.00 0.00 0.00 0.00 0.00
0.10 0.11 0.17 0.13 0.10 0.12 0.17 0.10 0.07 0.05 0.06 0.14 0.32 0.51 0.13 0.01 0.00 0.02 0.01 0.03 0.20 0.45 0.57 1.00 1.20 0.98 0.54 0.23 0.14 0.03 0.01 0.00 0.00 0.00 0.00 0.00 0.00 0.00 0.00 0.00 0.00 0.00 0.00 0.00 0.00
0.11 0.13 0.14 0.11 0.11 0.16 0.17 0.04 0.05 0.10 0.13 0.05 0.16 0.10 0.07 0.01 0.04 0.05 0.03 0.07 0.33 0.91 0.49 0.88 1.68 1.09 0.35 0.11 0.02 0.00 0.00 0.00 0.00 0.00 0.00 0.00 0.00 0.00 0.00 0.00 0.00 0.00 0.00 0.00 0.00
0.12 0.11 0.09 0.11 0.12 0.15 0.10 0.04 0.05 0.13 0.13 0.02 0.15 0.08 0.11 0.03 0.08 0.14 0.11 0.17 0.40 0.80 0.41 0.78 1.29 0.62 0.29 0.21 0.10 0.02 0.01 0.00 0.00 0.00 0.00 0.00 0.00 0.00 0.00 0.00 0.00 0.00 0.00 0.00 0.00
0.12 0.11 0.08 0.12 0.11 0.07 0.07 0.18 0.23 0.11 0.16 0.02 0.10 0.22 0.21 0.09 0.12 0.23 0.21 0.23 0.29 0.83 0.42 0.45 0.58 0.64 0.66 0.53 0.29 0.05 0.00 0.00 0.00 0.00 0.00 0.00 0.00 0.00 0.00 0.00 0.00 0.00 0.00 0.00 0.00
0.13 0.11 0.11 0.17 0.21 0.15 0.19 0.29 0.25 0.22 0.41 0.13 0.22 0.48 0.45 0.26 0.27 0.24 0.25 0.28 0.33 0.94 0.39 0.51 0.36 0.58 0.79 0.79 0.48 0.23 0.01 0.01 0.02 0.00 0.00 0.00 0.00 0.00 0.00 0.00 0.00 0.00 0.00 0.00 0.00
0.10 0.09 0.12 0.32 0.60 0.50 0.37 0.20 0.13 0.14 0.38 0.36 0.31 0.62 0.59 0.47 0.53 0.44 0.35 0.47 0.50 1.01 0.47 0.47 0.32 0.33 0.44 0.51 0.52 0.34 0.06 0.02 0.05 0.02 0.00 0.00 0.00 0.00 0.00 0.00 0.00 0.00 0.00 0.00 0.00
0.08 0.08 0.11 0.17 0.23 0.20 0.07 0.08 0.11 0.14 0.39 0.59 0.40 0.87 0.76 0.64 0.65 0.77 0.42 0.66 0.81 0.93 0.52 0.29 0.25 0.36 0.20 0.29 0.45 0.31 0.13 0.06 0.04 0.06 0.09 0.00 0.00 0.00 0.00 0.00 0.00 0.00 0.00 0.00 0.00
0.07 0.08 0.08 0.07 0.06 0.01 0.02 0.05 0.07 0.21 0.35 0.56 0.46 0.80 0.87 0.63 0.63 0.62 0.40 0.74 0.83 0.98 0.86 0.50 0.34 0.23 0.34 0.39 0.42 0.42 0.40 0.27 0.20 0.12 0.04 0.00 0.00 0.00 0.00 0.00 0.00 0.00 0.00 0.00 0.00
0.07 0.06 0.00 0.02 0.07 0.01 0.04 0.04 0.13 0.29 0.50 0.59 0.58 0.82 0.86 0.54 0.80 0.46 0.53 0.59 0.50 0.23 0.29 0.44 0.46 0.31 0.36 0.16 0.20 0.21 0.39 0.31 0.08 0.02 0.00 0.00 0.00 0.00 0.00 0.00 0.00 0.00 0.00 0.00 0.00
0.03 0.00 0.01 0.05 0.03 0.01 0.04 0.09 0.21 0.38 0.64 0.99 0.82 0.85 0.71 0.41 0.52 0.49 0.34 0.20 0.28 0.10 0.07 0.15 0.19 0.19 0.22 0.12 0.12 0.19 0.16 0.18 0.02 0.00 0.00 0.00 0.00 0.00 0.00 0.00 0.00 0.00 0.00 0.00 0.00
0.00 0.00 0.04 0.04 0.00 0.01 0.06 0.25 0.33 0.31 0.73 0.70 0.71 0.25 0.32 0.27 0.22 0.10 0.06 0.03 0.02 0.00 0.00 0.01 0.09 0.13 0.11 0.11 0.07 0.11 0.06 0.06 0.14 0.03 0.00 0.00 0.00 0.00 0.00 0.00 0.00 0.00 0.00 0.00 0.00
0.00 0.00 0.03 0.00 0.00 0.00 0.11 0.30 0.41 0.33 0.38 0.17 0.02 0.01 0.02 0.02 0.01 0.00 0.00 0.00 0.00 0.00 0.00 0.00 0.01 0.09 0.08 0.07 0.04 0.05 0.09 0.00 0.03 0.04 0.00 0.00 0.00 0.00 0.00 0.00 0.00 0.00 0.00 0.00 0.00
0.00 0.00 0.01 0.00 0.00 0.01 0.12 0.24 0.31 0.24 0.06 0.00 0.00 0.00 0.00 0.00 0.00 0.00 0.00 0.00 0.00 0.00 0.00 0.00 0.00 0.02 0.02 0.00 0.00 0.00 0.02 0.00 0.00 0.01 0.00 0.00 0.00 0.00 0.00 0.00 0.00 0.00 0.00 0.00 0.00
0.00 0.00 0.00 0.00 0.02 0.06 0.14 0.18 0.21 0.08 0.01 0.00 0.00 0.00 0.00 0.00 0.00 0.00 0.00 0.00 0.00 0.00 0.00 0.00 0.00 0.00 0.01 0.00 0.00 0.00 0.00 0.00 0.00 0.00 0.00 0.00 0.00 0.00 0.00 0.00 0.00 0.00 0.00 0.00 0.00
0.00 0.00 0.00 0.00 0.01 0.17 0.36 0.31 0.17 0.01 0.00 0.00 0.00 0.00 0.00 0.00 0.00 0.00 0.00 0.00 0.00 0.00 0.00 0.00 0.00 0.00 0.00 0.00 0.00 0.00 0.00 0.00 0.00 0.00 0.00 0.00 0.00 0.00 0.00 0.00 0.00 0.00 0.00 0.00 0.00
0.00 0.00 0.00 0.00 0.00 0.04 0.12 0.09 0.01 0.00 0.00 0.00 0.00 0.00 0.00 0.00 0.00 0.00 0.00 0.00 0.00 0.00 0.00 0.00 0.00 0.00 0.00 0.00 0.00 0.00 0.00 0.00 0.00 0.00 0.00 0.00 0.00 0.00 0.00 0.00 0.00 0.00 0.00 0.00 0.00
0.00 0.01 0.01 0.00 0.00 0.02 0.04 0.01 0.00 0.00 0.00 0.00 0.00 0.00 0.00 0.00 0.00 0.00 0.00 0.00 0.00 0.00 0.00 0.00 0.00 0.00 0.00 0.00 0.00 0.00 0.00 0.00 0.00 0.00 0.00 0.00 0.00 0.00 0.00 0.00 0.00 0.00 0.00 0.00 0.00
0.01 0.01 0.01 0.00 0.03 0.09 0.06 0.01 0.00 0.01 0.01 0.00 0.00 0.00 0.00 0.00 0.00 0.00 0.00 0.00 0.00 0.00 0.00 0.00 0.00 0.00 0.00 0.00 0.00 0.00 0.00 0.00 0.00 0.00 0.00 0.00 0.00 0.00 0.00 0.00 0.00 0.00 0.00 0.00 0.00

GFSSW_prec_precacc24_078.txt.gz
Total_Precipitation_Accumulation
0.08 0.14 0.11 0.07 0.05 0.05 0.06 0.04 0.03 0.04 0.05 0.06 0.10 0.10 0.10 0.11 0.08 0.03 0.02 0.01 0.00 0.00 0.02 0.01 0.01 0.08 0.14 0.09 0.08 0.07 0.06 0.02 0.01 0.00 0.00 0.00 0.00 0.00 0.00 0.00 0.00 0.00 0.00 0.00 0.01
0.14 0.13 0.07 0.06 0.08 0.07 0.06 0.05 0.03 0.03 0.02 0.03 0.07 0.10 0.10 0.10 0.04 0.02 0.00 0.00 0.00 0.01 0.02 0.02 0.01 0.09 0.16 0.09 0.18 0.06 0.00 0.00 0.00 0.00 0.00 0.00 0.06 0.02 0.00 0.00 0.00 0.00 0.03 0.04 0.05
0.12 0.09 0.08 0.10 0.09 0.07 0.06 0.05 0.03 0.03 0.03 0.03 0.04 0.13 0.18 0.16 0.06 0.00 0.01 0.01 0.00 0.06 0.07 0.05 0.04 0.07 0.13 0.11 0.10 0.02 0.00 0.00 0.00 0.00 0.00 0.03 0.08 0.00 0.00 0.00 0.00 0.00 0.00 0.03 0.07
0.10 0.10 0.10 0.08 0.07 0.06 0.07 0.06 0.08 0.10 0.09 0.08 0.08 0.15 0.35 0.24 0.05 0.13 0.05 0.02 0.07 0.19 0.23 0.20 0.08 0.11 0.09 0.06 0.01 0.00 0.00 0.00 0.00 0.00 0.01 0.03 0.01 0.03 0.01 0.00 0.00 0.00 0.00 0.00 0.01
0.12 0.10 0.08 0.07 0.07 0.08 0.11 0.13 0.13 0.15 0.13 0.17 0.18 0.30 0.41 0.20 0.04 0.10 0.08 0.02 0.03 0.21 0.21 0.18 0.10 0.07 0.03 0.02 0.06 0.02 0.00 0.00 0.00 0.00 0.00 0.00 0.00 0.00 0.00 0.00 0.00 0.00 0.03 0.00 0.01
0.11 0.10 0.08 0.06 0.08 0.10 0.13 0.12 0.15 0.21 0.20 0.17 0.29 0.31 0.32 0.12 0.00 0.00 0.02 0.05 0.05 0.13 0.18 0.20 0.12 0.06 0.03 0.03 0.04 0.03 0.01 0.00 0.01 0.00 0.00 0.00 0.00 0.00 0.00 0.00 0.00 0.00 0.01 0.02 0.01
0.11 0.08 0.07 0.09 0.12 0.11 0.14 0.16 0.19 0.27 0.20 0.16 0.33 0.38 0.28 0.05 0.01 0.01 0.02 0.07 0.12 0.16 0.12 0.12 0.27 0.19 0.03 0.04 0.01 0.04 0.06 0.08 0.03 0.00 0.00 0.00 0.00 0.00 0.00 0.00 0.00 0.00 0.01 0.00 0.01
0.08 0.08 0.09 0.12 0.12 0.13 0.13 0.14 0.17 0.21 0.23 0.28 0.44 0.53 0.14 0.00 0.00 0.01 0.00 0.04 0.13 0.29 0.29 0.38 0.47 0.39 0.08 0.06 0.04 0.11 0.12 0.12 0.05 0.00 0.00 0.00 0.00 0.00 0.00 0.00 0.00 0.00 0.00 0.00 0.00
0.08 0.09 0.13 0.15 0.12 0.11 0.11 0.11 0.12 0.17 0.24 0.36 0.51 0.35 0.10 0.01 0.00 0.00 0.00 0.03 0.18 0.32 0.45 0.75 0.98 0.71 0.29 0.14 0.18 0.16 0.08 0.02 0.01 0.00 0.00 0.00 0.00 0.00 0.00 0.00 0.00 0.00 0.00 0.00 0.00
0.09 0.11 0.16 0.13 0.10 0.11 0.14 0.09 0.07 0.05 0.06 0.14 0.24 0.22 0.06 0.01 0.00 0.02 0.01 0.03 0.20 0.45 0.59 0.94 1.19 1.05 0.47 0.22 0.14 0.03 0.01 0.00 0.00 0.00 0.00 0.00 0.00 0.00 0.00 0.00 0.00 0.00 0.00 0.00 0.00
0.09 0.12 0.12 0.11 0.11 0.14 0.13 0.03 0.05 0.07 0.11 0.05 0.05 0.02 0.07 0.01 0.04 0.05 0.03 0.07 0.31 0.88 0.61 0.88 1.71 1.26 0.40 0.11 0.02 0.00 0.00 0.00 0.00 0.00 0.00 0.00 0.00 0.00 0.00 0.00 0.00 0.00 0.00 0.00 0.00
0.09 0.10 0.09 0.10 0.10 0.13 0.07 0.04 0.04 0.10 0.09 0.01 0.02 0.01 0.10 0.03 0.08 0.14 0.11 0.17 0.39 0.80 0.53 0.83 1.31 0.67 0.31 0.21 0.10 0.02 0.01 0.00 0.00 0.00 0.00 0.00 0.00 0.00 0.00 0.00 0.00 0.00 0.00 0.00 0.00
0.12 0.11 0.07 0.10 0.11 0.06 0.06 0.12 0.12 0.08 0.15 0.02 0.00 0.02 0.16 0.09 0.12 0.23 0.22 0.23 0.28 0.83 0.47 0.52 0.59 0.71 0.76 0.54 0.30 0.05 0.01 0.00 0.01 0.00 0.00 0.00 0.00 0.00 0.00 0.00 0.00 0.00 0.00 0.00 0.00
0.12 0.11 0.10 0.16 0.21 0.15 0.18 0.22 0.19 0.20 0.36 0.15 0.14 0.16 0.32 0.26 0.27 0.24 0.25 0.28 0.33 0.94 0.41 0.53 0.37 0.63 0.96 0.80 0.48 0.24 0.03 0.02 0.02 0.00 0.00 0.00 0.00 0.00 0.00 0.00 0.00 0.00 0.00 0.00 0.00
0.09 0.08 0.12 0.28 0.58 0.49 0.34 0.16 0.12 0.13 0.37 0.41 0.25 0.35 0.52 0.47 0.53 0.44 0.35 0.47 0.50 1.01 0.47 0.47 0.33 0.37 0.60 0.52 0.52 0.34 0.07 0.02 0.06 0.02 0.00 0.00 0.00 0.00 0.00 0.00 0.00 0.00 0.00 0.00 0.00
0.08 0.08 0.10 0.14 0.18 0.13 0.04 0.05 0.10 0.14 0.34 0.36 0.36 0.63 0.75 0.64 0.66 0.78 0.42 0.67 0.82 0.94 0.53 0.31 0.27 0.45 0.26 0.31 0.47 0.31 0.15 0.07 0.05 0.10 0.15 0.00 0.00 0.00 0.00 0.00 0.00 0.00 0.00 0.00 0.00
0.06 0.07 0.05 0.03 0.04 0.01 0.02 0.04 0.06 0.20 0.22 0.34 0.27 0.78 0.97 0.71 0.69 0.62 0.41 0.76 0.84 1.02 0.92 0.58 0.38 0.35 0.42 0.40 0.44 0.42 0.42 0.32 0.25 0.18 0.06 0.00 0.00 0.00 0.00 0.00 0.00 0.00 0.00 0.00 0.00
0.06 0.04 0.00 0.02 0.02 0.01 0.03 0.02 0.12 0.26 0.39 0.36 0.55 0.85 0.86 0.58 0.86 0.54 0.66 0.74 0.53 0.34 0.48 0.55 0.56 0.36 0.42 0.17 0.20 0.22 0.40 0.32 0.09 0.02 0.00 0.00 0.00 0.00 0.00 0.00 0.00 0.00 0.00 0.00 0.00
0.02 0.00 0.01 0.03 0.00 0.00 0.03 0.08 0.18 0.28 0.41 0.68 0.77 0.95 0.68 0.43 0.57 0.66 0.67 0.41 0.35 0.27 0.20 0.19 0.26 0.21 0.22 0.12 0.12 0.19 0.17 0.23 0.07 0.00 0.00 0.00 0.00 0.00 0.00 0.00 0.00 0.00 0.00 0.00 0.00
0.00 0.00 0.02 0.01 0.00 0.00 0.05 0.19 0.29 0.26 0.47 0.53 0.62 0.24 0.36 0.27 0.24 0.15 0.15 0.06 0.04 0.04 0.01 0.01 0.12 0.14 0.11 0.11 0.07 0.11 0.06 0.09 0.26 0.08 0.00 0.00 0.00 0.00 0.00 0.00 0.00 0.00 0.00 0.00 0.00
0.00 0.00 0.00 0.00 0.00 0.00 0.10 0.26 0.36 0.24 0.19 0.07 0.02 0.01 0.02 0.02 0.01 0.00 0.01 0.01 0.00 0.00 0.00 0.00 0.02 0.11 0.08 0.07 0.04 0.05 0.09 0.00 0.04 0.05 0.00 0.00 0.00 0.00 0.00 0.00 0.00 0.00 0.00 0.00 0.00
0.00 0.00 0.00 0.00 0.00 0.01 0.07 0.15 0.12 0.04 0.00 0.00 0.00 0.00 0.00 0.00 0.00 0.00 0.01 0.00 0.00 0.00 0.00 0.00 0.00 0.03 0.03 0.00 0.00 0.00 0.02 0.00 0.00 0.01 0.00 0.00 0.00 0.00 0.00 0.00 0.00 0.00 0.00 0.00 0.00
0.00 0.00 0.00 0.00 0.02 0.04 0.08 0.07 0.03 0.00 0.00 0.00 0.00 0.00 0.00 0.00 0.00 0.00 0.00 0.00 0.00 0.00 0.00 0.00 0.00 0.01 0.03 0.01 0.01 0.00 0.00 0.00 0.00 0.00 0.00 0.00 0.00 0.00 0.00 0.00 0.00 0.00 0.00 0.00 0.00
0.00 0.00 0.00 0.00 0.01 0.11 0.20 0.08 0.01 0.00 0.00 0.00 0.00 0.00 0.00 0.00 0.00 0.00 0.00 0.00 0.00 0.00 0.00 0.00 0.00 0.00 0.00 0.00 0.00 0.00 0.00 0.00 0.00 0.00 0.00 0.00 0.00 0.00 0.00 0.00 0.00 0.00 0.00 0.00 0.00
0.00 0.00 0.00 0.00 0.00 0.02 0.03 0.03 0.00 0.00 0.00 0.00 0.00 0.00 0.00 0.00 0.00 0.00 0.00 0.00 0.00 0.00 0.00 0.00 0.00 0.00 0.00 0.00 0.00 0.00 0.00 0.00 0.00 0.00 0.00 0.00 0.00 0.00 0.00 0.00 0.00 0.00 0.00 0.00 0.00
0.00 0.01 0.00 0.00 0.00 0.00 0.00 0.00 0.00 0.00 0.00 0.00 0.00 0.00 0.00 0.00 0.00 0.00 0.00 0.00 0.00 0.00 0.00 0.00 0.00 0.00 0.00 0.00 0.00 0.00 0.00 0.00 0.00 0.00 0.00 0.00 0.00 0.00 0.00 0.00 0.00 0.00 0.00 0.00 0.00
0.00 0.01 0.01 0.00 0.00 0.00 0.00 0.00 0.00 0.00 0.01 0.01 0.00 0.00 0.00 0.00 0.00 0.00 0.00 0.00 0.00 0.00 0.00 0.00 0.00 0.00 0.00 0.00 0.00 0.00 0.00 0.00 0.00 0.00 0.00 0.00 0.00 0.00 0.00 0.00 0.00 0.00 0.00 0.00 0.00

GFSSW_prec_precacc24_081.txt.gz
Total_Precipitation_Accumulation
0.08 0.15 0.14 0.07 0.06 0.05 0.06 0.04 0.04 0.04 0.05 0.04 0.04 0.05 0.09 0.11 0.11 0.06 0.02 0.01 0.00 0.00 0.02 0.01 0.01 0.08 0.14 0.10 0.11 0.08 0.09 0.02 0.01 0.00 0.00 0.00 0.00 0.00 0.00 0.00 0.00 0.00 0.00 0.01 0.01
0.14 0.15 0.09 0.06 0.08 0.08 0.06 0.06 0.04 0.04 0.02 0.03 0.04 0.04 0.06 0.10 0.05 0.02 0.00 0.00 0.01 0.01 0.02 0.02 0.01 0.09 0.16 0.09 0.21 0.08 0.01 0.00 0.00 0.00 0.00 0.00 0.06 0.02 0.00 0.00 0.00 0.02 0.09 0.10 0.06
0.11 0.10 0.08 0.10 0.09 0.07 0.07 0.07 0.07 0.07 0.06 0.04 0.04 0.06 0.09 0.15 0.06 0.00 0.02 0.01 0.02 0.07 0.05 0.04 0.05 0.07 0.13 0.12 0.11 0.03 0.00 0.00 0.00 0.00 0.00 0.04 0.09 0.02 0.01 0.00 0.00 0.01 0.07 0.10 0.10
0.09 0.10 0.09 0.08 0.07 0.07 0.08 0.11 0.13 0.20 0.21 0.12 0.13 0.13 0.19 0.20 0.05 0.16 0.10 0.04 0.12 0.21 0.21 0.18 0.08 0.13 0.09 0.07 0.02 0.01 0.00 0.00 0.00 0.00 0.02 0.03 0.01 0.04 0.02 0.00 0.00 0.01 0.08 0.12 0.07
0.11 0.10 0.08 0.07 0.08 0.09 0.12 0.16 0.18 0.22 0.27 0.26 0.29 0.27 0.18 0.16 0.04 0.12 0.09 0.01 0.03 0.17 0.18 0.17 0.10 0.10 0.04 0.02 0.08 0.03 0.00 0.00 0.00 0.00 0.00 0.00 0.00 0.01 0.02 0.00 0.00 0.00 0.07 0.09 0.09
0.10 0.10 0.07 0.06 0.08 0.10 0.13 0.12 0.16 0.26 0.30 0.26 0.39 0.28 0.13 0.09 0.00 0.00 0.02 0.03 0.04 0.12 0.18 0.20 0.13 0.07 0.04 0.03 0.06 0.04 0.02 0.00 0.01 0.00 0.00 0.00 0.00 0.00 0.01 0.09 0.00 0.00 0.03 0.06 0.04
0.10 0.07 0.06 0.07 0.11 0.12 0.13 0.15 0.19 0.31 0.28 0.26 0.39 0.36 0.14 0.02 0.01 0.01 0.01 0.03 0.06 0.09 0.15 0.14 0.27 0.23 0.05 0.04 0.01 0.05 0.07 0.10 0.03 0.00 0.00 0.00 0.00 0.00 0.00 0.07 0.02 0.00 0.02 0.04 0.06
0.07 0.07 0.07 0.10 0.12 0.12 0.11 0.13 0.16 0.22 0.28 0.31 0.45 0.47 0.07 0.00 0.00 0.01 0.00 0.03 0.10 0.23 0.25 0.26 0.40 0.39 0.13 0.06 0.04 0.11 0.12 0.13 0.05 0.00 0.00 0.00 0.00 0.00 0.00 0.02 0.04 0.00 0.00 0.01 0.04
0.07 0.08 0.11 0.14 0.12 0.09 0.08 0.09 0.11 0.19 0.23 0.35 0.49 0.31 0.03 0.01 0.00 0.00 0.00 0.03 0.18 0.34 0.42 0.61 0.86 0.65 0.34 0.16 0.19 0.16 0.08 0.02 0.01 0.00 0.00 0.00 0.00 0.00 0.00 0.00 0.00 0.00 0.00 0.00 0.01
0.07 0.09 0.14 0.13 0.09 0.08 0.11 0.08 0.07 0.05 0.05 0.11 0.21 0.17 0.02 0.01 0.00 0.02 0.01 0.03 0.21 0.47 0.68 0.75 1.02 0.88 0.54 0.21 0.14 0.03 0.01 0.00 0.00 0.00 0.00 0.00 0.00 0.00 0.00 0.00 0.00 0.00 0.00 0.00 0.00
0.07 0.11 0.12 0.11 0.09 0.10 0.10 0.03 0.05 0.06 0.09 0.04 0.04 0.01 0.03 0.01 0.03 0.04 0.03 0.07 0.28 0.81 0.79 0.83 1.44 1.33 0.46 0.04 0.01 0.00 0.00 0.00 0.00 0.00 0.00 0.00 0.00 0.00 0.00 0.00 0.00 0.00 0.00 0.00 0.00
0.08 0.10 0.09 0.10 0.09 0.08 0.05 0.04 0.03 0.09 0.07 0.01 0.01 0.00 0.02 0.03 0.07 0.14 0.11 0.17 0.36 0.78 0.65 0.85 1.25 0.75 0.34 0.16 0.06 0.02 0.01 0.00 0.00 0.00 0.00 0.00 0.00 0.00 0.00 0.00 0.00 0.00 0.00 0.00 0.00
0.10 0.10 0.07 0.09 0.10 0.06 0.06 0.12 0.11 0.05 0.10 0.02 0.00 0.01 0.05 0.07 0.11 0.23 0.22 0.22 0.24 0.80 0.52 0.53 0.59 0.85 0.92 0.55 0.30 0.05 0.01 0.00 0.01 0.00 0.00 0.00 0.00 0.00 0.00 0.00 0.00 0.00 0.00 0.00 0.00
0.11 0.10 0.10 0.15 0.20 0.15 0.18 0.21 0.17 0.16 0.24 0.16 0.13 0.11 0.13 0.16 0.24 0.24 0.25 0.27 0.29 0.92 0.39 0.54 0.37 0.72 1.17 0.83 0.48 0.25 0.03 0.02 0.02 0.00 0.00 0.00 0.00 0.00 0.00 0.00 0.00 0.00 0.00 0.00 0.00
0.09 0.08 0.11 0.24 0.47 0.44 0.31 0.13 0.10 0.08 0.31 0.46 0.27 0.23 0.29 0.41 0.51 0.43 0.35 0.46 0.50 1.01 0.47 0.47 0.33 0.39 0.75 0.57 0.53 0.35 0.07 0.02 0.06 0.02 0.00 0.00 0.00 0.00 0.00 0.00 0.00 0.00 0.00 0.00 0.00
0.08 0.07 0.06 0.06 0.09 0.08 0.02 0.04 0.07 0.11 0.27 0.30 0.41 0.38 0.48 0.62 0.66 0.78 0.42 0.67 0.81 0.94 0.52 0.33 0.27 0.48 0.32 0.37 0.47 0.32 0.16 0.08 0.06 0.11 0.15 0.00 0.00 0.00 0.00 0.00 0.00 0.00 0.00 0.00 0.00
0.05 0.03 0.01 0.01 0.02 0.00 0.01 0.04 0.06 0.19 0.17 0.20 0.26 0.49 0.98 0.73 0.68 0.61 0.38 0.75 0.83 0.99 0.90 0.62 0.42 0.41 0.50 0.56 0.47 0.44 0.42 0.38 0.31 0.24 0.07 0.00 0.00 0.00 0.00 0.00 0.00 0.00 0.00 0.00 0.00
0.02 0.00 0.00 0.00 0.00 0.00 0.03 0.02 0.10 0.20 0.19 0.18 0.39 0.69 0.88 0.65 0.91 0.54 0.65 0.74 0.53 0.35 0.52 0.59 0.68 0.49 0.62 0.29 0.23 0.22 0.40 0.33 0.09 0.03 0.00 0.00 0.00 0.00 0.00 0.00 0.00 0.00 0.00 0.00 0.00
0.00 0.00 0.00 0.00 0.00 0.00 0.03 0.06 0.12 0.14 0.16 0.29 0.60 0.96 0.67 0.46 0.64 0.73 0.69 0.42 0.37 0.28 0.26 0.21 0.31 0.30 0.41 0.16 0.13 0.20 0.17 0.23 0.07 0.00 0.00 0.00 0.00 0.00 0.00 0.00 0.00 0.00 0.00 0.00 0.00
0.00 0.00 0.00 0.00 0.00 0.00 0.04 0.14 0.18 0.13 0.17 0.30 0.54 0.21 0.35 0.29 0.32 0.26 0.33 0.16 0.18 0.09 0.03 0.01 0.15 0.17 0.18 0.13 0.08 0.11 0.06 0.09 0.26 0.09 0.00 0.00 0.00 0.00 0.00 0.00 0.00 0.00 0.00 0.00 0.00
0.00 0.00 0.00 0.00 0.00 0.00 0.07 0.13 0.20 0.10 0.06 0.03 0.01 0.01 0.02 0.02 0.02 0.02 0.03 0.04 0.03 0.03 0.00 0.00 0.02 0.12 0.09 0.08 0.05 0.05 0.09 0.00 0.04 0.05 0.00 0.00 0.00 0.00 0.00 0.00 0.00 0.00 0.00 0.00 0.00
0.00 0.00 0.00 0.00 0.00 0.00 0.03 0.04 0.03 0.00 0.00 0.00 0.00 0.00 0.00 0.00 0.00 0.01 0.02 0.01 0.00 0.00 0.00 0.00 0.00 0.04 0.03 0.00 0.00 0.00 0.02 0.00 0.00 0.02 0.00 0.00 0.00 0.00 0.00 0.00 0.00 0.00 0.00 0.00 0.00
0.00 0.00 0.00 0.00 0.01 0.01 0.00 0.00 0.00 0.00 0.00 0.00 0.00 0.00 0.00 0.00 0.00 0.00 0.00 0.00 0.00 0.00 0.00 0.00 0.00 0.02 0.04 0.02 0.01 0.01 0.00 0.00 0.00 0.00 0.00 0.00 0.00 0.00 0.00 0.00 0.00 0.00 0.00 0.00 0.00
0.00 0.00 0.00 0.00 0.00 0.01 0.01 0.00 0.00 0.00 0.00 0.00 0.00 0.00 0.00 0.00 0.00 0.00 0.00 0.00 0.00 0.00 0.00 0.00 0.00 0.00 0.00 0.00 0.00 0.00 0.00 0.00 0.00 0.00 0.00 0.00 0.00 0.00 0.00 0.00 0.00 0.00 0.00 0.00 0.00
0.00 0.00 0.00 0.00 0.00 0.00 0.00 0.00 0.00 0.00 0.00 0.00 0.00 0.00 0.00 0.00 0.00 0.00 0.00 0.00 0.00 0.00 0.00 0.00 0.00 0.00 0.00 0.00 0.00 0.00 0.00 0.00 0.00 0.00 0.00 0.00 0.00 0.00 0.00 0.00 0.00 0.00 0.00 0.00 0.00
0.00 0.01 0.00 0.00 0.00 0.00 0.00 0.00 0.00 0.00 0.00 0.01 0.00 0.00 0.00 0.00 0.00 0.00 0.00 0.00 0.00 0.00 0.00 0.00 0.00 0.00 0.00 0.00 0.00 0.00 0.00 0.00 0.00 0.00 0.00 0.00 0.00 0.00 0.00 0.00 0.00 0.00 0.00 0.00 0.00
0.00 0.01 0.01 0.00 0.00 0.00 0.00 0.00 0.00 0.01 0.02 0.03 0.01 0.00 0.00 0.00 0.00 0.00 0.00 0.00 0.00 0.00 0.00 0.00 0.00 0.00 0.00 0.00 0.00 0.00 0.00 0.00 0.00 0.00 0.00 0.00 0.00 0.00 0.00 0.00 0.00 0.00 0.00 0.00 0.00

GFSSW_prec_precacc24_084.txt.gz
Total_Precipitation_Accumulation
0.07 0.15 0.15 0.08 0.06 0.06 0.06 0.05 0.04 0.06 0.06 0.04 0.04 0.05 0.06 0.06 0.08 0.07 0.03 0.01 0.00 0.00 0.01 0.00 0.00 0.08 0.14 0.10 0.13 0.09 0.10 0.02 0.01 0.00 0.00 0.00 0.00 0.00 0.00 0.00 0.00 0.00 0.00 0.02 0.03
0.13 0.15 0.08 0.06 0.07 0.06 0.05 0.06 0.07 0.07 0.04 0.06 0.07 0.07 0.06 0.06 0.03 0.02 0.00 0.00 0.03 0.05 0.03 0.02 0.01 0.09 0.16 0.09 0.23 0.11 0.01 0.00 0.00 0.00 0.00 0.00 0.06 0.02 0.00 0.00 0.00 0.02 0.10 0.12 0.10
0.12 0.10 0.07 0.08 0.07 0.06 0.08 0.08 0.09 0.12 0.15 0.17 0.14 0.15 0.12 0.10 0.03 0.00 0.04 0.01 0.04 0.11 0.06 0.04 0.05 0.09 0.14 0.12 0.12 0.04 0.00 0.00 0.00 0.00 0.00 0.04 0.09 0.02 0.01 0.00 0.00 0.01 0.08 0.16 0.25
0.09 0.09 0.08 0.07 0.06 0.08 0.09 0.11 0.14 0.22 0.27 0.25 0.26 0.20 0.21 0.13 0.04 0.18 0.18 0.07 0.20 0.35 0.25 0.17 0.10 0.16 0.10 0.07 0.02 0.03 0.01 0.00 0.00 0.00 0.02 0.03 0.01 0.04 0.02 0.00 0.00 0.01 0.08 0.12 0.14
0.10 0.08 0.07 0.06 0.07 0.09 0.12 0.15 0.16 0.21 0.28 0.31 0.35 0.31 0.18 0.10 0.03 0.13 0.11 0.00 0.03 0.20 0.24 0.16 0.12 0.13 0.05 0.02 0.08 0.05 0.02 0.00 0.00 0.00 0.00 0.00 0.00 0.01 0.02 0.00 0.00 0.00 0.07 0.09 0.11
0.08 0.09 0.06 0.06 0.08 0.10 0.11 0.11 0.16 0.25 0.28 0.24 0.45 0.31 0.11 0.05 0.00 0.00 0.02 0.03 0.04 0.13 0.24 0.23 0.13 0.08 0.05 0.03 0.06 0.05 0.04 0.01 0.01 0.00 0.00 0.00 0.00 0.00 0.01 0.10 0.01 0.00 0.03 0.06 0.06
0.08 0.07 0.06 0.07 0.11 0.12 0.11 0.13 0.18 0.28 0.27 0.25 0.39 0.35 0.11 0.01 0.01 0.01 0.01 0.01 0.04 0.09 0.18 0.18 0.32 0.30 0.11 0.04 0.01 0.06 0.08 0.13 0.04 0.00 0.00 0.00 0.00 0.00 0.00 0.08 0.04 0.00 0.02 0.05 0.08
0.07 0.06 0.06 0.09 0.12 0.10 0.09 0.11 0.15 0.22 0.27 0.27 0.43 0.41 0.05 0.00 0.00 0.01 0.00 0.02 0.02 0.10 0.23 0.21 0.36 0.43 0.19 0.09 0.04 0.13 0.14 0.14 0.06 0.00 0.00 0.00 0.00 0.00 0.00 0.03 0.08 0.01 0.00 0.01 0.04
0.06 0.06 0.09 0.12 0.12 0.08 0.07 0.08 0.11 0.19 0.16 0.27 0.41 0.25 0.02 0.01 0.00 0.00 0.00 0.02 0.11 0.24 0.33 0.47 0.70 0.64 0.41 0.21 0.19 0.16 0.09 0.02 0.01 0.00 0.00 0.00 0.00 0.00 0.00 0.00 0.04 0.05 0.00 0.00 0.01
0.05 0.08 0.13 0.12 0.09 0.07 0.10 0.08 0.07 0.05 0.04 0.07 0.16 0.14 0.02 0.01 0.00 0.01 0.00 0.02 0.21 0.42 0.66 0.64 0.86 0.85 0.65 0.27 0.15 0.03 0.01 0.00 0.00 0.00 0.00 0.00 0.00 0.00 0.00 0.00 0.00 0.04 0.02 0.00 0.00
0.06 0.10 0.11 0.11 0.08 0.09 0.09 0.03 0.05 0.06 0.09 0.04 0.04 0.01 0.02 0.01 0.02 0.03 0.02 0.06 0.26 0.75 0.86 0.78 1.00 1.25 0.52 0.11 0.01 0.00 0.00 0.00 0.00 0.00 0.00 0.00 0.00 0.00 0.00 0.00 0.00 0.01 0.03 0.01 0.00
0.07 0.10 0.09 0.09 0.08 0.06 0.04 0.04 0.03 0.07 0.05 0.01 0.01 0.00 0.00 0.01 0.03 0.11 0.10 0.17 0.36 0.75 0.69 0.78 0.74 0.54 0.29 0.18 0.05 0.02 0.01 0.00 0.00 0.00 0.00 0.00 0.00 0.00 0.00 0.00 0.00 0.00 0.00 0.00 0.00
0.10 0.10 0.07 0.09 0.09 0.05 0.06 0.12 0.10 0.03 0.06 0.01 0.00 0.00 0.01 0.02 0.05 0.20 0.21 0.22 0.23 0.76 0.51 0.54 0.41 0.66 0.82 0.48 0.16 0.04 0.01 0.00 0.01 0.00 0.00 0.00 0.00 0.00 0.00 0.00 0.00 0.00 0.00 0.00 0.00
0.11 0.11 0.09 0.11 0.13 0.14 0.15 0.17 0.15 0.12 0.17 0.16 0.13 0.10 0.07 0.08 0.17 0.23 0.25 0.26 0.25 0.87 0.35 0.52 0.36 0.74 1.35 0.96 0.40 0.18 0.03 0.02 0.02 0.00 0.00 0.00 0.00 0.00 0.00 0.00 0.00 0.00 0.00 0.00 0.00
0.08 0.06 0.04 0.05 0.05 0.06 0.11 0.06 0.06 0.06 0.24 0.45 0.27 0.20 0.16 0.19 0.43 0.36 0.35 0.45 0.48 0.98 0.45 0.48 0.33 0.43 0.98 0.78 0.55 0.35 0.07 0.02 0.06 0.02 0.00 0.00 0.00 0.00 0.00 0.00 0.00 0.00 0.00 0.00 0.00
0.04 0.02 0.00 0.01 0.02 0.02 0.01 0.03 0.05 0.08 0.16 0.27 0.42 0.32 0.29 0.47 0.61 0.75 0.41 0.66 0.78 0.92 0.50 0.34 0.27 0.49 0.43 0.58 0.49 0.33 0.16 0.08 0.07 0.11 0.15 0.00 0.00 0.00 0.00 0.00 0.00 0.00 0.00 0.00 0.00
0.01 0.00 0.00 0.00 0.02 0.00 0.01 0.04 0.05 0.14 0.12 0.18 0.28 0.36 0.78 0.67 0.66 0.59 0.36 0.74 0.80 0.97 0.87 0.63 0.46 0.43 0.54 0.72 0.54 0.48 0.44 0.41 0.33 0.25 0.07 0.00 0.00 0.00 0.00 0.00 0.00 0.00 0.00 0.00 0.00
0.00 0.00 0.00 0.00 0.00 0.00 0.03 0.01 0.06 0.12 0.09 0.14 0.34 0.51 0.81 0.63 0.88 0.48 0.64 0.72 0.49 0.35 0.52 0.60 0.78 0.51 0.63 0.39 0.36 0.27 0.41 0.34 0.09 0.03 0.00 0.00 0.00 0.00 0.00 0.00 0.00 0.00 0.00 0.00 0.00
0.00 0.00 0.00 0.00 0.00 0.00 0.02 0.03 0.07 0.06 0.11 0.18 0.36 0.82 0.68 0.49 0.65 0.65 0.68 0.42 0.35 0.28 0.27 0.21 0.38 0.32 0.48 0.22 0.20 0.21 0.18 0.23 0.07 0.00 0.00 0.00 0.00 0.00 0.00 0.00 0.00 0.00 0.00 0.00 0.00
0.00 0.00 0.00 0.00 0.00 0.00 0.02 0.05 0.04 0.02 0.01 0.09 0.37 0.16 0.32 0.33 0.36 0.27 0.35 0.18 0.18 0.09 0.03 0.01 0.21 0.22 0.33 0.24 0.21 0.11 0.06 0.09 0.26 0.09 0.00 0.00 0.00 0.00 0.00 0.00 0.00 0.00 0.00 0.00 0.00
0.00 0.00 0.00 0.00 0.00 0.00 0.02 0.02 0.01 0.00 0.00 0.02 0.01 0.01 0.02 0.02 0.08 0.05 0.08 0.13 0.06 0.04 0.00 0.00 0.03 0.18 0.18 0.20 0.14 0.05 0.09 0.00 0.04 0.05 0.00 0.00 0.00 0.00 0.00 0.00 0.00 0.00 0.00 0.00 0.00
0.00 0.00 0.00 0.00 0.00 0.00 0.01 0.01 0.00 0.00 0.00 0.00 0.00 0.00 0.00 0.00 0.00 0.03 0.05 0.02 0.04 0.02 0.00 0.00 0.00 0.04 0.05 0.00 0.01 0.00 0.02 0.00 0.00 0.02 0.00 0.00 0.00 0.00 0.00 0.00 0.00 0.00 0.00 0.00 0.00
0.00 0.00 0.00 0.00 0.00 0.00 0.00 0.00 0.00 0.00 0.00 0.00 0.00 0.00 0.00 0.00 0.00 0.00 0.00 0.00 0.00 0.00 0.00 0.00 0.00 0.02 0.04 0.03 0.01 0.01 0.00 0.00 0.00 0.00 0.00 0.00 0.00 0.00 0.00 0.00 0.00 0.00 0.00 0.00 0.00
0.00 0.00 0.00 0.00 0.00 0.00 0.00 0.00 0.00 0.00 0.00 0.00 0.01 0.00 0.00 0.00 0.00 0.00 0.03 0.03 0.00 0.00 0.00 0.00 0.00 0.00 0.00 0.00 0.00 0.00 0.00 0.00 0.00 0.00 0.00 0.00 0.00 0.00 0.00 0.00 0.00 0.00 0.00 0.00 0.00
0.00 0.00 0.00 0.00 0.00 0.00 0.00 0.00 0.00 0.00 0.00 0.01 0.01 0.02 0.00 0.00 0.00 0.00 0.00 0.01 0.00 0.00 0.00 0.00 0.00 0.00 0.00 0.00 0.00 0.00 0.00 0.00 0.00 0.00 0.00 0.00 0.00 0.00 0.00 0.00 0.00 0.00 0.00 0.00 0.00
0.00 0.01 0.00 0.00 0.00 0.00 0.00 0.00 0.00 0.01 0.01 0.02 0.04 0.05 0.00 0.00 0.00 0.00 0.00 0.00 0.00 0.00 0.00 0.00 0.00 0.00 0.00 0.00 0.00 0.00 0.00 0.00 0.00 0.00 0.00 0.00 0.00 0.00 0.00 0.00 0.00 0.00 0.00 0.00 0.00
0.00 0.00 0.01 0.00 0.00 0.00 0.00 0.00 0.00 0.01 0.02 0.04 0.09 0.12 0.02 0.00 0.00 0.00 0.00 0.00 0.00 0.00 0.00 0.00 0.00 0.00 0.00 0.00 0.00 0.00 0.00 0.00 0.00 0.00 0.00 0.00 0.00 0.00 0.00 0.00 0.00 0.00 0.00 0.00 0.00

GFSSW_prec_precacc24_087.txt.gz
Total_Precipitation_Accumulation
0.07 0.14 0.15 0.07 0.06 0.05 0.04 0.04 0.05 0.07 0.08 0.06 0.08 0.09 0.08 0.07 0.06 0.05 0.02 0.01 0.01 0.01 0.02 0.01 0.00 0.05 0.13 0.10 0.13 0.10 0.12 0.03 0.01 0.00 0.00 0.00 0.00 0.00 0.00 0.00 0.00 0.00 0.00 0.02 0.03
0.11 0.14 0.08 0.06 0.06 0.06 0.05 0.07 0.08 0.08 0.05 0.08 0.16 0.18 0.13 0.07 0.02 0.01 0.00 0.01 0.05 0.08 0.06 0.03 0.03 0.09 0.16 0.09 0.23 0.12 0.01 0.00 0.00 0.00 0.00 0.00 0.06 0.02 0.00 0.00 0.00 0.02 0.10 0.13 0.13
0.10 0.09 0.07 0.07 0.06 0.06 0.08 0.09 0.09 0.12 0.15 0.18 0.18 0.20 0.15 0.10 0.02 0.00 0.07 0.02 0.05 0.15 0.09 0.05 0.06 0.11 0.14 0.12 0.12 0.05 0.00 0.00 0.00 0.00 0.00 0.04 0.09 0.02 0.01 0.00 0.00 0.01 0.08 0.16 0.28
0.09 0.09 0.07 0.06 0.06 0.06 0.09 0.10 0.12 0.20 0.26 0.25 0.26 0.21 0.23 0.12 0.03 0.18 0.26 0.08 0.21 0.46 0.34 0.20 0.16 0.20 0.11 0.07 0.02 0.03 0.01 0.00 0.00 0.00 0.02 0.03 0.01 0.04 0.02 0.00 0.00 0.01 0.08 0.12 0.15
0.09 0.08 0.07 0.05 0.07 0.09 0.11 0.12 0.13 0.20 0.26 0.29 0.33 0.30 0.17 0.09 0.02 0.11 0.10 0.00 0.03 0.20 0.30 0.18 0.15 0.20 0.08 0.02 0.08 0.05 0.03 0.01 0.00 0.00 0.00 0.00 0.00 0.01 0.02 0.00 0.00 0.00 0.07 0.09 0.11
0.08 0.08 0.06 0.06 0.08 0.10 0.10 0.09 0.15 0.24 0.26 0.23 0.41 0.27 0.09 0.05 0.00 0.00 0.02 0.03 0.03 0.13 0.29 0.31 0.14 0.11 0.11 0.03 0.06 0.05 0.05 0.03 0.02 0.00 0.00 0.00 0.00 0.00 0.01 0.10 0.01 0.00 0.03 0.06 0.06
0.07 0.06 0.07 0.07 0.11 0.11 0.09 0.12 0.18 0.27 0.25 0.23 0.36 0.29 0.08 0.01 0.01 0.01 0.01 0.01 0.04 0.09 0.20 0.30 0.32 0.37 0.25 0.09 0.01 0.07 0.08 0.15 0.04 0.00 0.00 0.00 0.00 0.00 0.00 0.08 0.04 0.00 0.02 0.05 0.08
0.06 0.06 0.06 0.09 0.12 0.10 0.09 0.10 0.15 0.22 0.25 0.24 0.36 0.30 0.03 0.00 0.00 0.01 0.00 0.02 0.02 0.10 0.19 0.21 0.27 0.38 0.37 0.15 0.05 0.15 0.15 0.15 0.07 0.00 0.00 0.00 0.00 0.00 0.00 0.03 0.08 0.01 0.00 0.01 0.04
0.05 0.05 0.08 0.13 0.12 0.08 0.07 0.08 0.11 0.18 0.13 0.20 0.26 0.16 0.01 0.01 0.00 0.00 0.00 0.02 0.05 0.18 0.23 0.26 0.49 0.55 0.46 0.35 0.20 0.18 0.10 0.02 0.01 0.01 0.00 0.00 0.00 0.00 0.00 0.00 0.04 0.05 0.00 0.00 0.01
0.04 0.06 0.12 0.12 0.08 0.06 0.09 0.08 0.07 0.05 0.04 0.05 0.12 0.11 0.02 0.01 0.00 0.00 0.00 0.02 0.17 0.32 0.51 0.50 0.72 0.78 0.73 0.50 0.16 0.04 0.02 0.00 0.00 0.00 0.00 0.00 0.00 0.00 0.00 0.00 0.00 0.04 0.02 0.00 0.00
0.04 0.10 0.12 0.11 0.07 0.06 0.07 0.03 0.05 0.06 0.09 0.04 0.03 0.01 0.02 0.00 0.00 0.01 0.01 0.05 0.23 0.66 0.78 0.82 0.87 1.13 0.64 0.26 0.04 0.00 0.00 0.00 0.00 0.00 0.00 0.00 0.00 0.00 0.00 0.00 0.00 0.01 0.03 0.01 0.00
0.07 0.10 0.09 0.09 0.07 0.04 0.03 0.04 0.03 0.07 0.04 0.01 0.01 0.00 0.00 0.00 0.00 0.07 0.08 0.16 0.33 0.70 0.64 0.75 0.42 0.37 0.27 0.23 0.12 0.02 0.01 0.00 0.00 0.00 0.01 0.00 0.00 0.00 0.00 0.00 0.00 0.00 0.00 0.00 0.00
0.10 0.09 0.04 0.03 0.03 0.04 0.04 0.12 0.09 0.02 0.04 0.01 0.00 0.00 0.00 0.00 0.02 0.16 0.19 0.22 0.22 0.74 0.47 0.43 0.17 0.37 0.70 0.45 0.28 0.04 0.01 0.00 0.01 0.00 0.00 0.00 0.00 0.00 0.00 0.00 0.00 0.00 0.00 0.00 0.00
0.09 0.07 0.02 0.00 0.01 0.01 0.03 0.06 0.05 0.04 0.12 0.15 0.13 0.08 0.06 0.02 0.06 0.19 0.23 0.25 0.24 0.85 0.30 0.38 0.22 0.46 0.99 0.75 0.37 0.10 0.02 0.02 0.02 0.00 0.00 0.00 0.00 0.00 0.00 0.00 0.00 0.00 0.00 0.00 0.00
0.06 0.04 0.01 0.00 0.01 0.01 0.01 0.03 0.03 0.04 0.21 0.42 0.25 0.16 0.10 0.09 0.25 0.29 0.33 0.43 0.46 0.96 0.43 0.42 0.27 0.36 0.88 0.65 0.59 0.27 0.03 0.02 0.06 0.02 0.00 0.00 0.00 0.00 0.00 0.00 0.00 0.00 0.00 0.00 0.00
0.03 0.02 0.00 0.01 0.01 0.01 0.01 0.02 0.03 0.07 0.13 0.23 0.41 0.29 0.21 0.19 0.48 0.64 0.39 0.64 0.75 0.85 0.48 0.30 0.25 0.43 0.39 0.70 0.77 0.36 0.16 0.09 0.07 0.11 0.15 0.00 0.00 0.00 0.00 0.00 0.00 0.00 0.00 0.00 0.00
0.01 0.00 0.00 0.00 0.01 0.00 0.01 0.03 0.03 0.09 0.07 0.16 0.26 0.35 0.64 0.50 0.52 0.56 0.34 0.71 0.79 0.85 0.72 0.55 0.44 0.41 0.56 0.99 0.84 0.54 0.44 0.44 0.35 0.26 0.07 0.00 0.00 0.00 0.00 0.00 0.00 0.00 0.00 0.00 0.00
0.00 0.00 0.00 0.00 0.00 0.00 0.01 0.01 0.02 0.06 0.05 0.11 0.32 0.42 0.59 0.57 0.70 0.47 0.60 0.70 0.48 0.32 0.47 0.58 0.80 0.53 0.65 0.68 0.68 0.32 0.41 0.34 0.09 0.03 0.00 0.00 0.00 0.00 0.00 0.00 0.00 0.00 0.00 0.00 0.00
0.00 0.00 0.00 0.00 0.00 0.00 0.01 0.01 0.03 0.03 0.09 0.17 0.31 0.61 0.56 0.47 0.61 0.65 0.68 0.40 0.33 0.27 0.27 0.22 0.42 0.34 0.50 0.31 0.42 0.33 0.19 0.23 0.07 0.00 0.00 0.00 0.00 0.00 0.00 0.00 0.00 0.00 0.00 0.00 0.00
0.00 0.00 0.00 0.00 0.00 0.00 0.00 0.01 0.01 0.00 0.01 0.07 0.20 0.10 0.29 0.34 0.42 0.29 0.36 0.17 0.17 0.09 0.03 0.01 0.25 0.24 0.36 0.26 0.30 0.19 0.06 0.09 0.26 0.09 0.00 0.00 0.00 0.00 0.00 0.00 0.00 0.00 0.00 0.00 0.00
0.00 0.00 0.00 0.00 0.00 0.00 0.00 0.01 0.01 0.00 0.00 0.01 0.01 0.01 0.02 0.03 0.15 0.14 0.13 0.15 0.06 0.04 0.00 0.00 0.06 0.23 0.19 0.22 0.18 0.06 0.09 0.00 0.04 0.05 0.00 0.00 0.00 0.00 0.00 0.00 0.00 0.00 0.00 0.00 0.00
0.00 0.00 0.00 0.00 0.00 0.00 0.01 0.00 0.00 0.00 0.01 0.01 0.01 0.01 0.00 0.00 0.01 0.10 0.18 0.07 0.04 0.02 0.00 0.00 0.00 0.07 0.06 0.01 0.04 0.00 0.02 0.00 0.00 0.02 0.00 0.00 0.00 0.00 0.00 0.00 0.00 0.00 0.00 0.00 0.00
0.00 0.00 0.00 0.00 0.00 0.00 0.00 0.00 0.00 0.00 0.01 0.03 0.02 0.02 0.01 0.00 0.00 0.02 0.07 0.01 0.01 0.00 0.00 0.00 0.00 0.03 0.06 0.03 0.03 0.03 0.00 0.00 0.00 0.00 0.00 0.00 0.00 0.00 0.00 0.00 0.00 0.00 0.00 0.00 0.00
0.00 0.00 0.00 0.00 0.00 0.00 0.00 0.00 0.00 0.00 0.01 0.05 0.04 0.04 0.01 0.00 0.00 0.00 0.25 0.04 0.01 0.04 0.00 0.00 0.00 0.00 0.01 0.00 0.00 0.00 0.00 0.00 0.00 0.00 0.00 0.00 0.00 0.00 0.00 0.00 0.00 0.00 0.00 0.00 0.00
0.00 0.00 0.00 0.00 0.00 0.00 0.00 0.00 0.00 0.01 0.01 0.02 0.05 0.13 0.20 0.02 0.00 0.00 0.15 0.21 0.05 0.02 0.01 0.00 0.00 0.00 0.00 0.00 0.00 0.00 0.00 0.00 0.00 0.00 0.00 0.00 0.00 0.00 0.00 0.00 0.00 0.00 0.00 0.00 0.00
0.00 0.01 0.00 0.00 0.00 0.00 0.00 0.00 0.00 0.01 0.01 0.02 0.10 0.12 0.15 0.08 0.04 0.02 0.01 0.09 0.06 0.02 0.00 0.00 0.00 0.00 0.00 0.00 0.00 0.00 0.00 0.00 0.00 0.00 0.00 0.00 0.00 0.00 0.00 0.00 0.00 0.00 0.00 0.00 0.00
0.00 0.00 0.01 0.00 0.00 0.00 0.00 0.00 0.00 0.01 0.02 0.05 0.10 0.16 0.11 0.05 0.03 0.00 0.00 0.00 0.00 0.02 0.00 0.00 0.00 0.00 0.00 0.00 0.00 0.00 0.00 0.00 0.00 0.00 0.00 0.00 0.00 0.00 0.00 0.00 0.00 0.00 0.00 0.00 0.00

GFSSW_prec_precacc24_090.txt.gz
Total_Precipitation_Accumulation
0.06 0.13 0.13 0.07 0.05 0.05 0.04 0.04 0.06 0.08 0.08 0.06 0.09 0.15 0.19 0.10 0.06 0.05 0.02 0.00 0.01 0.01 0.02 0.01 0.00 0.03 0.13 0.11 0.16 0.12 0.16 0.04 0.01 0.00 0.00 0.00 0.00 0.00 0.00 0.00 0.00 0.00 0.00 0.02 0.03
0.10 0.12 0.08 0.06 0.05 0.05 0.04 0.06 0.08 0.08 0.05 0.07 0.16 0.20 0.17 0.08 0.02 0.01 0.00 0.01 0.05 0.11 0.09 0.04 0.06 0.09 0.14 0.09 0.25 0.14 0.03 0.00 0.00 0.00 0.00 0.00 0.06 0.02 0.00 0.00 0.00 0.02 0.10 0.13 0.13
0.09 0.09 0.07 0.06 0.05 0.06 0.07 0.09 0.08 0.11 0.14 0.17 0.18 0.20 0.15 0.10 0.02 0.00 0.11 0.07 0.05 0.18 0.13 0.07 0.08 0.14 0.15 0.13 0.13 0.05 0.00 0.00 0.00 0.00 0.00 0.04 0.09 0.02 0.01 0.00 0.00 0.01 0.08 0.16 0.29
0.08 0.08 0.07 0.05 0.05 0.08 0.10 0.10 0.11 0.18 0.24 0.22 0.25 0.20 0.20 0.11 0.03 0.16 0.27 0.07 0.17 0.43 0.41 0.22 0.15 0.23 0.14 0.09 0.02 0.03 0.01 0.00 0.00 0.00 0.02 0.03 0.01 0.04 0.02 0.00 0.00 0.01 0.08 0.12 0.16
0.08 0.07 0.06 0.04 0.07 0.10 0.11 0.12 0.12 0.19 0.25 0.27 0.32 0.27 0.13 0.08 0.01 0.08 0.09 0.00 0.02 0.16 0.32 0.25 0.17 0.23 0.12 0.03 0.08 0.05 0.03 0.01 0.00 0.00 0.00 0.00 0.00 0.01 0.02 0.00 0.00 0.00 0.07 0.09 0.11
0.07 0.08 0.05 0.06 0.08 0.10 0.10 0.09 0.14 0.22 0.24 0.21 0.39 0.22 0.05 0.02 0.00 0.00 0.01 0.03 0.03 0.09 0.26 0.35 0.16 0.13 0.18 0.05 0.07 0.05 0.06 0.04 0.02 0.00 0.00 0.00 0.00 0.00 0.01 0.10 0.01 0.00 0.03 0.06 0.06
0.07 0.06 0.05 0.07 0.10 0.11 0.09 0.12 0.17 0.26 0.24 0.22 0.33 0.23 0.04 0.00 0.01 0.01 0.00 0.01 0.04 0.05 0.17 0.31 0.31 0.41 0.33 0.14 0.01 0.08 0.09 0.18 0.05 0.00 0.00 0.00 0.00 0.00 0.00 0.08 0.04 0.00 0.02 0.05 0.08
0.06 0.05 0.05 0.07 0.11 0.09 0.08 0.09 0.14 0.21 0.23 0.21 0.32 0.23 0.02 0.00 0.00 0.01 0.00 0.01 0.02 0.09 0.17 0.21 0.18 0.32 0.39 0.29 0.05 0.17 0.16 0.17 0.07 0.01 0.00 0.00 0.00 0.00 0.00 0.03 0.08 0.01 0.00 0.01 0.04
0.04 0.04 0.07 0.11 0.11 0.07 0.06 0.07 0.11 0.18 0.13 0.17 0.19 0.13 0.00 0.01 0.00 0.00 0.00 0.01 0.04 0.15 0.21 0.18 0.31 0.46 0.43 0.59 0.25 0.18 0.11 0.03 0.03 0.02 0.01 0.00 0.00 0.00 0.00 0.00 0.04 0.05 0.00 0.00 0.01
0.04 0.05 0.11 0.12 0.08 0.05 0.06 0.07 0.07 0.05 0.04 0.05 0.10 0.10 0.02 0.01 0.00 0.00 0.00 0.01 0.13 0.21 0.45 0.40 0.60 0.59 0.67 0.71 0.31 0.04 0.03 0.01 0.01 0.01 0.01 0.00 0.00 0.00 0.00 0.00 0.00 0.04 0.02 0.00 0.00
0.04 0.09 0.10 0.09 0.05 0.05 0.03 0.03 0.05 0.06 0.09 0.04 0.03 0.01 0.02 0.00 0.00 0.00 0.00 0.02 0.19 0.55 0.75 0.78 0.80 0.89 0.56 0.30 0.09 0.00 0.00 0.00 0.00 0.00 0.00 0.00 0.00 0.00 0.00 0.00 0.00 0.01 0.03 0.01 0.00
0.05 0.07 0.06 0.05 0.02 0.01 0.01 0.03 0.03 0.07 0.04 0.01 0.01 0.00 0.00 0.00 0.00 0.02 0.04 0.09 0.29 0.59 0.60 0.70 0.37 0.34 0.25 0.26 0.20 0.02 0.02 0.00 0.01 0.01 0.02 0.00 0.00 0.00 0.00 0.00 0.00 0.00 0.00 0.00 0.00
0.07 0.06 0.03 0.01 0.00 0.02 0.01 0.06 0.07 0.02 0.03 0.00 0.00 0.00 0.00 0.00 0.00 0.05 0.11 0.15 0.19 0.55 0.45 0.35 0.12 0.31 0.61 0.48 0.42 0.04 0.01 0.00 0.01 0.00 0.00 0.00 0.00 0.00 0.00 0.00 0.00 0.00 0.00 0.00 0.00
0.08 0.05 0.01 0.00 0.01 0.01 0.01 0.02 0.02 0.01 0.07 0.14 0.11 0.06 0.06 0.01 0.04 0.12 0.10 0.21 0.22 0.59 0.27 0.21 0.07 0.28 0.75 0.68 0.51 0.10 0.02 0.03 0.03 0.01 0.01 0.00 0.00 0.00 0.00 0.00 0.00 0.00 0.00 0.00 0.00
0.04 0.04 0.00 0.00 0.01 0.01 0.01 0.01 0.01 0.02 0.19 0.39 0.21 0.12 0.09 0.07 0.17 0.17 0.18 0.42 0.42 0.79 0.33 0.20 0.09 0.18 0.60 0.52 0.62 0.24 0.02 0.03 0.07 0.02 0.00 0.00 0.00 0.00 0.00 0.00 0.00 0.00 0.00 0.00 0.00
0.03 0.01 0.00 0.01 0.01 0.00 0.01 0.01 0.01 0.06 0.10 0.22 0.40 0.26 0.16 0.12 0.32 0.49 0.30 0.62 0.74 0.84 0.39 0.19 0.16 0.30 0.31 0.52 0.72 0.36 0.14 0.12 0.11 0.14 0.16 0.00 0.00 0.00 0.00 0.00 0.00 0.00 0.00 0.00 0.00
0.01 0.00 0.00 0.00 0.00 0.00 0.00 0.01 0.01 0.06 0.06 0.16 0.26 0.32 0.45 0.30 0.42 0.42 0.31 0.69 0.78 0.83 0.67 0.39 0.29 0.34 0.35 0.84 0.84 0.75 0.50 0.47 0.38 0.27 0.07 0.00 0.00 0.00 0.00 0.00 0.00 0.00 0.00 0.00 0.00
0.00 0.00 0.00 0.00 0.00 0.00 0.00 0.00 0.01 0.03 0.03 0.09 0.24 0.22 0.31 0.49 0.63 0.40 0.58 0.69 0.48 0.31 0.44 0.43 0.67 0.42 0.52 0.67 0.90 0.47 0.47 0.34 0.10 0.04 0.00 0.00 0.00 0.00 0.00 0.00 0.00 0.00 0.00 0.00 0.00
0.00 0.00 0.00 0.00 0.00 0.00 0.01 0.00 0.01 0.01 0.07 0.14 0.23 0.48 0.44 0.47 0.60 0.64 0.66 0.40 0.32 0.26 0.24 0.18 0.38 0.30 0.47 0.36 0.73 0.48 0.20 0.23 0.07 0.00 0.00 0.00 0.00 0.00 0.00 0.00 0.00 0.00 0.00 0.00 0.00
0.00 0.00 0.00 0.00 0.00 0.00 0.00 0.01 0.00 0.00 0.01 0.06 0.13 0.09 0.26 0.35 0.53 0.38 0.37 0.17 0.17 0.09 0.04 0.03 0.25 0.26 0.41 0.35 0.47 0.37 0.07 0.10 0.26 0.09 0.00 0.00 0.00 0.00 0.00 0.00 0.00 0.00 0.00 0.00 0.00
0.00 0.00 0.00 0.00 0.00 0.00 0.00 0.00 0.00 0.00 0.01 0.03 0.02 0.03 0.05 0.05 0.17 0.27 0.24 0.16 0.06 0.04 0.00 0.02 0.09 0.28 0.32 0.29 0.24 0.18 0.11 0.00 0.04 0.05 0.00 0.00 0.00 0.00 0.00 0.00 0.00 0.00 0.00 0.00 0.00
0.00 0.00 0.00 0.00 0.00 0.00 0.00 0.00 0.00 0.00 0.02 0.02 0.02 0.08 0.06 0.02 0.01 0.22 0.41 0.15 0.04 0.02 0.00 0.00 0.05 0.10 0.09 0.01 0.04 0.04 0.02 0.00 0.00 0.02 0.00 0.00 0.00 0.00 0.00 0.00 0.00 0.00 0.00 0.00 0.00
0.00 0.00 0.00 0.00 0.00 0.00 0.00 0.00 0.00 0.01 0.03 0.06 0.06 0.08 0.14 0.05 0.01 0.04 0.27 0.10 0.01 0.00 0.00 0.00 0.01 0.06 0.08 0.04 0.03 0.04 0.00 0.00 0.00 0.00 0.00 0.00 0.00 0.00 0.00 0.00 0.00 0.00 0.00 0.00 0.00
0.00 0.00 0.00 0.00 0.00 0.00 0.00 0.00 0.00 0.00 0.02 0.06 0.07 0.11 0.10 0.02 0.00 0.01 0.46 0.11 0.02 0.05 0.02 0.00 0.00 0.00 0.01 0.01 0.00 0.00 0.00 0.00 0.00 0.00 0.00 0.00 0.00 0.00 0.00 0.00 0.00 0.00 0.00 0.00 0.00
0.00 0.00 0.00 0.00 0.00 0.00 0.00 0.00 0.00 0.01 0.01 0.02 0.08 0.21 0.39 0.16 0.04 0.02 0.36 0.32 0.14 0.13 0.02 0.01 0.00 0.00 0.00 0.00 0.00 0.00 0.00 0.00 0.00 0.00 0.00 0.00 0.00 0.00 0.00 0.00 0.00 0.00 0.00 0.00 0.00
0.00 0.00 0.00 0.00 0.00 0.00 0.00 0.00 0.00 0.01 0.01 0.02 0.10 0.12 0.21 0.20 0.21 0.09 0.09 0.30 0.23 0.06 0.07 0.02 0.00 0.00 0.00 0.00 0.00 0.00 0.00 0.00 0.00 0.00 0.00 0.00 0.00 0.00 0.00 0.00 0.00 0.00 0.00 0.00 0.00
0.00 0.00 0.01 0.00 0.00 0.00 0.00 0.00 0.00 0.01 0.02 0.05 0.10 0.16 0.12 0.06 0.06 0.01 0.00 0.01 0.04 0.07 0.01 0.00 0.00 0.00 0.00 0.00 0.00 0.00 0.00 0.00 0.00 0.00 0.00 0.00 0.00 0.00 0.00 0.00 0.00 0.00 0.00 0.00 0.00

GFSSW_prec_precacc24_093.txt.gz
Total_Precipitation_Accumulation
0.05 0.11 0.12 0.06 0.04 0.04 0.03 0.03 0.05 0.06 0.05 0.05 0.08 0.15 0.19 0.10 0.06 0.05 0.02 0.00 0.01 0.02 0.04 0.01 0.00 0.02 0.12 0.12 0.16 0.17 0.22 0.05 0.01 0.00 0.00 0.00 0.00 0.00 0.00 0.00 0.00 0.00 0.00 0.02 0.03
0.08 0.10 0.07 0.06 0.05 0.05 0.04 0.06 0.08 0.07 0.04 0.06 0.15 0.19 0.16 0.07 0.02 0.01 0.00 0.01 0.05 0.12 0.12 0.05 0.06 0.08 0.13 0.09 0.28 0.17 0.05 0.00 0.00 0.00 0.00 0.00 0.06 0.02 0.00 0.00 0.00 0.02 0.10 0.13 0.13
0.06 0.08 0.06 0.06 0.05 0.05 0.08 0.10 0.08 0.11 0.14 0.17 0.17 0.19 0.13 0.09 0.02 0.00 0.12 0.08 0.07 0.16 0.14 0.09 0.09 0.15 0.14 0.12 0.14 0.06 0.00 0.00 0.00 0.00 0.00 0.04 0.09 0.02 0.01 0.00 0.00 0.01 0.08 0.16 0.29
0.07 0.08 0.07 0.05 0.05 0.08 0.10 0.10 0.11 0.17 0.23 0.22 0.22 0.17 0.16 0.08 0.02 0.14 0.27 0.08 0.16 0.37 0.37 0.23 0.16 0.23 0.16 0.11 0.02 0.03 0.01 0.00 0.00 0.02 0.03 0.03 0.01 0.04 0.02 0.00 0.00 0.01 0.08 0.12 0.16
0.08 0.07 0.06 0.04 0.07 0.09 0.11 0.11 0.11 0.18 0.22 0.23 0.29 0.23 0.10 0.06 0.01 0.08 0.08 0.00 0.01 0.08 0.29 0.25 0.19 0.26 0.15 0.04 0.08 0.05 0.03 0.01 0.00 0.01 0.01 0.00 0.00 0.01 0.02 0.00 0.00 0.00 0.07 0.09 0.11
0.07 0.07 0.05 0.04 0.07 0.09 0.08 0.08 0.13 0.21 0.22 0.17 0.38 0.18 0.04 0.02 0.00 0.00 0.01 0.03 0.03 0.08 0.21 0.39 0.20 0.16 0.19 0.06 0.06 0.05 0.06 0.04 0.02 0.00 0.00 0.00 0.00 0.00 0.01 0.10 0.01 0.00 0.03 0.06 0.06
0.06 0.05 0.04 0.06 0.08 0.10 0.07 0.10 0.14 0.22 0.22 0.19 0.29 0.17 0.03 0.00 0.01 0.01 0.00 0.00 0.04 0.05 0.14 0.29 0.45 0.44 0.33 0.16 0.01 0.07 0.08 0.18 0.06 0.00 0.00 0.00 0.00 0.00 0.00 0.08 0.04 0.00 0.02 0.05 0.08
0.05 0.04 0.05 0.07 0.10 0.08 0.06 0.08 0.11 0.18 0.20 0.17 0.26 0.16 0.01 0.00 0.00 0.01 0.00 0.00 0.01 0.09 0.15 0.16 0.28 0.41 0.45 0.30 0.04 0.17 0.16 0.17 0.08 0.01 0.00 0.00 0.00 0.00 0.00 0.03 0.08 0.01 0.00 0.01 0.04
0.04 0.04 0.07 0.10 0.10 0.05 0.05 0.05 0.09 0.16 0.11 0.13 0.11 0.08 0.00 0.01 0.00 0.00 0.00 0.00 0.01 0.14 0.17 0.11 0.26 0.53 0.50 0.60 0.27 0.20 0.14 0.03 0.03 0.03 0.01 0.01 0.00 0.00 0.00 0.00 0.04 0.05 0.00 0.00 0.01
0.04 0.05 0.08 0.09 0.05 0.02 0.02 0.05 0.07 0.05 0.04 0.03 0.07 0.06 0.01 0.01 0.00 0.00 0.00 0.00 0.04 0.14 0.36 0.24 0.54 0.57 0.70 0.74 0.41 0.06 0.03 0.01 0.01 0.02 0.02 0.01 0.00 0.00 0.00 0.00 0.00 0.04 0.02 0.00 0.00
0.03 0.05 0.07 0.07 0.02 0.00 0.00 0.01 0.03 0.04 0.07 0.03 0.02 0.01 0.02 0.00 0.00 0.00 0.00 0.00 0.09 0.35 0.68 0.62 0.80 0.80 0.51 0.30 0.14 0.02 0.01 0.00 0.00 0.00 0.02 0.00 0.00 0.00 0.00 0.00 0.00 0.01 0.03 0.01 0.00
0.03 0.05 0.05 0.05 0.01 0.00 0.00 0.01 0.03 0.05 0.04 0.01 0.01 0.00 0.00 0.00 0.00 0.00 0.01 0.03 0.17 0.34 0.59 0.69 0.38 0.32 0.17 0.29 0.29 0.05 0.02 0.01 0.01 0.02 0.04 0.01 0.00 0.00 0.00 0.00 0.00 0.00 0.00 0.00 0.00
0.04 0.04 0.03 0.01 0.00 0.02 0.00 0.01 0.00 0.00 0.00 0.00 0.00 0.00 0.00 0.00 0.00 0.00 0.05 0.04 0.07 0.35 0.46 0.37 0.14 0.31 0.49 0.43 0.46 0.05 0.01 0.00 0.01 0.01 0.01 0.01 0.01 0.00 0.00 0.00 0.00 0.00 0.00 0.00 0.00
0.05 0.04 0.01 0.00 0.01 0.01 0.00 0.00 0.00 0.00 0.04 0.12 0.09 0.03 0.04 0.01 0.01 0.00 0.05 0.11 0.17 0.48 0.26 0.19 0.08 0.27 0.71 0.48 0.45 0.10 0.02 0.04 0.04 0.02 0.01 0.00 0.00 0.00 0.00 0.00 0.00 0.00 0.00 0.00 0.00
0.03 0.03 0.00 0.00 0.01 0.00 0.00 0.01 0.00 0.01 0.14 0.33 0.12 0.04 0.06 0.01 0.02 0.03 0.06 0.35 0.36 0.45 0.33 0.26 0.08 0.16 0.57 0.40 0.50 0.29 0.03 0.04 0.09 0.03 0.02 0.01 0.00 0.00 0.00 0.00 0.00 0.00 0.00 0.00 0.00
0.02 0.01 0.00 0.00 0.01 0.00 0.00 0.00 0.01 0.03 0.07 0.20 0.38 0.25 0.15 0.09 0.17 0.11 0.13 0.51 0.55 0.47 0.35 0.18 0.12 0.22 0.27 0.45 0.57 0.40 0.14 0.15 0.14 0.18 0.19 0.01 0.00 0.00 0.00 0.00 0.00 0.00 0.00 0.00 0.00
0.01 0.00 0.00 0.00 0.00 0.00 0.00 0.00 0.01 0.04 0.05 0.15 0.25 0.30 0.40 0.31 0.16 0.06 0.19 0.51 0.58 0.56 0.53 0.26 0.29 0.27 0.29 0.69 0.72 0.80 0.49 0.54 0.44 0.33 0.07 0.00 0.00 0.00 0.00 0.00 0.00 0.00 0.00 0.00 0.00
0.00 0.00 0.00 0.00 0.00 0.00 0.00 0.00 0.01 0.01 0.02 0.08 0.24 0.21 0.25 0.39 0.36 0.26 0.56 0.65 0.45 0.26 0.37 0.28 0.50 0.31 0.35 0.58 0.83 0.51 0.43 0.34 0.10 0.04 0.01 0.00 0.00 0.00 0.00 0.00 0.00 0.00 0.00 0.00 0.00
0.00 0.00 0.00 0.00 0.00 0.00 0.00 0.00 0.01 0.01 0.03 0.01 0.08 0.39 0.44 0.47 0.61 0.66 0.66 0.40 0.32 0.25 0.25 0.13 0.33 0.23 0.36 0.31 0.75 0.60 0.20 0.23 0.08 0.00 0.00 0.00 0.00 0.00 0.00 0.00 0.00 0.00 0.00 0.00 0.00
0.00 0.00 0.00 0.00 0.00 0.00 0.00 0.00 0.00 0.00 0.01 0.04 0.08 0.10 0.32 0.44 0.55 0.48 0.39 0.17 0.17 0.09 0.04 0.05 0.24 0.22 0.40 0.33 0.50 0.50 0.09 0.11 0.28 0.09 0.00 0.00 0.00 0.00 0.00 0.00 0.00 0.00 0.00 0.00 0.00
0.00 0.00 0.00 0.00 0.00 0.00 0.00 0.00 0.00 0.01 0.02 0.05 0.03 0.04 0.11 0.19 0.18 0.40 0.30 0.16 0.06 0.04 0.00 0.03 0.10 0.32 0.35 0.29 0.25 0.24 0.14 0.01 0.05 0.06 0.01 0.00 0.00 0.00 0.00 0.00 0.00 0.00 0.00 0.00 0.00
0.00 0.00 0.00 0.00 0.00 0.00 0.00 0.00 0.00 0.01 0.03 0.04 0.04 0.13 0.14 0.11 0.03 0.39 0.58 0.16 0.04 0.02 0.00 0.02 0.09 0.16 0.18 0.04 0.05 0.05 0.03 0.02 0.03 0.02 0.00 0.00 0.00 0.00 0.00 0.00 0.00 0.00 0.00 0.00 0.00
0.00 0.00 0.00 0.00 0.00 0.00 0.00 0.00 0.00 0.01 0.03 0.06 0.10 0.13 0.16 0.09 0.03 0.10 0.55 0.15 0.01 0.00 0.01 0.03 0.08 0.14 0.16 0.06 0.04 0.05 0.01 0.01 0.00 0.00 0.00 0.00 0.00 0.00 0.00 0.00 0.00 0.00 0.00 0.00 0.00
0.00 0.00 0.00 0.00 0.00 0.00 0.00 0.00 0.00 0.00 0.02 0.06 0.08 0.11 0.10 0.03 0.01 0.04 0.66 0.18 0.02 0.05 0.02 0.02 0.05 0.04 0.03 0.01 0.00 0.00 0.00 0.00 0.00 0.00 0.00 0.00 0.00 0.00 0.00 0.00 0.00 0.00 0.00 0.00 0.00
0.00 0.00 0.00 0.00 0.00 0.00 0.00 0.00 0.00 0.01 0.01 0.02 0.08 0.21 0.39 0.16 0.04 0.03 0.47 0.40 0.17 0.14 0.03 0.02 0.03 0.00 0.00 0.00 0.00 0.00 0.00 0.00 0.00 0.00 0.00 0.00 0.00 0.00 0.00 0.00 0.00 0.00 0.00 0.00 0.00
0.00 0.00 0.00 0.00 0.00 0.00 0.00 0.00 0.00 0.01 0.01 0.02 0.10 0.12 0.21 0.20 0.22 0.10 0.11 0.36 0.33 0.08 0.11 0.02 0.00 0.00 0.00 0.00 0.00 0.00 0.00 0.00 0.00 0.00 0.00 0.00 0.00 0.00 0.00 0.00 0.00 0.00 0.00 0.00 0.00
0.00 0.00 0.01 0.00 0.00 0.00 0.00 0.00 0.00 0.01 0.02 0.05 0.10 0.16 0.12 0.06 0.06 0.01 0.00 0.01 0.07 0.12 0.03 0.00 0.00 0.00 0.00 0.00 0.00 0.00 0.00 0.00 0.00 0.00 0.00 0.00 0.00 0.00 0.00 0.00 0.00 0.00 0.00 0.00 0.00

GFSSW_prec_precacc24_096.txt.gz
Total_Precipitation_Accumulation
0.04 0.07 0.08 0.05 0.04 0.03 0.03 0.03 0.05 0.06 0.04 0.04 0.07 0.14 0.17 0.08 0.05 0.05 0.02 0.00 0.01 0.08 0.11 0.01 0.00 0.02 0.09 0.09 0.16 0.24 0.33 0.10 0.01 0.00 0.00 0.00 0.00 0.00 0.00 0.00 0.00 0.00 0.00 0.02 0.03
0.03 0.07 0.07 0.06 0.04 0.04 0.04 0.06 0.08 0.06 0.04 0.06 0.15 0.18 0.15 0.06 0.01 0.01 0.00 0.01 0.05 0.12 0.14 0.07 0.07 0.08 0.14 0.09 0.29 0.22 0.14 0.02 0.00 0.00 0.00 0.01 0.06 0.02 0.00 0.00 0.00 0.02 0.10 0.13 0.13
0.04 0.08 0.06 0.06 0.04 0.05 0.08 0.09 0.08 0.10 0.13 0.17 0.17 0.18 0.11 0.06 0.01 0.00 0.12 0.08 0.07 0.14 0.12 0.10 0.12 0.16 0.16 0.14 0.16 0.07 0.01 0.00 0.00 0.01 0.02 0.06 0.10 0.02 0.01 0.00 0.00 0.01 0.08 0.17 0.31
0.06 0.08 0.06 0.04 0.04 0.07 0.09 0.09 0.10 0.16 0.21 0.21 0.21 0.14 0.09 0.03 0.01 0.11 0.27 0.08 0.16 0.34 0.31 0.22 0.22 0.26 0.15 0.13 0.03 0.04 0.01 0.00 0.03 0.07 0.06 0.06 0.05 0.06 0.02 0.00 0.00 0.01 0.08 0.12 0.16
0.07 0.07 0.05 0.03 0.06 0.08 0.10 0.10 0.11 0.16 0.21 0.20 0.26 0.14 0.03 0.02 0.00 0.07 0.08 0.00 0.01 0.07 0.28 0.28 0.24 0.29 0.16 0.04 0.08 0.04 0.03 0.01 0.01 0.08 0.03 0.01 0.02 0.02 0.03 0.02 0.00 0.00 0.07 0.09 0.11
0.06 0.06 0.04 0.05 0.07 0.09 0.08 0.07 0.11 0.19 0.20 0.16 0.33 0.13 0.01 0.01 0.00 0.00 0.01 0.03 0.03 0.07 0.20 0.39 0.20 0.24 0.21 0.06 0.08 0.04 0.05 0.04 0.02 0.02 0.02 0.01 0.01 0.02 0.02 0.11 0.01 0.00 0.03 0.06 0.06
0.05 0.05 0.04 0.06 0.09 0.09 0.05 0.07 0.11 0.20 0.20 0.17 0.24 0.12 0.01 0.00 0.01 0.01 0.00 0.00 0.04 0.05 0.14 0.27 0.42 0.57 0.47 0.16 0.01 0.06 0.07 0.17 0.06 0.02 0.04 0.02 0.02 0.04 0.01 0.08 0.04 0.00 0.02 0.05 0.08
0.05 0.04 0.05 0.07 0.09 0.06 0.02 0.03 0.08 0.17 0.19 0.15 0.18 0.09 0.00 0.00 0.00 0.01 0.00 0.00 0.01 0.09 0.15 0.15 0.25 0.42 0.63 0.33 0.04 0.17 0.14 0.16 0.08 0.02 0.02 0.05 0.05 0.00 0.00 0.03 0.08 0.01 0.00 0.01 0.04
0.04 0.04 0.06 0.08 0.08 0.02 0.00 0.01 0.05 0.16 0.11 0.10 0.07 0.02 0.00 0.01 0.00 0.00 0.00 0.00 0.00 0.13 0.17 0.09 0.19 0.56 0.58 0.60 0.27 0.23 0.14 0.02 0.03 0.03 0.01 0.01 0.00 0.00 0.00 0.01 0.04 0.05 0.00 0.00 0.01
0.04 0.04 0.06 0.08 0.04 0.00 0.00 0.01 0.03 0.04 0.02 0.03 0.02 0.01 0.01 0.01 0.00 0.00 0.00 0.00 0.03 0.07 0.35 0.19 0.37 0.58 0.84 0.76 0.43 0.11 0.04 0.01 0.01 0.02 0.02 0.01 0.00 0.00 0.00 0.00 0.00 0.04 0.02 0.00 0.00
0.03 0.04 0.06 0.07 0.02 0.00 0.00 0.00 0.01 0.02 0.05 0.02 0.01 0.00 0.01 0.00 0.00 0.00 0.00 0.00 0.02 0.10 0.60 0.54 0.57 0.74 0.56 0.33 0.16 0.05 0.01 0.00 0.00 0.00 0.02 0.00 0.00 0.00 0.00 0.00 0.00 0.01 0.03 0.01 0.00
0.03 0.04 0.05 0.04 0.01 0.00 0.00 0.00 0.01 0.02 0.01 0.00 0.01 0.00 0.00 0.00 0.00 0.00 0.01 0.03 0.07 0.14 0.54 0.48 0.29 0.30 0.19 0.32 0.34 0.11 0.03 0.01 0.01 0.02 0.04 0.01 0.00 0.00 0.00 0.00 0.00 0.00 0.00 0.00 0.00
0.03 0.04 0.03 0.01 0.00 0.00 0.00 0.00 0.00 0.00 0.00 0.00 0.00 0.00 0.00 0.00 0.00 0.00 0.01 0.02 0.02 0.11 0.38 0.30 0.14 0.30 0.49 0.47 0.54 0.07 0.01 0.00 0.01 0.03 0.05 0.02 0.03 0.00 0.00 0.00 0.00 0.00 0.00 0.00 0.00
0.04 0.03 0.01 0.00 0.00 0.00 0.00 0.00 0.00 0.00 0.02 0.08 0.04 0.00 0.01 0.00 0.00 0.00 0.00 0.01 0.03 0.08 0.18 0.14 0.07 0.27 0.71 0.46 0.43 0.11 0.03 0.04 0.04 0.04 0.14 0.03 0.04 0.01 0.00 0.00 0.00 0.00 0.00 0.00 0.00
0.03 0.02 0.00 0.00 0.00 0.00 0.00 0.00 0.00 0.00 0.11 0.30 0.09 0.00 0.02 0.02 0.01 0.01 0.01 0.03 0.04 0.08 0.17 0.26 0.08 0.17 0.59 0.40 0.39 0.17 0.04 0.07 0.13 0.05 0.03 0.02 0.01 0.00 0.00 0.00 0.00 0.00 0.00 0.00 0.00
0.02 0.01 0.00 0.00 0.00 0.00 0.00 0.00 0.00 0.01 0.06 0.18 0.34 0.23 0.16 0.15 0.11 0.05 0.06 0.18 0.29 0.22 0.38 0.28 0.12 0.25 0.30 0.46 0.43 0.22 0.07 0.13 0.18 0.21 0.27 0.01 0.00 0.00 0.00 0.00 0.00 0.00 0.00 0.00 0.00
0.00 0.00 0.00 0.00 0.00 0.00 0.00 0.00 0.01 0.03 0.04 0.12 0.19 0.24 0.37 0.37 0.15 0.03 0.13 0.38 0.51 0.41 0.58 0.36 0.31 0.29 0.30 0.68 0.64 0.56 0.39 0.58 0.61 0.43 0.12 0.00 0.00 0.00 0.00 0.00 0.00 0.00 0.00 0.00 0.00
0.00 0.00 0.00 0.00 0.00 0.00 0.00 0.00 0.01 0.01 0.01 0.04 0.18 0.15 0.21 0.29 0.22 0.12 0.31 0.52 0.28 0.20 0.39 0.31 0.51 0.31 0.36 0.58 0.79 0.45 0.43 0.33 0.11 0.05 0.01 0.00 0.01 0.00 0.00 0.00 0.00 0.00 0.00 0.00 0.00
0.00 0.00 0.00 0.00 0.00 0.00 0.00 0.01 0.01 0.01 0.02 0.01 0.08 0.36 0.31 0.37 0.40 0.45 0.49 0.34 0.16 0.19 0.26 0.14 0.30 0.18 0.30 0.27 0.68 0.51 0.18 0.22 0.08 0.01 0.01 0.00 0.00 0.00 0.00 0.00 0.00 0.00 0.00 0.00 0.00
0.00 0.00 0.00 0.00 0.00 0.00 0.00 0.00 0.00 0.01 0.01 0.03 0.07 0.10 0.31 0.47 0.50 0.53 0.39 0.17 0.16 0.09 0.05 0.06 0.24 0.17 0.32 0.26 0.46 0.45 0.07 0.15 0.26 0.10 0.02 0.00 0.00 0.00 0.00 0.00 0.00 0.00 0.00 0.00 0.00
0.00 0.00 0.00 0.00 0.00 0.00 0.00 0.00 0.00 0.01 0.02 0.05 0.03 0.05 0.11 0.23 0.21 0.47 0.31 0.16 0.06 0.04 0.00 0.03 0.11 0.31 0.31 0.26 0.24 0.22 0.10 0.03 0.06 0.07 0.01 0.00 0.00 0.00 0.00 0.00 0.00 0.00 0.00 0.00 0.00
0.00 0.00 0.00 0.00 0.00 0.00 0.00 0.00 0.00 0.01 0.03 0.04 0.05 0.14 0.14 0.12 0.06 0.50 0.59 0.17 0.04 0.02 0.00 0.04 0.11 0.18 0.20 0.04 0.05 0.05 0.03 0.04 0.06 0.03 0.02 0.01 0.00 0.00 0.00 0.00 0.00 0.00 0.00 0.00 0.00
0.00 0.00 0.00 0.00 0.00 0.00 0.00 0.00 0.00 0.01 0.03 0.06 0.10 0.13 0.16 0.09 0.06 0.15 0.57 0.15 0.01 0.00 0.10 0.11 0.11 0.21 0.20 0.08 0.05 0.05 0.01 0.01 0.01 0.01 0.02 0.03 0.00 0.00 0.00 0.00 0.00 0.00 0.00 0.00 0.00
0.00 0.00 0.00 0.00 0.00 0.00 0.00 0.00 0.00 0.00 0.02 0.06 0.08 0.11 0.10 0.03 0.01 0.06 0.68 0.18 0.02 0.06 0.04 0.06 0.09 0.09 0.06 0.02 0.01 0.00 0.00 0.00 0.00 0.01 0.01 0.02 0.00 0.00 0.00 0.00 0.00 0.00 0.00 0.00 0.00
0.00 0.00 0.00 0.00 0.00 0.00 0.00 0.00 0.00 0.01 0.01 0.02 0.08 0.21 0.39 0.16 0.04 0.03 0.48 0.41 0.18 0.14 0.03 0.02 0.10 0.02 0.00 0.00 0.00 0.00 0.00 0.00 0.00 0.00 0.00 0.00 0.00 0.00 0.00 0.00 0.00 0.00 0.00 0.00 0.00
0.00 0.00 0.00 0.00 0.00 0.00 0.00 0.00 0.00 0.01 0.01 0.02 0.10 0.12 0.21 0.20 0.22 0.10 0.11 0.37 0.34 0.09 0.11 0.02 0.01 0.00 0.00 0.00 0.00 0.00 0.00 0.00 0.00 0.00 0.00 0.00 0.00 0.00 0.00 0.00 0.00 0.00 0.00 0.00 0.00
0.00 0.00 0.00 0.00 0.00 0.00 0.00 0.00 0.00 0.01 0.02 0.05 0.10 0.16 0.12 0.06 0.06 0.01 0.00 0.01 0.07 0.13 0.04 0.00 0.00 0.01 0.02 0.00 0.00 0.00 0.00 0.00 0.00 0.00 0.00 0.00 0.00 0.00 0.00 0.00 0.00 0.00 0.00 0.00 0.00

GFSSW_prec_precacc24_099.txt.gz
Total_Precipitation_Accumulation
0.01 0.05 0.07 0.05 0.04 0.04 0.03 0.04 0.05 0.06 0.04 0.04 0.07 0.14 0.17 0.08 0.04 0.05 0.02 0.00 0.01 0.13 0.20 0.05 0.01 0.02 0.06 0.07 0.14 0.24 0.46 0.43 0.00 0.00 0.00 0.01 0.00 0.00 0.00 0.00 0.00 0.00 0.00 0.02 0.03
0.01 0.07 0.07 0.06 0.04 0.04 0.05 0.07 0.08 0.06 0.04 0.06 0.15 0.18 0.14 0.05 0.01 0.01 0.01 0.02 0.05 0.11 0.17 0.14 0.10 0.11 0.12 0.05 0.21 0.24 0.16 0.27 0.04 0.00 0.01 0.04 0.05 0.01 0.00 0.00 0.00 0.03 0.12 0.14 0.13
0.03 0.07 0.06 0.05 0.03 0.05 0.08 0.09 0.08 0.10 0.13 0.17 0.17 0.17 0.10 0.03 0.01 0.01 0.12 0.08 0.07 0.14 0.11 0.10 0.13 0.21 0.15 0.13 0.14 0.08 0.02 0.00 0.01 0.06 0.06 0.07 0.09 0.02 0.01 0.00 0.00 0.02 0.10 0.17 0.31
0.04 0.07 0.06 0.04 0.04 0.07 0.10 0.10 0.10 0.15 0.21 0.19 0.20 0.12 0.05 0.00 0.01 0.08 0.26 0.08 0.16 0.34 0.29 0.16 0.23 0.34 0.17 0.13 0.03 0.05 0.01 0.00 0.04 0.13 0.11 0.07 0.06 0.07 0.03 0.00 0.00 0.01 0.10 0.13 0.16
0.04 0.06 0.05 0.03 0.06 0.08 0.11 0.10 0.10 0.14 0.19 0.17 0.25 0.12 0.01 0.01 0.00 0.05 0.07 0.00 0.01 0.07 0.27 0.25 0.24 0.43 0.18 0.04 0.07 0.04 0.03 0.01 0.03 0.16 0.13 0.03 0.03 0.07 0.04 0.03 0.01 0.01 0.10 0.10 0.11
0.03 0.05 0.04 0.05 0.06 0.08 0.06 0.04 0.09 0.16 0.19 0.14 0.27 0.09 0.00 0.00 0.00 0.00 0.01 0.03 0.02 0.07 0.19 0.36 0.20 0.40 0.24 0.06 0.09 0.05 0.04 0.04 0.02 0.13 0.09 0.05 0.04 0.08 0.06 0.11 0.04 0.05 0.05 0.09 0.07
0.04 0.04 0.04 0.06 0.07 0.07 0.02 0.02 0.05 0.18 0.19 0.16 0.18 0.06 0.00 0.00 0.00 0.00 0.00 0.00 0.03 0.05 0.14 0.26 0.35 0.59 0.60 0.16 0.01 0.06 0.04 0.14 0.05 0.06 0.12 0.05 0.11 0.09 0.08 0.09 0.05 0.03 0.04 0.06 0.08
0.04 0.04 0.05 0.06 0.07 0.04 0.01 0.00 0.02 0.12 0.17 0.12 0.11 0.03 0.00 0.00 0.00 0.01 0.00 0.00 0.01 0.09 0.15 0.15 0.23 0.38 0.80 0.37 0.04 0.16 0.10 0.10 0.05 0.02 0.05 0.10 0.13 0.05 0.06 0.15 0.13 0.03 0.01 0.02 0.04
0.04 0.04 0.05 0.06 0.06 0.02 0.00 0.00 0.01 0.08 0.08 0.03 0.02 0.00 0.00 0.01 0.00 0.00 0.00 0.00 0.00 0.13 0.17 0.10 0.16 0.51 0.68 0.84 0.27 0.29 0.20 0.01 0.02 0.03 0.03 0.08 0.03 0.02 0.04 0.16 0.11 0.06 0.00 0.00 0.01
0.03 0.04 0.05 0.07 0.04 0.01 0.00 0.00 0.00 0.01 0.00 0.00 0.00 0.00 0.01 0.00 0.00 0.00 0.00 0.00 0.03 0.07 0.34 0.18 0.29 0.49 0.84 1.06 0.50 0.15 0.14 0.01 0.01 0.02 0.02 0.03 0.00 0.00 0.04 0.06 0.04 0.04 0.02 0.00 0.00
0.02 0.04 0.05 0.06 0.02 0.00 0.00 0.00 0.00 0.00 0.00 0.00 0.00 0.00 0.00 0.00 0.00 0.00 0.00 0.00 0.02 0.04 0.51 0.49 0.42 0.58 0.56 0.41 0.23 0.08 0.04 0.01 0.00 0.01 0.02 0.01 0.00 0.01 0.00 0.02 0.02 0.02 0.03 0.01 0.00
0.02 0.03 0.04 0.04 0.01 0.00 0.00 0.00 0.00 0.00 0.00 0.00 0.00 0.00 0.00 0.00 0.00 0.00 0.01 0.03 0.07 0.09 0.42 0.43 0.15 0.20 0.19 0.32 0.39 0.22 0.06 0.01 0.01 0.02 0.04 0.01 0.00 0.00 0.00 0.00 0.00 0.00 0.00 0.00 0.00
0.03 0.04 0.03 0.01 0.00 0.00 0.00 0.00 0.00 0.00 0.00 0.00 0.00 0.00 0.00 0.00 0.00 0.00 0.01 0.02 0.02 0.04 0.21 0.27 0.10 0.23 0.50 0.48 0.61 0.15 0.06 0.00 0.01 0.04 0.06 0.03 0.04 0.01 0.00 0.00 0.00 0.00 0.00 0.00 0.00
0.03 0.03 0.01 0.00 0.00 0.00 0.00 0.00 0.00 0.00 0.01 0.06 0.00 0.00 0.00 0.00 0.00 0.00 0.00 0.01 0.02 0.06 0.07 0.10 0.05 0.24 0.72 0.48 0.51 0.17 0.06 0.03 0.04 0.05 0.16 0.05 0.04 0.01 0.00 0.00 0.00 0.00 0.00 0.00 0.00
0.02 0.02 0.00 0.00 0.00 0.00 0.00 0.00 0.00 0.00 0.06 0.17 0.07 0.00 0.01 0.03 0.01 0.00 0.00 0.00 0.01 0.03 0.08 0.20 0.08 0.16 0.63 0.41 0.41 0.20 0.07 0.06 0.09 0.04 0.07 0.13 0.03 0.00 0.00 0.00 0.00 0.00 0.00 0.00 0.00
0.02 0.01 0.00 0.00 0.00 0.00 0.00 0.00 0.00 0.01 0.03 0.07 0.20 0.14 0.10 0.12 0.03 0.02 0.01 0.01 0.01 0.05 0.12 0.22 0.13 0.30 0.35 0.47 0.44 0.24 0.10 0.13 0.19 0.20 0.25 0.06 0.04 0.00 0.00 0.00 0.00 0.00 0.00 0.00 0.00
0.01 0.00 0.00 0.00 0.00 0.00 0.00 0.00 0.01 0.02 0.03 0.11 0.16 0.22 0.31 0.30 0.10 0.01 0.01 0.02 0.01 0.13 0.40 0.37 0.37 0.33 0.32 0.69 0.65 0.58 0.31 0.50 0.59 0.47 0.11 0.00 0.01 0.00 0.00 0.00 0.00 0.00 0.00 0.00 0.00
0.00 0.00 0.00 0.00 0.00 0.00 0.00 0.00 0.00 0.01 0.00 0.04 0.17 0.14 0.21 0.32 0.23 0.11 0.13 0.15 0.04 0.17 0.48 0.31 0.47 0.31 0.36 0.58 0.81 0.47 0.30 0.23 0.13 0.09 0.01 0.00 0.01 0.00 0.00 0.00 0.00 0.00 0.00 0.00 0.00
0.00 0.00 0.00 0.00 0.00 0.00 0.00 0.00 0.01 0.01 0.02 0.01 0.08 0.29 0.18 0.34 0.41 0.34 0.36 0.22 0.09 0.18 0.34 0.16 0.30 0.18 0.31 0.27 0.70 0.54 0.13 0.17 0.07 0.01 0.01 0.00 0.00 0.00 0.00 0.00 0.00 0.00 0.00 0.00 0.00
0.00 0.00 0.00 0.00 0.00 0.00 0.00 0.00 0.00 0.01 0.01 0.03 0.07 0.09 0.20 0.37 0.47 0.52 0.37 0.16 0.16 0.08 0.05 0.06 0.23 0.16 0.32 0.26 0.45 0.44 0.07 0.14 0.15 0.07 0.03 0.00 0.00 0.00 0.00 0.00 0.00 0.00 0.00 0.00 0.00
0.00 0.00 0.00 0.00 0.00 0.00 0.00 0.00 0.00 0.01 0.02 0.06 0.03 0.05 0.11 0.23 0.26 0.49 0.32 0.16 0.06 0.04 0.00 0.03 0.10 0.28 0.29 0.24 0.23 0.20 0.06 0.04 0.04 0.02 0.02 0.00 0.00 0.00 0.00 0.00 0.00 0.00 0.00 0.00 0.00
0.00 0.00 0.00 0.00 0.00 0.00 0.00 0.00 0.00 0.01 0.03 0.04 0.05 0.14 0.14 0.13 0.13 0.52 0.59 0.17 0.04 0.02 0.00 0.04 0.11 0.17 0.19 0.05 0.05 0.05 0.01 0.04 0.07 0.02 0.02 0.02 0.00 0.00 0.00 0.00 0.00 0.00 0.00 0.00 0.00
0.00 0.00 0.00 0.00 0.00 0.00 0.00 0.00 0.00 0.01 0.03 0.06 0.10 0.13 0.16 0.09 0.12 0.15 0.57 0.15 0.01 0.01 0.21 0.14 0.13 0.22 0.21 0.08 0.05 0.05 0.00 0.01 0.01 0.01 0.03 0.14 0.01 0.00 0.00 0.00 0.00 0.00 0.00 0.00 0.00
0.00 0.00 0.00 0.00 0.00 0.00 0.00 0.00 0.00 0.00 0.02 0.06 0.08 0.11 0.10 0.03 0.02 0.06 0.68 0.18 0.03 0.06 0.06 0.09 0.11 0.13 0.09 0.02 0.01 0.00 0.00 0.00 0.00 0.01 0.02 0.07 0.01 0.00 0.00 0.00 0.00 0.00 0.00 0.00 0.00
0.00 0.00 0.00 0.00 0.00 0.00 0.00 0.00 0.00 0.01 0.01 0.02 0.08 0.21 0.39 0.16 0.04 0.04 0.49 0.41 0.18 0.14 0.03 0.05 0.17 0.03 0.00 0.00 0.00 0.00 0.00 0.00 0.00 0.00 0.00 0.01 0.00 0.00 0.00 0.00 0.00 0.00 0.00 0.00 0.00
0.00 0.00 0.00 0.00 0.00 0.00 0.00 0.00 0.00 0.01 0.01 0.02 0.10 0.12 0.21 0.20 0.22 0.10 0.11 0.37 0.34 0.09 0.11 0.02 0.01 0.00 0.00 0.00 0.00 0.00 0.00 0.00 0.00 0.00 0.00 0.00 0.00 0.00 0.00 0.00 0.00 0.00 0.00 0.00 0.00
0.00 0.00 0.00 0.00 0.00 0.00 0.00 0.00 0.00 0.01 0.02 0.04 0.10 0.16 0.12 0.06 0.06 0.01 0.00 0.01 0.08 0.13 0.04 0.00 0.00 0.02 0.03 0.00 0.00 0.00 0.00 0.00 0.00 0.00 0.00 0.00 0.00 0.00 0.00 0.00 0.00 0.00 0.00 0.00 0.00

GFSSW_prec_precacc24_102.txt.gz
Total_Precipitation_Accumulation
0.01 0.03 0.07 0.05 0.04 0.03 0.03 0.04 0.06 0.07 0.04 0.04 0.07 0.14 0.17 0.07 0.03 0.05 0.02 0.00 0.02 0.14 0.23 0.07 0.05 0.09 0.10 0.06 0.14 0.28 0.51 0.61 0.08 0.00 0.00 0.01 0.00 0.00 0.00 0.00 0.00 0.00 0.00 0.02 0.03
0.01 0.05 0.06 0.06 0.04 0.04 0.05 0.07 0.08 0.06 0.04 0.06 0.15 0.18 0.14 0.05 0.01 0.01 0.01 0.04 0.10 0.15 0.19 0.16 0.16 0.17 0.19 0.07 0.21 0.27 0.19 0.37 0.06 0.01 0.01 0.05 0.01 0.00 0.00 0.00 0.01 0.05 0.11 0.11 0.09
0.02 0.04 0.05 0.05 0.03 0.05 0.07 0.09 0.08 0.10 0.13 0.17 0.17 0.17 0.09 0.02 0.00 0.01 0.12 0.08 0.07 0.15 0.12 0.09 0.16 0.25 0.19 0.13 0.15 0.13 0.02 0.02 0.06 0.08 0.06 0.06 0.03 0.02 0.01 0.00 0.00 0.03 0.16 0.17 0.26
0.02 0.05 0.05 0.04 0.04 0.06 0.08 0.08 0.07 0.14 0.19 0.18 0.20 0.12 0.05 0.00 0.00 0.05 0.24 0.07 0.15 0.34 0.29 0.17 0.25 0.36 0.21 0.13 0.03 0.08 0.01 0.01 0.14 0.27 0.14 0.09 0.07 0.06 0.02 0.00 0.04 0.04 0.11 0.14 0.19
0.03 0.05 0.04 0.03 0.05 0.06 0.07 0.05 0.06 0.09 0.17 0.15 0.18 0.10 0.01 0.01 0.00 0.02 0.04 0.00 0.00 0.06 0.27 0.26 0.26 0.43 0.25 0.07 0.07 0.04 0.04 0.01 0.12 0.52 0.22 0.06 0.05 0.08 0.04 0.03 0.06 0.14 0.20 0.24 0.24
0.03 0.05 0.04 0.04 0.06 0.06 0.04 0.02 0.03 0.06 0.11 0.10 0.17 0.05 0.00 0.00 0.00 0.00 0.00 0.03 0.00 0.04 0.18 0.36 0.20 0.41 0.30 0.15 0.10 0.06 0.05 0.04 0.06 0.40 0.31 0.19 0.06 0.09 0.07 0.12 0.07 0.14 0.14 0.17 0.18
0.03 0.04 0.04 0.05 0.05 0.06 0.02 0.01 0.01 0.04 0.08 0.11 0.08 0.01 0.00 0.00 0.00 0.00 0.00 0.00 0.01 0.02 0.13 0.26 0.34 0.59 0.74 0.29 0.03 0.06 0.04 0.13 0.07 0.09 0.27 0.33 0.24 0.10 0.10 0.12 0.06 0.05 0.08 0.14 0.17
0.03 0.04 0.04 0.05 0.06 0.04 0.01 0.00 0.00 0.02 0.05 0.04 0.03 0.00 0.00 0.00 0.00 0.00 0.00 0.00 0.00 0.03 0.14 0.16 0.22 0.36 0.90 0.56 0.06 0.18 0.09 0.10 0.05 0.03 0.09 0.39 0.34 0.07 0.09 0.21 0.13 0.03 0.04 0.07 0.10
0.03 0.04 0.04 0.05 0.05 0.03 0.00 0.00 0.00 0.01 0.02 0.01 0.00 0.00 0.00 0.00 0.00 0.00 0.00 0.00 0.00 0.07 0.15 0.11 0.13 0.46 0.66 1.00 0.37 0.30 0.21 0.01 0.03 0.04 0.05 0.21 0.18 0.12 0.08 0.25 0.15 0.08 0.02 0.05 0.04
0.03 0.03 0.04 0.05 0.03 0.01 0.00 0.00 0.00 0.00 0.00 0.00 0.00 0.00 0.01 0.00 0.00 0.00 0.00 0.00 0.03 0.05 0.27 0.18 0.25 0.38 0.82 1.14 0.64 0.16 0.14 0.01 0.02 0.03 0.04 0.05 0.07 0.13 0.09 0.16 0.18 0.12 0.03 0.04 0.02
0.02 0.03 0.04 0.05 0.02 0.00 0.00 0.00 0.00 0.00 0.00 0.00 0.00 0.00 0.00 0.00 0.00 0.00 0.00 0.00 0.02 0.03 0.38 0.47 0.38 0.41 0.52 0.43 0.35 0.12 0.04 0.03 0.00 0.03 0.02 0.01 0.01 0.06 0.06 0.14 0.21 0.19 0.06 0.02 0.01
0.02 0.03 0.04 0.04 0.01 0.00 0.00 0.00 0.00 0.00 0.00 0.00 0.00 0.00 0.00 0.00 0.00 0.00 0.00 0.02 0.06 0.09 0.28 0.38 0.13 0.15 0.17 0.36 0.52 0.30 0.07 0.04 0.01 0.04 0.06 0.03 0.01 0.03 0.03 0.06 0.12 0.20 0.06 0.00 0.01
0.02 0.03 0.03 0.02 0.00 0.00 0.00 0.00 0.00 0.00 0.00 0.00 0.00 0.00 0.00 0.00 0.00 0.00 0.00 0.02 0.02 0.05 0.15 0.19 0.09 0.16 0.40 0.51 0.68 0.19 0.07 0.02 0.03 0.06 0.08 0.04 0.06 0.09 0.04 0.02 0.03 0.11 0.09 0.00 0.00
0.03 0.03 0.02 0.00 0.00 0.00 0.00 0.00 0.00 0.00 0.01 0.03 0.00 0.00 0.00 0.00 0.00 0.00 0.00 0.00 0.03 0.06 0.06 0.07 0.04 0.19 0.55 0.49 0.55 0.22 0.06 0.02 0.05 0.07 0.22 0.07 0.06 0.05 0.03 0.01 0.00 0.01 0.03 0.00 0.00
0.02 0.02 0.00 0.00 0.00 0.00 0.00 0.00 0.00 0.00 0.04 0.09 0.03 0.00 0.00 0.03 0.01 0.00 0.00 0.00 0.01 0.03 0.08 0.20 0.08 0.12 0.49 0.40 0.43 0.30 0.10 0.06 0.09 0.04 0.08 0.15 0.04 0.00 0.00 0.00 0.00 0.00 0.00 0.00 0.00
0.02 0.01 0.00 0.00 0.00 0.00 0.00 0.00 0.00 0.01 0.02 0.05 0.09 0.04 0.07 0.12 0.01 0.01 0.01 0.00 0.01 0.04 0.12 0.23 0.12 0.25 0.33 0.47 0.43 0.27 0.17 0.14 0.19 0.17 0.21 0.07 0.05 0.00 0.00 0.00 0.00 0.00 0.00 0.00 0.00
0.01 0.00 0.00 0.00 0.00 0.00 0.00 0.00 0.01 0.02 0.03 0.08 0.10 0.11 0.20 0.21 0.04 0.00 0.00 0.00 0.00 0.14 0.40 0.45 0.52 0.29 0.25 0.68 0.65 0.67 0.42 0.60 0.68 0.48 0.12 0.00 0.03 0.00 0.00 0.00 0.00 0.00 0.00 0.00 0.00
0.00 0.00 0.00 0.00 0.00 0.00 0.00 0.00 0.00 0.01 0.00 0.03 0.05 0.09 0.20 0.28 0.17 0.03 0.00 0.00 0.01 0.08 0.37 0.43 0.49 0.33 0.32 0.57 0.81 0.55 0.36 0.29 0.19 0.10 0.03 0.01 0.01 0.00 0.00 0.00 0.00 0.00 0.00 0.00 0.00
0.00 0.00 0.00 0.00 0.00 0.00 0.00 0.00 0.01 0.01 0.02 0.01 0.05 0.12 0.16 0.33 0.36 0.17 0.03 0.01 0.01 0.02 0.25 0.12 0.27 0.18 0.30 0.27 0.70 0.58 0.17 0.14 0.01 0.01 0.01 0.01 0.00 0.00 0.00 0.00 0.00 0.00 0.00 0.00 0.00
0.00 0.00 0.00 0.00 0.00 0.00 0.00 0.00 0.00 0.01 0.01 0.03 0.07 0.05 0.15 0.37 0.45 0.47 0.27 0.13 0.14 0.05 0.04 0.06 0.21 0.15 0.32 0.26 0.46 0.46 0.10 0.11 0.04 0.03 0.02 0.00 0.00 0.00 0.00 0.00 0.00 0.00 0.00 0.00 0.00
0.00 0.00 0.00 0.00 0.00 0.00 0.00 0.00 0.00 0.01 0.02 0.06 0.03 0.05 0.11 0.24 0.27 0.49 0.31 0.16 0.06 0.04 0.00 0.03 0.10 0.27 0.28 0.24 0.23 0.22 0.07 0.04 0.03 0.02 0.02 0.00 0.00 0.00 0.00 0.00 0.00 0.00 0.00 0.00 0.00
0.00 0.00 0.00 0.00 0.00 0.00 0.00 0.00 0.00 0.01 0.03 0.04 0.05 0.14 0.14 0.13 0.14 0.53 0.59 0.16 0.04 0.02 0.00 0.04 0.11 0.16 0.18 0.05 0.05 0.05 0.01 0.04 0.06 0.02 0.02 0.02 0.00 0.00 0.00 0.00 0.00 0.00 0.00 0.00 0.00
0.00 0.00 0.00 0.00 0.00 0.00 0.00 0.00 0.00 0.01 0.03 0.06 0.10 0.13 0.16 0.10 0.12 0.15 0.57 0.15 0.01 0.01 0.21 0.14 0.13 0.22 0.19 0.07 0.04 0.05 0.00 0.01 0.01 0.01 0.03 0.14 0.01 0.00 0.00 0.00 0.00 0.00 0.00 0.00 0.00
0.00 0.00 0.00 0.00 0.00 0.00 0.00 0.00 0.00 0.00 0.02 0.06 0.08 0.11 0.10 0.04 0.02 0.07 0.68 0.18 0.03 0.06 0.06 0.09 0.11 0.15 0.09 0.02 0.00 0.00 0.00 0.00 0.00 0.01 0.04 0.08 0.02 0.00 0.00 0.00 0.00 0.00 0.00 0.00 0.00
0.00 0.00 0.00 0.00 0.00 0.00 0.00 0.00 0.00 0.01 0.01 0.02 0.08 0.21 0.39 0.16 0.04 0.04 0.49 0.41 0.18 0.14 0.03 0.06 0.18 0.03 0.00 0.00 0.00 0.00 0.00 0.00 0.00 0.00 0.06 0.02 0.00 0.00 0.00 0.00 0.00 0.00 0.00 0.00 0.00
0.00 0.00 0.00 0.00 0.00 0.00 0.00 0.00 0.00 0.01 0.01 0.02 0.10 0.12 0.21 0.20 0.22 0.10 0.11 0.37 0.34 0.09 0.11 0.02 0.01 0.00 0.00 0.00 0.00 0.00 0.00 0.00 0.00 0.00 0.01 0.01 0.00 0.00 0.00 0.00 0.00 0.00 0.00 0.00 0.00
0.00 0.00 0.00 0.00 0.00 0.00 0.00 0.00 0.00 0.01 0.02 0.04 0.10 0.16 0.12 0.06 0.06 0.01 0.00 0.01 0.08 0.13 0.04 0.00 0.00 0.02 0.03 0.00 0.00 0.00 0.00 0.00 0.00 0.00 0.00 0.00 0.00 0.00 0.00 0.00 0.00 0.00 0.00 0.00 0.00

GFSSW_prec_precacc24_105.txt.gz
Total_Precipitation_Accumulation
0.01 0.03 0.04 0.05 0.04 0.03 0.03 0.05 0.06 0.07 0.04 0.03 0.07 0.14 0.17 0.07 0.00 0.02 0.02 0.00 0.02 0.16 0.24 0.07 0.05 0.09 0.10 0.05 0.12 0.31 0.54 0.61 0.13 0.07 0.05 0.01 0.00 0.00 0.00 0.00 0.00 0.00 0.01 0.02 0.03
0.01 0.03 0.04 0.05 0.04 0.04 0.04 0.07 0.08 0.06 0.03 0.06 0.14 0.17 0.13 0.04 0.00 0.00 0.01 0.04 0.16 0.22 0.19 0.16 0.16 0.17 0.20 0.09 0.21 0.30 0.23 0.38 0.07 0.04 0.07 0.09 0.01 0.00 0.00 0.00 0.02 0.09 0.11 0.12 0.16
0.02 0.03 0.05 0.05 0.03 0.05 0.07 0.07 0.05 0.06 0.11 0.16 0.15 0.15 0.07 0.01 0.00 0.01 0.11 0.08 0.06 0.14 0.12 0.09 0.15 0.25 0.20 0.21 0.18 0.18 0.13 0.03 0.07 0.13 0.17 0.21 0.05 0.01 0.00 0.00 0.00 0.03 0.14 0.30 0.47
0.02 0.04 0.05 0.04 0.04 0.06 0.07 0.04 0.03 0.03 0.07 0.14 0.14 0.09 0.05 0.00 0.00 0.02 0.19 0.05 0.09 0.31 0.29 0.17 0.25 0.36 0.23 0.16 0.08 0.12 0.05 0.01 0.15 0.43 0.31 0.42 0.17 0.05 0.02 0.01 0.05 0.11 0.05 0.06 0.22
0.03 0.04 0.04 0.03 0.05 0.05 0.05 0.02 0.02 0.01 0.02 0.06 0.07 0.07 0.01 0.01 0.00 0.00 0.03 0.00 0.00 0.06 0.27 0.26 0.26 0.43 0.25 0.08 0.10 0.06 0.04 0.02 0.15 0.77 0.52 0.39 0.35 0.09 0.02 0.03 0.09 0.25 0.39 0.30 0.27
0.02 0.04 0.04 0.04 0.05 0.05 0.03 0.02 0.01 0.01 0.00 0.01 0.08 0.04 0.00 0.00 0.00 0.00 0.00 0.02 0.00 0.01 0.15 0.35 0.21 0.46 0.31 0.16 0.14 0.07 0.06 0.05 0.09 0.56 0.62 0.54 0.45 0.12 0.06 0.03 0.09 0.23 0.23 0.29 0.33
0.02 0.03 0.04 0.05 0.05 0.05 0.03 0.02 0.01 0.00 0.00 0.00 0.01 0.00 0.00 0.00 0.00 0.00 0.00 0.00 0.01 0.00 0.06 0.24 0.34 0.61 0.76 0.32 0.08 0.06 0.05 0.12 0.09 0.17 0.54 0.69 0.55 0.27 0.10 0.05 0.07 0.09 0.15 0.24 0.33
0.03 0.03 0.04 0.04 0.05 0.04 0.02 0.00 0.00 0.00 0.00 0.01 0.01 0.00 0.00 0.00 0.00 0.00 0.00 0.00 0.00 0.00 0.06 0.16 0.22 0.39 0.89 0.65 0.20 0.23 0.12 0.11 0.08 0.07 0.19 0.75 0.72 0.29 0.14 0.19 0.11 0.05 0.05 0.11 0.18
0.03 0.03 0.04 0.05 0.04 0.03 0.01 0.00 0.00 0.00 0.00 0.00 0.00 0.00 0.00 0.00 0.00 0.00 0.00 0.00 0.00 0.00 0.10 0.12 0.12 0.42 0.61 1.05 0.58 0.39 0.23 0.03 0.07 0.10 0.11 0.37 0.60 0.34 0.25 0.27 0.16 0.09 0.03 0.06 0.07
0.02 0.03 0.04 0.04 0.03 0.02 0.00 0.00 0.00 0.00 0.00 0.00 0.00 0.00 0.01 0.00 0.00 0.00 0.00 0.00 0.01 0.00 0.12 0.18 0.20 0.30 0.66 1.16 0.80 0.24 0.15 0.03 0.05 0.09 0.10 0.08 0.27 0.47 0.39 0.28 0.20 0.13 0.03 0.04 0.02
0.02 0.02 0.04 0.05 0.03 0.00 0.00 0.00 0.00 0.00 0.00 0.00 0.00 0.00 0.00 0.00 0.00 0.00 0.00 0.00 0.01 0.03 0.18 0.43 0.31 0.24 0.34 0.44 0.40 0.18 0.05 0.05 0.03 0.09 0.07 0.02 0.03 0.28 0.42 0.34 0.30 0.21 0.06 0.02 0.01
0.02 0.02 0.03 0.03 0.01 0.00 0.00 0.00 0.00 0.00 0.00 0.00 0.00 0.00 0.00 0.00 0.00 0.00 0.00 0.02 0.06 0.08 0.15 0.34 0.10 0.02 0.12 0.36 0.53 0.36 0.08 0.06 0.04 0.08 0.13 0.05 0.02 0.09 0.28 0.30 0.30 0.25 0.07 0.01 0.02
0.02 0.02 0.03 0.02 0.00 0.00 0.00 0.00 0.00 0.00 0.00 0.00 0.00 0.00 0.00 0.00 0.00 0.00 0.00 0.02 0.02 0.04 0.09 0.17 0.08 0.03 0.25 0.57 0.68 0.25 0.08 0.04 0.05 0.12 0.13 0.08 0.10 0.13 0.17 0.22 0.16 0.24 0.16 0.01 0.01
0.03 0.02 0.02 0.00 0.00 0.00 0.00 0.00 0.00 0.00 0.00 0.01 0.00 0.00 0.00 0.00 0.00 0.00 0.00 0.00 0.03 0.06 0.05 0.07 0.04 0.10 0.34 0.50 0.56 0.23 0.06 0.03 0.07 0.10 0.30 0.13 0.13 0.07 0.06 0.11 0.10 0.11 0.18 0.05 0.00
0.02 0.02 0.00 0.00 0.00 0.00 0.00 0.00 0.00 0.00 0.03 0.02 0.01 0.00 0.00 0.03 0.01 0.00 0.00 0.00 0.01 0.03 0.08 0.20 0.08 0.11 0.35 0.36 0.46 0.38 0.10 0.06 0.10 0.07 0.12 0.19 0.05 0.01 0.01 0.03 0.04 0.01 0.06 0.07 0.01
0.02 0.01 0.00 0.00 0.00 0.00 0.00 0.00 0.00 0.01 0.01 0.00 0.01 0.01 0.06 0.12 0.01 0.00 0.00 0.00 0.01 0.04 0.13 0.21 0.12 0.27 0.29 0.42 0.47 0.42 0.18 0.14 0.22 0.21 0.23 0.07 0.05 0.00 0.00 0.00 0.00 0.00 0.00 0.03 0.01
0.01 0.00 0.00 0.00 0.00 0.00 0.00 0.00 0.01 0.01 0.01 0.02 0.04 0.05 0.11 0.19 0.04 0.00 0.00 0.00 0.00 0.16 0.41 0.47 0.62 0.33 0.19 0.53 0.69 0.88 0.46 0.61 0.71 0.47 0.11 0.00 0.03 0.00 0.00 0.00 0.00 0.00 0.00 0.00 0.00
0.00 0.00 0.00 0.00 0.00 0.00 0.00 0.00 0.00 0.01 0.00 0.01 0.03 0.07 0.15 0.21 0.11 0.00 0.00 0.00 0.01 0.12 0.53 0.59 0.49 0.22 0.13 0.45 0.82 0.73 0.42 0.30 0.21 0.10 0.03 0.01 0.01 0.00 0.00 0.00 0.00 0.00 0.00 0.00 0.00
0.00 0.00 0.00 0.00 0.00 0.00 0.00 0.00 0.01 0.01 0.02 0.01 0.02 0.06 0.13 0.29 0.28 0.09 0.00 0.00 0.00 0.02 0.22 0.13 0.26 0.09 0.12 0.23 0.70 0.66 0.21 0.16 0.01 0.01 0.01 0.01 0.00 0.00 0.00 0.00 0.00 0.00 0.00 0.00 0.00
0.00 0.00 0.00 0.00 0.00 0.00 0.00 0.00 0.00 0.01 0.01 0.03 0.07 0.05 0.13 0.34 0.36 0.36 0.09 0.02 0.00 0.00 0.03 0.06 0.18 0.13 0.25 0.24 0.45 0.48 0.13 0.15 0.04 0.02 0.02 0.00 0.00 0.00 0.00 0.00 0.00 0.00 0.00 0.00 0.00
0.00 0.00 0.00 0.00 0.00 0.00 0.00 0.00 0.00 0.01 0.02 0.06 0.03 0.05 0.11 0.24 0.27 0.48 0.29 0.12 0.04 0.01 0.00 0.03 0.10 0.25 0.28 0.23 0.22 0.22 0.07 0.05 0.03 0.01 0.02 0.00 0.00 0.00 0.00 0.00 0.00 0.00 0.00 0.00 0.00
0.00 0.00 0.00 0.00 0.00 0.00 0.00 0.00 0.00 0.01 0.03 0.04 0.05 0.14 0.14 0.13 0.14 0.52 0.58 0.16 0.04 0.02 0.00 0.04 0.11 0.16 0.18 0.05 0.05 0.05 0.01 0.04 0.06 0.02 0.02 0.02 0.00 0.00 0.00 0.00 0.00 0.00 0.00 0.00 0.00
0.00 0.00 0.00 0.00 0.00 0.00 0.00 0.00 0.00 0.01 0.03 0.06 0.10 0.13 0.16 0.10 0.13 0.15 0.56 0.15 0.01 0.01 0.21 0.14 0.13 0.21 0.18 0.06 0.04 0.05 0.00 0.01 0.01 0.01 0.03 0.14 0.01 0.00 0.00 0.00 0.00 0.00 0.00 0.00 0.00
0.00 0.00 0.00 0.00 0.00 0.00 0.00 0.00 0.00 0.00 0.02 0.06 0.08 0.11 0.10 0.04 0.02 0.07 0.68 0.18 0.03 0.07 0.06 0.09 0.12 0.15 0.09 0.02 0.00 0.00 0.00 0.00 0.00 0.01 0.04 0.08 0.02 0.00 0.00 0.00 0.00 0.00 0.00 0.00 0.00
0.00 0.00 0.00 0.00 0.00 0.00 0.00 0.00 0.00 0.01 0.01 0.02 0.08 0.21 0.39 0.16 0.04 0.04 0.49 0.41 0.18 0.14 0.03 0.06 0.19 0.03 0.00 0.00 0.00 0.00 0.00 0.00 0.00 0.00 0.06 0.02 0.00 0.00 0.00 0.00 0.00 0.00 0.00 0.00 0.00
0.00 0.00 0.00 0.00 0.00 0.00 0.00 0.00 0.00 0.01 0.01 0.02 0.10 0.12 0.21 0.20 0.22 0.10 0.11 0.37 0.34 0.09 0.11 0.02 0.01 0.00 0.00 0.00 0.00 0.00 0.00 0.00 0.00 0.00 0.01 0.01 0.00 0.00 0.00 0.00 0.00 0.00 0.00 0.00 0.00
0.00 0.00 0.00 0.00 0.00 0.00 0.00 0.00 0.00 0.00 0.00 0.02 0.08 0.16 0.12 0.06 0.06 0.01 0.00 0.01 0.08 0.13 0.04 0.00 0.00 0.02 0.03 0.00 0.00 0.00 0.00 0.00 0.00 0.00 0.00 0.00 0.00 0.00 0.00 0.00 0.00 0.00 0.00 0.00 0.00

GFSSW_prec_precacc24_108.txt.gz
Total_Precipitation_Accumulation
0.01 0.02 0.03 0.05 0.04 0.03 0.03 0.04 0.06 0.06 0.04 0.03 0.07 0.13 0.15 0.06 0.00 0.00 0.00 0.00 0.02 0.18 0.29 0.07 0.05 0.09 0.10 0.05 0.10 0.32 0.57 0.62 0.13 0.07 0.06 0.05 0.01 0.00 0.00 0.00 0.00 0.00 0.01 0.03 0.15
0.01 0.02 0.04 0.05 0.04 0.05 0.05 0.06 0.06 0.03 0.01 0.04 0.12 0.15 0.12 0.03 0.00 0.00 0.01 0.04 0.17 0.32 0.21 0.16 0.16 0.16 0.20 0.09 0.20 0.29 0.25 0.39 0.07 0.04 0.08 0.12 0.08 0.01 0.00 0.00 0.03 0.12 0.11 0.11 0.19
0.01 0.03 0.04 0.04 0.03 0.04 0.06 0.06 0.03 0.01 0.01 0.03 0.06 0.07 0.03 0.00 0.00 0.00 0.09 0.08 0.05 0.12 0.10 0.09 0.14 0.23 0.19 0.20 0.17 0.18 0.13 0.03 0.07 0.13 0.17 0.25 0.16 0.03 0.05 0.03 0.00 0.04 0.18 0.27 0.41
0.02 0.03 0.04 0.04 0.04 0.05 0.06 0.04 0.02 0.02 0.01 0.01 0.02 0.02 0.02 0.00 0.00 0.00 0.11 0.02 0.02 0.17 0.25 0.16 0.23 0.33 0.22 0.16 0.09 0.12 0.04 0.01 0.15 0.43 0.33 0.46 0.29 0.15 0.11 0.03 0.05 0.12 0.11 0.20 0.25
0.03 0.03 0.04 0.03 0.05 0.05 0.05 0.03 0.03 0.01 0.00 0.00 0.01 0.02 0.00 0.01 0.00 0.00 0.00 0.00 0.00 0.03 0.22 0.25 0.23 0.40 0.24 0.08 0.11 0.07 0.02 0.02 0.15 0.77 0.54 0.42 0.49 0.34 0.16 0.05 0.09 0.26 0.47 0.44 0.36
0.02 0.03 0.04 0.04 0.05 0.05 0.04 0.03 0.02 0.01 0.00 0.00 0.01 0.01 0.00 0.00 0.00 0.00 0.00 0.00 0.00 0.00 0.09 0.31 0.20 0.46 0.31 0.18 0.15 0.08 0.05 0.04 0.09 0.58 0.65 0.59 0.60 0.52 0.27 0.04 0.09 0.24 0.33 0.40 0.47
0.02 0.03 0.03 0.04 0.04 0.04 0.03 0.02 0.01 0.00 0.00 0.00 0.01 0.00 0.00 0.00 0.00 0.00 0.00 0.00 0.00 0.00 0.03 0.19 0.29 0.55 0.73 0.37 0.15 0.05 0.06 0.11 0.08 0.18 0.57 0.77 0.71 0.62 0.37 0.10 0.06 0.11 0.21 0.34 0.53
0.03 0.03 0.03 0.04 0.04 0.04 0.02 0.01 0.00 0.00 0.00 0.01 0.01 0.00 0.00 0.00 0.00 0.00 0.00 0.00 0.00 0.00 0.00 0.09 0.20 0.33 0.85 0.68 0.26 0.25 0.14 0.15 0.07 0.08 0.23 0.83 0.88 0.79 0.60 0.38 0.11 0.05 0.08 0.15 0.27
0.03 0.03 0.03 0.04 0.04 0.03 0.01 0.00 0.00 0.00 0.00 0.00 0.00 0.00 0.00 0.00 0.00 0.00 0.00 0.00 0.00 0.00 0.01 0.06 0.12 0.36 0.53 1.00 0.59 0.47 0.33 0.06 0.08 0.10 0.15 0.42 0.72 0.90 0.92 0.60 0.20 0.08 0.06 0.10 0.12
0.03 0.02 0.03 0.04 0.03 0.02 0.00 0.00 0.00 0.00 0.00 0.00 0.00 0.00 0.01 0.00 0.00 0.00 0.00 0.00 0.01 0.00 0.03 0.09 0.19 0.27 0.52 1.11 0.81 0.40 0.30 0.06 0.07 0.12 0.13 0.11 0.34 0.82 1.14 0.63 0.27 0.14 0.05 0.10 0.07
0.09 0.02 0.03 0.04 0.03 0.01 0.00 0.00 0.00 0.00 0.00 0.00 0.00 0.00 0.00 0.00 0.00 0.00 0.00 0.00 0.01 0.02 0.04 0.21 0.29 0.22 0.23 0.37 0.42 0.26 0.18 0.11 0.04 0.15 0.11 0.04 0.06 0.43 1.02 0.77 0.39 0.24 0.05 0.05 0.07
0.10 0.03 0.02 0.03 0.01 0.00 0.00 0.00 0.00 0.00 0.00 0.00 0.00 0.00 0.00 0.00 0.00 0.00 0.00 0.02 0.06 0.08 0.08 0.17 0.09 0.01 0.06 0.28 0.57 0.39 0.17 0.11 0.07 0.14 0.20 0.08 0.06 0.17 0.65 0.77 0.49 0.33 0.07 0.02 0.03
0.23 0.04 0.02 0.02 0.00 0.00 0.00 0.00 0.00 0.00 0.00 0.00 0.00 0.00 0.00 0.00 0.00 0.00 0.00 0.02 0.02 0.04 0.07 0.11 0.08 0.02 0.13 0.46 0.70 0.26 0.12 0.09 0.08 0.16 0.18 0.15 0.16 0.19 0.33 0.52 0.46 0.38 0.18 0.02 0.01
0.23 0.04 0.02 0.00 0.00 0.00 0.00 0.00 0.00 0.00 0.00 0.01 0.00 0.00 0.00 0.00 0.00 0.00 0.00 0.00 0.03 0.06 0.05 0.05 0.03 0.04 0.11 0.31 0.54 0.24 0.07 0.08 0.10 0.14 0.36 0.27 0.18 0.11 0.10 0.20 0.26 0.31 0.23 0.05 0.00
0.23 0.05 0.01 0.00 0.00 0.00 0.00 0.00 0.00 0.00 0.03 0.01 0.00 0.00 0.00 0.03 0.01 0.00 0.00 0.00 0.01 0.03 0.08 0.19 0.08 0.07 0.13 0.15 0.46 0.47 0.10 0.07 0.12 0.09 0.16 0.24 0.05 0.02 0.04 0.05 0.09 0.13 0.18 0.07 0.01
0.09 0.02 0.00 0.00 0.00 0.00 0.00 0.00 0.00 0.01 0.01 0.00 0.00 0.00 0.06 0.12 0.01 0.00 0.00 0.00 0.01 0.04 0.13 0.20 0.12 0.25 0.20 0.23 0.56 0.50 0.18 0.14 0.22 0.22 0.25 0.12 0.05 0.00 0.01 0.01 0.03 0.02 0.17 0.04 0.01
0.06 0.00 0.00 0.00 0.00 0.00 0.00 0.00 0.01 0.01 0.01 0.01 0.02 0.03 0.10 0.19 0.04 0.00 0.00 0.00 0.03 0.18 0.44 0.50 0.64 0.39 0.24 0.45 0.76 0.99 0.46 0.60 0.77 0.50 0.12 0.00 0.03 0.00 0.00 0.00 0.01 0.01 0.06 0.07 0.00
0.03 0.01 0.00 0.00 0.00 0.00 0.00 0.00 0.00 0.01 0.00 0.00 0.01 0.03 0.11 0.20 0.11 0.00 0.00 0.00 0.03 0.18 0.58 0.71 0.46 0.24 0.13 0.38 0.79 0.86 0.43 0.31 0.24 0.11 0.03 0.01 0.01 0.00 0.00 0.00 0.00 0.00 0.00 0.05 0.00
0.04 0.01 0.00 0.00 0.00 0.00 0.00 0.00 0.01 0.01 0.02 0.01 0.02 0.04 0.08 0.24 0.24 0.08 0.00 0.00 0.00 0.03 0.23 0.13 0.21 0.08 0.05 0.17 0.68 0.75 0.20 0.16 0.01 0.01 0.01 0.01 0.00 0.00 0.00 0.00 0.00 0.00 0.00 0.00 0.00
0.02 0.01 0.00 0.00 0.00 0.00 0.00 0.00 0.00 0.01 0.01 0.03 0.07 0.05 0.12 0.28 0.29 0.31 0.06 0.00 0.00 0.00 0.02 0.07 0.13 0.07 0.09 0.13 0.37 0.54 0.14 0.15 0.04 0.02 0.03 0.00 0.00 0.00 0.00 0.00 0.00 0.00 0.00 0.00 0.00
0.00 0.00 0.00 0.00 0.00 0.00 0.00 0.00 0.00 0.01 0.02 0.06 0.03 0.05 0.11 0.24 0.20 0.44 0.24 0.04 0.00 0.00 0.00 0.03 0.09 0.18 0.18 0.11 0.14 0.25 0.10 0.06 0.03 0.01 0.02 0.00 0.00 0.00 0.00 0.00 0.00 0.00 0.00 0.00 0.00
0.00 0.01 0.01 0.00 0.00 0.00 0.00 0.00 0.00 0.01 0.03 0.04 0.05 0.14 0.14 0.13 0.14 0.50 0.54 0.15 0.01 0.00 0.00 0.04 0.11 0.15 0.16 0.04 0.04 0.05 0.01 0.04 0.06 0.02 0.02 0.02 0.00 0.00 0.00 0.00 0.00 0.00 0.00 0.00 0.00
0.00 0.01 0.02 0.00 0.00 0.00 0.00 0.00 0.00 0.01 0.03 0.06 0.10 0.13 0.16 0.10 0.13 0.15 0.56 0.15 0.01 0.00 0.21 0.14 0.13 0.21 0.18 0.06 0.04 0.05 0.00 0.01 0.01 0.01 0.03 0.14 0.01 0.00 0.00 0.00 0.00 0.00 0.00 0.00 0.00
0.00 0.01 0.01 0.00 0.00 0.00 0.00 0.00 0.00 0.00 0.02 0.05 0.07 0.10 0.10 0.04 0.02 0.07 0.65 0.16 0.02 0.07 0.06 0.09 0.12 0.15 0.10 0.02 0.00 0.00 0.00 0.00 0.00 0.01 0.04 0.08 0.02 0.00 0.00 0.00 0.00 0.00 0.00 0.00 0.00
0.00 0.00 0.00 0.00 0.00 0.00 0.00 0.00 0.00 0.00 0.01 0.01 0.06 0.19 0.39 0.16 0.04 0.04 0.48 0.39 0.17 0.14 0.03 0.06 0.19 0.03 0.00 0.00 0.00 0.00 0.00 0.00 0.00 0.00 0.06 0.02 0.00 0.00 0.00 0.00 0.00 0.00 0.00 0.00 0.00
0.00 0.00 0.00 0.00 0.00 0.00 0.00 0.00 0.00 0.00 0.00 0.00 0.06 0.06 0.21 0.20 0.22 0.10 0.11 0.37 0.34 0.09 0.11 0.02 0.01 0.00 0.00 0.00 0.00 0.00 0.00 0.00 0.00 0.00 0.01 0.01 0.00 0.00 0.00 0.00 0.00 0.00 0.00 0.00 0.00
0.00 0.00 0.00 0.00 0.00 0.00 0.00 0.00 0.00 0.00 0.00 0.00 0.01 0.04 0.10 0.06 0.06 0.01 0.00 0.01 0.08 0.13 0.04 0.00 0.00 0.02 0.03 0.00 0.00 0.00 0.00 0.00 0.00 0.00 0.00 0.00 0.00 0.00 0.00 0.00 0.00 0.00 0.00 0.00 0.00

GFSSW_prec_precacc24_111.txt.gz
Total_Precipitation_Accumulation
0.01 0.02 0.03 0.04 0.04 0.03 0.04 0.04 0.06 0.05 0.02 0.01 0.03 0.09 0.13 0.04 0.00 0.00 0.00 0.00 0.02 0.18 0.31 0.07 0.05 0.09 0.10 0.05 0.10 0.33 0.58 0.63 0.14 0.07 0.06 0.05 0.02 0.00 0.00 0.00 0.00 0.03 0.03 0.07 0.19
0.01 0.02 0.04 0.04 0.04 0.05 0.04 0.05 0.05 0.03 0.01 0.02 0.02 0.04 0.05 0.00 0.00 0.00 0.01 0.03 0.16 0.35 0.21 0.15 0.13 0.16 0.20 0.09 0.19 0.28 0.26 0.39 0.07 0.04 0.08 0.12 0.09 0.02 0.02 0.02 0.03 0.13 0.14 0.17 0.18
0.01 0.02 0.03 0.04 0.03 0.04 0.06 0.05 0.04 0.02 0.01 0.01 0.01 0.01 0.00 0.00 0.00 0.00 0.05 0.07 0.06 0.08 0.07 0.07 0.12 0.21 0.18 0.20 0.17 0.18 0.13 0.03 0.07 0.13 0.17 0.26 0.16 0.04 0.11 0.12 0.01 0.04 0.22 0.34 0.39
0.02 0.03 0.03 0.04 0.03 0.05 0.06 0.04 0.03 0.02 0.01 0.00 0.01 0.00 0.00 0.00 0.00 0.00 0.02 0.01 0.01 0.06 0.15 0.11 0.16 0.27 0.19 0.16 0.09 0.11 0.04 0.01 0.15 0.43 0.34 0.47 0.30 0.17 0.16 0.11 0.05 0.12 0.19 0.36 0.42
0.02 0.03 0.03 0.03 0.04 0.04 0.04 0.03 0.03 0.01 0.00 0.00 0.01 0.01 0.00 0.01 0.00 0.00 0.00 0.00 0.00 0.02 0.15 0.22 0.20 0.32 0.21 0.08 0.10 0.08 0.02 0.01 0.15 0.77 0.54 0.43 0.53 0.38 0.18 0.07 0.09 0.26 0.51 0.57 0.57
0.03 0.04 0.03 0.04 0.04 0.04 0.04 0.03 0.03 0.01 0.00 0.00 0.01 0.00 0.00 0.00 0.00 0.00 0.00 0.00 0.00 0.00 0.03 0.21 0.18 0.44 0.26 0.18 0.16 0.08 0.04 0.03 0.09 0.58 0.65 0.60 0.61 0.57 0.28 0.06 0.10 0.24 0.34 0.47 0.66
0.09 0.05 0.03 0.04 0.03 0.04 0.03 0.03 0.02 0.01 0.00 0.00 0.01 0.00 0.00 0.00 0.00 0.00 0.00 0.00 0.00 0.00 0.00 0.06 0.26 0.47 0.60 0.33 0.18 0.10 0.10 0.10 0.08 0.18 0.57 0.78 0.72 0.63 0.37 0.16 0.09 0.12 0.21 0.39 0.63
0.17 0.12 0.08 0.03 0.04 0.04 0.02 0.02 0.01 0.00 0.00 0.00 0.01 0.00 0.00 0.00 0.00 0.00 0.00 0.00 0.00 0.00 0.00 0.02 0.17 0.31 0.68 0.63 0.27 0.25 0.16 0.15 0.07 0.08 0.23 0.88 0.90 0.79 0.62 0.47 0.18 0.06 0.09 0.17 0.33
0.13 0.11 0.08 0.04 0.04 0.03 0.02 0.01 0.00 0.00 0.00 0.00 0.00 0.00 0.00 0.00 0.00 0.00 0.00 0.00 0.00 0.00 0.01 0.04 0.10 0.34 0.44 0.87 0.58 0.47 0.33 0.06 0.09 0.10 0.15 0.43 0.74 0.91 0.94 0.78 0.44 0.13 0.07 0.12 0.18
0.20 0.18 0.12 0.04 0.03 0.02 0.01 0.00 0.00 0.00 0.00 0.00 0.00 0.00 0.01 0.00 0.00 0.00 0.00 0.00 0.01 0.00 0.02 0.05 0.13 0.22 0.38 0.87 0.80 0.40 0.32 0.11 0.08 0.12 0.14 0.11 0.34 0.82 1.20 0.96 0.68 0.30 0.09 0.12 0.12
0.30 0.28 0.22 0.06 0.02 0.01 0.00 0.00 0.00 0.00 0.00 0.00 0.00 0.00 0.00 0.00 0.00 0.00 0.00 0.00 0.01 0.02 0.03 0.02 0.11 0.15 0.11 0.22 0.39 0.27 0.21 0.16 0.06 0.17 0.11 0.04 0.06 0.44 1.13 1.12 0.77 0.45 0.12 0.09 0.10
0.27 0.18 0.11 0.04 0.01 0.00 0.00 0.00 0.00 0.00 0.00 0.00 0.00 0.00 0.00 0.00 0.00 0.00 0.00 0.02 0.06 0.08 0.07 0.05 0.03 0.01 0.05 0.23 0.52 0.44 0.24 0.15 0.08 0.19 0.21 0.09 0.10 0.19 0.74 1.06 0.88 0.64 0.17 0.07 0.07
0.49 0.33 0.15 0.03 0.01 0.00 0.00 0.00 0.00 0.00 0.00 0.00 0.00 0.00 0.00 0.00 0.00 0.00 0.00 0.02 0.02 0.04 0.07 0.05 0.05 0.02 0.09 0.42 0.59 0.31 0.21 0.16 0.10 0.24 0.33 0.19 0.23 0.24 0.41 0.77 0.75 0.64 0.32 0.07 0.03
0.43 0.18 0.07 0.01 0.00 0.00 0.00 0.00 0.00 0.00 0.00 0.01 0.00 0.00 0.00 0.00 0.00 0.00 0.00 0.00 0.03 0.05 0.04 0.01 0.01 0.03 0.11 0.28 0.41 0.30 0.17 0.12 0.14 0.27 0.66 0.35 0.26 0.17 0.16 0.35 0.44 0.54 0.40 0.13 0.02
0.30 0.14 0.02 0.00 0.00 0.00 0.00 0.00 0.00 0.00 0.03 0.01 0.00 0.00 0.00 0.03 0.01 0.00 0.00 0.00 0.01 0.03 0.07 0.17 0.07 0.07 0.13 0.11 0.26 0.51 0.29 0.14 0.14 0.12 0.30 0.36 0.07 0.09 0.10 0.16 0.19 0.31 0.41 0.15 0.01
0.15 0.08 0.02 0.00 0.00 0.00 0.00 0.00 0.00 0.01 0.01 0.00 0.00 0.00 0.06 0.12 0.01 0.00 0.00 0.00 0.01 0.03 0.13 0.20 0.12 0.25 0.26 0.12 0.33 0.49 0.20 0.17 0.23 0.24 0.37 0.18 0.06 0.04 0.05 0.05 0.05 0.12 0.45 0.11 0.01
0.15 0.03 0.01 0.00 0.00 0.00 0.00 0.00 0.01 0.01 0.01 0.01 0.01 0.02 0.08 0.19 0.04 0.00 0.00 0.00 0.03 0.20 0.48 0.52 0.72 0.47 0.28 0.21 0.47 0.93 0.45 0.58 0.76 0.51 0.19 0.02 0.03 0.00 0.00 0.01 0.02 0.04 0.31 0.10 0.00
0.15 0.03 0.01 0.00 0.00 0.00 0.00 0.00 0.00 0.01 0.00 0.00 0.01 0.02 0.08 0.18 0.11 0.00 0.00 0.00 0.03 0.19 0.61 0.72 0.44 0.23 0.11 0.15 0.61 0.82 0.43 0.31 0.24 0.11 0.04 0.01 0.01 0.00 0.00 0.00 0.00 0.00 0.09 0.11 0.00
0.15 0.02 0.01 0.00 0.00 0.00 0.00 0.00 0.01 0.01 0.02 0.01 0.02 0.02 0.06 0.18 0.20 0.07 0.00 0.00 0.00 0.03 0.24 0.13 0.17 0.06 0.03 0.18 0.62 0.66 0.20 0.16 0.01 0.01 0.01 0.01 0.00 0.00 0.00 0.00 0.00 0.00 0.05 0.08 0.01
0.07 0.03 0.02 0.00 0.00 0.00 0.00 0.00 0.00 0.01 0.01 0.03 0.06 0.04 0.11 0.23 0.20 0.27 0.05 0.00 0.00 0.00 0.02 0.07 0.09 0.05 0.06 0.17 0.34 0.46 0.14 0.15 0.04 0.02 0.03 0.00 0.00 0.00 0.00 0.00 0.00 0.00 0.02 0.09 0.04
0.02 0.02 0.02 0.01 0.00 0.00 0.00 0.00 0.00 0.01 0.02 0.05 0.03 0.04 0.11 0.23 0.13 0.35 0.20 0.02 0.00 0.00 0.00 0.03 0.06 0.14 0.17 0.09 0.10 0.25 0.10 0.06 0.03 0.01 0.02 0.01 0.01 0.00 0.00 0.00 0.00 0.00 0.00 0.03 0.08
0.01 0.02 0.03 0.02 0.00 0.00 0.00 0.00 0.00 0.01 0.02 0.03 0.03 0.14 0.14 0.13 0.14 0.42 0.41 0.10 0.00 0.00 0.00 0.04 0.11 0.12 0.15 0.04 0.01 0.05 0.02 0.04 0.06 0.02 0.02 0.02 0.01 0.00 0.00 0.00 0.00 0.00 0.00 0.00 0.04
0.01 0.05 0.07 0.01 0.00 0.00 0.00 0.00 0.00 0.00 0.01 0.03 0.08 0.11 0.16 0.10 0.12 0.14 0.49 0.14 0.01 0.00 0.21 0.14 0.13 0.20 0.16 0.05 0.02 0.02 0.00 0.01 0.01 0.01 0.03 0.14 0.01 0.00 0.00 0.00 0.00 0.00 0.00 0.00 0.00
0.01 0.04 0.05 0.01 0.00 0.00 0.00 0.00 0.00 0.00 0.00 0.00 0.04 0.07 0.09 0.04 0.02 0.06 0.43 0.14 0.02 0.03 0.06 0.09 0.12 0.15 0.10 0.02 0.00 0.00 0.00 0.00 0.00 0.01 0.04 0.08 0.02 0.00 0.00 0.00 0.00 0.00 0.00 0.00 0.00
0.01 0.01 0.01 0.00 0.00 0.00 0.00 0.00 0.00 0.00 0.00 0.00 0.02 0.08 0.19 0.14 0.04 0.04 0.34 0.19 0.13 0.12 0.03 0.06 0.19 0.03 0.00 0.00 0.00 0.00 0.00 0.00 0.00 0.00 0.06 0.02 0.00 0.00 0.00 0.00 0.00 0.00 0.00 0.00 0.00
0.01 0.01 0.00 0.00 0.00 0.00 0.00 0.00 0.00 0.00 0.00 0.00 0.00 0.00 0.06 0.12 0.17 0.08 0.10 0.29 0.28 0.07 0.11 0.02 0.01 0.00 0.00 0.00 0.00 0.00 0.00 0.00 0.00 0.00 0.01 0.01 0.00 0.00 0.00 0.00 0.00 0.00 0.00 0.00 0.00
0.00 0.00 0.00 0.00 0.00 0.00 0.00 0.00 0.00 0.00 0.00 0.00 0.00 0.00 0.01 0.01 0.03 0.01 0.00 0.01 0.07 0.11 0.04 0.00 0.00 0.02 0.03 0.00 0.00 0.00 0.00 0.00 0.00 0.00 0.00 0.00 0.00 0.00 0.00 0.00 0.00 0.00 0.00 0.00 0.00

GFSSW_prec_precacc24_114.txt.gz
Total_Precipitation_Accumulation
0.01 0.02 0.02 0.03 0.03 0.03 0.04 0.04 0.05 0.04 0.03 0.01 0.01 0.03 0.02 0.02 0.00 0.00 0.00 0.00 0.02 0.18 0.30 0.06 0.04 0.08 0.09 0.04 0.08 0.33 0.54 0.62 0.14 0.07 0.06 0.05 0.02 0.00 0.00 0.00 0.00 0.03 0.04 0.07 0.20
0.01 0.02 0.03 0.04 0.03 0.04 0.04 0.05 0.05 0.03 0.02 0.02 0.02 0.01 0.01 0.00 0.00 0.00 0.01 0.03 0.16 0.34 0.20 0.14 0.10 0.13 0.17 0.09 0.17 0.27 0.25 0.39 0.07 0.04 0.08 0.12 0.09 0.02 0.02 0.02 0.03 0.13 0.14 0.17 0.20
0.02 0.03 0.03 0.03 0.03 0.03 0.05 0.05 0.04 0.03 0.02 0.01 0.01 0.01 0.00 0.00 0.00 0.00 0.02 0.03 0.06 0.07 0.04 0.06 0.10 0.15 0.14 0.19 0.17 0.18 0.13 0.03 0.07 0.13 0.17 0.26 0.16 0.04 0.12 0.13 0.01 0.04 0.22 0.35 0.47
0.05 0.04 0.03 0.03 0.03 0.04 0.05 0.04 0.04 0.03 0.01 0.00 0.01 0.00 0.00 0.00 0.00 0.00 0.00 0.00 0.00 0.03 0.07 0.08 0.16 0.22 0.15 0.14 0.09 0.11 0.04 0.01 0.15 0.43 0.34 0.47 0.31 0.18 0.17 0.11 0.05 0.12 0.19 0.36 0.47
0.07 0.09 0.07 0.05 0.04 0.03 0.04 0.04 0.04 0.02 0.00 0.00 0.01 0.00 0.00 0.01 0.00 0.00 0.00 0.00 0.00 0.02 0.11 0.14 0.16 0.28 0.16 0.07 0.10 0.07 0.01 0.01 0.15 0.78 0.54 0.43 0.54 0.38 0.19 0.07 0.09 0.26 0.51 0.57 0.58
0.10 0.16 0.17 0.12 0.05 0.03 0.04 0.03 0.04 0.02 0.00 0.00 0.01 0.00 0.00 0.00 0.00 0.00 0.00 0.00 0.00 0.00 0.03 0.16 0.15 0.42 0.20 0.16 0.16 0.08 0.04 0.02 0.09 0.58 0.65 0.60 0.61 0.57 0.28 0.08 0.11 0.27 0.35 0.47 0.66
0.20 0.18 0.10 0.07 0.04 0.03 0.03 0.03 0.03 0.01 0.00 0.00 0.01 0.00 0.00 0.00 0.00 0.00 0.00 0.00 0.00 0.00 0.00 0.05 0.22 0.43 0.51 0.27 0.18 0.10 0.11 0.06 0.07 0.18 0.57 0.80 0.73 0.64 0.37 0.16 0.10 0.15 0.22 0.39 0.63
0.28 0.30 0.21 0.19 0.07 0.04 0.02 0.02 0.02 0.00 0.00 0.01 0.01 0.00 0.00 0.00 0.00 0.00 0.00 0.00 0.00 0.00 0.00 0.02 0.16 0.32 0.65 0.50 0.27 0.23 0.15 0.13 0.06 0.07 0.23 0.91 0.91 0.79 0.62 0.47 0.18 0.08 0.09 0.17 0.33
0.17 0.25 0.20 0.16 0.06 0.03 0.02 0.01 0.01 0.00 0.00 0.00 0.00 0.00 0.00 0.00 0.00 0.00 0.00 0.00 0.00 0.00 0.01 0.04 0.08 0.31 0.43 0.63 0.52 0.45 0.32 0.06 0.07 0.08 0.15 0.45 0.75 0.91 0.94 0.78 0.45 0.14 0.07 0.12 0.18
0.21 0.24 0.20 0.15 0.06 0.02 0.01 0.00 0.00 0.00 0.00 0.00 0.00 0.00 0.01 0.00 0.00 0.00 0.00 0.00 0.01 0.00 0.02 0.03 0.09 0.18 0.35 0.64 0.65 0.40 0.32 0.11 0.08 0.14 0.16 0.14 0.35 0.84 1.21 0.96 0.68 0.30 0.10 0.12 0.12
0.33 0.35 0.27 0.14 0.04 0.01 0.00 0.00 0.00 0.00 0.00 0.00 0.00 0.00 0.00 0.00 0.00 0.00 0.00 0.00 0.01 0.02 0.03 0.01 0.08 0.09 0.09 0.17 0.35 0.28 0.22 0.16 0.06 0.16 0.14 0.06 0.06 0.45 1.15 1.13 0.77 0.46 0.13 0.09 0.10
0.31 0.25 0.15 0.09 0.02 0.01 0.00 0.00 0.00 0.00 0.00 0.00 0.00 0.00 0.00 0.00 0.00 0.00 0.00 0.02 0.06 0.07 0.07 0.04 0.03 0.01 0.05 0.17 0.44 0.44 0.25 0.16 0.08 0.18 0.22 0.10 0.10 0.19 0.75 1.06 0.88 0.65 0.18 0.07 0.07
0.56 0.44 0.26 0.05 0.01 0.00 0.00 0.00 0.00 0.00 0.00 0.00 0.00 0.00 0.00 0.00 0.00 0.00 0.00 0.01 0.02 0.03 0.06 0.04 0.05 0.01 0.07 0.34 0.44 0.31 0.25 0.17 0.12 0.29 0.36 0.19 0.27 0.29 0.42 0.77 0.76 0.66 0.33 0.08 0.03
0.59 0.36 0.14 0.03 0.00 0.00 0.00 0.00 0.00 0.00 0.00 0.01 0.00 0.00 0.00 0.00 0.00 0.00 0.00 0.00 0.02 0.04 0.03 0.01 0.01 0.03 0.09 0.26 0.34 0.35 0.22 0.15 0.22 0.64 0.83 0.38 0.36 0.37 0.19 0.36 0.45 0.54 0.41 0.14 0.02
0.39 0.18 0.03 0.01 0.00 0.00 0.00 0.00 0.00 0.00 0.03 0.01 0.00 0.00 0.00 0.03 0.01 0.00 0.00 0.00 0.01 0.02 0.06 0.16 0.05 0.05 0.12 0.13 0.30 0.58 0.48 0.20 0.25 0.45 0.55 0.42 0.14 0.28 0.13 0.16 0.21 0.33 0.43 0.20 0.03
0.36 0.21 0.02 0.00 0.00 0.00 0.00 0.00 0.00 0.01 0.01 0.00 0.00 0.00 0.06 0.12 0.01 0.00 0.00 0.00 0.01 0.02 0.12 0.20 0.10 0.23 0.27 0.13 0.34 0.45 0.33 0.21 0.35 0.49 0.57 0.24 0.08 0.14 0.07 0.06 0.09 0.13 0.51 0.23 0.05
0.22 0.09 0.01 0.00 0.00 0.00 0.00 0.00 0.01 0.01 0.01 0.01 0.01 0.01 0.07 0.18 0.04 0.00 0.00 0.00 0.03 0.19 0.47 0.52 0.72 0.46 0.29 0.21 0.35 0.68 0.40 0.54 0.75 0.60 0.39 0.05 0.04 0.01 0.00 0.02 0.04 0.05 0.46 0.31 0.08
0.31 0.16 0.02 0.00 0.00 0.00 0.00 0.00 0.00 0.01 0.00 0.00 0.01 0.01 0.06 0.15 0.10 0.00 0.00 0.00 0.03 0.19 0.60 0.71 0.44 0.25 0.18 0.20 0.40 0.67 0.36 0.31 0.25 0.18 0.13 0.03 0.03 0.00 0.00 0.00 0.00 0.03 0.34 0.39 0.12
0.33 0.06 0.01 0.00 0.00 0.00 0.00 0.00 0.01 0.01 0.02 0.01 0.02 0.01 0.05 0.14 0.14 0.06 0.00 0.00 0.00 0.03 0.24 0.12 0.16 0.09 0.16 0.20 0.32 0.52 0.24 0.18 0.02 0.01 0.03 0.04 0.00 0.00 0.00 0.00 0.00 0.04 0.33 0.41 0.13
0.24 0.05 0.03 0.01 0.01 0.00 0.00 0.00 0.00 0.01 0.01 0.03 0.04 0.02 0.09 0.19 0.09 0.18 0.03 0.00 0.00 0.00 0.02 0.04 0.07 0.04 0.04 0.09 0.16 0.29 0.20 0.17 0.04 0.02 0.06 0.02 0.02 0.01 0.00 0.00 0.00 0.05 0.33 0.42 0.13
0.16 0.05 0.05 0.04 0.01 0.00 0.00 0.00 0.00 0.01 0.01 0.03 0.01 0.02 0.07 0.20 0.11 0.22 0.08 0.01 0.00 0.00 0.00 0.00 0.03 0.08 0.04 0.03 0.12 0.18 0.09 0.06 0.03 0.01 0.02 0.02 0.08 0.00 0.00 0.00 0.00 0.02 0.23 0.41 0.16
0.07 0.06 0.08 0.03 0.02 0.00 0.00 0.00 0.00 0.01 0.00 0.02 0.02 0.07 0.08 0.11 0.13 0.31 0.18 0.02 0.00 0.00 0.00 0.04 0.06 0.09 0.11 0.04 0.01 0.01 0.01 0.04 0.06 0.02 0.02 0.03 0.07 0.00 0.00 0.00 0.00 0.00 0.08 0.31 0.23
0.10 0.13 0.16 0.04 0.00 0.00 0.00 0.00 0.00 0.00 0.00 0.00 0.04 0.05 0.03 0.04 0.12 0.11 0.30 0.05 0.00 0.00 0.21 0.14 0.12 0.17 0.13 0.05 0.02 0.01 0.00 0.01 0.01 0.01 0.03 0.15 0.04 0.00 0.00 0.00 0.00 0.00 0.00 0.08 0.13
0.05 0.11 0.14 0.05 0.00 0.00 0.00 0.00 0.00 0.00 0.00 0.00 0.00 0.00 0.00 0.01 0.01 0.06 0.22 0.08 0.01 0.02 0.05 0.09 0.12 0.15 0.10 0.02 0.00 0.00 0.00 0.00 0.00 0.01 0.04 0.08 0.02 0.00 0.00 0.00 0.00 0.00 0.00 0.00 0.01
0.02 0.01 0.04 0.02 0.00 0.00 0.00 0.00 0.00 0.00 0.00 0.00 0.00 0.00 0.00 0.00 0.00 0.02 0.13 0.09 0.04 0.01 0.01 0.05 0.19 0.04 0.00 0.00 0.00 0.00 0.00 0.00 0.00 0.00 0.06 0.02 0.00 0.00 0.00 0.00 0.00 0.00 0.00 0.00 0.00
0.01 0.01 0.01 0.00 0.00 0.00 0.00 0.00 0.00 0.00 0.00 0.00 0.00 0.00 0.00 0.00 0.00 0.00 0.03 0.07 0.12 0.03 0.04 0.00 0.01 0.00 0.00 0.00 0.00 0.00 0.00 0.00 0.00 0.00 0.01 0.01 0.00 0.00 0.00 0.00 0.00 0.00 0.00 0.00 0.00
0.00 0.00 0.00 0.00 0.00 0.00 0.00 0.00 0.00 0.00 0.00 0.00 0.00 0.00 0.00 0.00 0.00 0.00 0.00 0.00 0.04 0.05 0.03 0.00 0.00 0.02 0.03 0.00 0.00 0.00 0.00 0.00 0.00 0.00 0.00 0.00 0.00 0.00 0.00 0.00 0.00 0.00 0.00 0.00 0.00

GFSSW_prec_precacc24_117.txt.gz
Total_Precipitation_Accumulation
0.01 0.02 0.02 0.03 0.03 0.03 0.04 0.05 0.04 0.04 0.04 0.01 0.01 0.03 0.02 0.01 0.00 0.00 0.00 0.00 0.02 0.17 0.28 0.06 0.04 0.08 0.07 0.03 0.07 0.27 0.48 0.61 0.14 0.07 0.06 0.05 0.02 0.00 0.00 0.00 0.00 0.03 0.04 0.07 0.20
0.04 0.02 0.03 0.03 0.03 0.04 0.04 0.04 0.04 0.04 0.03 0.02 0.02 0.01 0.01 0.00 0.00 0.00 0.01 0.03 0.16 0.34 0.18 0.14 0.10 0.10 0.14 0.08 0.15 0.24 0.22 0.38 0.07 0.04 0.08 0.12 0.09 0.02 0.02 0.02 0.03 0.13 0.15 0.17 0.21
0.05 0.05 0.08 0.06 0.03 0.03 0.04 0.04 0.04 0.03 0.02 0.01 0.01 0.01 0.00 0.00 0.00 0.00 0.00 0.02 0.05 0.07 0.02 0.04 0.09 0.11 0.09 0.17 0.15 0.17 0.13 0.03 0.07 0.13 0.17 0.26 0.16 0.04 0.13 0.13 0.01 0.04 0.22 0.35 0.47
0.08 0.12 0.11 0.06 0.04 0.03 0.04 0.04 0.04 0.03 0.00 0.00 0.01 0.00 0.00 0.00 0.00 0.00 0.00 0.00 0.00 0.00 0.01 0.06 0.14 0.18 0.10 0.10 0.09 0.11 0.04 0.01 0.15 0.42 0.33 0.47 0.31 0.18 0.17 0.12 0.05 0.12 0.19 0.36 0.47
0.09 0.15 0.13 0.08 0.07 0.04 0.04 0.04 0.04 0.03 0.00 0.00 0.01 0.00 0.00 0.01 0.00 0.00 0.00 0.00 0.00 0.00 0.03 0.12 0.14 0.24 0.12 0.05 0.09 0.07 0.01 0.01 0.15 0.77 0.53 0.43 0.54 0.38 0.19 0.07 0.09 0.26 0.51 0.57 0.58
0.10 0.18 0.22 0.18 0.11 0.06 0.04 0.03 0.04 0.03 0.00 0.00 0.01 0.00 0.00 0.00 0.00 0.00 0.00 0.00 0.00 0.00 0.01 0.08 0.11 0.39 0.17 0.14 0.15 0.08 0.04 0.02 0.09 0.58 0.65 0.60 0.61 0.57 0.28 0.08 0.11 0.27 0.35 0.47 0.67
0.20 0.25 0.18 0.12 0.07 0.04 0.03 0.03 0.03 0.02 0.00 0.00 0.01 0.00 0.00 0.00 0.00 0.00 0.00 0.00 0.00 0.00 0.00 0.02 0.08 0.40 0.50 0.24 0.18 0.10 0.11 0.06 0.06 0.18 0.57 0.81 0.74 0.64 0.37 0.16 0.10 0.15 0.22 0.39 0.63
0.28 0.37 0.32 0.26 0.10 0.04 0.03 0.03 0.02 0.00 0.00 0.01 0.01 0.00 0.00 0.00 0.00 0.00 0.00 0.00 0.00 0.00 0.00 0.02 0.05 0.19 0.58 0.48 0.26 0.23 0.14 0.13 0.05 0.07 0.23 0.92 0.92 0.79 0.62 0.47 0.18 0.08 0.09 0.17 0.33
0.17 0.26 0.27 0.21 0.09 0.03 0.02 0.01 0.01 0.00 0.00 0.01 0.00 0.00 0.00 0.00 0.00 0.00 0.00 0.00 0.00 0.00 0.01 0.04 0.05 0.15 0.31 0.60 0.46 0.41 0.30 0.06 0.07 0.08 0.15 0.48 0.76 0.91 0.94 0.78 0.45 0.14 0.07 0.12 0.18
0.21 0.24 0.23 0.18 0.09 0.03 0.01 0.00 0.00 0.00 0.00 0.00 0.00 0.00 0.01 0.00 0.00 0.00 0.00 0.00 0.00 0.00 0.01 0.02 0.05 0.12 0.26 0.58 0.53 0.38 0.34 0.12 0.09 0.14 0.21 0.20 0.37 0.84 1.22 0.96 0.68 0.30 0.10 0.12 0.12
0.33 0.36 0.31 0.17 0.06 0.02 0.00 0.00 0.00 0.00 0.00 0.00 0.00 0.00 0.00 0.00 0.00 0.00 0.00 0.00 0.00 0.01 0.02 0.01 0.03 0.06 0.08 0.17 0.31 0.28 0.24 0.17 0.06 0.16 0.13 0.08 0.09 0.46 1.17 1.16 0.78 0.47 0.15 0.09 0.10
0.31 0.26 0.22 0.17 0.07 0.02 0.00 0.00 0.00 0.00 0.00 0.00 0.00 0.00 0.00 0.00 0.00 0.00 0.00 0.01 0.04 0.04 0.05 0.02 0.01 0.00 0.04 0.12 0.34 0.41 0.26 0.16 0.08 0.18 0.22 0.10 0.11 0.19 0.76 1.08 0.91 0.67 0.20 0.07 0.07
0.63 0.51 0.34 0.18 0.10 0.04 0.00 0.00 0.00 0.00 0.00 0.00 0.00 0.00 0.00 0.00 0.00 0.00 0.00 0.01 0.01 0.01 0.03 0.02 0.03 0.01 0.05 0.24 0.32 0.29 0.26 0.17 0.13 0.30 0.38 0.20 0.27 0.29 0.42 0.77 0.78 0.67 0.33 0.08 0.03
0.75 0.59 0.28 0.15 0.07 0.01 0.00 0.00 0.00 0.00 0.01 0.01 0.00 0.00 0.00 0.00 0.00 0.00 0.00 0.00 0.01 0.03 0.01 0.00 0.00 0.02 0.07 0.23 0.35 0.40 0.26 0.25 0.28 0.75 0.90 0.39 0.41 0.37 0.19 0.36 0.45 0.54 0.41 0.14 0.02
0.41 0.41 0.17 0.03 0.00 0.00 0.00 0.00 0.00 0.00 0.02 0.01 0.00 0.00 0.00 0.03 0.01 0.00 0.00 0.00 0.00 0.02 0.03 0.09 0.04 0.05 0.11 0.13 0.40 0.58 0.53 0.25 0.33 0.68 0.64 0.45 0.46 0.37 0.14 0.16 0.21 0.33 0.44 0.20 0.03
0.38 0.37 0.09 0.02 0.00 0.00 0.00 0.00 0.00 0.01 0.01 0.00 0.00 0.00 0.05 0.09 0.01 0.00 0.00 0.00 0.01 0.02 0.10 0.16 0.07 0.20 0.24 0.12 0.36 0.43 0.39 0.31 0.64 0.92 0.68 0.28 0.31 0.45 0.26 0.11 0.13 0.16 0.52 0.23 0.06
0.24 0.36 0.15 0.00 0.00 0.00 0.00 0.00 0.01 0.01 0.01 0.01 0.01 0.00 0.05 0.11 0.02 0.00 0.00 0.00 0.03 0.18 0.45 0.51 0.63 0.42 0.24 0.16 0.29 0.56 0.35 0.54 0.97 0.83 0.54 0.13 0.19 0.14 0.08 0.08 0.11 0.09 0.47 0.32 0.08
0.33 0.25 0.10 0.00 0.00 0.00 0.00 0.00 0.00 0.00 0.00 0.00 0.00 0.00 0.04 0.07 0.04 0.00 0.00 0.00 0.03 0.19 0.60 0.71 0.43 0.23 0.18 0.22 0.34 0.56 0.32 0.32 0.41 0.37 0.26 0.05 0.07 0.11 0.04 0.01 0.01 0.04 0.34 0.40 0.13
0.56 0.12 0.07 0.01 0.00 0.00 0.00 0.00 0.00 0.00 0.01 0.00 0.00 0.00 0.03 0.11 0.06 0.04 0.00 0.00 0.00 0.03 0.23 0.11 0.14 0.08 0.16 0.20 0.27 0.36 0.24 0.19 0.07 0.07 0.10 0.15 0.09 0.06 0.01 0.01 0.01 0.06 0.39 0.47 0.15
0.44 0.11 0.05 0.02 0.01 0.00 0.00 0.00 0.00 0.01 0.00 0.00 0.00 0.00 0.02 0.10 0.07 0.07 0.01 0.00 0.00 0.00 0.02 0.02 0.06 0.02 0.03 0.08 0.14 0.19 0.19 0.17 0.03 0.07 0.16 0.10 0.08 0.11 0.01 0.01 0.08 0.18 0.45 0.51 0.18
0.30 0.14 0.06 0.04 0.01 0.00 0.00 0.00 0.00 0.00 0.00 0.01 0.00 0.01 0.01 0.07 0.10 0.09 0.02 0.00 0.00 0.00 0.00 0.00 0.02 0.04 0.03 0.11 0.18 0.15 0.06 0.05 0.02 0.01 0.06 0.06 0.21 0.07 0.01 0.01 0.06 0.15 0.41 0.65 0.31
0.16 0.20 0.10 0.04 0.02 0.00 0.00 0.00 0.00 0.00 0.00 0.00 0.00 0.01 0.00 0.02 0.12 0.14 0.01 0.01 0.00 0.00 0.01 0.02 0.03 0.03 0.04 0.02 0.01 0.01 0.00 0.03 0.04 0.01 0.02 0.04 0.16 0.01 0.00 0.00 0.04 0.10 0.27 0.60 0.42
0.16 0.23 0.23 0.05 0.01 0.00 0.00 0.00 0.00 0.00 0.00 0.00 0.00 0.00 0.00 0.00 0.10 0.05 0.01 0.00 0.00 0.00 0.21 0.12 0.06 0.10 0.08 0.04 0.02 0.00 0.00 0.00 0.00 0.01 0.02 0.16 0.11 0.00 0.00 0.00 0.02 0.08 0.20 0.41 0.38
0.10 0.19 0.20 0.08 0.00 0.00 0.00 0.00 0.00 0.00 0.00 0.00 0.00 0.00 0.00 0.00 0.01 0.03 0.02 0.00 0.01 0.02 0.04 0.07 0.07 0.12 0.10 0.03 0.01 0.00 0.00 0.00 0.00 0.01 0.04 0.10 0.05 0.00 0.00 0.00 0.00 0.00 0.02 0.08 0.16
0.04 0.02 0.04 0.02 0.00 0.00 0.00 0.00 0.00 0.00 0.00 0.00 0.00 0.00 0.00 0.00 0.00 0.00 0.01 0.00 0.00 0.01 0.00 0.04 0.17 0.04 0.00 0.00 0.00 0.00 0.00 0.00 0.00 0.00 0.07 0.03 0.00 0.00 0.00 0.00 0.00 0.00 0.00 0.00 0.01
0.01 0.02 0.01 0.00 0.00 0.00 0.00 0.00 0.00 0.00 0.00 0.00 0.00 0.00 0.00 0.00 0.00 0.00 0.00 0.01 0.01 0.00 0.00 0.00 0.01 0.00 0.00 0.00 0.00 0.00 0.00 0.00 0.00 0.00 0.02 0.01 0.00 0.00 0.00 0.00 0.00 0.00 0.00 0.00 0.00
0.00 0.00 0.00 0.00 0.00 0.00 0.00 0.00 0.00 0.00 0.00 0.00 0.00 0.00 0.00 0.00 0.00 0.00 0.00 0.00 0.00 0.01 0.01 0.00 0.00 0.02 0.02 0.00 0.00 0.00 0.00 0.00 0.00 0.00 0.00 0.00 0.00 0.00 0.00 0.00 0.00 0.00 0.00 0.00 0.00

GFSSW_prec_precacc24_120.txt.gz
Total_Precipitation_Accumulation
0.03 0.03 0.03 0.03 0.03 0.03 0.04 0.04 0.04 0.04 0.04 0.02 0.01 0.02 0.02 0.01 0.00 0.00 0.00 0.00 0.01 0.11 0.22 0.06 0.04 0.08 0.05 0.02 0.06 0.20 0.37 0.56 0.14 0.07 0.06 0.05 0.02 0.00 0.00 0.00 0.00 0.03 0.04 0.07 0.20
0.07 0.06 0.05 0.04 0.03 0.03 0.03 0.03 0.04 0.04 0.03 0.02 0.01 0.01 0.01 0.00 0.00 0.00 0.01 0.03 0.16 0.34 0.16 0.12 0.09 0.09 0.09 0.06 0.11 0.19 0.13 0.36 0.07 0.04 0.07 0.12 0.09 0.02 0.02 0.02 0.03 0.13 0.15 0.17 0.20
0.07 0.09 0.12 0.10 0.05 0.04 0.04 0.04 0.04 0.04 0.02 0.01 0.01 0.01 0.00 0.00 0.00 0.00 0.00 0.02 0.06 0.07 0.02 0.02 0.06 0.10 0.06 0.11 0.12 0.16 0.12 0.03 0.07 0.12 0.16 0.24 0.15 0.04 0.13 0.13 0.01 0.04 0.22 0.35 0.45
0.09 0.13 0.15 0.13 0.06 0.03 0.03 0.03 0.04 0.04 0.01 0.00 0.01 0.00 0.00 0.00 0.00 0.00 0.00 0.00 0.00 0.00 0.00 0.03 0.08 0.16 0.09 0.06 0.07 0.11 0.04 0.01 0.13 0.37 0.30 0.45 0.27 0.16 0.17 0.12 0.05 0.12 0.19 0.36 0.47
0.09 0.15 0.15 0.14 0.10 0.06 0.05 0.04 0.04 0.03 0.01 0.00 0.01 0.00 0.00 0.00 0.00 0.00 0.00 0.00 0.00 0.00 0.00 0.04 0.09 0.21 0.10 0.04 0.06 0.07 0.01 0.01 0.13 0.70 0.51 0.42 0.52 0.37 0.18 0.06 0.09 0.26 0.51 0.57 0.58
0.10 0.18 0.22 0.19 0.12 0.07 0.05 0.04 0.04 0.04 0.01 0.00 0.01 0.00 0.00 0.00 0.00 0.00 0.00 0.00 0.00 0.00 0.00 0.03 0.09 0.30 0.15 0.13 0.11 0.08 0.04 0.02 0.08 0.56 0.63 0.59 0.60 0.56 0.27 0.07 0.11 0.27 0.35 0.47 0.67
0.20 0.25 0.20 0.21 0.17 0.09 0.05 0.04 0.03 0.02 0.01 0.00 0.01 0.00 0.00 0.00 0.00 0.00 0.00 0.00 0.00 0.00 0.00 0.01 0.06 0.26 0.35 0.23 0.17 0.09 0.11 0.05 0.06 0.17 0.53 0.78 0.72 0.60 0.37 0.16 0.10 0.15 0.22 0.39 0.63
0.28 0.37 0.33 0.31 0.22 0.18 0.08 0.04 0.03 0.01 0.00 0.01 0.02 0.00 0.00 0.00 0.00 0.00 0.00 0.00 0.00 0.00 0.00 0.02 0.03 0.12 0.40 0.43 0.25 0.18 0.14 0.12 0.05 0.06 0.21 0.88 0.88 0.78 0.61 0.46 0.18 0.08 0.09 0.17 0.33
0.17 0.25 0.27 0.25 0.17 0.11 0.08 0.04 0.02 0.00 0.00 0.01 0.00 0.00 0.00 0.00 0.00 0.00 0.00 0.00 0.00 0.00 0.01 0.04 0.02 0.03 0.21 0.55 0.41 0.33 0.28 0.06 0.07 0.08 0.15 0.48 0.76 0.91 0.94 0.78 0.45 0.14 0.07 0.12 0.18
0.21 0.24 0.23 0.21 0.16 0.09 0.06 0.04 0.01 0.00 0.00 0.00 0.00 0.00 0.00 0.00 0.00 0.00 0.00 0.00 0.00 0.00 0.01 0.01 0.02 0.03 0.09 0.49 0.44 0.32 0.33 0.12 0.09 0.14 0.21 0.22 0.38 0.84 1.22 0.97 0.68 0.30 0.10 0.12 0.12
0.33 0.36 0.30 0.19 0.13 0.07 0.04 0.03 0.00 0.00 0.01 0.01 0.00 0.00 0.00 0.00 0.00 0.00 0.00 0.00 0.00 0.00 0.01 0.02 0.03 0.02 0.03 0.13 0.28 0.24 0.23 0.17 0.06 0.16 0.13 0.08 0.09 0.46 1.17 1.16 0.78 0.47 0.15 0.09 0.10
0.31 0.26 0.22 0.22 0.19 0.11 0.03 0.01 0.00 0.00 0.00 0.00 0.00 0.00 0.00 0.00 0.00 0.00 0.00 0.00 0.00 0.01 0.01 0.02 0.02 0.00 0.02 0.08 0.28 0.34 0.23 0.16 0.08 0.17 0.22 0.09 0.10 0.19 0.76 1.08 0.94 0.70 0.21 0.08 0.07
0.64 0.75 0.39 0.21 0.21 0.18 0.09 0.03 0.00 0.00 0.00 0.00 0.00 0.00 0.00 0.00 0.00 0.00 0.00 0.00 0.00 0.00 0.01 0.01 0.01 0.00 0.03 0.20 0.24 0.26 0.25 0.17 0.12 0.28 0.36 0.20 0.25 0.29 0.42 0.77 0.81 0.77 0.35 0.08 0.03
0.75 0.90 0.49 0.20 0.22 0.11 0.07 0.01 0.00 0.00 0.01 0.00 0.00 0.00 0.00 0.00 0.00 0.00 0.00 0.00 0.00 0.01 0.00 0.00 0.00 0.01 0.05 0.18 0.35 0.39 0.26 0.26 0.29 0.80 0.82 0.40 0.45 0.38 0.19 0.36 0.45 0.57 0.43 0.15 0.04
0.42 0.48 0.49 0.24 0.08 0.06 0.01 0.00 0.00 0.00 0.01 0.00 0.00 0.00 0.00 0.01 0.00 0.00 0.00 0.00 0.00 0.00 0.02 0.02 0.03 0.04 0.09 0.10 0.42 0.60 0.52 0.27 0.34 0.73 0.70 0.47 0.64 0.43 0.15 0.17 0.21 0.34 0.44 0.21 0.04
0.38 0.39 0.29 0.15 0.01 0.00 0.00 0.00 0.00 0.00 0.00 0.00 0.00 0.00 0.02 0.02 0.00 0.00 0.00 0.00 0.00 0.02 0.05 0.06 0.06 0.16 0.21 0.10 0.35 0.43 0.40 0.37 0.64 0.91 0.67 0.31 0.43 0.69 0.37 0.17 0.16 0.18 0.55 0.28 0.08
0.25 0.43 0.31 0.04 0.01 0.00 0.00 0.00 0.00 0.01 0.00 0.00 0.00 0.00 0.01 0.02 0.00 0.00 0.00 0.00 0.03 0.16 0.39 0.40 0.61 0.40 0.23 0.16 0.26 0.52 0.41 0.67 0.97 0.78 0.58 0.45 0.43 0.37 0.26 0.34 0.44 0.17 0.48 0.32 0.08
0.34 0.29 0.31 0.05 0.00 0.00 0.00 0.00 0.00 0.00 0.00 0.00 0.00 0.00 0.01 0.03 0.02 0.00 0.00 0.00 0.03 0.18 0.56 0.66 0.43 0.22 0.15 0.20 0.33 0.51 0.36 0.47 0.54 0.44 0.29 0.14 0.20 0.40 0.30 0.19 0.15 0.07 0.37 0.42 0.13
0.58 0.13 0.11 0.03 0.00 0.00 0.00 0.00 0.00 0.00 0.00 0.00 0.00 0.00 0.01 0.03 0.04 0.00 0.00 0.00 0.00 0.03 0.20 0.08 0.13 0.07 0.14 0.19 0.26 0.31 0.25 0.27 0.21 0.12 0.13 0.28 0.25 0.33 0.41 0.47 0.20 0.19 0.43 0.47 0.15
0.54 0.18 0.07 0.05 0.02 0.00 0.00 0.00 0.00 0.00 0.00 0.00 0.00 0.00 0.00 0.02 0.04 0.00 0.00 0.00 0.00 0.01 0.01 0.02 0.05 0.02 0.03 0.09 0.14 0.16 0.18 0.14 0.12 0.19 0.30 0.24 0.21 0.47 0.34 0.31 0.31 0.28 0.48 0.51 0.19
0.38 0.22 0.10 0.04 0.01 0.00 0.00 0.00 0.00 0.00 0.00 0.00 0.00 0.00 0.00 0.02 0.07 0.02 0.00 0.00 0.00 0.00 0.00 0.00 0.04 0.05 0.05 0.14 0.19 0.14 0.06 0.04 0.03 0.02 0.13 0.11 0.44 0.47 0.26 0.24 0.26 0.30 0.50 0.72 0.40
0.22 0.27 0.13 0.04 0.03 0.01 0.00 0.00 0.00 0.00 0.00 0.00 0.00 0.00 0.00 0.01 0.08 0.02 0.00 0.00 0.00 0.00 0.00 0.00 0.02 0.03 0.03 0.01 0.01 0.01 0.01 0.01 0.04 0.02 0.02 0.07 0.38 0.15 0.18 0.27 0.28 0.27 0.43 0.82 0.54
0.18 0.30 0.27 0.05 0.02 0.00 0.00 0.00 0.00 0.00 0.00 0.00 0.00 0.00 0.00 0.00 0.06 0.00 0.00 0.00 0.00 0.01 0.13 0.04 0.04 0.05 0.05 0.03 0.01 0.00 0.00 0.00 0.00 0.00 0.02 0.17 0.26 0.02 0.03 0.07 0.18 0.25 0.43 0.74 0.74
0.11 0.24 0.26 0.10 0.00 0.00 0.00 0.00 0.00 0.00 0.00 0.00 0.00 0.00 0.00 0.00 0.00 0.00 0.00 0.00 0.01 0.01 0.03 0.03 0.03 0.08 0.08 0.08 0.02 0.00 0.00 0.00 0.00 0.00 0.05 0.13 0.08 0.00 0.00 0.00 0.01 0.03 0.18 0.43 0.47
0.05 0.03 0.05 0.03 0.01 0.00 0.00 0.00 0.00 0.00 0.00 0.00 0.00 0.00 0.00 0.00 0.00 0.00 0.00 0.00 0.00 0.00 0.00 0.04 0.10 0.01 0.00 0.00 0.00 0.00 0.00 0.00 0.00 0.00 0.08 0.05 0.01 0.00 0.00 0.00 0.00 0.00 0.02 0.07 0.14
0.01 0.02 0.01 0.00 0.00 0.00 0.00 0.00 0.00 0.00 0.00 0.00 0.00 0.00 0.00 0.00 0.00 0.00 0.00 0.00 0.00 0.00 0.00 0.00 0.00 0.00 0.00 0.00 0.00 0.00 0.00 0.00 0.00 0.02 0.02 0.01 0.00 0.00 0.00 0.00 0.00 0.00 0.00 0.00 0.01
0.00 0.00 0.00 0.00 0.00 0.00 0.00 0.00 0.00 0.00 0.00 0.00 0.00 0.00 0.00 0.00 0.00 0.00 0.00 0.00 0.00 0.00 0.00 0.00 0.00 0.01 0.01 0.00 0.00 0.00 0.00 0.00 0.00 0.01 0.00 0.00 0.00 0.00 0.00 0.00 0.00 0.00 0.00 0.00 0.00

GFSSW_prec_precacc24_123.txt.gz
Total_Precipitation_Accumulation
0.03 0.05 0.06 0.04 0.03 0.03 0.03 0.03 0.03 0.04 0.04 0.02 0.01 0.02 0.01 0.01 0.00 0.00 0.00 0.00 0.01 0.06 0.12 0.02 0.03 0.07 0.05 0.01 0.05 0.16 0.21 0.21 0.14 0.07 0.06 0.03 0.02 0.00 0.00 0.00 0.00 0.03 0.03 0.07 0.19
0.07 0.07 0.09 0.11 0.09 0.04 0.03 0.02 0.03 0.04 0.03 0.01 0.01 0.01 0.01 0.00 0.00 0.00 0.00 0.02 0.16 0.34 0.13 0.04 0.06 0.06 0.09 0.05 0.07 0.14 0.11 0.12 0.03 0.04 0.06 0.08 0.08 0.02 0.02 0.02 0.03 0.13 0.11 0.16 0.20
0.08 0.09 0.12 0.13 0.10 0.07 0.04 0.03 0.04 0.04 0.02 0.00 0.01 0.01 0.00 0.00 0.00 0.00 0.00 0.02 0.06 0.07 0.02 0.01 0.04 0.05 0.06 0.09 0.08 0.13 0.12 0.02 0.05 0.07 0.12 0.22 0.14 0.04 0.13 0.13 0.01 0.04 0.20 0.34 0.44
0.09 0.13 0.15 0.13 0.12 0.12 0.08 0.05 0.04 0.04 0.01 0.00 0.01 0.00 0.00 0.00 0.00 0.00 0.00 0.00 0.00 0.00 0.01 0.02 0.05 0.06 0.07 0.05 0.06 0.09 0.04 0.01 0.11 0.31 0.25 0.43 0.26 0.15 0.17 0.12 0.05 0.12 0.17 0.36 0.47
0.09 0.15 0.15 0.13 0.11 0.10 0.09 0.06 0.05 0.04 0.02 0.00 0.01 0.00 0.00 0.00 0.00 0.00 0.00 0.00 0.00 0.00 0.00 0.02 0.04 0.06 0.08 0.04 0.05 0.07 0.01 0.01 0.12 0.61 0.41 0.40 0.51 0.32 0.17 0.05 0.08 0.25 0.48 0.57 0.58
0.10 0.18 0.22 0.19 0.13 0.08 0.07 0.07 0.05 0.04 0.02 0.00 0.01 0.00 0.00 0.00 0.00 0.00 0.00 0.00 0.00 0.00 0.00 0.00 0.05 0.14 0.12 0.13 0.09 0.06 0.03 0.01 0.07 0.45 0.57 0.55 0.57 0.50 0.23 0.06 0.08 0.22 0.32 0.45 0.66
0.21 0.25 0.20 0.20 0.25 0.24 0.09 0.06 0.05 0.02 0.02 0.00 0.01 0.00 0.00 0.00 0.00 0.00 0.00 0.00 0.00 0.00 0.00 0.01 0.05 0.17 0.22 0.22 0.17 0.08 0.11 0.04 0.05 0.12 0.45 0.76 0.63 0.55 0.30 0.15 0.09 0.12 0.20 0.37 0.63
0.29 0.38 0.34 0.31 0.25 0.31 0.23 0.16 0.07 0.04 0.02 0.01 0.02 0.00 0.00 0.00 0.00 0.00 0.00 0.00 0.00 0.00 0.00 0.02 0.03 0.11 0.21 0.38 0.25 0.16 0.13 0.11 0.05 0.06 0.18 0.83 0.80 0.74 0.55 0.35 0.14 0.06 0.08 0.16 0.33
0.19 0.27 0.27 0.24 0.20 0.21 0.19 0.10 0.08 0.05 0.02 0.01 0.01 0.01 0.00 0.00 0.00 0.00 0.00 0.00 0.00 0.00 0.01 0.03 0.02 0.03 0.09 0.30 0.37 0.22 0.17 0.06 0.07 0.08 0.13 0.41 0.74 0.88 0.90 0.63 0.38 0.13 0.07 0.12 0.18
0.23 0.25 0.23 0.21 0.19 0.20 0.12 0.12 0.11 0.06 0.02 0.01 0.00 0.00 0.00 0.00 0.00 0.00 0.00 0.00 0.00 0.00 0.00 0.01 0.01 0.02 0.05 0.19 0.36 0.28 0.23 0.12 0.09 0.13 0.21 0.19 0.38 0.84 1.18 0.91 0.64 0.29 0.10 0.12 0.12
0.35 0.37 0.30 0.18 0.14 0.16 0.11 0.09 0.06 0.03 0.01 0.01 0.00 0.00 0.00 0.00 0.00 0.00 0.00 0.00 0.00 0.00 0.01 0.02 0.03 0.02 0.03 0.06 0.21 0.21 0.21 0.16 0.06 0.16 0.13 0.07 0.08 0.46 1.17 1.14 0.77 0.47 0.15 0.09 0.10
0.34 0.27 0.22 0.24 0.20 0.14 0.05 0.03 0.01 0.00 0.00 0.00 0.00 0.00 0.00 0.00 0.00 0.00 0.00 0.00 0.00 0.00 0.01 0.02 0.02 0.00 0.01 0.07 0.22 0.23 0.20 0.15 0.08 0.17 0.22 0.09 0.10 0.19 0.76 1.08 0.94 0.70 0.21 0.08 0.07
0.68 0.81 0.91 0.25 0.25 0.24 0.13 0.08 0.02 0.00 0.00 0.00 0.00 0.00 0.00 0.00 0.00 0.00 0.00 0.00 0.00 0.01 0.00 0.01 0.00 0.00 0.01 0.18 0.17 0.18 0.21 0.17 0.12 0.27 0.35 0.19 0.25 0.28 0.42 0.77 0.81 0.77 0.36 0.09 0.04
0.80 0.97 1.05 0.26 0.27 0.18 0.18 0.15 0.09 0.00 0.01 0.00 0.00 0.00 0.00 0.00 0.00 0.00 0.00 0.00 0.00 0.00 0.00 0.00 0.00 0.00 0.03 0.15 0.26 0.33 0.22 0.26 0.29 0.83 0.82 0.37 0.46 0.37 0.19 0.36 0.45 0.57 0.44 0.17 0.07
0.46 0.51 0.62 0.42 0.16 0.17 0.07 0.03 0.01 0.00 0.02 0.01 0.00 0.00 0.00 0.00 0.00 0.00 0.00 0.00 0.00 0.00 0.01 0.00 0.00 0.01 0.03 0.08 0.39 0.56 0.49 0.27 0.37 0.79 0.71 0.36 0.66 0.43 0.15 0.17 0.21 0.34 0.44 0.22 0.04
0.41 0.40 0.32 0.33 0.07 0.04 0.01 0.00 0.00 0.01 0.03 0.00 0.00 0.00 0.01 0.00 0.00 0.00 0.00 0.00 0.00 0.01 0.02 0.03 0.01 0.10 0.15 0.09 0.34 0.41 0.36 0.36 0.65 0.95 0.66 0.28 0.46 0.72 0.40 0.18 0.17 0.19 0.56 0.30 0.12
0.27 0.46 0.36 0.11 0.04 0.00 0.00 0.00 0.00 0.03 0.01 0.00 0.00 0.00 0.00 0.00 0.00 0.00 0.00 0.00 0.03 0.11 0.16 0.31 0.48 0.34 0.22 0.16 0.25 0.49 0.42 0.67 0.91 0.66 0.58 0.55 0.53 0.46 0.41 0.42 0.47 0.21 0.54 0.40 0.14
0.37 0.32 0.36 0.10 0.01 0.00 0.00 0.00 0.02 0.01 0.00 0.00 0.00 0.00 0.00 0.01 0.00 0.00 0.00 0.00 0.03 0.15 0.37 0.60 0.40 0.21 0.15 0.20 0.32 0.47 0.42 0.54 0.54 0.48 0.36 0.30 0.37 0.57 0.48 0.39 0.42 0.21 0.48 0.43 0.15
0.58 0.13 0.14 0.08 0.01 0.00 0.00 0.01 0.02 0.00 0.00 0.00 0.00 0.00 0.01 0.01 0.00 0.00 0.00 0.00 0.00 0.03 0.12 0.08 0.12 0.06 0.14 0.19 0.24 0.28 0.30 0.31 0.27 0.16 0.20 0.37 0.32 0.46 0.63 0.76 0.49 0.30 0.44 0.47 0.15
0.54 0.20 0.11 0.08 0.03 0.00 0.00 0.01 0.00 0.00 0.00 0.00 0.00 0.00 0.00 0.01 0.00 0.00 0.00 0.00 0.00 0.01 0.01 0.02 0.05 0.02 0.04 0.09 0.14 0.19 0.27 0.17 0.18 0.28 0.37 0.26 0.33 0.77 0.65 0.73 0.72 0.43 0.53 0.52 0.19
0.39 0.27 0.15 0.05 0.02 0.00 0.00 0.00 0.00 0.00 0.00 0.00 0.00 0.00 0.00 0.01 0.01 0.00 0.00 0.00 0.00 0.00 0.00 0.00 0.06 0.05 0.06 0.15 0.20 0.16 0.12 0.05 0.04 0.05 0.16 0.16 0.68 0.95 0.74 0.68 0.57 0.48 0.58 0.82 0.47
0.24 0.32 0.17 0.04 0.03 0.01 0.00 0.00 0.00 0.00 0.00 0.00 0.00 0.00 0.00 0.00 0.01 0.00 0.00 0.00 0.00 0.00 0.01 0.01 0.02 0.04 0.04 0.01 0.01 0.01 0.02 0.01 0.04 0.04 0.04 0.12 0.61 0.42 0.50 0.64 0.62 0.64 0.90 1.18 0.66
0.19 0.34 0.28 0.05 0.02 0.00 0.00 0.00 0.00 0.00 0.00 0.00 0.00 0.00 0.00 0.00 0.01 0.00 0.00 0.00 0.00 0.00 0.02 0.02 0.02 0.04 0.04 0.03 0.01 0.00 0.00 0.00 0.00 0.01 0.02 0.14 0.49 0.16 0.17 0.24 0.49 0.72 0.81 0.98 1.15
0.11 0.26 0.27 0.10 0.00 0.00 0.00 0.00 0.00 0.00 0.00 0.00 0.00 0.00 0.00 0.00 0.00 0.00 0.00 0.00 0.00 0.01 0.01 0.01 0.01 0.04 0.12 0.16 0.04 0.03 0.00 0.00 0.00 0.01 0.05 0.18 0.13 0.01 0.02 0.07 0.17 0.31 0.56 1.02 1.08
0.05 0.03 0.05 0.03 0.01 0.00 0.00 0.00 0.00 0.00 0.00 0.00 0.00 0.00 0.00 0.00 0.00 0.00 0.00 0.00 0.00 0.00 0.00 0.01 0.03 0.01 0.00 0.00 0.00 0.00 0.00 0.00 0.00 0.00 0.10 0.07 0.01 0.00 0.00 0.01 0.06 0.15 0.39 0.58 0.49
0.01 0.02 0.01 0.00 0.00 0.00 0.00 0.00 0.00 0.00 0.00 0.00 0.00 0.00 0.00 0.00 0.00 0.00 0.00 0.00 0.00 0.00 0.00 0.00 0.00 0.00 0.00 0.00 0.00 0.00 0.00 0.00 0.01 0.02 0.02 0.01 0.01 0.00 0.00 0.00 0.01 0.04 0.10 0.24 0.34
0.00 0.00 0.00 0.00 0.00 0.00 0.00 0.00 0.00 0.00 0.00 0.00 0.00 0.00 0.00 0.00 0.00 0.00 0.00 0.00 0.00 0.00 0.00 0.00 0.00 0.00 0.00 0.00 0.00 0.00 0.00 0.00 0.01 0.01 0.00 0.00 0.00 0.00 0.00 0.00 0.00 0.01 0.01 0.03 0.08

GFSSW_prec_precacc24_126.txt.gz
Total_Precipitation_Accumulation
0.04 0.05 0.06 0.07 0.08 0.07 0.03 0.03 0.02 0.03 0.04 0.02 0.01 0.01 0.01 0.01 0.00 0.00 0.00 0.00 0.00 0.05 0.08 0.00 0.00 0.00 0.00 0.00 0.01 0.09 0.13 0.03 0.06 0.06 0.06 0.03 0.02 0.00 0.00 0.00 0.00 0.03 0.03 0.07 0.19
0.08 0.08 0.10 0.12 0.16 0.22 0.12 0.03 0.03 0.04 0.03 0.01 0.01 0.01 0.01 0.00 0.00 0.00 0.00 0.00 0.11 0.30 0.10 0.02 0.00 0.00 0.01 0.03 0.03 0.09 0.08 0.01 0.00 0.03 0.06 0.07 0.08 0.02 0.02 0.02 0.02 0.09 0.10 0.16 0.20
0.09 0.10 0.12 0.12 0.10 0.13 0.16 0.11 0.04 0.04 0.02 0.00 0.00 0.01 0.00 0.00 0.00 0.00 0.00 0.02 0.06 0.06 0.02 0.01 0.00 0.00 0.01 0.08 0.05 0.08 0.11 0.01 0.00 0.05 0.12 0.20 0.14 0.03 0.12 0.13 0.01 0.02 0.14 0.31 0.43
0.10 0.13 0.15 0.13 0.12 0.12 0.12 0.12 0.08 0.05 0.01 0.01 0.01 0.00 0.00 0.00 0.00 0.00 0.00 0.00 0.00 0.00 0.01 0.00 0.01 0.02 0.01 0.04 0.06 0.07 0.04 0.00 0.02 0.17 0.21 0.39 0.24 0.13 0.16 0.12 0.01 0.08 0.17 0.34 0.42
0.10 0.16 0.16 0.13 0.11 0.10 0.14 0.17 0.12 0.05 0.02 0.01 0.01 0.00 0.00 0.00 0.00 0.00 0.00 0.00 0.00 0.00 0.00 0.00 0.00 0.03 0.01 0.01 0.05 0.06 0.01 0.01 0.02 0.26 0.32 0.37 0.49 0.30 0.17 0.05 0.03 0.12 0.35 0.42 0.44
0.11 0.20 0.23 0.18 0.13 0.08 0.09 0.09 0.08 0.06 0.03 0.01 0.01 0.00 0.00 0.00 0.00 0.00 0.00 0.00 0.00 0.00 0.00 0.00 0.02 0.09 0.06 0.04 0.08 0.05 0.03 0.01 0.04 0.18 0.34 0.41 0.55 0.49 0.22 0.05 0.05 0.13 0.23 0.34 0.54
0.21 0.26 0.21 0.20 0.25 0.32 0.19 0.08 0.06 0.03 0.04 0.01 0.01 0.00 0.00 0.00 0.00 0.00 0.00 0.00 0.00 0.00 0.00 0.00 0.01 0.09 0.07 0.10 0.16 0.08 0.09 0.04 0.02 0.09 0.31 0.48 0.50 0.54 0.28 0.12 0.08 0.10 0.16 0.30 0.53
0.29 0.40 0.35 0.30 0.24 0.37 0.39 0.32 0.14 0.06 0.08 0.04 0.03 0.00 0.00 0.00 0.00 0.00 0.00 0.00 0.00 0.00 0.00 0.01 0.02 0.09 0.09 0.18 0.22 0.13 0.11 0.09 0.03 0.05 0.14 0.53 0.59 0.72 0.52 0.29 0.14 0.05 0.05 0.11 0.27
0.19 0.28 0.29 0.25 0.20 0.22 0.28 0.20 0.12 0.11 0.12 0.04 0.01 0.01 0.00 0.00 0.00 0.00 0.00 0.00 0.00 0.00 0.01 0.02 0.02 0.03 0.07 0.14 0.25 0.21 0.15 0.06 0.06 0.07 0.11 0.28 0.59 0.79 0.87 0.53 0.33 0.11 0.05 0.07 0.15
0.23 0.26 0.25 0.24 0.20 0.25 0.21 0.17 0.18 0.15 0.08 0.01 0.00 0.00 0.00 0.00 0.00 0.00 0.00 0.00 0.00 0.00 0.00 0.00 0.01 0.02 0.04 0.11 0.21 0.27 0.22 0.12 0.08 0.12 0.19 0.17 0.31 0.71 1.12 0.81 0.51 0.21 0.09 0.08 0.10
0.35 0.38 0.31 0.18 0.14 0.19 0.22 0.23 0.13 0.06 0.05 0.03 0.00 0.00 0.00 0.00 0.00 0.00 0.00 0.00 0.00 0.00 0.01 0.02 0.03 0.02 0.02 0.03 0.09 0.17 0.20 0.14 0.06 0.14 0.13 0.07 0.07 0.41 1.12 1.02 0.58 0.30 0.12 0.08 0.09
0.35 0.29 0.22 0.24 0.25 0.17 0.13 0.04 0.04 0.00 0.00 0.00 0.00 0.00 0.00 0.00 0.00 0.00 0.00 0.00 0.00 0.00 0.01 0.02 0.02 0.00 0.00 0.04 0.10 0.15 0.19 0.13 0.07 0.16 0.20 0.08 0.10 0.16 0.73 1.02 0.81 0.50 0.16 0.07 0.06
0.70 0.83 1.02 0.33 0.29 0.25 0.14 0.09 0.02 0.00 0.00 0.00 0.00 0.00 0.00 0.00 0.00 0.00 0.00 0.00 0.00 0.00 0.00 0.01 0.00 0.00 0.01 0.15 0.09 0.14 0.19 0.15 0.11 0.26 0.32 0.18 0.22 0.20 0.38 0.74 0.78 0.66 0.28 0.08 0.03
0.81 1.02 1.56 0.46 0.31 0.21 0.20 0.18 0.10 0.01 0.01 0.00 0.00 0.00 0.00 0.00 0.00 0.00 0.00 0.00 0.00 0.00 0.00 0.00 0.00 0.00 0.03 0.14 0.23 0.28 0.21 0.26 0.28 0.83 0.76 0.36 0.45 0.34 0.16 0.35 0.45 0.56 0.41 0.17 0.07
0.47 0.55 0.69 0.53 0.21 0.30 0.20 0.14 0.07 0.03 0.05 0.01 0.00 0.00 0.00 0.00 0.00 0.00 0.00 0.00 0.00 0.00 0.01 0.00 0.00 0.01 0.02 0.08 0.37 0.47 0.46 0.27 0.38 0.82 0.74 0.35 0.67 0.43 0.15 0.17 0.21 0.34 0.44 0.22 0.04
0.42 0.41 0.35 0.45 0.09 0.11 0.08 0.03 0.00 0.02 0.10 0.03 0.00 0.00 0.00 0.00 0.00 0.00 0.00 0.00 0.00 0.00 0.01 0.00 0.00 0.05 0.12 0.08 0.33 0.37 0.29 0.34 0.64 0.98 0.66 0.28 0.46 0.72 0.40 0.19 0.18 0.19 0.56 0.30 0.12
0.30 0.48 0.40 0.23 0.11 0.00 0.00 0.00 0.01 0.09 0.04 0.00 0.00 0.00 0.00 0.00 0.00 0.00 0.00 0.00 0.03 0.07 0.10 0.15 0.29 0.27 0.20 0.16 0.23 0.40 0.31 0.53 0.78 0.59 0.56 0.57 0.61 0.47 0.45 0.46 0.48 0.21 0.55 0.40 0.15
0.40 0.39 0.40 0.17 0.02 0.00 0.00 0.00 0.04 0.02 0.00 0.00 0.00 0.00 0.00 0.00 0.00 0.00 0.00 0.00 0.02 0.12 0.29 0.37 0.28 0.13 0.13 0.20 0.31 0.39 0.38 0.48 0.49 0.50 0.37 0.31 0.44 0.63 0.63 0.50 0.47 0.22 0.49 0.44 0.16
0.58 0.16 0.17 0.12 0.01 0.00 0.00 0.02 0.02 0.00 0.00 0.00 0.00 0.00 0.00 0.00 0.00 0.00 0.00 0.00 0.00 0.02 0.08 0.07 0.09 0.05 0.14 0.19 0.25 0.25 0.29 0.32 0.32 0.20 0.25 0.37 0.33 0.52 0.76 0.86 0.63 0.39 0.52 0.51 0.16
0.54 0.20 0.17 0.09 0.03 0.00 0.00 0.01 0.00 0.00 0.00 0.00 0.00 0.00 0.00 0.00 0.00 0.00 0.00 0.00 0.00 0.00 0.01 0.02 0.06 0.02 0.04 0.09 0.15 0.21 0.24 0.19 0.24 0.32 0.40 0.27 0.38 0.90 0.77 0.88 0.87 0.53 0.59 0.56 0.20
0.39 0.28 0.16 0.05 0.02 0.00 0.00 0.00 0.00 0.00 0.00 0.00 0.00 0.00 0.00 0.00 0.00 0.00 0.00 0.00 0.00 0.00 0.00 0.01 0.07 0.05 0.07 0.15 0.23 0.17 0.12 0.05 0.05 0.06 0.19 0.20 0.78 1.15 0.99 0.97 0.79 0.61 0.62 0.84 0.47
0.24 0.33 0.17 0.04 0.03 0.01 0.00 0.00 0.00 0.00 0.00 0.00 0.00 0.00 0.00 0.00 0.00 0.00 0.00 0.00 0.00 0.00 0.01 0.01 0.02 0.06 0.05 0.01 0.01 0.01 0.03 0.03 0.06 0.05 0.06 0.17 0.71 0.58 0.75 1.02 1.01 0.86 1.04 1.26 0.70
0.19 0.34 0.28 0.05 0.02 0.00 0.00 0.00 0.00 0.00 0.00 0.00 0.00 0.00 0.00 0.00 0.00 0.00 0.00 0.00 0.00 0.00 0.02 0.02 0.02 0.04 0.04 0.03 0.01 0.00 0.00 0.01 0.01 0.01 0.03 0.20 0.65 0.32 0.35 0.49 1.04 1.19 1.12 1.17 1.20
0.11 0.26 0.27 0.10 0.00 0.00 0.00 0.00 0.00 0.00 0.00 0.00 0.00 0.00 0.00 0.00 0.00 0.00 0.00 0.00 0.00 0.00 0.01 0.01 0.01 0.03 0.14 0.19 0.05 0.03 0.00 0.00 0.00 0.01 0.06 0.30 0.22 0.08 0.10 0.22 0.53 0.90 1.12 1.41 1.48
0.05 0.03 0.05 0.03 0.01 0.00 0.00 0.00 0.00 0.00 0.00 0.00 0.00 0.00 0.00 0.00 0.00 0.00 0.00 0.00 0.00 0.00 0.00 0.00 0.02 0.01 0.01 0.01 0.00 0.00 0.00 0.00 0.00 0.00 0.05 0.09 0.03 0.04 0.04 0.15 0.29 0.67 1.03 1.09 1.20
0.01 0.02 0.01 0.00 0.00 0.00 0.00 0.00 0.00 0.00 0.00 0.00 0.00 0.00 0.00 0.00 0.00 0.00 0.00 0.00 0.00 0.00 0.00 0.00 0.00 0.00 0.00 0.00 0.00 0.00 0.00 0.00 0.01 0.02 0.01 0.00 0.00 0.00 0.01 0.05 0.11 0.27 0.49 0.79 1.11
0.00 0.00 0.00 0.00 0.00 0.00 0.00 0.00 0.00 0.00 0.00 0.00 0.00 0.00 0.00 0.00 0.00 0.00 0.00 0.00 0.00 0.00 0.00 0.00 0.00 0.00 0.00 0.00 0.00 0.00 0.00 0.00 0.01 0.01 0.00 0.00 0.00 0.00 0.00 0.00 0.01 0.07 0.18 0.30 0.34

GFSSW_prec_precacc24_129.txt.gz
Total_Precipitation_Accumulation
0.04 0.05 0.07 0.07 0.08 0.11 0.14 0.07 0.02 0.03 0.03 0.02 0.01 0.01 0.01 0.01 0.00 0.00 0.00 0.00 0.00 0.03 0.08 0.00 0.00 0.00 0.00 0.00 0.00 0.05 0.07 0.02 0.00 0.00 0.01 0.03 0.02 0.00 0.00 0.00 0.00 0.03 0.03 0.06 0.18
0.09 0.08 0.10 0.12 0.15 0.22 0.27 0.24 0.05 0.03 0.03 0.01 0.01 0.00 0.01 0.00 0.00 0.00 0.00 0.00 0.04 0.23 0.10 0.02 0.00 0.00 0.00 0.00 0.00 0.03 0.03 0.01 0.00 0.00 0.00 0.03 0.08 0.02 0.02 0.02 0.01 0.05 0.05 0.08 0.11
0.11 0.11 0.12 0.12 0.09 0.13 0.16 0.21 0.17 0.05 0.02 0.00 0.01 0.00 0.00 0.00 0.00 0.00 0.00 0.01 0.05 0.05 0.02 0.01 0.00 0.00 0.00 0.00 0.01 0.02 0.01 0.00 0.00 0.00 0.00 0.05 0.11 0.03 0.12 0.13 0.01 0.01 0.08 0.12 0.20
0.12 0.15 0.17 0.13 0.11 0.11 0.12 0.13 0.16 0.08 0.02 0.00 0.01 0.00 0.00 0.00 0.00 0.00 0.00 0.00 0.00 0.00 0.01 0.00 0.00 0.00 0.00 0.00 0.00 0.02 0.00 0.00 0.00 0.00 0.03 0.05 0.14 0.12 0.15 0.11 0.00 0.01 0.15 0.31 0.34
0.11 0.16 0.18 0.15 0.10 0.09 0.13 0.17 0.18 0.08 0.02 0.01 0.01 0.00 0.00 0.00 0.00 0.00 0.00 0.00 0.00 0.00 0.00 0.00 0.00 0.01 0.01 0.00 0.01 0.03 0.00 0.00 0.00 0.00 0.02 0.04 0.19 0.29 0.17 0.05 0.00 0.01 0.12 0.28 0.32
0.11 0.20 0.23 0.19 0.13 0.08 0.08 0.09 0.13 0.15 0.08 0.01 0.00 0.00 0.00 0.00 0.00 0.00 0.00 0.00 0.00 0.00 0.00 0.00 0.00 0.02 0.04 0.03 0.03 0.02 0.01 0.00 0.00 0.02 0.03 0.07 0.16 0.45 0.22 0.05 0.02 0.04 0.11 0.18 0.36
0.22 0.27 0.22 0.20 0.25 0.32 0.22 0.15 0.08 0.05 0.10 0.03 0.01 0.00 0.00 0.00 0.00 0.00 0.00 0.00 0.00 0.00 0.00 0.00 0.00 0.01 0.03 0.06 0.10 0.07 0.07 0.02 0.00 0.01 0.03 0.12 0.19 0.36 0.28 0.12 0.04 0.06 0.07 0.15 0.32
0.30 0.41 0.36 0.31 0.24 0.37 0.44 0.50 0.23 0.07 0.12 0.08 0.03 0.00 0.00 0.00 0.00 0.00 0.00 0.00 0.00 0.00 0.00 0.00 0.02 0.04 0.06 0.09 0.08 0.08 0.08 0.06 0.00 0.01 0.04 0.18 0.20 0.50 0.48 0.28 0.12 0.04 0.03 0.06 0.15
0.20 0.29 0.29 0.27 0.22 0.21 0.30 0.28 0.23 0.21 0.28 0.14 0.02 0.01 0.00 0.00 0.00 0.00 0.00 0.00 0.00 0.00 0.00 0.01 0.01 0.03 0.06 0.07 0.04 0.11 0.14 0.04 0.02 0.01 0.04 0.12 0.17 0.56 0.69 0.51 0.32 0.10 0.05 0.06 0.11
0.24 0.27 0.26 0.26 0.24 0.26 0.27 0.23 0.33 0.21 0.11 0.03 0.01 0.01 0.00 0.00 0.00 0.00 0.00 0.00 0.00 0.00 0.00 0.00 0.01 0.02 0.04 0.07 0.05 0.18 0.22 0.10 0.05 0.07 0.14 0.14 0.11 0.37 0.82 0.69 0.48 0.21 0.09 0.08 0.10
0.37 0.41 0.32 0.20 0.18 0.21 0.31 0.31 0.17 0.09 0.07 0.06 0.01 0.00 0.00 0.00 0.00 0.00 0.00 0.00 0.00 0.00 0.01 0.02 0.03 0.02 0.01 0.03 0.04 0.11 0.19 0.13 0.03 0.07 0.08 0.07 0.05 0.18 0.75 0.83 0.49 0.28 0.12 0.08 0.09
0.39 0.31 0.22 0.24 0.25 0.21 0.23 0.11 0.07 0.00 0.01 0.03 0.01 0.00 0.00 0.00 0.00 0.00 0.00 0.00 0.00 0.00 0.01 0.02 0.02 0.00 0.00 0.02 0.08 0.09 0.18 0.10 0.04 0.11 0.13 0.06 0.08 0.10 0.48 0.78 0.64 0.45 0.15 0.07 0.06
0.72 0.83 1.03 0.38 0.31 0.30 0.18 0.19 0.05 0.00 0.00 0.02 0.00 0.00 0.00 0.00 0.00 0.00 0.00 0.00 0.00 0.00 0.00 0.01 0.00 0.00 0.00 0.08 0.08 0.08 0.19 0.13 0.09 0.20 0.28 0.14 0.18 0.16 0.25 0.54 0.65 0.53 0.20 0.07 0.03
0.84 1.06 1.83 0.57 0.33 0.21 0.22 0.26 0.11 0.01 0.02 0.00 0.00 0.00 0.00 0.00 0.00 0.00 0.00 0.00 0.00 0.00 0.00 0.00 0.00 0.00 0.03 0.09 0.21 0.26 0.21 0.25 0.26 0.82 0.70 0.30 0.39 0.31 0.13 0.26 0.35 0.47 0.26 0.12 0.07
0.49 0.62 0.80 0.56 0.24 0.32 0.21 0.15 0.07 0.05 0.10 0.02 0.00 0.00 0.00 0.00 0.00 0.00 0.00 0.00 0.00 0.00 0.01 0.00 0.00 0.00 0.01 0.07 0.34 0.38 0.45 0.26 0.37 0.82 0.73 0.30 0.67 0.43 0.13 0.14 0.17 0.32 0.38 0.15 0.04
0.44 0.44 0.39 0.46 0.12 0.18 0.12 0.06 0.03 0.11 0.18 0.11 0.02 0.01 0.00 0.00 0.00 0.00 0.00 0.00 0.00 0.00 0.00 0.00 0.00 0.01 0.10 0.07 0.28 0.21 0.26 0.33 0.61 0.95 0.67 0.27 0.47 0.72 0.39 0.19 0.18 0.19 0.56 0.27 0.10
0.31 0.48 0.43 0.25 0.13 0.02 0.01 0.01 0.05 0.15 0.10 0.02 0.00 0.00 0.00 0.00 0.00 0.00 0.00 0.00 0.03 0.04 0.07 0.09 0.16 0.16 0.18 0.15 0.16 0.18 0.29 0.47 0.69 0.54 0.56 0.57 0.64 0.47 0.45 0.46 0.50 0.24 0.55 0.40 0.15
0.42 0.40 0.41 0.17 0.02 0.00 0.00 0.01 0.05 0.04 0.00 0.00 0.00 0.00 0.00 0.00 0.00 0.00 0.00 0.00 0.02 0.08 0.09 0.17 0.17 0.11 0.13 0.20 0.28 0.23 0.34 0.48 0.46 0.49 0.37 0.31 0.44 0.63 0.64 0.52 0.49 0.25 0.51 0.44 0.16
0.59 0.16 0.17 0.12 0.01 0.00 0.00 0.02 0.02 0.00 0.00 0.00 0.00 0.00 0.00 0.00 0.00 0.00 0.00 0.00 0.00 0.01 0.06 0.05 0.04 0.04 0.14 0.20 0.28 0.19 0.28 0.32 0.34 0.21 0.27 0.37 0.33 0.52 0.76 0.86 0.64 0.42 0.54 0.53 0.16
0.54 0.20 0.17 0.09 0.03 0.00 0.00 0.01 0.00 0.00 0.00 0.00 0.00 0.00 0.00 0.00 0.00 0.00 0.00 0.00 0.01 0.00 0.01 0.03 0.06 0.01 0.04 0.12 0.18 0.22 0.23 0.17 0.27 0.33 0.41 0.27 0.38 0.95 0.82 0.93 0.90 0.56 0.62 0.57 0.20
0.39 0.28 0.16 0.05 0.02 0.00 0.00 0.00 0.00 0.00 0.00 0.00 0.00 0.00 0.00 0.00 0.00 0.00 0.00 0.00 0.00 0.00 0.00 0.01 0.10 0.06 0.08 0.19 0.25 0.18 0.13 0.06 0.06 0.07 0.21 0.22 0.79 1.24 1.13 1.11 0.94 0.67 0.67 0.88 0.47
0.24 0.33 0.17 0.04 0.03 0.01 0.00 0.00 0.00 0.00 0.00 0.00 0.00 0.00 0.00 0.00 0.00 0.00 0.00 0.00 0.00 0.00 0.01 0.01 0.03 0.07 0.06 0.01 0.01 0.01 0.04 0.03 0.06 0.05 0.06 0.19 0.73 0.65 0.94 1.24 1.23 0.94 1.09 1.33 0.72
0.19 0.34 0.28 0.05 0.02 0.00 0.00 0.00 0.00 0.00 0.00 0.00 0.00 0.00 0.00 0.00 0.00 0.00 0.00 0.00 0.00 0.00 0.02 0.02 0.02 0.04 0.04 0.03 0.01 0.00 0.00 0.01 0.01 0.01 0.03 0.23 0.71 0.40 0.48 0.69 1.32 1.34 1.31 1.28 1.23
0.11 0.26 0.27 0.10 0.00 0.00 0.00 0.00 0.00 0.00 0.00 0.00 0.00 0.00 0.00 0.00 0.00 0.00 0.00 0.00 0.00 0.00 0.00 0.00 0.01 0.03 0.15 0.21 0.05 0.03 0.00 0.00 0.00 0.02 0.07 0.39 0.31 0.16 0.20 0.43 0.95 1.18 1.30 1.49 1.52
0.05 0.03 0.05 0.03 0.01 0.00 0.00 0.00 0.00 0.00 0.00 0.00 0.00 0.00 0.00 0.00 0.00 0.00 0.00 0.00 0.00 0.00 0.00 0.00 0.02 0.01 0.01 0.01 0.00 0.00 0.00 0.00 0.00 0.00 0.07 0.16 0.09 0.10 0.18 0.43 0.74 1.16 1.39 1.39 1.64
0.01 0.02 0.01 0.00 0.00 0.00 0.00 0.00 0.00 0.00 0.00 0.00 0.00 0.00 0.00 0.00 0.00 0.00 0.00 0.00 0.00 0.00 0.00 0.00 0.00 0.00 0.00 0.00 0.00 0.00 0.00 0.00 0.01 0.02 0.01 0.01 0.01 0.02 0.10 0.25 0.47 0.83 1.01 1.37 1.73
0.00 0.00 0.00 0.00 0.00 0.00 0.00 0.00 0.00 0.00 0.00 0.00 0.00 0.00 0.00 0.00 0.00 0.00 0.00 0.00 0.00 0.00 0.00 0.00 0.00 0.00 0.00 0.00 0.00 0.00 0.00 0.00 0.01 0.01 0.00 0.00 0.00 0.00 0.03 0.13 0.23 0.41 0.58 0.67 0.70

GFSSW_prec_precacc24_132.txt.gz
Total_Precipitation_Accumulation
0.06 0.06 0.07 0.06 0.08 0.10 0.14 0.15 0.16 0.03 0.03 0.02 0.01 0.01 0.00 0.01 0.00 0.00 0.00 0.00 0.00 0.01 0.03 0.00 0.00 0.00 0.00 0.00 0.00 0.03 0.03 0.01 0.00 0.00 0.00 0.00 0.00 0.00 0.00 0.00 0.00 0.03 0.03 0.03 0.05
0.10 0.11 0.11 0.11 0.14 0.21 0.26 0.27 0.18 0.07 0.03 0.01 0.01 0.00 0.00 0.00 0.00 0.00 0.00 0.00 0.01 0.09 0.07 0.02 0.00 0.00 0.00 0.00 0.00 0.01 0.01 0.00 0.00 0.00 0.00 0.00 0.01 0.01 0.02 0.02 0.00 0.02 0.03 0.07 0.04
0.12 0.13 0.15 0.13 0.09 0.12 0.15 0.20 0.26 0.16 0.04 0.00 0.01 0.00 0.00 0.00 0.00 0.00 0.00 0.01 0.04 0.04 0.02 0.01 0.00 0.00 0.00 0.00 0.00 0.01 0.00 0.00 0.00 0.00 0.00 0.01 0.01 0.01 0.08 0.10 0.00 0.00 0.03 0.09 0.10
0.14 0.15 0.17 0.15 0.12 0.11 0.11 0.12 0.16 0.18 0.10 0.02 0.01 0.00 0.00 0.00 0.00 0.00 0.00 0.00 0.00 0.00 0.01 0.00 0.00 0.00 0.00 0.00 0.00 0.00 0.00 0.00 0.00 0.00 0.00 0.01 0.02 0.03 0.07 0.08 0.00 0.00 0.08 0.16 0.24
0.13 0.17 0.18 0.15 0.12 0.09 0.13 0.16 0.17 0.16 0.10 0.05 0.01 0.00 0.00 0.00 0.00 0.00 0.00 0.00 0.00 0.00 0.00 0.00 0.00 0.00 0.00 0.00 0.00 0.00 0.00 0.00 0.00 0.00 0.00 0.01 0.05 0.04 0.03 0.02 0.00 0.00 0.04 0.13 0.22
0.11 0.20 0.23 0.19 0.12 0.07 0.08 0.08 0.12 0.18 0.11 0.04 0.01 0.00 0.00 0.00 0.00 0.00 0.00 0.00 0.00 0.00 0.00 0.00 0.00 0.01 0.02 0.01 0.02 0.00 0.01 0.00 0.00 0.00 0.00 0.01 0.01 0.06 0.01 0.03 0.02 0.03 0.02 0.07 0.20
0.22 0.29 0.25 0.21 0.26 0.31 0.21 0.17 0.09 0.09 0.16 0.15 0.02 0.00 0.00 0.00 0.00 0.00 0.00 0.00 0.00 0.00 0.00 0.00 0.00 0.00 0.01 0.01 0.03 0.06 0.06 0.01 0.00 0.00 0.00 0.04 0.03 0.01 0.00 0.06 0.04 0.04 0.01 0.04 0.10
0.31 0.44 0.39 0.31 0.25 0.36 0.44 0.63 0.38 0.15 0.25 0.19 0.04 0.00 0.00 0.00 0.00 0.00 0.00 0.00 0.00 0.00 0.00 0.00 0.02 0.03 0.03 0.03 0.02 0.04 0.04 0.01 0.00 0.00 0.00 0.09 0.05 0.00 0.01 0.09 0.08 0.02 0.00 0.02 0.06
0.23 0.30 0.30 0.27 0.22 0.21 0.30 0.40 0.34 0.31 0.43 0.19 0.02 0.01 0.00 0.00 0.00 0.00 0.00 0.00 0.00 0.00 0.00 0.01 0.01 0.01 0.05 0.06 0.03 0.02 0.02 0.01 0.00 0.00 0.01 0.07 0.05 0.00 0.02 0.18 0.24 0.06 0.01 0.01 0.06
0.25 0.27 0.26 0.26 0.25 0.29 0.31 0.30 0.46 0.37 0.40 0.04 0.01 0.01 0.00 0.00 0.00 0.00 0.00 0.00 0.00 0.00 0.00 0.00 0.00 0.02 0.03 0.06 0.04 0.02 0.07 0.07 0.03 0.04 0.10 0.12 0.04 0.02 0.08 0.34 0.42 0.16 0.05 0.02 0.05
0.33 0.42 0.34 0.21 0.20 0.29 0.35 0.32 0.36 0.20 0.17 0.09 0.03 0.00 0.00 0.00 0.00 0.00 0.00 0.00 0.00 0.00 0.01 0.02 0.03 0.02 0.01 0.02 0.02 0.04 0.06 0.07 0.02 0.02 0.04 0.05 0.03 0.03 0.15 0.40 0.39 0.23 0.10 0.04 0.03
0.31 0.31 0.23 0.25 0.30 0.30 0.29 0.13 0.14 0.10 0.06 0.04 0.01 0.00 0.00 0.00 0.00 0.00 0.00 0.00 0.00 0.00 0.01 0.02 0.02 0.00 0.00 0.00 0.03 0.06 0.09 0.06 0.02 0.06 0.06 0.02 0.04 0.02 0.11 0.31 0.45 0.37 0.14 0.06 0.04
0.52 0.81 1.03 0.41 0.37 0.34 0.23 0.28 0.06 0.00 0.03 0.03 0.00 0.00 0.00 0.00 0.00 0.00 0.00 0.00 0.00 0.00 0.00 0.01 0.00 0.00 0.00 0.01 0.04 0.07 0.14 0.09 0.05 0.16 0.22 0.07 0.13 0.10 0.09 0.25 0.35 0.39 0.18 0.07 0.03
0.63 1.04 1.86 0.61 0.37 0.22 0.23 0.32 0.11 0.01 0.03 0.03 0.00 0.00 0.00 0.00 0.00 0.00 0.00 0.00 0.00 0.00 0.00 0.00 0.00 0.00 0.02 0.06 0.20 0.25 0.20 0.20 0.22 0.79 0.63 0.17 0.34 0.28 0.09 0.16 0.20 0.26 0.21 0.12 0.07
0.28 0.59 0.80 0.56 0.24 0.32 0.22 0.20 0.07 0.05 0.11 0.03 0.00 0.00 0.00 0.00 0.00 0.00 0.00 0.00 0.00 0.00 0.00 0.00 0.00 0.00 0.01 0.06 0.31 0.29 0.45 0.25 0.36 0.81 0.71 0.25 0.68 0.41 0.11 0.12 0.12 0.20 0.27 0.15 0.04
0.38 0.43 0.39 0.46 0.12 0.18 0.12 0.06 0.03 0.14 0.20 0.13 0.03 0.02 0.00 0.00 0.00 0.00 0.00 0.00 0.00 0.00 0.00 0.00 0.00 0.01 0.08 0.05 0.18 0.11 0.26 0.33 0.62 0.96 0.66 0.22 0.47 0.72 0.38 0.18 0.16 0.16 0.39 0.26 0.10
0.27 0.48 0.43 0.25 0.14 0.02 0.01 0.01 0.06 0.19 0.15 0.06 0.04 0.01 0.00 0.00 0.00 0.00 0.00 0.00 0.01 0.02 0.04 0.04 0.09 0.09 0.09 0.07 0.02 0.03 0.30 0.45 0.61 0.50 0.55 0.57 0.64 0.47 0.45 0.46 0.49 0.23 0.49 0.34 0.14
0.38 0.39 0.41 0.18 0.02 0.00 0.00 0.01 0.06 0.07 0.01 0.01 0.00 0.00 0.00 0.00 0.00 0.00 0.00 0.00 0.00 0.01 0.04 0.03 0.08 0.07 0.12 0.18 0.19 0.06 0.34 0.47 0.44 0.48 0.36 0.31 0.44 0.63 0.64 0.52 0.49 0.25 0.51 0.39 0.16
0.55 0.15 0.17 0.12 0.01 0.00 0.00 0.02 0.03 0.00 0.00 0.00 0.00 0.00 0.00 0.00 0.00 0.00 0.00 0.00 0.00 0.00 0.04 0.05 0.02 0.03 0.14 0.21 0.28 0.11 0.29 0.33 0.36 0.22 0.28 0.37 0.33 0.52 0.76 0.86 0.64 0.42 0.55 0.52 0.16
0.52 0.19 0.17 0.09 0.03 0.00 0.00 0.01 0.00 0.00 0.00 0.00 0.00 0.00 0.00 0.00 0.00 0.00 0.00 0.00 0.01 0.00 0.01 0.03 0.07 0.04 0.06 0.15 0.17 0.19 0.24 0.20 0.31 0.35 0.41 0.27 0.38 0.96 0.83 0.96 0.91 0.57 0.64 0.57 0.20
0.39 0.28 0.16 0.05 0.02 0.00 0.00 0.00 0.00 0.00 0.00 0.00 0.00 0.00 0.00 0.00 0.00 0.00 0.00 0.00 0.00 0.00 0.01 0.03 0.13 0.09 0.10 0.23 0.28 0.16 0.12 0.05 0.07 0.07 0.22 0.22 0.80 1.25 1.17 1.20 1.02 0.75 0.76 0.91 0.48
0.24 0.33 0.16 0.04 0.03 0.01 0.00 0.00 0.00 0.00 0.00 0.00 0.00 0.00 0.00 0.00 0.00 0.00 0.00 0.00 0.00 0.00 0.01 0.02 0.07 0.08 0.07 0.02 0.01 0.01 0.04 0.03 0.06 0.05 0.06 0.20 0.74 0.65 0.98 1.37 1.32 1.01 1.18 1.43 0.73
0.19 0.33 0.26 0.05 0.02 0.00 0.00 0.00 0.00 0.00 0.00 0.00 0.00 0.00 0.00 0.00 0.00 0.00 0.00 0.00 0.00 0.00 0.02 0.02 0.03 0.04 0.04 0.03 0.01 0.00 0.00 0.01 0.01 0.01 0.04 0.25 0.73 0.40 0.50 0.78 1.49 1.45 1.37 1.32 1.24
0.11 0.25 0.26 0.10 0.00 0.00 0.00 0.00 0.00 0.00 0.00 0.00 0.00 0.00 0.00 0.00 0.00 0.00 0.00 0.00 0.00 0.00 0.00 0.00 0.01 0.03 0.14 0.21 0.05 0.03 0.00 0.00 0.00 0.02 0.08 0.44 0.36 0.16 0.22 0.56 1.18 1.31 1.40 1.51 1.53
0.05 0.03 0.05 0.03 0.01 0.00 0.00 0.00 0.00 0.00 0.00 0.00 0.00 0.00 0.00 0.00 0.00 0.00 0.00 0.00 0.00 0.00 0.00 0.00 0.01 0.01 0.01 0.01 0.00 0.00 0.00 0.00 0.00 0.00 0.08 0.17 0.11 0.11 0.23 0.63 1.06 1.39 1.58 1.56 1.86
0.01 0.01 0.01 0.00 0.00 0.00 0.00 0.00 0.00 0.00 0.00 0.00 0.00 0.00 0.00 0.00 0.00 0.00 0.00 0.00 0.00 0.00 0.00 0.00 0.00 0.00 0.00 0.00 0.00 0.00 0.00 0.00 0.01 0.02 0.01 0.01 0.02 0.02 0.14 0.35 0.72 1.16 1.36 1.80 2.23
0.00 0.00 0.00 0.00 0.00 0.00 0.00 0.00 0.00 0.00 0.00 0.00 0.00 0.00 0.00 0.00 0.00 0.00 0.00 0.00 0.00 0.00 0.00 0.00 0.00 0.00 0.00 0.00 0.00 0.00 0.00 0.00 0.01 0.01 0.00 0.01 0.01 0.01 0.05 0.20 0.39 0.71 0.90 0.98 0.98

GFSSW_prec_precacc24_135.txt.gz
Total_Precipitation_Accumulation
0.07 0.10 0.09 0.06 0.07 0.09 0.13 0.14 0.20 0.20 0.05 0.02 0.01 0.01 0.00 0.00 0.00 0.00 0.00 0.00 0.00 0.00 0.00 0.00 0.00 0.00 0.00 0.00 0.00 0.01 0.01 0.00 0.00 0.00 0.00 0.00 0.00 0.00 0.00 0.00 0.00 0.01 0.00 0.00 0.01
0.11 0.12 0.15 0.14 0.14 0.20 0.26 0.27 0.18 0.16 0.07 0.01 0.01 0.00 0.00 0.00 0.00 0.00 0.00 0.00 0.00 0.03 0.04 0.01 0.00 0.00 0.00 0.00 0.00 0.00 0.00 0.00 0.00 0.00 0.00 0.00 0.00 0.00 0.00 0.00 0.00 0.01 0.00 0.00 0.03
0.14 0.15 0.15 0.15 0.12 0.12 0.15 0.20 0.25 0.26 0.08 0.01 0.01 0.00 0.00 0.00 0.00 0.00 0.00 0.01 0.02 0.03 0.02 0.01 0.00 0.00 0.00 0.00 0.00 0.00 0.00 0.00 0.00 0.00 0.00 0.00 0.00 0.00 0.01 0.01 0.00 0.00 0.00 0.01 0.08
0.17 0.16 0.17 0.15 0.14 0.12 0.11 0.11 0.16 0.26 0.25 0.08 0.02 0.00 0.00 0.00 0.00 0.00 0.00 0.00 0.00 0.00 0.01 0.00 0.00 0.00 0.00 0.00 0.00 0.00 0.00 0.00 0.00 0.00 0.00 0.00 0.01 0.00 0.01 0.00 0.00 0.00 0.00 0.00 0.06
0.16 0.18 0.18 0.15 0.12 0.10 0.13 0.16 0.17 0.19 0.27 0.13 0.05 0.00 0.00 0.00 0.00 0.00 0.00 0.00 0.00 0.00 0.00 0.00 0.00 0.00 0.00 0.00 0.00 0.00 0.00 0.00 0.00 0.00 0.00 0.00 0.01 0.01 0.00 0.00 0.00 0.00 0.00 0.00 0.01
0.15 0.20 0.23 0.19 0.13 0.08 0.07 0.07 0.12 0.20 0.22 0.12 0.04 0.02 0.00 0.00 0.00 0.00 0.00 0.00 0.00 0.00 0.00 0.00 0.00 0.00 0.01 0.00 0.00 0.00 0.00 0.00 0.00 0.00 0.00 0.01 0.00 0.01 0.00 0.01 0.01 0.03 0.00 0.00 0.00
0.17 0.30 0.27 0.23 0.27 0.32 0.21 0.16 0.10 0.12 0.25 0.20 0.02 0.00 0.01 0.00 0.00 0.00 0.00 0.00 0.00 0.00 0.00 0.00 0.00 0.00 0.00 0.00 0.00 0.00 0.01 0.00 0.00 0.00 0.00 0.02 0.02 0.00 0.00 0.00 0.01 0.03 0.00 0.00 0.00
0.17 0.37 0.36 0.33 0.25 0.36 0.43 0.68 0.49 0.33 0.38 0.25 0.06 0.01 0.00 0.00 0.00 0.00 0.00 0.00 0.00 0.00 0.00 0.00 0.02 0.02 0.02 0.02 0.01 0.01 0.01 0.00 0.00 0.00 0.00 0.04 0.02 0.00 0.00 0.00 0.00 0.01 0.00 0.00 0.00
0.13 0.24 0.26 0.27 0.22 0.21 0.32 0.60 0.51 0.54 0.66 0.29 0.05 0.03 0.01 0.00 0.00 0.00 0.00 0.00 0.00 0.00 0.00 0.00 0.01 0.01 0.04 0.05 0.03 0.01 0.02 0.00 0.00 0.00 0.01 0.06 0.02 0.00 0.00 0.00 0.00 0.01 0.00 0.00 0.00
0.10 0.12 0.17 0.24 0.25 0.31 0.38 0.59 0.59 0.50 0.52 0.04 0.01 0.01 0.00 0.00 0.00 0.00 0.00 0.00 0.00 0.00 0.00 0.00 0.00 0.02 0.03 0.06 0.04 0.01 0.04 0.02 0.02 0.03 0.10 0.12 0.04 0.02 0.01 0.01 0.01 0.00 0.01 0.00 0.00
0.13 0.16 0.14 0.19 0.22 0.33 0.36 0.35 0.44 0.28 0.41 0.12 0.03 0.00 0.00 0.00 0.00 0.00 0.00 0.00 0.00 0.00 0.01 0.02 0.03 0.02 0.01 0.02 0.01 0.02 0.03 0.01 0.00 0.00 0.03 0.04 0.03 0.03 0.04 0.05 0.01 0.02 0.03 0.01 0.00
0.14 0.15 0.14 0.23 0.32 0.38 0.31 0.17 0.22 0.19 0.29 0.09 0.01 0.00 0.00 0.00 0.00 0.00 0.00 0.00 0.00 0.00 0.01 0.02 0.02 0.00 0.00 0.00 0.00 0.01 0.03 0.01 0.01 0.01 0.04 0.01 0.00 0.00 0.03 0.02 0.06 0.06 0.05 0.01 0.00
0.25 0.51 0.90 0.40 0.40 0.36 0.30 0.30 0.09 0.06 0.10 0.06 0.00 0.00 0.00 0.00 0.00 0.00 0.00 0.00 0.00 0.00 0.00 0.01 0.00 0.00 0.00 0.00 0.01 0.02 0.05 0.02 0.03 0.07 0.08 0.03 0.05 0.05 0.01 0.00 0.06 0.13 0.05 0.01 0.01
0.42 0.91 1.81 0.63 0.38 0.22 0.32 0.33 0.12 0.02 0.03 0.05 0.01 0.00 0.00 0.00 0.00 0.00 0.00 0.00 0.00 0.00 0.00 0.00 0.00 0.00 0.00 0.01 0.17 0.18 0.10 0.16 0.18 0.66 0.34 0.09 0.27 0.21 0.02 0.01 0.01 0.03 0.04 0.05 0.05
0.21 0.51 0.81 0.56 0.24 0.32 0.22 0.20 0.07 0.05 0.11 0.04 0.01 0.00 0.00 0.00 0.00 0.00 0.00 0.00 0.00 0.00 0.00 0.00 0.00 0.00 0.00 0.04 0.27 0.22 0.26 0.19 0.34 0.80 0.58 0.14 0.66 0.35 0.05 0.01 0.02 0.02 0.04 0.07 0.03
0.32 0.38 0.38 0.46 0.12 0.18 0.12 0.06 0.03 0.14 0.20 0.13 0.03 0.02 0.00 0.00 0.00 0.00 0.00 0.00 0.00 0.00 0.00 0.00 0.00 0.00 0.01 0.01 0.11 0.09 0.24 0.30 0.62 0.95 0.55 0.16 0.46 0.69 0.34 0.14 0.13 0.07 0.11 0.18 0.10
0.17 0.45 0.42 0.25 0.14 0.02 0.01 0.01 0.06 0.20 0.17 0.07 0.05 0.01 0.00 0.00 0.00 0.00 0.00 0.00 0.00 0.00 0.00 0.00 0.00 0.00 0.02 0.03 0.01 0.03 0.30 0.45 0.61 0.49 0.48 0.56 0.64 0.47 0.44 0.45 0.48 0.20 0.25 0.31 0.14
0.27 0.37 0.40 0.17 0.02 0.00 0.00 0.01 0.06 0.08 0.02 0.02 0.00 0.00 0.00 0.00 0.00 0.00 0.00 0.00 0.00 0.00 0.01 0.01 0.05 0.05 0.10 0.13 0.05 0.06 0.35 0.47 0.44 0.48 0.36 0.31 0.44 0.63 0.64 0.52 0.49 0.24 0.42 0.34 0.17
0.44 0.13 0.16 0.12 0.01 0.00 0.00 0.02 0.03 0.00 0.01 0.00 0.00 0.00 0.00 0.00 0.00 0.00 0.00 0.00 0.00 0.00 0.03 0.04 0.02 0.03 0.14 0.12 0.14 0.10 0.30 0.33 0.38 0.22 0.29 0.37 0.33 0.52 0.76 0.86 0.65 0.42 0.50 0.45 0.16
0.47 0.17 0.15 0.09 0.03 0.00 0.00 0.01 0.00 0.00 0.00 0.00 0.00 0.00 0.00 0.00 0.00 0.00 0.00 0.00 0.01 0.00 0.01 0.03 0.07 0.05 0.07 0.10 0.14 0.22 0.26 0.23 0.35 0.36 0.41 0.27 0.38 0.97 0.85 0.98 0.92 0.61 0.66 0.49 0.17
0.36 0.26 0.14 0.03 0.01 0.00 0.00 0.00 0.00 0.00 0.00 0.00 0.00 0.00 0.00 0.00 0.00 0.00 0.00 0.00 0.00 0.00 0.01 0.04 0.15 0.12 0.11 0.25 0.29 0.16 0.12 0.06 0.08 0.08 0.23 0.23 0.79 1.26 1.19 1.28 1.09 0.90 0.88 0.92 0.43
0.23 0.32 0.14 0.02 0.03 0.01 0.00 0.00 0.00 0.00 0.00 0.00 0.00 0.00 0.00 0.00 0.00 0.00 0.00 0.00 0.00 0.00 0.01 0.03 0.09 0.09 0.07 0.02 0.01 0.01 0.04 0.03 0.06 0.05 0.06 0.21 0.73 0.65 0.99 1.41 1.35 1.06 1.21 1.46 0.73
0.18 0.29 0.21 0.04 0.02 0.00 0.00 0.00 0.00 0.00 0.00 0.00 0.00 0.00 0.00 0.00 0.00 0.00 0.00 0.00 0.00 0.00 0.02 0.01 0.03 0.04 0.04 0.03 0.01 0.00 0.00 0.01 0.01 0.01 0.04 0.26 0.73 0.40 0.50 0.80 1.53 1.48 1.38 1.33 1.24
0.10 0.22 0.21 0.08 0.00 0.00 0.00 0.00 0.00 0.00 0.00 0.00 0.00 0.00 0.00 0.00 0.00 0.00 0.00 0.00 0.00 0.00 0.00 0.00 0.01 0.03 0.14 0.20 0.05 0.03 0.00 0.00 0.00 0.02 0.08 0.45 0.37 0.17 0.22 0.62 1.28 1.41 1.49 1.55 1.54
0.04 0.02 0.04 0.03 0.01 0.00 0.00 0.00 0.00 0.00 0.00 0.00 0.00 0.00 0.00 0.00 0.00 0.00 0.00 0.00 0.00 0.00 0.00 0.00 0.01 0.01 0.01 0.01 0.00 0.00 0.00 0.00 0.00 0.00 0.08 0.17 0.12 0.11 0.24 0.74 1.30 1.60 1.77 1.70 1.95
0.01 0.01 0.01 0.00 0.00 0.00 0.00 0.00 0.00 0.00 0.00 0.00 0.00 0.00 0.00 0.00 0.00 0.00 0.00 0.00 0.00 0.00 0.00 0.00 0.00 0.00 0.00 0.00 0.00 0.00 0.00 0.00 0.01 0.02 0.01 0.01 0.02 0.02 0.16 0.40 0.84 1.34 1.58 2.02 2.51
0.00 0.00 0.00 0.00 0.00 0.00 0.00 0.00 0.00 0.00 0.00 0.00 0.00 0.00 0.00 0.00 0.00 0.00 0.00 0.00 0.00 0.00 0.00 0.00 0.00 0.00 0.00 0.00 0.00 0.00 0.00 0.00 0.01 0.01 0.00 0.01 0.01 0.01 0.05 0.22 0.42 0.78 1.00 1.11 1.15

GFSSW_prec_precacc24_138.txt.gz
Total_Precipitation_Accumulation
0.11 0.13 0.14 0.08 0.07 0.09 0.12 0.14 0.20 0.37 0.18 0.02 0.01 0.01 0.00 0.00 0.00 0.00 0.00 0.00 0.00 0.00 0.00 0.00 0.00 0.00 0.00 0.00 0.00 0.00 0.00 0.00 0.00 0.00 0.00 0.00 0.00 0.00 0.00 0.00 0.00 0.00 0.00 0.00 0.00
0.19 0.19 0.18 0.18 0.16 0.20 0.25 0.26 0.17 0.16 0.24 0.05 0.01 0.01 0.00 0.00 0.00 0.00 0.00 0.00 0.00 0.01 0.01 0.01 0.00 0.00 0.00 0.00 0.00 0.00 0.00 0.00 0.00 0.00 0.00 0.00 0.00 0.00 0.00 0.00 0.00 0.00 0.00 0.00 0.00
0.21 0.24 0.22 0.20 0.18 0.13 0.15 0.19 0.25 0.27 0.17 0.05 0.02 0.00 0.00 0.00 0.00 0.00 0.00 0.00 0.02 0.02 0.01 0.01 0.00 0.00 0.00 0.00 0.00 0.00 0.00 0.00 0.00 0.00 0.00 0.00 0.00 0.00 0.00 0.00 0.00 0.00 0.00 0.00 0.00
0.20 0.21 0.19 0.16 0.16 0.14 0.10 0.11 0.15 0.27 0.40 0.11 0.02 0.00 0.00 0.00 0.00 0.00 0.01 0.01 0.01 0.00 0.01 0.00 0.00 0.00 0.00 0.00 0.00 0.00 0.00 0.00 0.00 0.00 0.00 0.00 0.00 0.00 0.00 0.00 0.00 0.00 0.00 0.00 0.00
0.12 0.12 0.14 0.13 0.12 0.11 0.14 0.16 0.16 0.18 0.56 0.30 0.08 0.00 0.00 0.00 0.00 0.00 0.04 0.01 0.00 0.00 0.00 0.00 0.00 0.00 0.00 0.00 0.00 0.00 0.00 0.00 0.00 0.00 0.00 0.00 0.00 0.00 0.00 0.00 0.00 0.00 0.00 0.00 0.00
0.08 0.10 0.10 0.12 0.13 0.08 0.09 0.07 0.11 0.20 0.51 0.42 0.18 0.03 0.00 0.00 0.00 0.00 0.00 0.00 0.00 0.00 0.00 0.00 0.00 0.00 0.00 0.00 0.00 0.00 0.00 0.00 0.00 0.00 0.00 0.00 0.00 0.00 0.00 0.00 0.00 0.00 0.00 0.00 0.00
0.06 0.17 0.21 0.20 0.28 0.36 0.22 0.16 0.09 0.14 0.47 0.57 0.08 0.02 0.02 0.01 0.00 0.00 0.00 0.00 0.00 0.00 0.00 0.00 0.00 0.00 0.00 0.00 0.00 0.00 0.00 0.00 0.00 0.00 0.00 0.01 0.01 0.00 0.00 0.00 0.00 0.00 0.00 0.00 0.00
0.05 0.18 0.24 0.17 0.21 0.36 0.44 0.68 0.50 0.45 0.75 0.44 0.09 0.01 0.01 0.01 0.00 0.00 0.00 0.00 0.00 0.00 0.00 0.00 0.00 0.00 0.01 0.01 0.00 0.01 0.01 0.00 0.00 0.00 0.00 0.02 0.02 0.00 0.00 0.00 0.00 0.00 0.00 0.00 0.00
0.09 0.10 0.14 0.14 0.19 0.21 0.36 0.67 0.64 0.78 0.91 0.34 0.07 0.03 0.02 0.00 0.00 0.00 0.00 0.00 0.00 0.00 0.00 0.00 0.00 0.00 0.01 0.04 0.02 0.01 0.01 0.00 0.00 0.00 0.00 0.04 0.02 0.00 0.00 0.00 0.00 0.00 0.00 0.00 0.00
0.09 0.06 0.08 0.13 0.22 0.33 0.44 0.71 0.88 0.74 0.67 0.05 0.02 0.02 0.01 0.00 0.00 0.00 0.00 0.00 0.00 0.00 0.00 0.00 0.00 0.01 0.02 0.05 0.03 0.01 0.02 0.01 0.01 0.01 0.06 0.09 0.03 0.00 0.00 0.00 0.00 0.00 0.00 0.00 0.00
0.09 0.08 0.09 0.12 0.24 0.36 0.45 0.48 0.56 0.41 0.47 0.13 0.03 0.00 0.00 0.00 0.00 0.00 0.00 0.00 0.00 0.00 0.01 0.02 0.03 0.02 0.01 0.01 0.01 0.01 0.02 0.01 0.00 0.00 0.01 0.02 0.03 0.01 0.02 0.04 0.01 0.01 0.02 0.00 0.00
0.10 0.07 0.09 0.23 0.36 0.39 0.33 0.31 0.35 0.25 0.39 0.11 0.01 0.00 0.00 0.00 0.00 0.00 0.00 0.00 0.00 0.00 0.01 0.02 0.01 0.00 0.00 0.00 0.00 0.00 0.01 0.00 0.00 0.00 0.02 0.00 0.00 0.00 0.02 0.02 0.06 0.05 0.03 0.00 0.00
0.18 0.40 0.79 0.40 0.45 0.38 0.31 0.41 0.12 0.07 0.18 0.13 0.00 0.00 0.00 0.00 0.00 0.00 0.00 0.00 0.00 0.00 0.00 0.01 0.00 0.00 0.00 0.00 0.00 0.01 0.02 0.00 0.01 0.03 0.04 0.02 0.02 0.00 0.00 0.00 0.05 0.11 0.04 0.01 0.01
0.29 0.72 1.74 0.62 0.38 0.24 0.36 0.34 0.13 0.02 0.04 0.08 0.01 0.00 0.00 0.00 0.00 0.00 0.00 0.00 0.00 0.00 0.00 0.00 0.00 0.00 0.00 0.00 0.08 0.10 0.05 0.12 0.11 0.29 0.16 0.06 0.16 0.02 0.00 0.00 0.00 0.03 0.03 0.03 0.05
0.14 0.50 0.82 0.56 0.24 0.34 0.23 0.20 0.07 0.05 0.11 0.06 0.01 0.00 0.00 0.00 0.00 0.00 0.00 0.00 0.00 0.00 0.00 0.00 0.00 0.00 0.00 0.00 0.15 0.11 0.07 0.11 0.22 0.47 0.33 0.07 0.59 0.15 0.02 0.01 0.00 0.01 0.01 0.02 0.01
0.11 0.25 0.38 0.46 0.12 0.18 0.12 0.06 0.03 0.14 0.21 0.14 0.03 0.02 0.00 0.00 0.00 0.00 0.00 0.00 0.00 0.00 0.00 0.00 0.00 0.00 0.00 0.00 0.04 0.05 0.10 0.22 0.46 0.68 0.34 0.11 0.44 0.59 0.32 0.13 0.09 0.06 0.05 0.07 0.06
0.10 0.39 0.42 0.25 0.14 0.02 0.01 0.01 0.06 0.21 0.18 0.07 0.05 0.01 0.00 0.00 0.00 0.00 0.00 0.00 0.00 0.00 0.00 0.00 0.00 0.00 0.01 0.02 0.00 0.03 0.27 0.43 0.58 0.40 0.27 0.52 0.64 0.47 0.44 0.44 0.46 0.19 0.10 0.09 0.07
0.11 0.23 0.39 0.17 0.02 0.00 0.00 0.01 0.07 0.10 0.04 0.03 0.01 0.00 0.00 0.00 0.00 0.00 0.00 0.00 0.00 0.00 0.01 0.01 0.05 0.03 0.03 0.05 0.03 0.06 0.35 0.47 0.42 0.41 0.27 0.30 0.43 0.63 0.64 0.52 0.49 0.22 0.17 0.05 0.05
0.25 0.10 0.16 0.12 0.01 0.00 0.00 0.02 0.04 0.01 0.01 0.01 0.00 0.00 0.00 0.00 0.00 0.00 0.00 0.00 0.00 0.00 0.03 0.04 0.02 0.00 0.01 0.03 0.14 0.10 0.26 0.31 0.39 0.22 0.28 0.34 0.32 0.52 0.76 0.86 0.65 0.39 0.22 0.13 0.04
0.31 0.16 0.14 0.08 0.02 0.00 0.00 0.01 0.00 0.00 0.00 0.00 0.00 0.00 0.00 0.00 0.00 0.00 0.00 0.00 0.01 0.00 0.01 0.03 0.08 0.05 0.05 0.10 0.15 0.22 0.20 0.24 0.38 0.37 0.39 0.25 0.37 0.96 0.87 1.01 0.93 0.58 0.40 0.19 0.08
0.23 0.23 0.12 0.01 0.00 0.00 0.00 0.00 0.00 0.00 0.00 0.00 0.00 0.00 0.00 0.00 0.00 0.00 0.00 0.00 0.00 0.00 0.01 0.05 0.15 0.12 0.11 0.24 0.22 0.12 0.13 0.09 0.11 0.08 0.24 0.22 0.71 1.28 1.28 1.43 1.23 0.95 0.73 0.61 0.38
0.17 0.28 0.10 0.00 0.01 0.01 0.00 0.00 0.00 0.00 0.00 0.00 0.00 0.00 0.00 0.00 0.00 0.00 0.00 0.00 0.00 0.00 0.01 0.03 0.09 0.09 0.07 0.02 0.00 0.01 0.04 0.05 0.09 0.07 0.09 0.22 0.67 0.69 1.09 1.59 1.52 1.15 1.18 1.19 0.57
0.10 0.21 0.12 0.01 0.02 0.00 0.00 0.00 0.00 0.00 0.00 0.00 0.00 0.00 0.00 0.00 0.00 0.00 0.00 0.00 0.00 0.00 0.01 0.01 0.03 0.04 0.04 0.03 0.01 0.00 0.00 0.01 0.02 0.05 0.07 0.29 0.74 0.48 0.61 0.91 1.66 1.52 1.42 1.29 1.13
0.06 0.15 0.13 0.04 0.00 0.00 0.00 0.00 0.00 0.00 0.00 0.00 0.00 0.00 0.00 0.00 0.00 0.00 0.00 0.00 0.00 0.00 0.00 0.00 0.01 0.03 0.13 0.20 0.05 0.03 0.00 0.00 0.00 0.04 0.09 0.48 0.43 0.28 0.29 0.66 1.39 1.55 1.56 1.56 1.53
0.03 0.01 0.01 0.01 0.00 0.00 0.00 0.00 0.00 0.00 0.00 0.00 0.00 0.00 0.00 0.00 0.00 0.00 0.00 0.00 0.00 0.00 0.00 0.00 0.01 0.00 0.01 0.01 0.00 0.00 0.00 0.00 0.00 0.00 0.08 0.17 0.13 0.15 0.25 0.78 1.45 1.78 1.84 1.73 1.97
0.01 0.00 0.00 0.00 0.00 0.00 0.00 0.00 0.00 0.00 0.00 0.00 0.00 0.00 0.00 0.00 0.00 0.00 0.00 0.00 0.00 0.00 0.00 0.00 0.00 0.00 0.00 0.00 0.00 0.00 0.00 0.00 0.01 0.02 0.01 0.01 0.02 0.02 0.16 0.42 0.86 1.38 1.63 2.07 2.59
0.00 0.00 0.00 0.00 0.00 0.00 0.00 0.00 0.00 0.00 0.00 0.00 0.00 0.00 0.00 0.00 0.00 0.00 0.00 0.00 0.00 0.00 0.00 0.00 0.00 0.00 0.00 0.00 0.00 0.00 0.00 0.00 0.01 0.01 0.00 0.01 0.01 0.01 0.05 0.22 0.42 0.78 1.00 1.12 1.17

GFSSW_prec_precacc24_144.txt.gz
Total_Precipitation_Accumulation
0.13 0.16 0.19 0.14 0.07 0.08 0.13 0.14 0.25 0.60 0.51 0.06 0.04 0.02 0.00 0.00 0.00 0.00 0.00 0.00 0.00 0.00 0.00 0.00 0.00 0.00 0.00 0.00 0.00 0.00 0.00 0.00 0.00 0.00 0.00 0.00 0.00 0.00 0.00 0.00 0.00 0.00 0.00 0.00 0.00
0.16 0.17 0.19 0.24 0.21 0.20 0.26 0.27 0.18 0.26 0.72 0.19 0.06 0.01 0.00 0.00 0.00 0.00 0.00 0.00 0.00 0.00 0.00 0.00 0.00 0.00 0.00 0.00 0.00 0.00 0.00 0.00 0.00 0.00 0.00 0.00 0.00 0.00 0.00 0.00 0.00 0.00 0.00 0.00 0.00
0.21 0.19 0.16 0.18 0.34 0.18 0.13 0.19 0.24 0.34 0.60 0.44 0.19 0.00 0.00 0.00 0.00 0.00 0.00 0.00 0.00 0.00 0.00 0.00 0.00 0.00 0.00 0.00 0.00 0.00 0.00 0.00 0.00 0.00 0.00 0.00 0.00 0.00 0.00 0.00 0.00 0.00 0.00 0.00 0.00
0.19 0.12 0.08 0.06 0.21 0.21 0.10 0.11 0.15 0.30 0.64 0.48 0.43 0.04 0.00 0.00 0.00 0.00 0.01 0.02 0.00 0.00 0.00 0.00 0.00 0.00 0.00 0.00 0.00 0.00 0.00 0.00 0.00 0.00 0.00 0.00 0.00 0.00 0.00 0.00 0.00 0.00 0.00 0.00 0.00
0.11 0.05 0.04 0.04 0.06 0.10 0.14 0.15 0.16 0.18 0.74 0.67 0.52 0.06 0.00 0.00 0.00 0.01 0.06 0.01 0.00 0.00 0.00 0.00 0.00 0.00 0.00 0.00 0.00 0.00 0.00 0.00 0.00 0.00 0.00 0.00 0.00 0.00 0.00 0.00 0.00 0.00 0.00 0.00 0.00
0.08 0.07 0.06 0.05 0.06 0.06 0.08 0.07 0.11 0.18 0.86 1.10 0.50 0.07 0.00 0.00 0.00 0.01 0.00 0.00 0.00 0.00 0.00 0.00 0.00 0.00 0.00 0.00 0.00 0.00 0.00 0.00 0.00 0.00 0.00 0.00 0.00 0.00 0.00 0.00 0.00 0.00 0.00 0.00 0.00
0.07 0.11 0.15 0.11 0.17 0.31 0.23 0.17 0.09 0.16 1.50 1.18 0.27 0.08 0.07 0.02 0.00 0.00 0.00 0.00 0.00 0.00 0.00 0.00 0.00 0.00 0.00 0.00 0.00 0.00 0.00 0.00 0.00 0.00 0.00 0.00 0.00 0.00 0.00 0.00 0.00 0.00 0.00 0.00 0.00
0.07 0.12 0.11 0.05 0.06 0.22 0.41 0.72 0.64 0.80 1.67 0.87 0.21 0.09 0.19 0.05 0.00 0.00 0.00 0.00 0.00 0.00 0.00 0.00 0.00 0.00 0.00 0.00 0.00 0.00 0.00 0.00 0.00 0.00 0.00 0.00 0.00 0.00 0.00 0.00 0.00 0.00 0.00 0.00 0.00
0.10 0.09 0.05 0.05 0.09 0.24 0.53 0.98 0.97 1.44 1.60 0.72 0.21 0.15 0.18 0.01 0.00 0.00 0.00 0.00 0.00 0.00 0.00 0.00 0.00 0.00 0.00 0.00 0.00 0.00 0.00 0.00 0.00 0.00 0.00 0.00 0.00 0.00 0.00 0.00 0.00 0.00 0.00 0.00 0.00
0.09 0.05 0.06 0.10 0.18 0.35 0.53 0.91 1.16 1.13 1.04 0.25 0.09 0.11 0.12 0.01 0.00 0.00 0.00 0.00 0.00 0.00 0.00 0.00 0.00 0.00 0.00 0.00 0.00 0.00 0.00 0.00 0.00 0.00 0.00 0.00 0.00 0.00 0.00 0.00 0.00 0.00 0.00 0.00 0.00
0.09 0.10 0.09 0.11 0.19 0.41 0.56 0.69 0.83 0.73 0.68 0.24 0.08 0.03 0.01 0.00 0.00 0.00 0.00 0.00 0.00 0.00 0.00 0.00 0.00 0.00 0.00 0.00 0.00 0.00 0.00 0.00 0.00 0.00 0.00 0.00 0.00 0.00 0.00 0.00 0.00 0.00 0.00 0.00 0.00
0.10 0.09 0.08 0.13 0.20 0.31 0.49 0.54 0.48 0.34 0.48 0.16 0.03 0.00 0.00 0.00 0.00 0.00 0.00 0.00 0.00 0.00 0.00 0.00 0.00 0.00 0.00 0.00 0.00 0.00 0.00 0.00 0.00 0.00 0.00 0.00 0.00 0.00 0.00 0.00 0.00 0.00 0.00 0.00 0.00
0.10 0.11 0.69 0.23 0.25 0.21 0.33 0.61 0.16 0.07 0.19 0.15 0.01 0.00 0.00 0.00 0.00 0.00 0.00 0.00 0.00 0.00 0.00 0.00 0.00 0.00 0.00 0.00 0.00 0.00 0.00 0.00 0.00 0.00 0.00 0.00 0.00 0.00 0.00 0.00 0.00 0.00 0.01 0.00 0.01
0.13 0.18 1.39 0.45 0.18 0.14 0.33 0.39 0.13 0.02 0.05 0.12 0.01 0.00 0.00 0.00 0.00 0.00 0.00 0.00 0.00 0.00 0.00 0.00 0.00 0.00 0.00 0.00 0.00 0.00 0.00 0.00 0.01 0.10 0.04 0.01 0.05 0.00 0.00 0.00 0.00 0.00 0.01 0.02 0.03
0.11 0.20 0.36 0.33 0.16 0.29 0.22 0.20 0.07 0.05 0.12 0.08 0.02 0.00 0.00 0.00 0.00 0.00 0.00 0.00 0.00 0.00 0.00 0.00 0.00 0.00 0.00 0.00 0.00 0.00 0.00 0.01 0.06 0.16 0.17 0.01 0.10 0.00 0.00 0.00 0.00 0.00 0.00 0.01 0.01
0.08 0.07 0.12 0.32 0.10 0.18 0.12 0.06 0.03 0.13 0.21 0.14 0.04 0.02 0.01 0.00 0.00 0.00 0.00 0.00 0.00 0.00 0.00 0.00 0.00 0.00 0.00 0.00 0.00 0.00 0.01 0.01 0.08 0.17 0.12 0.01 0.09 0.04 0.03 0.02 0.02 0.01 0.01 0.02 0.04
0.07 0.05 0.12 0.21 0.13 0.02 0.01 0.01 0.06 0.20 0.19 0.07 0.06 0.01 0.00 0.00 0.00 0.00 0.00 0.00 0.00 0.00 0.00 0.00 0.00 0.00 0.00 0.00 0.00 0.02 0.15 0.08 0.07 0.05 0.04 0.12 0.24 0.10 0.18 0.12 0.07 0.07 0.08 0.08 0.06
0.07 0.10 0.11 0.12 0.02 0.00 0.00 0.01 0.06 0.10 0.05 0.03 0.01 0.00 0.00 0.00 0.00 0.00 0.00 0.00 0.00 0.00 0.00 0.00 0.00 0.00 0.00 0.01 0.02 0.05 0.20 0.17 0.10 0.14 0.11 0.19 0.25 0.24 0.34 0.33 0.34 0.18 0.15 0.03 0.04
0.01 0.02 0.06 0.09 0.01 0.00 0.00 0.02 0.04 0.02 0.02 0.01 0.00 0.00 0.00 0.00 0.00 0.00 0.00 0.00 0.00 0.00 0.02 0.02 0.01 0.00 0.00 0.03 0.15 0.11 0.21 0.17 0.20 0.12 0.17 0.10 0.08 0.19 0.34 0.39 0.45 0.25 0.14 0.08 0.02
0.01 0.02 0.10 0.05 0.01 0.00 0.00 0.01 0.00 0.00 0.00 0.00 0.00 0.00 0.00 0.00 0.00 0.00 0.00 0.00 0.00 0.00 0.01 0.02 0.05 0.04 0.04 0.10 0.14 0.20 0.20 0.22 0.32 0.23 0.16 0.03 0.17 0.51 0.54 0.75 0.67 0.42 0.35 0.19 0.08
0.00 0.05 0.06 0.01 0.00 0.00 0.00 0.00 0.00 0.00 0.00 0.00 0.00 0.00 0.00 0.00 0.00 0.00 0.00 0.00 0.00 0.00 0.00 0.05 0.12 0.10 0.07 0.12 0.12 0.11 0.14 0.11 0.12 0.08 0.18 0.15 0.36 0.81 1.10 1.36 1.24 0.96 0.70 0.53 0.39
0.02 0.07 0.05 0.00 0.00 0.00 0.00 0.00 0.00 0.00 0.00 0.00 0.00 0.00 0.00 0.00 0.00 0.00 0.00 0.00 0.00 0.00 0.01 0.03 0.08 0.06 0.05 0.01 0.00 0.00 0.03 0.06 0.13 0.12 0.13 0.26 0.39 0.58 1.07 1.60 1.74 1.30 1.13 0.96 0.52
0.01 0.05 0.01 0.00 0.00 0.00 0.00 0.00 0.00 0.00 0.00 0.00 0.00 0.00 0.00 0.00 0.00 0.00 0.00 0.00 0.00 0.00 0.00 0.01 0.02 0.01 0.01 0.01 0.00 0.00 0.00 0.01 0.02 0.10 0.12 0.33 0.54 0.53 0.78 1.16 2.03 1.73 1.30 0.88 0.73
0.00 0.02 0.01 0.00 0.00 0.00 0.00 0.00 0.00 0.00 0.00 0.00 0.00 0.00 0.00 0.00 0.00 0.00 0.00 0.00 0.00 0.00 0.00 0.00 0.01 0.02 0.10 0.14 0.02 0.02 0.00 0.00 0.00 0.06 0.11 0.46 0.45 0.44 0.51 0.91 1.77 1.79 1.50 1.21 1.17
0.00 0.00 0.00 0.00 0.00 0.00 0.00 0.00 0.00 0.00 0.00 0.00 0.00 0.00 0.00 0.00 0.00 0.00 0.00 0.00 0.00 0.00 0.00 0.00 0.01 0.00 0.01 0.01 0.00 0.00 0.00 0.00 0.00 0.00 0.07 0.15 0.16 0.20 0.34 0.89 1.58 1.87 1.85 1.66 1.83
0.00 0.00 0.00 0.00 0.00 0.00 0.00 0.00 0.00 0.00 0.00 0.00 0.00 0.00 0.00 0.00 0.00 0.00 0.00 0.00 0.00 0.00 0.00 0.00 0.00 0.00 0.00 0.00 0.00 0.00 0.00 0.00 0.00 0.00 0.00 0.00 0.01 0.02 0.16 0.43 0.88 1.39 1.63 2.07 2.59
0.00 0.00 0.00 0.00 0.00 0.00 0.00 0.00 0.00 0.00 0.00 0.00 0.00 0.00 0.00 0.00 0.00 0.00 0.00 0.00 0.00 0.00 0.00 0.00 0.00 0.00 0.00 0.00 0.00 0.00 0.00 0.00 0.00 0.00 0.00 0.00 0.00 0.01 0.05 0.22 0.42 0.78 1.00 1.12 1.17

GFSSW_prec_precacc24_147.txt.gz
Total_Precipitation_Accumulation
0.18 0.16 0.19 0.19 0.08 0.09 0.19 0.24 0.28 0.62 0.62 0.16 0.05 0.02 0.00 0.00 0.00 0.00 0.00 0.00 0.00 0.00 0.00 0.00 0.00 0.00 0.00 0.00 0.00 0.00 0.00 0.00 0.00 0.00 0.00 0.00 0.00 0.00 0.00 0.00 0.00 0.00 0.00 0.00 0.00
0.16 0.19 0.20 0.20 0.17 0.19 0.26 0.29 0.21 0.26 0.75 0.35 0.09 0.01 0.00 0.00 0.00 0.00 0.00 0.00 0.00 0.00 0.00 0.00 0.00 0.00 0.00 0.00 0.00 0.00 0.00 0.00 0.00 0.00 0.00 0.00 0.00 0.00 0.00 0.00 0.00 0.00 0.00 0.00 0.00
0.20 0.19 0.16 0.16 0.32 0.14 0.13 0.18 0.24 0.34 0.67 0.72 0.28 0.01 0.00 0.00 0.00 0.00 0.00 0.00 0.00 0.00 0.00 0.00 0.00 0.00 0.00 0.00 0.00 0.00 0.00 0.00 0.00 0.00 0.00 0.00 0.00 0.00 0.00 0.00 0.00 0.00 0.00 0.00 0.00
0.19 0.12 0.07 0.05 0.18 0.14 0.05 0.09 0.15 0.30 0.77 1.04 0.68 0.06 0.00 0.00 0.00 0.00 0.01 0.02 0.00 0.00 0.00 0.00 0.00 0.00 0.00 0.00 0.00 0.00 0.00 0.00 0.00 0.00 0.00 0.00 0.00 0.00 0.00 0.00 0.00 0.00 0.00 0.00 0.00
0.10 0.05 0.03 0.04 0.05 0.06 0.08 0.13 0.14 0.18 0.87 1.28 0.72 0.07 0.00 0.00 0.00 0.02 0.06 0.01 0.00 0.00 0.00 0.00 0.00 0.00 0.00 0.00 0.00 0.00 0.00 0.00 0.00 0.00 0.00 0.00 0.00 0.00 0.00 0.00 0.00 0.00 0.00 0.00 0.00
0.08 0.07 0.06 0.05 0.05 0.04 0.06 0.04 0.09 0.18 1.05 1.79 0.64 0.07 0.00 0.00 0.00 0.01 0.00 0.00 0.00 0.00 0.00 0.00 0.00 0.00 0.00 0.00 0.00 0.00 0.00 0.00 0.00 0.00 0.00 0.00 0.00 0.00 0.00 0.00 0.00 0.00 0.00 0.00 0.00
0.07 0.11 0.15 0.11 0.08 0.16 0.19 0.16 0.10 0.18 1.84 1.85 0.37 0.09 0.07 0.02 0.00 0.00 0.00 0.00 0.00 0.00 0.00 0.00 0.00 0.00 0.00 0.00 0.00 0.00 0.00 0.00 0.00 0.00 0.00 0.00 0.00 0.00 0.00 0.00 0.00 0.00 0.00 0.00 0.00
0.05 0.11 0.11 0.05 0.03 0.09 0.28 0.67 0.66 0.78 1.86 1.20 0.34 0.11 0.20 0.05 0.00 0.00 0.00 0.00 0.00 0.00 0.00 0.00 0.00 0.00 0.00 0.00 0.00 0.00 0.00 0.00 0.00 0.00 0.00 0.00 0.00 0.00 0.00 0.00 0.00 0.00 0.00 0.00 0.00
0.09 0.08 0.06 0.06 0.06 0.19 0.73 1.15 0.94 1.40 1.64 0.87 0.27 0.17 0.22 0.01 0.00 0.00 0.00 0.00 0.00 0.00 0.00 0.00 0.00 0.00 0.00 0.00 0.00 0.00 0.00 0.00 0.00 0.00 0.00 0.00 0.00 0.00 0.00 0.00 0.00 0.00 0.00 0.00 0.00
0.08 0.05 0.07 0.13 0.16 0.32 0.63 0.88 1.08 1.09 1.07 0.43 0.20 0.17 0.17 0.01 0.00 0.00 0.00 0.00 0.00 0.00 0.00 0.00 0.00 0.00 0.00 0.00 0.00 0.00 0.00 0.00 0.00 0.00 0.00 0.00 0.00 0.00 0.00 0.00 0.00 0.00 0.00 0.00 0.00
0.11 0.10 0.11 0.13 0.18 0.36 0.55 0.68 0.82 0.87 0.82 0.40 0.18 0.05 0.02 0.00 0.00 0.00 0.00 0.00 0.00 0.00 0.00 0.00 0.00 0.00 0.00 0.00 0.00 0.00 0.00 0.00 0.00 0.00 0.00 0.00 0.00 0.00 0.00 0.00 0.00 0.00 0.00 0.00 0.00
0.08 0.10 0.09 0.13 0.19 0.32 0.53 0.54 0.47 0.41 0.60 0.23 0.04 0.00 0.00 0.00 0.00 0.00 0.00 0.00 0.00 0.00 0.00 0.00 0.00 0.00 0.00 0.00 0.00 0.00 0.00 0.00 0.00 0.00 0.00 0.00 0.00 0.00 0.00 0.00 0.00 0.00 0.00 0.00 0.00
0.05 0.05 0.17 0.19 0.22 0.17 0.32 0.57 0.15 0.07 0.20 0.16 0.01 0.00 0.00 0.00 0.00 0.00 0.00 0.00 0.00 0.00 0.00 0.00 0.00 0.00 0.00 0.00 0.00 0.00 0.00 0.00 0.00 0.00 0.00 0.00 0.00 0.00 0.00 0.00 0.00 0.00 0.00 0.00 0.00
0.07 0.10 0.83 0.39 0.13 0.07 0.23 0.25 0.05 0.01 0.05 0.12 0.01 0.00 0.00 0.00 0.00 0.00 0.00 0.00 0.00 0.00 0.00 0.00 0.00 0.00 0.00 0.00 0.00 0.00 0.00 0.00 0.00 0.06 0.02 0.01 0.03 0.00 0.00 0.00 0.00 0.00 0.00 0.00 0.00
0.07 0.16 0.23 0.15 0.09 0.17 0.16 0.17 0.05 0.05 0.10 0.08 0.02 0.00 0.00 0.00 0.00 0.00 0.00 0.00 0.00 0.00 0.00 0.00 0.00 0.00 0.00 0.00 0.00 0.00 0.00 0.00 0.03 0.11 0.12 0.00 0.05 0.00 0.00 0.00 0.00 0.00 0.00 0.00 0.00
0.05 0.05 0.08 0.13 0.05 0.14 0.12 0.06 0.03 0.13 0.19 0.14 0.04 0.02 0.01 0.00 0.00 0.00 0.00 0.00 0.00 0.00 0.00 0.00 0.00 0.00 0.00 0.00 0.00 0.00 0.01 0.01 0.04 0.11 0.08 0.00 0.03 0.01 0.00 0.01 0.01 0.00 0.00 0.00 0.00
0.04 0.03 0.08 0.14 0.10 0.02 0.01 0.01 0.06 0.18 0.17 0.07 0.06 0.01 0.00 0.00 0.00 0.00 0.00 0.00 0.00 0.00 0.00 0.00 0.00 0.00 0.00 0.00 0.00 0.02 0.07 0.03 0.03 0.03 0.01 0.02 0.14 0.02 0.03 0.04 0.03 0.03 0.01 0.00 0.00
0.05 0.08 0.05 0.07 0.01 0.00 0.00 0.01 0.05 0.09 0.05 0.03 0.01 0.00 0.00 0.00 0.00 0.00 0.00 0.00 0.00 0.00 0.00 0.00 0.00 0.00 0.00 0.01 0.02 0.05 0.08 0.05 0.03 0.06 0.04 0.03 0.08 0.07 0.16 0.13 0.07 0.04 0.03 0.01 0.02
0.00 0.02 0.04 0.04 0.00 0.00 0.00 0.01 0.02 0.02 0.02 0.01 0.00 0.00 0.00 0.00 0.00 0.00 0.00 0.00 0.00 0.00 0.02 0.01 0.01 0.00 0.00 0.03 0.14 0.10 0.11 0.08 0.15 0.08 0.11 0.01 0.01 0.06 0.12 0.11 0.16 0.15 0.14 0.10 0.03
0.00 0.00 0.07 0.01 0.00 0.00 0.00 0.00 0.00 0.00 0.00 0.00 0.00 0.00 0.00 0.00 0.00 0.00 0.00 0.00 0.00 0.00 0.01 0.02 0.04 0.04 0.04 0.10 0.14 0.16 0.11 0.16 0.25 0.15 0.08 0.01 0.05 0.21 0.23 0.32 0.27 0.30 0.35 0.21 0.13
0.00 0.01 0.02 0.00 0.00 0.00 0.00 0.00 0.00 0.00 0.00 0.00 0.00 0.00 0.00 0.00 0.00 0.00 0.00 0.00 0.00 0.00 0.00 0.04 0.10 0.09 0.06 0.11 0.12 0.08 0.09 0.09 0.11 0.06 0.15 0.11 0.12 0.34 0.62 0.94 0.98 0.89 0.73 0.52 0.45
0.00 0.01 0.00 0.00 0.00 0.00 0.00 0.00 0.00 0.00 0.00 0.00 0.00 0.00 0.00 0.00 0.00 0.00 0.00 0.00 0.00 0.00 0.00 0.03 0.08 0.05 0.04 0.01 0.00 0.00 0.03 0.06 0.12 0.11 0.12 0.22 0.17 0.31 0.75 1.25 1.46 1.07 0.80 0.70 0.50
0.00 0.00 0.00 0.00 0.00 0.00 0.00 0.00 0.00 0.00 0.00 0.00 0.00 0.00 0.00 0.00 0.00 0.00 0.00 0.00 0.00 0.00 0.00 0.01 0.02 0.01 0.02 0.01 0.00 0.00 0.00 0.01 0.02 0.10 0.12 0.27 0.31 0.39 0.64 1.00 1.76 1.34 0.97 0.69 0.34
0.00 0.00 0.00 0.00 0.00 0.00 0.00 0.00 0.00 0.00 0.00 0.00 0.00 0.00 0.00 0.00 0.00 0.00 0.00 0.00 0.00 0.00 0.00 0.00 0.01 0.01 0.03 0.05 0.00 0.00 0.00 0.00 0.00 0.06 0.09 0.37 0.40 0.43 0.49 0.84 1.61 1.53 1.12 0.63 0.56
0.00 0.00 0.00 0.00 0.00 0.00 0.00 0.00 0.00 0.00 0.00 0.00 0.00 0.00 0.00 0.00 0.00 0.00 0.00 0.00 0.00 0.00 0.00 0.00 0.01 0.00 0.01 0.00 0.00 0.00 0.00 0.00 0.00 0.00 0.05 0.13 0.15 0.20 0.34 0.88 1.52 1.72 1.48 1.16 1.48
0.00 0.00 0.00 0.00 0.00 0.00 0.00 0.00 0.00 0.00 0.00 0.00 0.00 0.00 0.00 0.00 0.00 0.00 0.00 0.00 0.00 0.00 0.00 0.00 0.00 0.00 0.00 0.00 0.00 0.00 0.00 0.00 0.00 0.00 0.00 0.00 0.01 0.02 0.16 0.43 0.88 1.35 1.53 1.83 2.25
0.00 0.00 0.00 0.00 0.00 0.00 0.00 0.00 0.00 0.00 0.00 0.00 0.00 0.00 0.00 0.00 0.00 0.00 0.00 0.00 0.00 0.00 0.00 0.00 0.00 0.00 0.00 0.00 0.00 0.00 0.00 0.00 0.00 0.00 0.00 0.00 0.00 0.01 0.05 0.22 0.42 0.77 0.99 1.09 1.09